<?xml version="1.0" encoding="UTF-8" standalone="no" ?>
<gpx xmlns="http://www.topografix.com/GPX/1/1" xmlns:xsi="http://www.w3.org/2001/XMLSchema-instance" xsi:schemaLocation="http://www.topografix.com/GPX/1/1 http://www.topografix.com/GPX/1/1/gpx.xsd" version="1.1" creator="VisuGPX - https://www.visugpx.com">
  <metadata>
    <name>col de l'escuzier</name>
    <desc><![CDATA[sortie avec Michel  et benoit  le dimanche 17 février 2019]]></desc>
  </metadata>
  <trk>
    <name><![CDATA[Saint-Dalmas-le-Selvage Ascension]]></name>
    <trkseg>
      <trkpt lat="44.28253" lon="6.86142">
        <ele>1481.1999511719</ele>
        <time>2019-02-17T07:47:02.000Z</time>
      </trkpt>
      <trkpt lat="44.28256" lon="6.86142">
        <ele>1481.5999755859</ele>
        <time>2019-02-17T07:47:05.000Z</time>
      </trkpt>
      <trkpt lat="44.28261" lon="6.8614">
        <ele>1481.5999755859</ele>
        <time>2019-02-17T07:47:09.000Z</time>
      </trkpt>
      <trkpt lat="44.28264" lon="6.86144">
        <ele>1481.8000488281</ele>
        <time>2019-02-17T07:47:14.000Z</time>
      </trkpt>
      <trkpt lat="44.28267" lon="6.86147">
        <ele>1482.1999511719</ele>
        <time>2019-02-17T07:47:18.000Z</time>
      </trkpt>
      <trkpt lat="44.28268" lon="6.86149">
        <ele>1482.4000244141</ele>
        <time>2019-02-17T07:47:20.000Z</time>
      </trkpt>
      <trkpt lat="44.28269" lon="6.86149">
        <ele>1482.5999755859</ele>
        <time>2019-02-17T07:47:27.000Z</time>
      </trkpt>
      <trkpt lat="44.28269" lon="6.86152">
        <ele>1482.5999755859</ele>
        <time>2019-02-17T07:47:30.000Z</time>
      </trkpt>
      <trkpt lat="44.2827" lon="6.86155">
        <ele>1482.8000488281</ele>
        <time>2019-02-17T07:47:32.000Z</time>
      </trkpt>
      <trkpt lat="44.28269" lon="6.86159">
        <ele>1482.8000488281</ele>
        <time>2019-02-17T07:47:34.000Z</time>
      </trkpt>
      <trkpt lat="44.28277" lon="6.86182">
        <ele>1483.1999511719</ele>
        <time>2019-02-17T07:48:10.000Z</time>
      </trkpt>
      <trkpt lat="44.28278" lon="6.86189">
        <ele>1483.4000244141</ele>
        <time>2019-02-17T07:48:16.000Z</time>
      </trkpt>
      <trkpt lat="44.28285" lon="6.86196">
        <ele>1484.1999511719</ele>
        <time>2019-02-17T07:48:31.000Z</time>
      </trkpt>
      <trkpt lat="44.28289" lon="6.86195">
        <ele>1484.4000244141</ele>
        <time>2019-02-17T07:48:35.000Z</time>
      </trkpt>
      <trkpt lat="44.28291" lon="6.862">
        <ele>1484.8000488281</ele>
        <time>2019-02-17T07:48:39.000Z</time>
      </trkpt>
      <trkpt lat="44.28293" lon="6.86205">
        <ele>1485</ele>
        <time>2019-02-17T07:48:50.000Z</time>
      </trkpt>
      <trkpt lat="44.28295" lon="6.86209">
        <ele>1485.4000244141</ele>
        <time>2019-02-17T07:48:54.000Z</time>
      </trkpt>
      <trkpt lat="44.283" lon="6.86214">
        <ele>1486.4000244141</ele>
        <time>2019-02-17T07:49:23.000Z</time>
      </trkpt>
      <trkpt lat="44.28296" lon="6.86219">
        <ele>1486.4000244141</ele>
        <time>2019-02-17T07:50:40.000Z</time>
      </trkpt>
      <trkpt lat="44.28312" lon="6.86222">
        <ele>1487.5999755859</ele>
        <time>2019-02-17T07:52:34.000Z</time>
      </trkpt>
      <trkpt lat="44.28313" lon="6.86224">
        <ele>1487.8000488281</ele>
        <time>2019-02-17T07:52:37.000Z</time>
      </trkpt>
      <trkpt lat="44.28315" lon="6.86228">
        <ele>1488</ele>
        <time>2019-02-17T07:52:40.000Z</time>
      </trkpt>
      <trkpt lat="44.28318" lon="6.86232">
        <ele>1488.5999755859</ele>
        <time>2019-02-17T07:52:45.000Z</time>
      </trkpt>
      <trkpt lat="44.28318" lon="6.86233">
        <ele>1488.5999755859</ele>
        <time>2019-02-17T07:52:46.000Z</time>
      </trkpt>
      <trkpt lat="44.28322" lon="6.86237">
        <ele>1489</ele>
        <time>2019-02-17T07:52:51.000Z</time>
      </trkpt>
      <trkpt lat="44.28325" lon="6.86241">
        <ele>1489.5999755859</ele>
        <time>2019-02-17T07:52:55.000Z</time>
      </trkpt>
      <trkpt lat="44.28327" lon="6.86242">
        <ele>1490</ele>
        <time>2019-02-17T07:52:57.000Z</time>
      </trkpt>
      <trkpt lat="44.28334" lon="6.86244">
        <ele>1490.1999511719</ele>
        <time>2019-02-17T07:53:03.000Z</time>
      </trkpt>
      <trkpt lat="44.28336" lon="6.86246">
        <ele>1490.4000244141</ele>
        <time>2019-02-17T07:53:06.000Z</time>
      </trkpt>
      <trkpt lat="44.28338" lon="6.86247">
        <ele>1490.5999755859</ele>
        <time>2019-02-17T07:53:08.000Z</time>
      </trkpt>
      <trkpt lat="44.28339" lon="6.86248">
        <ele>1490.8000488281</ele>
        <time>2019-02-17T07:53:09.000Z</time>
      </trkpt>
      <trkpt lat="44.28341" lon="6.86249">
        <ele>1490.8000488281</ele>
        <time>2019-02-17T07:53:11.000Z</time>
      </trkpt>
      <trkpt lat="44.28345" lon="6.8625">
        <ele>1491</ele>
        <time>2019-02-17T07:53:14.000Z</time>
      </trkpt>
      <trkpt lat="44.28347" lon="6.86251">
        <ele>1491.8000488281</ele>
        <time>2019-02-17T07:53:17.000Z</time>
      </trkpt>
      <trkpt lat="44.28348" lon="6.86252">
        <ele>1492</ele>
        <time>2019-02-17T07:53:18.000Z</time>
      </trkpt>
      <trkpt lat="44.28349" lon="6.86252">
        <ele>1492.1999511719</ele>
        <time>2019-02-17T07:53:19.000Z</time>
      </trkpt>
      <trkpt lat="44.28356" lon="6.86257">
        <ele>1493</ele>
        <time>2019-02-17T07:53:27.000Z</time>
      </trkpt>
      <trkpt lat="44.28357" lon="6.86258">
        <ele>1493.1999511719</ele>
        <time>2019-02-17T07:53:28.000Z</time>
      </trkpt>
      <trkpt lat="44.28359" lon="6.86259">
        <ele>1493.5999755859</ele>
        <time>2019-02-17T07:53:30.000Z</time>
      </trkpt>
      <trkpt lat="44.28362" lon="6.86265">
        <ele>1494.1999511719</ele>
        <time>2019-02-17T07:53:35.000Z</time>
      </trkpt>
      <trkpt lat="44.28364" lon="6.86268">
        <ele>1495</ele>
        <time>2019-02-17T07:53:38.000Z</time>
      </trkpt>
      <trkpt lat="44.28366" lon="6.8627">
        <ele>1495.1999511719</ele>
        <time>2019-02-17T07:53:41.000Z</time>
      </trkpt>
      <trkpt lat="44.28368" lon="6.86271">
        <ele>1495.4000244141</ele>
        <time>2019-02-17T07:53:43.000Z</time>
      </trkpt>
      <trkpt lat="44.28376" lon="6.86276">
        <ele>1496.4000244141</ele>
        <time>2019-02-17T07:53:53.000Z</time>
      </trkpt>
      <trkpt lat="44.28379" lon="6.86276">
        <ele>1496.8000488281</ele>
        <time>2019-02-17T07:53:56.000Z</time>
      </trkpt>
      <trkpt lat="44.28386" lon="6.86271">
        <ele>1497.4000244141</ele>
        <time>2019-02-17T07:54:04.000Z</time>
      </trkpt>
      <trkpt lat="44.28386" lon="6.86261">
        <ele>1498.4000244141</ele>
        <time>2019-02-17T07:54:12.000Z</time>
      </trkpt>
      <trkpt lat="44.28383" lon="6.86259">
        <ele>1498.5999755859</ele>
        <time>2019-02-17T07:54:14.000Z</time>
      </trkpt>
      <trkpt lat="44.28376" lon="6.86254">
        <ele>1499.4000244141</ele>
        <time>2019-02-17T07:54:22.000Z</time>
      </trkpt>
      <trkpt lat="44.28364" lon="6.86247">
        <ele>1500.5999755859</ele>
        <time>2019-02-17T07:54:34.000Z</time>
      </trkpt>
      <trkpt lat="44.28356" lon="6.86241">
        <ele>1501.8000488281</ele>
        <time>2019-02-17T07:54:43.000Z</time>
      </trkpt>
      <trkpt lat="44.28347" lon="6.86229">
        <ele>1502.8000488281</ele>
        <time>2019-02-17T07:54:55.000Z</time>
      </trkpt>
      <trkpt lat="44.28343" lon="6.86212">
        <ele>1504</ele>
        <time>2019-02-17T07:55:07.000Z</time>
      </trkpt>
      <trkpt lat="44.28338" lon="6.86198">
        <ele>1505</ele>
        <time>2019-02-17T07:55:17.000Z</time>
      </trkpt>
      <trkpt lat="44.28335" lon="6.86195">
        <ele>1505.1999511719</ele>
        <time>2019-02-17T07:55:21.000Z</time>
      </trkpt>
      <trkpt lat="44.28334" lon="6.86193">
        <ele>1505.4000244141</ele>
        <time>2019-02-17T07:55:23.000Z</time>
      </trkpt>
      <trkpt lat="44.28329" lon="6.86186">
        <ele>1506.1999511719</ele>
        <time>2019-02-17T07:55:29.000Z</time>
      </trkpt>
      <trkpt lat="44.2832" lon="6.86169">
        <ele>1507.1999511719</ele>
        <time>2019-02-17T07:55:41.000Z</time>
      </trkpt>
      <trkpt lat="44.28318" lon="6.86164">
        <ele>1507.4000244141</ele>
        <time>2019-02-17T07:55:45.000Z</time>
      </trkpt>
      <trkpt lat="44.28305" lon="6.86142">
        <ele>1508</ele>
        <time>2019-02-17T07:56:02.000Z</time>
      </trkpt>
      <trkpt lat="44.28305" lon="6.86141">
        <ele>1508.1999511719</ele>
        <time>2019-02-17T07:56:03.000Z</time>
      </trkpt>
      <trkpt lat="44.28295" lon="6.86128">
        <ele>1509.1999511719</ele>
        <time>2019-02-17T07:56:16.000Z</time>
      </trkpt>
      <trkpt lat="44.28294" lon="6.86127">
        <ele>1509.4000244141</ele>
        <time>2019-02-17T07:56:17.000Z</time>
      </trkpt>
      <trkpt lat="44.28293" lon="6.86125">
        <ele>1509.5999755859</ele>
        <time>2019-02-17T07:56:19.000Z</time>
      </trkpt>
      <trkpt lat="44.28286" lon="6.86108">
        <ele>1510.4000244141</ele>
        <time>2019-02-17T07:56:31.000Z</time>
      </trkpt>
      <trkpt lat="44.28276" lon="6.86091">
        <ele>1511.4000244141</ele>
        <time>2019-02-17T07:56:46.000Z</time>
      </trkpt>
      <trkpt lat="44.28271" lon="6.8608">
        <ele>1512.4000244141</ele>
        <time>2019-02-17T07:56:55.000Z</time>
      </trkpt>
      <trkpt lat="44.28263" lon="6.8607">
        <ele>1513.5999755859</ele>
        <time>2019-02-17T07:57:04.000Z</time>
      </trkpt>
      <trkpt lat="44.28254" lon="6.86061">
        <ele>1514.5999755859</ele>
        <time>2019-02-17T07:57:15.000Z</time>
      </trkpt>
      <trkpt lat="44.28264" lon="6.86046">
        <ele>1515.8000488281</ele>
        <time>2019-02-17T07:57:32.000Z</time>
      </trkpt>
      <trkpt lat="44.28266" lon="6.86049">
        <ele>1516.1999511719</ele>
        <time>2019-02-17T07:57:35.000Z</time>
      </trkpt>
      <trkpt lat="44.2827" lon="6.86059">
        <ele>1516.4000244141</ele>
        <time>2019-02-17T07:57:42.000Z</time>
      </trkpt>
      <trkpt lat="44.28274" lon="6.86069">
        <ele>1517</ele>
        <time>2019-02-17T07:57:49.000Z</time>
      </trkpt>
      <trkpt lat="44.28277" lon="6.86074">
        <ele>1517.1999511719</ele>
        <time>2019-02-17T07:57:53.000Z</time>
      </trkpt>
      <trkpt lat="44.28286" lon="6.8609">
        <ele>1518</ele>
        <time>2019-02-17T07:58:06.000Z</time>
      </trkpt>
      <trkpt lat="44.28295" lon="6.861">
        <ele>1518.5999755859</ele>
        <time>2019-02-17T07:58:16.000Z</time>
      </trkpt>
      <trkpt lat="44.283" lon="6.86106">
        <ele>1519</ele>
        <time>2019-02-17T07:58:22.000Z</time>
      </trkpt>
      <trkpt lat="44.28302" lon="6.86107">
        <ele>1519.1999511719</ele>
        <time>2019-02-17T07:58:23.000Z</time>
      </trkpt>
      <trkpt lat="44.28304" lon="6.86109">
        <ele>1519.4000244141</ele>
        <time>2019-02-17T07:58:25.000Z</time>
      </trkpt>
      <trkpt lat="44.28305" lon="6.8611">
        <ele>1519.5999755859</ele>
        <time>2019-02-17T07:58:27.000Z</time>
      </trkpt>
      <trkpt lat="44.28308" lon="6.86115">
        <ele>1520</ele>
        <time>2019-02-17T07:58:32.000Z</time>
      </trkpt>
      <trkpt lat="44.2831" lon="6.86116">
        <ele>1520.1999511719</ele>
        <time>2019-02-17T07:58:34.000Z</time>
      </trkpt>
      <trkpt lat="44.28312" lon="6.86117">
        <ele>1520.1999511719</ele>
        <time>2019-02-17T07:58:35.000Z</time>
      </trkpt>
      <trkpt lat="44.28318" lon="6.86125">
        <ele>1521</ele>
        <time>2019-02-17T07:58:44.000Z</time>
      </trkpt>
      <trkpt lat="44.2832" lon="6.86127">
        <ele>1521.1999511719</ele>
        <time>2019-02-17T07:58:46.000Z</time>
      </trkpt>
      <trkpt lat="44.28332" lon="6.86136">
        <ele>1521.8000488281</ele>
        <time>2019-02-17T07:58:57.000Z</time>
      </trkpt>
      <trkpt lat="44.28335" lon="6.8614">
        <ele>1522.1999511719</ele>
        <time>2019-02-17T07:59:02.000Z</time>
      </trkpt>
      <trkpt lat="44.28343" lon="6.8615">
        <ele>1523.4000244141</ele>
        <time>2019-02-17T07:59:13.000Z</time>
      </trkpt>
      <trkpt lat="44.28347" lon="6.86152">
        <ele>1523.5999755859</ele>
        <time>2019-02-17T07:59:18.000Z</time>
      </trkpt>
      <trkpt lat="44.28349" lon="6.86154">
        <ele>1523.5999755859</ele>
        <time>2019-02-17T07:59:20.000Z</time>
      </trkpt>
      <trkpt lat="44.28353" lon="6.86153">
        <ele>1524.4000244141</ele>
        <time>2019-02-17T07:59:24.000Z</time>
      </trkpt>
      <trkpt lat="44.28359" lon="6.86152">
        <ele>1524.8000488281</ele>
        <time>2019-02-17T07:59:30.000Z</time>
      </trkpt>
      <trkpt lat="44.28362" lon="6.86151">
        <ele>1525</ele>
        <time>2019-02-17T07:59:33.000Z</time>
      </trkpt>
      <trkpt lat="44.28367" lon="6.86149">
        <ele>1525.5999755859</ele>
        <time>2019-02-17T07:59:39.000Z</time>
      </trkpt>
      <trkpt lat="44.28368" lon="6.86149">
        <ele>1525.8000488281</ele>
        <time>2019-02-17T07:59:40.000Z</time>
      </trkpt>
      <trkpt lat="44.28371" lon="6.86146">
        <ele>1526.8000488281</ele>
        <time>2019-02-17T07:59:45.000Z</time>
      </trkpt>
      <trkpt lat="44.28384" lon="6.86144">
        <ele>1527.8000488281</ele>
        <time>2019-02-17T07:59:57.000Z</time>
      </trkpt>
      <trkpt lat="44.28388" lon="6.86144">
        <ele>1528.1999511719</ele>
        <time>2019-02-17T08:00:00.000Z</time>
      </trkpt>
      <trkpt lat="44.28396" lon="6.86143">
        <ele>1528.5999755859</ele>
        <time>2019-02-17T08:00:07.000Z</time>
      </trkpt>
      <trkpt lat="44.28397" lon="6.86143">
        <ele>1528.5999755859</ele>
        <time>2019-02-17T08:00:12.000Z</time>
      </trkpt>
      <trkpt lat="44.28398" lon="6.86142">
        <ele>1528.8000488281</ele>
        <time>2019-02-17T08:00:15.000Z</time>
      </trkpt>
      <trkpt lat="44.284" lon="6.86141">
        <ele>1529</ele>
        <time>2019-02-17T08:00:18.000Z</time>
      </trkpt>
      <trkpt lat="44.28398" lon="6.86149">
        <ele>1528.5999755859</ele>
        <time>2019-02-17T08:01:09.000Z</time>
      </trkpt>
      <trkpt lat="44.28399" lon="6.86151">
        <ele>1528.5999755859</ele>
        <time>2019-02-17T08:01:12.000Z</time>
      </trkpt>
      <trkpt lat="44.284" lon="6.86143">
        <ele>1528.5999755859</ele>
        <time>2019-02-17T08:02:15.000Z</time>
      </trkpt>
      <trkpt lat="44.28399" lon="6.86142">
        <ele>1528.4000244141</ele>
        <time>2019-02-17T08:02:19.000Z</time>
      </trkpt>
      <trkpt lat="44.28397" lon="6.86142">
        <ele>1528.8000488281</ele>
        <time>2019-02-17T08:02:22.000Z</time>
      </trkpt>
      <trkpt lat="44.28401" lon="6.86141">
        <ele>1528.8000488281</ele>
        <time>2019-02-17T08:02:49.000Z</time>
      </trkpt>
      <trkpt lat="44.28397" lon="6.86137">
        <ele>1529</ele>
        <time>2019-02-17T08:03:34.000Z</time>
      </trkpt>
      <trkpt lat="44.28415" lon="6.86139">
        <ele>1528.4000244141</ele>
        <time>2019-02-17T08:05:31.000Z</time>
      </trkpt>
      <trkpt lat="44.28417" lon="6.86134">
        <ele>1529</ele>
        <time>2019-02-17T08:05:36.000Z</time>
      </trkpt>
      <trkpt lat="44.28419" lon="6.86132">
        <ele>1529.8000488281</ele>
        <time>2019-02-17T08:05:38.000Z</time>
      </trkpt>
      <trkpt lat="44.2843" lon="6.86123">
        <ele>1530.1999511719</ele>
        <time>2019-02-17T08:05:51.000Z</time>
      </trkpt>
      <trkpt lat="44.28435" lon="6.86119">
        <ele>1530.8000488281</ele>
        <time>2019-02-17T08:05:55.000Z</time>
      </trkpt>
      <trkpt lat="44.28436" lon="6.86118">
        <ele>1531</ele>
        <time>2019-02-17T08:05:56.000Z</time>
      </trkpt>
      <trkpt lat="44.28446" lon="6.86109">
        <ele>1532</ele>
        <time>2019-02-17T08:06:09.000Z</time>
      </trkpt>
      <trkpt lat="44.28447" lon="6.86108">
        <ele>1532.1999511719</ele>
        <time>2019-02-17T08:06:10.000Z</time>
      </trkpt>
      <trkpt lat="44.28456" lon="6.86101">
        <ele>1533.1999511719</ele>
        <time>2019-02-17T08:06:21.000Z</time>
      </trkpt>
      <trkpt lat="44.28462" lon="6.86097">
        <ele>1533.5999755859</ele>
        <time>2019-02-17T08:06:27.000Z</time>
      </trkpt>
      <trkpt lat="44.2847" lon="6.86091">
        <ele>1534.1999511719</ele>
        <time>2019-02-17T08:06:36.000Z</time>
      </trkpt>
      <trkpt lat="44.28475" lon="6.86092">
        <ele>1535</ele>
        <time>2019-02-17T08:06:42.000Z</time>
      </trkpt>
      <trkpt lat="44.28477" lon="6.86092">
        <ele>1535.1999511719</ele>
        <time>2019-02-17T08:06:44.000Z</time>
      </trkpt>
      <trkpt lat="44.28487" lon="6.86087">
        <ele>1536.1999511719</ele>
        <time>2019-02-17T08:06:54.000Z</time>
      </trkpt>
      <trkpt lat="44.2849" lon="6.86073">
        <ele>1537.1999511719</ele>
        <time>2019-02-17T08:07:05.000Z</time>
      </trkpt>
      <trkpt lat="44.28481" lon="6.86068">
        <ele>1538.4000244141</ele>
        <time>2019-02-17T08:07:14.000Z</time>
      </trkpt>
      <trkpt lat="44.2847" lon="6.86073">
        <ele>1539</ele>
        <time>2019-02-17T08:07:25.000Z</time>
      </trkpt>
      <trkpt lat="44.28467" lon="6.86075">
        <ele>1539.4000244141</ele>
        <time>2019-02-17T08:07:29.000Z</time>
      </trkpt>
      <trkpt lat="44.28461" lon="6.86079">
        <ele>1540</ele>
        <time>2019-02-17T08:07:35.000Z</time>
      </trkpt>
      <trkpt lat="44.28456" lon="6.86081">
        <ele>1540.5999755859</ele>
        <time>2019-02-17T08:07:41.000Z</time>
      </trkpt>
      <trkpt lat="44.28453" lon="6.86082">
        <ele>1541</ele>
        <time>2019-02-17T08:07:44.000Z</time>
      </trkpt>
      <trkpt lat="44.2845" lon="6.86084">
        <ele>1541.4000244141</ele>
        <time>2019-02-17T08:07:47.000Z</time>
      </trkpt>
      <trkpt lat="44.28449" lon="6.86085">
        <ele>1541.4000244141</ele>
        <time>2019-02-17T08:07:49.000Z</time>
      </trkpt>
      <trkpt lat="44.28448" lon="6.86085">
        <ele>1541.5999755859</ele>
        <time>2019-02-17T08:07:50.000Z</time>
      </trkpt>
      <trkpt lat="44.28445" lon="6.86086">
        <ele>1541.8000488281</ele>
        <time>2019-02-17T08:07:53.000Z</time>
      </trkpt>
      <trkpt lat="44.28436" lon="6.86088">
        <ele>1542.5999755859</ele>
        <time>2019-02-17T08:08:01.000Z</time>
      </trkpt>
      <trkpt lat="44.28434" lon="6.86087">
        <ele>1542.5999755859</ele>
        <time>2019-02-17T08:08:03.000Z</time>
      </trkpt>
      <trkpt lat="44.28427" lon="6.86087">
        <ele>1543.1999511719</ele>
        <time>2019-02-17T08:08:10.000Z</time>
      </trkpt>
      <trkpt lat="44.28423" lon="6.86086">
        <ele>1543.5999755859</ele>
        <time>2019-02-17T08:08:14.000Z</time>
      </trkpt>
      <trkpt lat="44.2842" lon="6.86084">
        <ele>1544</ele>
        <time>2019-02-17T08:08:17.000Z</time>
      </trkpt>
      <trkpt lat="44.2841" lon="6.86083">
        <ele>1544.8000488281</ele>
        <time>2019-02-17T08:08:26.000Z</time>
      </trkpt>
      <trkpt lat="44.28408" lon="6.86084">
        <ele>1545</ele>
        <time>2019-02-17T08:08:28.000Z</time>
      </trkpt>
      <trkpt lat="44.28406" lon="6.86084">
        <ele>1545.1999511719</ele>
        <time>2019-02-17T08:08:30.000Z</time>
      </trkpt>
      <trkpt lat="44.284" lon="6.86082">
        <ele>1545.8000488281</ele>
        <time>2019-02-17T08:08:36.000Z</time>
      </trkpt>
      <trkpt lat="44.28399" lon="6.86082">
        <ele>1545.8000488281</ele>
        <time>2019-02-17T08:08:37.000Z</time>
      </trkpt>
      <trkpt lat="44.28398" lon="6.86081">
        <ele>1546</ele>
        <time>2019-02-17T08:08:39.000Z</time>
      </trkpt>
      <trkpt lat="44.28396" lon="6.86081">
        <ele>1546.1999511719</ele>
        <time>2019-02-17T08:08:41.000Z</time>
      </trkpt>
      <trkpt lat="44.28391" lon="6.8608">
        <ele>1546.8000488281</ele>
        <time>2019-02-17T08:08:47.000Z</time>
      </trkpt>
      <trkpt lat="44.28382" lon="6.86077">
        <ele>1547.8000488281</ele>
        <time>2019-02-17T08:08:57.000Z</time>
      </trkpt>
      <trkpt lat="44.28381" lon="6.86077">
        <ele>1547.8000488281</ele>
        <time>2019-02-17T08:08:58.000Z</time>
      </trkpt>
      <trkpt lat="44.2838" lon="6.86077">
        <ele>1548</ele>
        <time>2019-02-17T08:08:59.000Z</time>
      </trkpt>
      <trkpt lat="44.28378" lon="6.86076">
        <ele>1548.1999511719</ele>
        <time>2019-02-17T08:09:01.000Z</time>
      </trkpt>
      <trkpt lat="44.28376" lon="6.86075">
        <ele>1548.5999755859</ele>
        <time>2019-02-17T08:09:03.000Z</time>
      </trkpt>
      <trkpt lat="44.28372" lon="6.86074">
        <ele>1549</ele>
        <time>2019-02-17T08:09:07.000Z</time>
      </trkpt>
      <trkpt lat="44.28371" lon="6.86073">
        <ele>1549.1999511719</ele>
        <time>2019-02-17T08:09:08.000Z</time>
      </trkpt>
      <trkpt lat="44.28366" lon="6.8607">
        <ele>1549.5999755859</ele>
        <time>2019-02-17T08:09:13.000Z</time>
      </trkpt>
      <trkpt lat="44.28363" lon="6.86067">
        <ele>1549.5999755859</ele>
        <time>2019-02-17T08:09:16.000Z</time>
      </trkpt>
      <trkpt lat="44.28361" lon="6.86066">
        <ele>1549.8000488281</ele>
        <time>2019-02-17T08:09:18.000Z</time>
      </trkpt>
      <trkpt lat="44.28354" lon="6.86061">
        <ele>1550</ele>
        <time>2019-02-17T08:09:24.000Z</time>
      </trkpt>
      <trkpt lat="44.28353" lon="6.8606">
        <ele>1550</ele>
        <time>2019-02-17T08:09:25.000Z</time>
      </trkpt>
      <trkpt lat="44.28338" lon="6.86048">
        <ele>1551</ele>
        <time>2019-02-17T08:09:43.000Z</time>
      </trkpt>
      <trkpt lat="44.28322" lon="6.86026">
        <ele>1552.1999511719</ele>
        <time>2019-02-17T08:10:06.000Z</time>
      </trkpt>
      <trkpt lat="44.28318" lon="6.86021">
        <ele>1552.4000244141</ele>
        <time>2019-02-17T08:10:11.000Z</time>
      </trkpt>
      <trkpt lat="44.28307" lon="6.86012">
        <ele>1553.1999511719</ele>
        <time>2019-02-17T08:10:23.000Z</time>
      </trkpt>
      <trkpt lat="44.28306" lon="6.86011">
        <ele>1553.1999511719</ele>
        <time>2019-02-17T08:10:25.000Z</time>
      </trkpt>
      <trkpt lat="44.28306" lon="6.86005">
        <ele>1553.4000244141</ele>
        <time>2019-02-17T08:10:30.000Z</time>
      </trkpt>
      <trkpt lat="44.2831" lon="6.86">
        <ele>1554</ele>
        <time>2019-02-17T08:10:35.000Z</time>
      </trkpt>
      <trkpt lat="44.28312" lon="6.85999">
        <ele>1554</ele>
        <time>2019-02-17T08:10:38.000Z</time>
      </trkpt>
      <trkpt lat="44.28316" lon="6.86002">
        <ele>1554.1999511719</ele>
        <time>2019-02-17T08:10:42.000Z</time>
      </trkpt>
      <trkpt lat="44.28327" lon="6.8602">
        <ele>1555</ele>
        <time>2019-02-17T08:10:58.000Z</time>
      </trkpt>
      <trkpt lat="44.2833" lon="6.86024">
        <ele>1555.1999511719</ele>
        <time>2019-02-17T08:11:01.000Z</time>
      </trkpt>
      <trkpt lat="44.28331" lon="6.86025">
        <ele>1555.1999511719</ele>
        <time>2019-02-17T08:11:02.000Z</time>
      </trkpt>
      <trkpt lat="44.28349" lon="6.86038">
        <ele>1556.1999511719</ele>
        <time>2019-02-17T08:11:21.000Z</time>
      </trkpt>
      <trkpt lat="44.28352" lon="6.86039">
        <ele>1556.4000244141</ele>
        <time>2019-02-17T08:11:24.000Z</time>
      </trkpt>
      <trkpt lat="44.2836" lon="6.86041">
        <ele>1556.8000488281</ele>
        <time>2019-02-17T08:11:32.000Z</time>
      </trkpt>
      <trkpt lat="44.28371" lon="6.8604">
        <ele>1557.4000244141</ele>
        <time>2019-02-17T08:11:42.000Z</time>
      </trkpt>
      <trkpt lat="44.28384" lon="6.86036">
        <ele>1558.4000244141</ele>
        <time>2019-02-17T08:11:55.000Z</time>
      </trkpt>
      <trkpt lat="44.28398" lon="6.86027">
        <ele>1559.5999755859</ele>
        <time>2019-02-17T08:12:11.000Z</time>
      </trkpt>
      <trkpt lat="44.28402" lon="6.86025">
        <ele>1560</ele>
        <time>2019-02-17T08:12:15.000Z</time>
      </trkpt>
      <trkpt lat="44.28409" lon="6.86022">
        <ele>1560.4000244141</ele>
        <time>2019-02-17T08:12:21.000Z</time>
      </trkpt>
      <trkpt lat="44.28412" lon="6.8602">
        <ele>1560.5999755859</ele>
        <time>2019-02-17T08:12:24.000Z</time>
      </trkpt>
      <trkpt lat="44.28414" lon="6.86019">
        <ele>1561</ele>
        <time>2019-02-17T08:12:27.000Z</time>
      </trkpt>
      <trkpt lat="44.28416" lon="6.86018">
        <ele>1561</ele>
        <time>2019-02-17T08:12:29.000Z</time>
      </trkpt>
      <trkpt lat="44.2842" lon="6.86017">
        <ele>1561</ele>
        <time>2019-02-17T08:12:33.000Z</time>
      </trkpt>
      <trkpt lat="44.28424" lon="6.86013">
        <ele>1561.5999755859</ele>
        <time>2019-02-17T08:12:38.000Z</time>
      </trkpt>
      <trkpt lat="44.2843" lon="6.86009">
        <ele>1562.4000244141</ele>
        <time>2019-02-17T08:12:44.000Z</time>
      </trkpt>
      <trkpt lat="44.28436" lon="6.86006">
        <ele>1562.8000488281</ele>
        <time>2019-02-17T08:12:50.000Z</time>
      </trkpt>
      <trkpt lat="44.28438" lon="6.86006">
        <ele>1562.8000488281</ele>
        <time>2019-02-17T08:12:53.000Z</time>
      </trkpt>
      <trkpt lat="44.2845" lon="6.86002">
        <ele>1563.8000488281</ele>
        <time>2019-02-17T08:13:05.000Z</time>
      </trkpt>
      <trkpt lat="44.2846" lon="6.85999">
        <ele>1564.8000488281</ele>
        <time>2019-02-17T08:13:14.000Z</time>
      </trkpt>
      <trkpt lat="44.28464" lon="6.85996">
        <ele>1565</ele>
        <time>2019-02-17T08:13:19.000Z</time>
      </trkpt>
      <trkpt lat="44.28471" lon="6.85992">
        <ele>1565.5999755859</ele>
        <time>2019-02-17T08:13:26.000Z</time>
      </trkpt>
      <trkpt lat="44.28475" lon="6.8599">
        <ele>1565.8000488281</ele>
        <time>2019-02-17T08:13:29.000Z</time>
      </trkpt>
      <trkpt lat="44.28491" lon="6.85986">
        <ele>1566.8000488281</ele>
        <time>2019-02-17T08:13:44.000Z</time>
      </trkpt>
      <trkpt lat="44.28492" lon="6.85986">
        <ele>1566.8000488281</ele>
        <time>2019-02-17T08:13:45.000Z</time>
      </trkpt>
      <trkpt lat="44.28497" lon="6.85982">
        <ele>1567.4000244141</ele>
        <time>2019-02-17T08:13:51.000Z</time>
      </trkpt>
      <trkpt lat="44.28501" lon="6.8598">
        <ele>1568</ele>
        <time>2019-02-17T08:13:55.000Z</time>
      </trkpt>
      <trkpt lat="44.28504" lon="6.85979">
        <ele>1568.1999511719</ele>
        <time>2019-02-17T08:13:58.000Z</time>
      </trkpt>
      <trkpt lat="44.28513" lon="6.85972">
        <ele>1569.1999511719</ele>
        <time>2019-02-17T08:14:07.000Z</time>
      </trkpt>
      <trkpt lat="44.28525" lon="6.85965">
        <ele>1569.5999755859</ele>
        <time>2019-02-17T08:14:18.000Z</time>
      </trkpt>
      <trkpt lat="44.28528" lon="6.85963">
        <ele>1569.8000488281</ele>
        <time>2019-02-17T08:14:21.000Z</time>
      </trkpt>
      <trkpt lat="44.28533" lon="6.85959">
        <ele>1570.4000244141</ele>
        <time>2019-02-17T08:14:27.000Z</time>
      </trkpt>
      <trkpt lat="44.28535" lon="6.85959">
        <ele>1570.4000244141</ele>
        <time>2019-02-17T08:14:29.000Z</time>
      </trkpt>
      <trkpt lat="44.28539" lon="6.85957">
        <ele>1571</ele>
        <time>2019-02-17T08:14:36.000Z</time>
      </trkpt>
      <trkpt lat="44.2854" lon="6.85955">
        <ele>1571</ele>
        <time>2019-02-17T08:14:40.000Z</time>
      </trkpt>
      <trkpt lat="44.28548" lon="6.85953">
        <ele>1571.4000244141</ele>
        <time>2019-02-17T08:14:52.000Z</time>
      </trkpt>
      <trkpt lat="44.2855" lon="6.85952">
        <ele>1571.5999755859</ele>
        <time>2019-02-17T08:14:54.000Z</time>
      </trkpt>
      <trkpt lat="44.28557" lon="6.85949">
        <ele>1572.4000244141</ele>
        <time>2019-02-17T08:15:02.000Z</time>
      </trkpt>
      <trkpt lat="44.28561" lon="6.85948">
        <ele>1572.8000488281</ele>
        <time>2019-02-17T08:15:06.000Z</time>
      </trkpt>
      <trkpt lat="44.28562" lon="6.85948">
        <ele>1573</ele>
        <time>2019-02-17T08:15:08.000Z</time>
      </trkpt>
      <trkpt lat="44.28563" lon="6.85948">
        <ele>1573.4000244141</ele>
        <time>2019-02-17T08:15:11.000Z</time>
      </trkpt>
      <trkpt lat="44.28564" lon="6.85948">
        <ele>1573.4000244141</ele>
        <time>2019-02-17T08:15:12.000Z</time>
      </trkpt>
      <trkpt lat="44.28568" lon="6.85947">
        <ele>1573.4000244141</ele>
        <time>2019-02-17T08:15:15.000Z</time>
      </trkpt>
      <trkpt lat="44.28576" lon="6.85945">
        <ele>1574.4000244141</ele>
        <time>2019-02-17T08:15:24.000Z</time>
      </trkpt>
      <trkpt lat="44.28577" lon="6.85945">
        <ele>1574.4000244141</ele>
        <time>2019-02-17T08:15:25.000Z</time>
      </trkpt>
      <trkpt lat="44.28582" lon="6.85943">
        <ele>1575.1999511719</ele>
        <time>2019-02-17T08:15:30.000Z</time>
      </trkpt>
      <trkpt lat="44.28583" lon="6.85942">
        <ele>1575.4000244141</ele>
        <time>2019-02-17T08:15:32.000Z</time>
      </trkpt>
      <trkpt lat="44.28585" lon="6.85941">
        <ele>1575.5999755859</ele>
        <time>2019-02-17T08:15:34.000Z</time>
      </trkpt>
      <trkpt lat="44.28592" lon="6.85938">
        <ele>1576.5999755859</ele>
        <time>2019-02-17T08:15:44.000Z</time>
      </trkpt>
      <trkpt lat="44.28601" lon="6.85935">
        <ele>1577.5999755859</ele>
        <time>2019-02-17T08:15:52.000Z</time>
      </trkpt>
      <trkpt lat="44.28611" lon="6.85932">
        <ele>1578.8000488281</ele>
        <time>2019-02-17T08:16:03.000Z</time>
      </trkpt>
      <trkpt lat="44.28619" lon="6.8593">
        <ele>1579.8000488281</ele>
        <time>2019-02-17T08:16:09.000Z</time>
      </trkpt>
      <trkpt lat="44.28625" lon="6.85929">
        <ele>1581</ele>
        <time>2019-02-17T08:16:18.000Z</time>
      </trkpt>
      <trkpt lat="44.2863" lon="6.85929">
        <ele>1581.4000244141</ele>
        <time>2019-02-17T08:16:23.000Z</time>
      </trkpt>
      <trkpt lat="44.28632" lon="6.8593">
        <ele>1581.5999755859</ele>
        <time>2019-02-17T08:16:25.000Z</time>
      </trkpt>
      <trkpt lat="44.28634" lon="6.8593">
        <ele>1582</ele>
        <time>2019-02-17T08:16:28.000Z</time>
      </trkpt>
      <trkpt lat="44.28642" lon="6.85934">
        <ele>1583</ele>
        <time>2019-02-17T08:16:38.000Z</time>
      </trkpt>
      <trkpt lat="44.28649" lon="6.85935">
        <ele>1583.5999755859</ele>
        <time>2019-02-17T08:16:44.000Z</time>
      </trkpt>
      <trkpt lat="44.28651" lon="6.85936">
        <ele>1583.8000488281</ele>
        <time>2019-02-17T08:16:46.000Z</time>
      </trkpt>
      <trkpt lat="44.28652" lon="6.85936">
        <ele>1584</ele>
        <time>2019-02-17T08:16:47.000Z</time>
      </trkpt>
      <trkpt lat="44.28656" lon="6.85936">
        <ele>1584.8000488281</ele>
        <time>2019-02-17T08:16:51.000Z</time>
      </trkpt>
      <trkpt lat="44.2866" lon="6.85937">
        <ele>1585.1999511719</ele>
        <time>2019-02-17T08:16:55.000Z</time>
      </trkpt>
      <trkpt lat="44.28663" lon="6.85937">
        <ele>1585.4000244141</ele>
        <time>2019-02-17T08:16:57.000Z</time>
      </trkpt>
      <trkpt lat="44.28671" lon="6.85932">
        <ele>1586.1999511719</ele>
        <time>2019-02-17T08:17:06.000Z</time>
      </trkpt>
      <trkpt lat="44.28683" lon="6.85915">
        <ele>1587.1999511719</ele>
        <time>2019-02-17T08:17:23.000Z</time>
      </trkpt>
      <trkpt lat="44.28684" lon="6.85913">
        <ele>1587.5999755859</ele>
        <time>2019-02-17T08:17:25.000Z</time>
      </trkpt>
      <trkpt lat="44.28684" lon="6.85911">
        <ele>1587.5999755859</ele>
        <time>2019-02-17T08:17:27.000Z</time>
      </trkpt>
      <trkpt lat="44.28685" lon="6.8591">
        <ele>1587.8000488281</ele>
        <time>2019-02-17T08:17:29.000Z</time>
      </trkpt>
      <trkpt lat="44.28688" lon="6.85906">
        <ele>1588.1999511719</ele>
        <time>2019-02-17T08:17:33.000Z</time>
      </trkpt>
      <trkpt lat="44.28689" lon="6.85902">
        <ele>1588.4000244141</ele>
        <time>2019-02-17T08:17:36.000Z</time>
      </trkpt>
      <trkpt lat="44.2869" lon="6.85901">
        <ele>1588.4000244141</ele>
        <time>2019-02-17T08:17:37.000Z</time>
      </trkpt>
      <trkpt lat="44.28693" lon="6.85888">
        <ele>1589.4000244141</ele>
        <time>2019-02-17T08:17:47.000Z</time>
      </trkpt>
      <trkpt lat="44.28694" lon="6.85882">
        <ele>1590</ele>
        <time>2019-02-17T08:17:52.000Z</time>
      </trkpt>
      <trkpt lat="44.28694" lon="6.85881">
        <ele>1590.1999511719</ele>
        <time>2019-02-17T08:17:54.000Z</time>
      </trkpt>
      <trkpt lat="44.28694" lon="6.85879">
        <ele>1590.4000244141</ele>
        <time>2019-02-17T08:17:56.000Z</time>
      </trkpt>
      <trkpt lat="44.28695" lon="6.85874">
        <ele>1590.4000244141</ele>
        <time>2019-02-17T08:17:59.000Z</time>
      </trkpt>
      <trkpt lat="44.28695" lon="6.85871">
        <ele>1590.5999755859</ele>
        <time>2019-02-17T08:18:01.000Z</time>
      </trkpt>
      <trkpt lat="44.28696" lon="6.8587">
        <ele>1590.5999755859</ele>
        <time>2019-02-17T08:18:02.000Z</time>
      </trkpt>
      <trkpt lat="44.28698" lon="6.85867">
        <ele>1591</ele>
        <time>2019-02-17T08:18:05.000Z</time>
      </trkpt>
      <trkpt lat="44.287" lon="6.85864">
        <ele>1591</ele>
        <time>2019-02-17T08:18:08.000Z</time>
      </trkpt>
      <trkpt lat="44.28702" lon="6.85857">
        <ele>1591.4000244141</ele>
        <time>2019-02-17T08:18:14.000Z</time>
      </trkpt>
      <trkpt lat="44.28703" lon="6.85855">
        <ele>1591.5999755859</ele>
        <time>2019-02-17T08:18:16.000Z</time>
      </trkpt>
      <trkpt lat="44.28704" lon="6.85852">
        <ele>1591.8000488281</ele>
        <time>2019-02-17T08:18:19.000Z</time>
      </trkpt>
      <trkpt lat="44.28707" lon="6.85848">
        <ele>1591.8000488281</ele>
        <time>2019-02-17T08:18:22.000Z</time>
      </trkpt>
      <trkpt lat="44.28708" lon="6.85843">
        <ele>1592.1999511719</ele>
        <time>2019-02-17T08:18:26.000Z</time>
      </trkpt>
      <trkpt lat="44.2871" lon="6.85841">
        <ele>1592.4000244141</ele>
        <time>2019-02-17T08:18:28.000Z</time>
      </trkpt>
      <trkpt lat="44.2871" lon="6.8584">
        <ele>1592.5999755859</ele>
        <time>2019-02-17T08:18:29.000Z</time>
      </trkpt>
      <trkpt lat="44.2871" lon="6.85838">
        <ele>1592.5999755859</ele>
        <time>2019-02-17T08:18:30.000Z</time>
      </trkpt>
      <trkpt lat="44.28712" lon="6.85836">
        <ele>1593</ele>
        <time>2019-02-17T08:18:33.000Z</time>
      </trkpt>
      <trkpt lat="44.28719" lon="6.85822">
        <ele>1593.1999511719</ele>
        <time>2019-02-17T08:18:48.000Z</time>
      </trkpt>
      <trkpt lat="44.28721" lon="6.8582">
        <ele>1593.5999755859</ele>
        <time>2019-02-17T08:18:50.000Z</time>
      </trkpt>
      <trkpt lat="44.28721" lon="6.85819">
        <ele>1593.5999755859</ele>
        <time>2019-02-17T08:18:51.000Z</time>
      </trkpt>
      <trkpt lat="44.28722" lon="6.85817">
        <ele>1593.8000488281</ele>
        <time>2019-02-17T08:18:53.000Z</time>
      </trkpt>
      <trkpt lat="44.28722" lon="6.85816">
        <ele>1594.1999511719</ele>
        <time>2019-02-17T08:18:55.000Z</time>
      </trkpt>
      <trkpt lat="44.28725" lon="6.85813">
        <ele>1594.8000488281</ele>
        <time>2019-02-17T08:18:58.000Z</time>
      </trkpt>
      <trkpt lat="44.28728" lon="6.8581">
        <ele>1595.8000488281</ele>
        <time>2019-02-17T08:19:02.000Z</time>
      </trkpt>
      <trkpt lat="44.28728" lon="6.85809">
        <ele>1595.8000488281</ele>
        <time>2019-02-17T08:19:03.000Z</time>
      </trkpt>
      <trkpt lat="44.28731" lon="6.85802">
        <ele>1596.5999755859</ele>
        <time>2019-02-17T08:19:07.000Z</time>
      </trkpt>
      <trkpt lat="44.28733" lon="6.858">
        <ele>1597</ele>
        <time>2019-02-17T08:19:09.000Z</time>
      </trkpt>
      <trkpt lat="44.28735" lon="6.85796">
        <ele>1597.4000244141</ele>
        <time>2019-02-17T08:19:13.000Z</time>
      </trkpt>
      <trkpt lat="44.28741" lon="6.8579">
        <ele>1597</ele>
        <time>2019-02-17T08:19:28.000Z</time>
      </trkpt>
      <trkpt lat="44.28744" lon="6.85788">
        <ele>1597</ele>
        <time>2019-02-17T08:19:31.000Z</time>
      </trkpt>
      <trkpt lat="44.28748" lon="6.85778">
        <ele>1597.5999755859</ele>
        <time>2019-02-17T08:19:39.000Z</time>
      </trkpt>
      <trkpt lat="44.2875" lon="6.85771">
        <ele>1597.8000488281</ele>
        <time>2019-02-17T08:19:45.000Z</time>
      </trkpt>
      <trkpt lat="44.2875" lon="6.85767">
        <ele>1598.1999511719</ele>
        <time>2019-02-17T08:19:48.000Z</time>
      </trkpt>
      <trkpt lat="44.2875" lon="6.85765">
        <ele>1598.1999511719</ele>
        <time>2019-02-17T08:19:50.000Z</time>
      </trkpt>
      <trkpt lat="44.2875" lon="6.85762">
        <ele>1598.4000244141</ele>
        <time>2019-02-17T08:19:53.000Z</time>
      </trkpt>
      <trkpt lat="44.28751" lon="6.85756">
        <ele>1598.5999755859</ele>
        <time>2019-02-17T08:19:59.000Z</time>
      </trkpt>
      <trkpt lat="44.28751" lon="6.85753">
        <ele>1599.4000244141</ele>
        <time>2019-02-17T08:20:02.000Z</time>
      </trkpt>
      <trkpt lat="44.28755" lon="6.85747">
        <ele>1600.1999511719</ele>
        <time>2019-02-17T08:20:08.000Z</time>
      </trkpt>
      <trkpt lat="44.28756" lon="6.85745">
        <ele>1600.4000244141</ele>
        <time>2019-02-17T08:20:10.000Z</time>
      </trkpt>
      <trkpt lat="44.28756" lon="6.85744">
        <ele>1600.4000244141</ele>
        <time>2019-02-17T08:20:11.000Z</time>
      </trkpt>
      <trkpt lat="44.28757" lon="6.85741">
        <ele>1600.8000488281</ele>
        <time>2019-02-17T08:20:13.000Z</time>
      </trkpt>
      <trkpt lat="44.28757" lon="6.85737">
        <ele>1601.1999511719</ele>
        <time>2019-02-17T08:20:17.000Z</time>
      </trkpt>
      <trkpt lat="44.28758" lon="6.85735">
        <ele>1601.4000244141</ele>
        <time>2019-02-17T08:20:19.000Z</time>
      </trkpt>
      <trkpt lat="44.28759" lon="6.85733">
        <ele>1601.5999755859</ele>
        <time>2019-02-17T08:20:21.000Z</time>
      </trkpt>
      <trkpt lat="44.2876" lon="6.85731">
        <ele>1602</ele>
        <time>2019-02-17T08:20:23.000Z</time>
      </trkpt>
      <trkpt lat="44.28761" lon="6.85729">
        <ele>1602.5999755859</ele>
        <time>2019-02-17T08:20:25.000Z</time>
      </trkpt>
      <trkpt lat="44.28761" lon="6.85728">
        <ele>1603</ele>
        <time>2019-02-17T08:20:27.000Z</time>
      </trkpt>
      <trkpt lat="44.28762" lon="6.85724">
        <ele>1603.8000488281</ele>
        <time>2019-02-17T08:20:30.000Z</time>
      </trkpt>
      <trkpt lat="44.28763" lon="6.85718">
        <ele>1604.8000488281</ele>
        <time>2019-02-17T08:20:35.000Z</time>
      </trkpt>
      <trkpt lat="44.28763" lon="6.85717">
        <ele>1604.8000488281</ele>
        <time>2019-02-17T08:20:36.000Z</time>
      </trkpt>
      <trkpt lat="44.28764" lon="6.85713">
        <ele>1605</ele>
        <time>2019-02-17T08:20:38.000Z</time>
      </trkpt>
      <trkpt lat="44.28764" lon="6.8571">
        <ele>1605.1999511719</ele>
        <time>2019-02-17T08:20:41.000Z</time>
      </trkpt>
      <trkpt lat="44.28764" lon="6.85706">
        <ele>1605.5999755859</ele>
        <time>2019-02-17T08:20:44.000Z</time>
      </trkpt>
      <trkpt lat="44.28764" lon="6.85704">
        <ele>1606</ele>
        <time>2019-02-17T08:20:45.000Z</time>
      </trkpt>
      <trkpt lat="44.28765" lon="6.85701">
        <ele>1606.4000244141</ele>
        <time>2019-02-17T08:20:47.000Z</time>
      </trkpt>
      <trkpt lat="44.28767" lon="6.85692">
        <ele>1607</ele>
        <time>2019-02-17T08:20:53.000Z</time>
      </trkpt>
      <trkpt lat="44.28768" lon="6.85691">
        <ele>1607.1999511719</ele>
        <time>2019-02-17T08:20:54.000Z</time>
      </trkpt>
      <trkpt lat="44.28768" lon="6.85687">
        <ele>1607.4000244141</ele>
        <time>2019-02-17T08:20:56.000Z</time>
      </trkpt>
      <trkpt lat="44.28768" lon="6.85686">
        <ele>1607.8000488281</ele>
        <time>2019-02-17T08:20:58.000Z</time>
      </trkpt>
      <trkpt lat="44.28768" lon="6.85684">
        <ele>1608.1999511719</ele>
        <time>2019-02-17T08:21:00.000Z</time>
      </trkpt>
      <trkpt lat="44.28768" lon="6.85683">
        <ele>1608.4000244141</ele>
        <time>2019-02-17T08:21:01.000Z</time>
      </trkpt>
      <trkpt lat="44.2877" lon="6.85679">
        <ele>1608.8000488281</ele>
        <time>2019-02-17T08:21:05.000Z</time>
      </trkpt>
      <trkpt lat="44.2877" lon="6.85675">
        <ele>1609.4000244141</ele>
        <time>2019-02-17T08:21:08.000Z</time>
      </trkpt>
      <trkpt lat="44.28769" lon="6.85673">
        <ele>1609.5999755859</ele>
        <time>2019-02-17T08:21:10.000Z</time>
      </trkpt>
      <trkpt lat="44.28769" lon="6.8567">
        <ele>1610</ele>
        <time>2019-02-17T08:21:13.000Z</time>
      </trkpt>
      <trkpt lat="44.2877" lon="6.85665">
        <ele>1610.4000244141</ele>
        <time>2019-02-17T08:21:16.000Z</time>
      </trkpt>
      <trkpt lat="44.2877" lon="6.85664">
        <ele>1610.5999755859</ele>
        <time>2019-02-17T08:21:17.000Z</time>
      </trkpt>
      <trkpt lat="44.28771" lon="6.85661">
        <ele>1611</ele>
        <time>2019-02-17T08:21:20.000Z</time>
      </trkpt>
      <trkpt lat="44.28771" lon="6.85659">
        <ele>1611</ele>
        <time>2019-02-17T08:21:22.000Z</time>
      </trkpt>
      <trkpt lat="44.28771" lon="6.85657">
        <ele>1611.4000244141</ele>
        <time>2019-02-17T08:21:24.000Z</time>
      </trkpt>
      <trkpt lat="44.2877" lon="6.85651">
        <ele>1611.8000488281</ele>
        <time>2019-02-17T08:21:30.000Z</time>
      </trkpt>
      <trkpt lat="44.2877" lon="6.85649">
        <ele>1612</ele>
        <time>2019-02-17T08:21:32.000Z</time>
      </trkpt>
      <trkpt lat="44.2877" lon="6.85646">
        <ele>1612.4000244141</ele>
        <time>2019-02-17T08:21:34.000Z</time>
      </trkpt>
      <trkpt lat="44.2877" lon="6.85643">
        <ele>1612.8000488281</ele>
        <time>2019-02-17T08:21:36.000Z</time>
      </trkpt>
      <trkpt lat="44.28769" lon="6.85641">
        <ele>1613</ele>
        <time>2019-02-17T08:21:39.000Z</time>
      </trkpt>
      <trkpt lat="44.28768" lon="6.85638">
        <ele>1613.5999755859</ele>
        <time>2019-02-17T08:21:42.000Z</time>
      </trkpt>
      <trkpt lat="44.28768" lon="6.85637">
        <ele>1613.5999755859</ele>
        <time>2019-02-17T08:21:43.000Z</time>
      </trkpt>
      <trkpt lat="44.28769" lon="6.85629">
        <ele>1614.5999755859</ele>
        <time>2019-02-17T08:21:49.000Z</time>
      </trkpt>
      <trkpt lat="44.28769" lon="6.85628">
        <ele>1614.5999755859</ele>
        <time>2019-02-17T08:21:50.000Z</time>
      </trkpt>
      <trkpt lat="44.28769" lon="6.85628">
        <ele>1614.5999755859</ele>
        <time>2019-02-17T08:21:51.000Z</time>
      </trkpt>
      <trkpt lat="44.28769" lon="6.85625">
        <ele>1615.8000488281</ele>
        <time>2019-02-17T08:21:54.000Z</time>
      </trkpt>
      <trkpt lat="44.28762" lon="6.85615">
        <ele>1617</ele>
        <time>2019-02-17T08:22:06.000Z</time>
      </trkpt>
      <trkpt lat="44.2876" lon="6.85614">
        <ele>1617.1999511719</ele>
        <time>2019-02-17T08:22:09.000Z</time>
      </trkpt>
      <trkpt lat="44.28752" lon="6.85604">
        <ele>1618</ele>
        <time>2019-02-17T08:22:21.000Z</time>
      </trkpt>
      <trkpt lat="44.28752" lon="6.85601">
        <ele>1619</ele>
        <time>2019-02-17T08:22:26.000Z</time>
      </trkpt>
      <trkpt lat="44.28751" lon="6.85598">
        <ele>1620.1999511719</ele>
        <time>2019-02-17T08:22:33.000Z</time>
      </trkpt>
      <trkpt lat="44.28749" lon="6.85595">
        <ele>1621.1999511719</ele>
        <time>2019-02-17T08:22:38.000Z</time>
      </trkpt>
      <trkpt lat="44.28748" lon="6.85593">
        <ele>1621.5999755859</ele>
        <time>2019-02-17T08:22:40.000Z</time>
      </trkpt>
      <trkpt lat="44.28747" lon="6.85584">
        <ele>1622.4000244141</ele>
        <time>2019-02-17T08:22:49.000Z</time>
      </trkpt>
      <trkpt lat="44.28744" lon="6.85576">
        <ele>1623</ele>
        <time>2019-02-17T08:22:58.000Z</time>
      </trkpt>
      <trkpt lat="44.28742" lon="6.85574">
        <ele>1623.5999755859</ele>
        <time>2019-02-17T08:23:00.000Z</time>
      </trkpt>
      <trkpt lat="44.28739" lon="6.8557">
        <ele>1624</ele>
        <time>2019-02-17T08:23:03.000Z</time>
      </trkpt>
      <trkpt lat="44.28737" lon="6.85566">
        <ele>1624.4000244141</ele>
        <time>2019-02-17T08:23:06.000Z</time>
      </trkpt>
      <trkpt lat="44.28737" lon="6.85563">
        <ele>1624.5999755859</ele>
        <time>2019-02-17T08:23:08.000Z</time>
      </trkpt>
      <trkpt lat="44.28736" lon="6.85557">
        <ele>1625.5999755859</ele>
        <time>2019-02-17T08:23:13.000Z</time>
      </trkpt>
      <trkpt lat="44.28736" lon="6.85554">
        <ele>1626.1999511719</ele>
        <time>2019-02-17T08:23:16.000Z</time>
      </trkpt>
      <trkpt lat="44.28735" lon="6.85551">
        <ele>1626.5999755859</ele>
        <time>2019-02-17T08:23:19.000Z</time>
      </trkpt>
      <trkpt lat="44.28733" lon="6.85543">
        <ele>1627.5999755859</ele>
        <time>2019-02-17T08:23:26.000Z</time>
      </trkpt>
      <trkpt lat="44.28733" lon="6.85542">
        <ele>1627.5999755859</ele>
        <time>2019-02-17T08:23:27.000Z</time>
      </trkpt>
      <trkpt lat="44.28736" lon="6.85535">
        <ele>1628.8000488281</ele>
        <time>2019-02-17T08:23:35.000Z</time>
      </trkpt>
      <trkpt lat="44.28734" lon="6.85528">
        <ele>1629.5999755859</ele>
        <time>2019-02-17T08:23:42.000Z</time>
      </trkpt>
      <trkpt lat="44.28734" lon="6.85525">
        <ele>1630</ele>
        <time>2019-02-17T08:23:44.000Z</time>
      </trkpt>
      <trkpt lat="44.28734" lon="6.85523">
        <ele>1630.1999511719</ele>
        <time>2019-02-17T08:23:45.000Z</time>
      </trkpt>
      <trkpt lat="44.28733" lon="6.85516">
        <ele>1630.5999755859</ele>
        <time>2019-02-17T08:23:50.000Z</time>
      </trkpt>
      <trkpt lat="44.28732" lon="6.85515">
        <ele>1630.8000488281</ele>
        <time>2019-02-17T08:23:52.000Z</time>
      </trkpt>
      <trkpt lat="44.28731" lon="6.85514">
        <ele>1631</ele>
        <time>2019-02-17T08:23:54.000Z</time>
      </trkpt>
      <trkpt lat="44.28731" lon="6.85511">
        <ele>1631.5999755859</ele>
        <time>2019-02-17T08:23:57.000Z</time>
      </trkpt>
      <trkpt lat="44.28731" lon="6.8551">
        <ele>1632.1999511719</ele>
        <time>2019-02-17T08:23:59.000Z</time>
      </trkpt>
      <trkpt lat="44.28733" lon="6.85503">
        <ele>1633.1999511719</ele>
        <time>2019-02-17T08:24:06.000Z</time>
      </trkpt>
      <trkpt lat="44.28735" lon="6.85498">
        <ele>1634.5999755859</ele>
        <time>2019-02-17T08:24:12.000Z</time>
      </trkpt>
      <trkpt lat="44.28736" lon="6.85493">
        <ele>1635.5999755859</ele>
        <time>2019-02-17T08:24:16.000Z</time>
      </trkpt>
      <trkpt lat="44.28735" lon="6.85488">
        <ele>1636.5999755859</ele>
        <time>2019-02-17T08:24:23.000Z</time>
      </trkpt>
      <trkpt lat="44.28735" lon="6.85481">
        <ele>1637.8000488281</ele>
        <time>2019-02-17T08:24:30.000Z</time>
      </trkpt>
      <trkpt lat="44.28731" lon="6.85477">
        <ele>1638.8000488281</ele>
        <time>2019-02-17T08:24:37.000Z</time>
      </trkpt>
      <trkpt lat="44.28729" lon="6.85473">
        <ele>1640</ele>
        <time>2019-02-17T08:24:44.000Z</time>
      </trkpt>
      <trkpt lat="44.28726" lon="6.85469">
        <ele>1641.1999511719</ele>
        <time>2019-02-17T08:24:50.000Z</time>
      </trkpt>
      <trkpt lat="44.28722" lon="6.85466">
        <ele>1642.1999511719</ele>
        <time>2019-02-17T08:24:56.000Z</time>
      </trkpt>
      <trkpt lat="44.28717" lon="6.85466">
        <ele>1642.8000488281</ele>
        <time>2019-02-17T08:25:01.000Z</time>
      </trkpt>
      <trkpt lat="44.28714" lon="6.85464">
        <ele>1643.4000244141</ele>
        <time>2019-02-17T08:25:05.000Z</time>
      </trkpt>
      <trkpt lat="44.28714" lon="6.85464">
        <ele>1643.4000244141</ele>
        <time>2019-02-17T08:25:06.000Z</time>
      </trkpt>
      <trkpt lat="44.28712" lon="6.85463">
        <ele>1644.4000244141</ele>
        <time>2019-02-17T08:25:11.000Z</time>
      </trkpt>
      <trkpt lat="44.28712" lon="6.85457">
        <ele>1645.5999755859</ele>
        <time>2019-02-17T08:25:18.000Z</time>
      </trkpt>
      <trkpt lat="44.28712" lon="6.8545">
        <ele>1646.5999755859</ele>
        <time>2019-02-17T08:25:25.000Z</time>
      </trkpt>
      <trkpt lat="44.28712" lon="6.85445">
        <ele>1647</ele>
        <time>2019-02-17T08:25:28.000Z</time>
      </trkpt>
      <trkpt lat="44.28711" lon="6.85442">
        <ele>1647</ele>
        <time>2019-02-17T08:25:30.000Z</time>
      </trkpt>
      <trkpt lat="44.28712" lon="6.85439">
        <ele>1647.1999511719</ele>
        <time>2019-02-17T08:25:32.000Z</time>
      </trkpt>
      <trkpt lat="44.28713" lon="6.85437">
        <ele>1647.4000244141</ele>
        <time>2019-02-17T08:25:34.000Z</time>
      </trkpt>
      <trkpt lat="44.28713" lon="6.85435">
        <ele>1647.4000244141</ele>
        <time>2019-02-17T08:25:36.000Z</time>
      </trkpt>
      <trkpt lat="44.28713" lon="6.85434">
        <ele>1647.5999755859</ele>
        <time>2019-02-17T08:25:37.000Z</time>
      </trkpt>
      <trkpt lat="44.28712" lon="6.85429">
        <ele>1647.8000488281</ele>
        <time>2019-02-17T08:25:41.000Z</time>
      </trkpt>
      <trkpt lat="44.2871" lon="6.85421">
        <ele>1647.8000488281</ele>
        <time>2019-02-17T08:25:46.000Z</time>
      </trkpt>
      <trkpt lat="44.28707" lon="6.85414">
        <ele>1648.5999755859</ele>
        <time>2019-02-17T08:25:52.000Z</time>
      </trkpt>
      <trkpt lat="44.28705" lon="6.85407">
        <ele>1649.1999511719</ele>
        <time>2019-02-17T08:25:57.000Z</time>
      </trkpt>
      <trkpt lat="44.28705" lon="6.85406">
        <ele>1649.4000244141</ele>
        <time>2019-02-17T08:25:58.000Z</time>
      </trkpt>
      <trkpt lat="44.28705" lon="6.85403">
        <ele>1649.5999755859</ele>
        <time>2019-02-17T08:26:00.000Z</time>
      </trkpt>
      <trkpt lat="44.28704" lon="6.85395">
        <ele>1650.8000488281</ele>
        <time>2019-02-17T08:26:06.000Z</time>
      </trkpt>
      <trkpt lat="44.28703" lon="6.8539">
        <ele>1651</ele>
        <time>2019-02-17T08:26:10.000Z</time>
      </trkpt>
      <trkpt lat="44.28703" lon="6.85388">
        <ele>1651.1999511719</ele>
        <time>2019-02-17T08:26:12.000Z</time>
      </trkpt>
      <trkpt lat="44.28702" lon="6.85386">
        <ele>1651.8000488281</ele>
        <time>2019-02-17T08:26:14.000Z</time>
      </trkpt>
      <trkpt lat="44.28701" lon="6.85385">
        <ele>1651.8000488281</ele>
        <time>2019-02-17T08:26:15.000Z</time>
      </trkpt>
      <trkpt lat="44.28701" lon="6.85385">
        <ele>1652.1999511719</ele>
        <time>2019-02-17T08:26:16.000Z</time>
      </trkpt>
      <trkpt lat="44.28699" lon="6.85382">
        <ele>1653</ele>
        <time>2019-02-17T08:26:19.000Z</time>
      </trkpt>
      <trkpt lat="44.28696" lon="6.85372">
        <ele>1653.5999755859</ele>
        <time>2019-02-17T08:26:28.000Z</time>
      </trkpt>
      <trkpt lat="44.28696" lon="6.85369">
        <ele>1654</ele>
        <time>2019-02-17T08:26:31.000Z</time>
      </trkpt>
      <trkpt lat="44.28696" lon="6.85359">
        <ele>1655</ele>
        <time>2019-02-17T08:26:38.000Z</time>
      </trkpt>
      <trkpt lat="44.28696" lon="6.85357">
        <ele>1655.1999511719</ele>
        <time>2019-02-17T08:26:39.000Z</time>
      </trkpt>
      <trkpt lat="44.28696" lon="6.85352">
        <ele>1655.5999755859</ele>
        <time>2019-02-17T08:26:43.000Z</time>
      </trkpt>
      <trkpt lat="44.28696" lon="6.85348">
        <ele>1656.1999511719</ele>
        <time>2019-02-17T08:26:46.000Z</time>
      </trkpt>
      <trkpt lat="44.28697" lon="6.85346">
        <ele>1656.5999755859</ele>
        <time>2019-02-17T08:26:48.000Z</time>
      </trkpt>
      <trkpt lat="44.28698" lon="6.85343">
        <ele>1656.8000488281</ele>
        <time>2019-02-17T08:26:51.000Z</time>
      </trkpt>
      <trkpt lat="44.287" lon="6.85339">
        <ele>1657</ele>
        <time>2019-02-17T08:26:55.000Z</time>
      </trkpt>
      <trkpt lat="44.28701" lon="6.85336">
        <ele>1657</ele>
        <time>2019-02-17T08:26:57.000Z</time>
      </trkpt>
      <trkpt lat="44.28701" lon="6.85336">
        <ele>1657.4000244141</ele>
        <time>2019-02-17T08:26:59.000Z</time>
      </trkpt>
      <trkpt lat="44.28701" lon="6.85336">
        <ele>1657.4000244141</ele>
        <time>2019-02-17T08:27:00.000Z</time>
      </trkpt>
      <trkpt lat="44.28705" lon="6.8533">
        <ele>1658.4000244141</ele>
        <time>2019-02-17T08:27:10.000Z</time>
      </trkpt>
      <trkpt lat="44.28705" lon="6.85323">
        <ele>1659.5999755859</ele>
        <time>2019-02-17T08:27:19.000Z</time>
      </trkpt>
      <trkpt lat="44.28706" lon="6.85314">
        <ele>1660.8000488281</ele>
        <time>2019-02-17T08:27:28.000Z</time>
      </trkpt>
      <trkpt lat="44.28708" lon="6.85309">
        <ele>1662</ele>
        <time>2019-02-17T08:27:32.000Z</time>
      </trkpt>
      <trkpt lat="44.28708" lon="6.85304">
        <ele>1663.1999511719</ele>
        <time>2019-02-17T08:27:39.000Z</time>
      </trkpt>
      <trkpt lat="44.28705" lon="6.85307">
        <ele>1664.1999511719</ele>
        <time>2019-02-17T08:27:45.000Z</time>
      </trkpt>
      <trkpt lat="44.28702" lon="6.85315">
        <ele>1665.4000244141</ele>
        <time>2019-02-17T08:27:53.000Z</time>
      </trkpt>
      <trkpt lat="44.28693" lon="6.85327">
        <ele>1666.5999755859</ele>
        <time>2019-02-17T08:28:09.000Z</time>
      </trkpt>
      <trkpt lat="44.28692" lon="6.85327">
        <ele>1666.8000488281</ele>
        <time>2019-02-17T08:28:10.000Z</time>
      </trkpt>
      <trkpt lat="44.2869" lon="6.85328">
        <ele>1667.8000488281</ele>
        <time>2019-02-17T08:28:13.000Z</time>
      </trkpt>
      <trkpt lat="44.28689" lon="6.85328">
        <ele>1669.1999511719</ele>
        <time>2019-02-17T08:28:19.000Z</time>
      </trkpt>
      <trkpt lat="44.28683" lon="6.8532">
        <ele>1670.1999511719</ele>
        <time>2019-02-17T08:28:41.000Z</time>
      </trkpt>
      <trkpt lat="44.28684" lon="6.8531">
        <ele>1671.1999511719</ele>
        <time>2019-02-17T08:28:58.000Z</time>
      </trkpt>
      <trkpt lat="44.2869" lon="6.85299">
        <ele>1672.4000244141</ele>
        <time>2019-02-17T08:29:43.000Z</time>
      </trkpt>
      <trkpt lat="44.28691" lon="6.85298">
        <ele>1672.4000244141</ele>
        <time>2019-02-17T08:29:44.000Z</time>
      </trkpt>
      <trkpt lat="44.28693" lon="6.85294">
        <ele>1672.5999755859</ele>
        <time>2019-02-17T08:29:47.000Z</time>
      </trkpt>
      <trkpt lat="44.28697" lon="6.85283">
        <ele>1673.4000244141</ele>
        <time>2019-02-17T08:29:56.000Z</time>
      </trkpt>
      <trkpt lat="44.28699" lon="6.85273">
        <ele>1674.5999755859</ele>
        <time>2019-02-17T08:30:04.000Z</time>
      </trkpt>
      <trkpt lat="44.28701" lon="6.85269">
        <ele>1675.1999511719</ele>
        <time>2019-02-17T08:30:07.000Z</time>
      </trkpt>
      <trkpt lat="44.28704" lon="6.85266">
        <ele>1675.5999755859</ele>
        <time>2019-02-17T08:30:11.000Z</time>
      </trkpt>
      <trkpt lat="44.28705" lon="6.85265">
        <ele>1675.8000488281</ele>
        <time>2019-02-17T08:30:12.000Z</time>
      </trkpt>
      <trkpt lat="44.28706" lon="6.85264">
        <ele>1676</ele>
        <time>2019-02-17T08:30:14.000Z</time>
      </trkpt>
      <trkpt lat="44.28713" lon="6.85254">
        <ele>1676.8000488281</ele>
        <time>2019-02-17T08:30:23.000Z</time>
      </trkpt>
      <trkpt lat="44.28713" lon="6.85253">
        <ele>1676.8000488281</ele>
        <time>2019-02-17T08:30:24.000Z</time>
      </trkpt>
      <trkpt lat="44.2872" lon="6.85243">
        <ele>1678</ele>
        <time>2019-02-17T08:30:35.000Z</time>
      </trkpt>
      <trkpt lat="44.28728" lon="6.85237">
        <ele>1679</ele>
        <time>2019-02-17T08:30:45.000Z</time>
      </trkpt>
      <trkpt lat="44.28732" lon="6.85235">
        <ele>1679.4000244141</ele>
        <time>2019-02-17T08:30:49.000Z</time>
      </trkpt>
      <trkpt lat="44.28735" lon="6.8523">
        <ele>1680</ele>
        <time>2019-02-17T08:30:54.000Z</time>
      </trkpt>
      <trkpt lat="44.28735" lon="6.85228">
        <ele>1680.1999511719</ele>
        <time>2019-02-17T08:30:55.000Z</time>
      </trkpt>
      <trkpt lat="44.28742" lon="6.85216">
        <ele>1681.1999511719</ele>
        <time>2019-02-17T08:31:07.000Z</time>
      </trkpt>
      <trkpt lat="44.28745" lon="6.85208">
        <ele>1681.8000488281</ele>
        <time>2019-02-17T08:31:13.000Z</time>
      </trkpt>
      <trkpt lat="44.28745" lon="6.85206">
        <ele>1682</ele>
        <time>2019-02-17T08:31:15.000Z</time>
      </trkpt>
      <trkpt lat="44.28745" lon="6.85205">
        <ele>1682</ele>
        <time>2019-02-17T08:31:17.000Z</time>
      </trkpt>
      <trkpt lat="44.28746" lon="6.85203">
        <ele>1682.5999755859</ele>
        <time>2019-02-17T08:31:19.000Z</time>
      </trkpt>
      <trkpt lat="44.28749" lon="6.85185">
        <ele>1683.5999755859</ele>
        <time>2019-02-17T08:31:35.000Z</time>
      </trkpt>
      <trkpt lat="44.28749" lon="6.85175">
        <ele>1684.5999755859</ele>
        <time>2019-02-17T08:31:43.000Z</time>
      </trkpt>
      <trkpt lat="44.28749" lon="6.85172">
        <ele>1684.8000488281</ele>
        <time>2019-02-17T08:31:45.000Z</time>
      </trkpt>
      <trkpt lat="44.28748" lon="6.85166">
        <ele>1685.1999511719</ele>
        <time>2019-02-17T08:31:50.000Z</time>
      </trkpt>
      <trkpt lat="44.28746" lon="6.85158">
        <ele>1685.8000488281</ele>
        <time>2019-02-17T08:31:59.000Z</time>
      </trkpt>
      <trkpt lat="44.28749" lon="6.8515">
        <ele>1686.1999511719</ele>
        <time>2019-02-17T08:33:14.000Z</time>
      </trkpt>
      <trkpt lat="44.2875" lon="6.85145">
        <ele>1686.8000488281</ele>
        <time>2019-02-17T08:33:18.000Z</time>
      </trkpt>
      <trkpt lat="44.28746" lon="6.85135">
        <ele>1687.1999511719</ele>
        <time>2019-02-17T08:33:26.000Z</time>
      </trkpt>
      <trkpt lat="44.28744" lon="6.85134">
        <ele>1687.5999755859</ele>
        <time>2019-02-17T08:33:28.000Z</time>
      </trkpt>
      <trkpt lat="44.28742" lon="6.8513">
        <ele>1687.8000488281</ele>
        <time>2019-02-17T08:33:32.000Z</time>
      </trkpt>
      <trkpt lat="44.28742" lon="6.85123">
        <ele>1687.8000488281</ele>
        <time>2019-02-17T08:33:37.000Z</time>
      </trkpt>
      <trkpt lat="44.28744" lon="6.85114">
        <ele>1688.5999755859</ele>
        <time>2019-02-17T08:33:43.000Z</time>
      </trkpt>
      <trkpt lat="44.28745" lon="6.8511">
        <ele>1688.8000488281</ele>
        <time>2019-02-17T08:33:46.000Z</time>
      </trkpt>
      <trkpt lat="44.28748" lon="6.85095">
        <ele>1690</ele>
        <time>2019-02-17T08:33:55.000Z</time>
      </trkpt>
      <trkpt lat="44.2875" lon="6.85089">
        <ele>1690.4000244141</ele>
        <time>2019-02-17T08:34:00.000Z</time>
      </trkpt>
      <trkpt lat="44.28752" lon="6.85086">
        <ele>1690.4000244141</ele>
        <time>2019-02-17T08:34:03.000Z</time>
      </trkpt>
      <trkpt lat="44.28757" lon="6.85081">
        <ele>1690.4000244141</ele>
        <time>2019-02-17T08:34:07.000Z</time>
      </trkpt>
      <trkpt lat="44.2876" lon="6.85075">
        <ele>1691</ele>
        <time>2019-02-17T08:34:12.000Z</time>
      </trkpt>
      <trkpt lat="44.2876" lon="6.85068">
        <ele>1691</ele>
        <time>2019-02-17T08:34:16.000Z</time>
      </trkpt>
      <trkpt lat="44.2876" lon="6.85058">
        <ele>1691.1999511719</ele>
        <time>2019-02-17T08:34:23.000Z</time>
      </trkpt>
      <trkpt lat="44.28761" lon="6.85055">
        <ele>1691.1999511719</ele>
        <time>2019-02-17T08:34:25.000Z</time>
      </trkpt>
      <trkpt lat="44.28761" lon="6.85048">
        <ele>1691.4000244141</ele>
        <time>2019-02-17T08:34:29.000Z</time>
      </trkpt>
      <trkpt lat="44.28762" lon="6.85044">
        <ele>1691.8000488281</ele>
        <time>2019-02-17T08:34:32.000Z</time>
      </trkpt>
      <trkpt lat="44.28763" lon="6.85041">
        <ele>1691.8000488281</ele>
        <time>2019-02-17T08:34:34.000Z</time>
      </trkpt>
      <trkpt lat="44.28765" lon="6.85039">
        <ele>1692</ele>
        <time>2019-02-17T08:34:36.000Z</time>
      </trkpt>
      <trkpt lat="44.28766" lon="6.85033">
        <ele>1692.4000244141</ele>
        <time>2019-02-17T08:34:40.000Z</time>
      </trkpt>
      <trkpt lat="44.28776" lon="6.85022">
        <ele>1692.8000488281</ele>
        <time>2019-02-17T08:34:49.000Z</time>
      </trkpt>
      <trkpt lat="44.28777" lon="6.85015">
        <ele>1693</ele>
        <time>2019-02-17T08:34:54.000Z</time>
      </trkpt>
      <trkpt lat="44.28778" lon="6.85013">
        <ele>1693</ele>
        <time>2019-02-17T08:34:55.000Z</time>
      </trkpt>
      <trkpt lat="44.28781" lon="6.84997">
        <ele>1693.5999755859</ele>
        <time>2019-02-17T08:35:06.000Z</time>
      </trkpt>
      <trkpt lat="44.2879" lon="6.84985">
        <ele>1694</ele>
        <time>2019-02-17T08:35:17.000Z</time>
      </trkpt>
      <trkpt lat="44.28791" lon="6.84981">
        <ele>1694.1999511719</ele>
        <time>2019-02-17T08:35:19.000Z</time>
      </trkpt>
      <trkpt lat="44.28793" lon="6.84973">
        <ele>1694.5999755859</ele>
        <time>2019-02-17T08:35:24.000Z</time>
      </trkpt>
      <trkpt lat="44.28793" lon="6.84968">
        <ele>1694.8000488281</ele>
        <time>2019-02-17T08:35:27.000Z</time>
      </trkpt>
      <trkpt lat="44.28794" lon="6.84964">
        <ele>1695.1999511719</ele>
        <time>2019-02-17T08:35:30.000Z</time>
      </trkpt>
      <trkpt lat="44.28798" lon="6.84957">
        <ele>1695.8000488281</ele>
        <time>2019-02-17T08:35:36.000Z</time>
      </trkpt>
      <trkpt lat="44.288" lon="6.84955">
        <ele>1696</ele>
        <time>2019-02-17T08:35:38.000Z</time>
      </trkpt>
      <trkpt lat="44.28801" lon="6.84952">
        <ele>1696.4000244141</ele>
        <time>2019-02-17T08:35:41.000Z</time>
      </trkpt>
      <trkpt lat="44.28804" lon="6.84947">
        <ele>1696.5999755859</ele>
        <time>2019-02-17T08:35:45.000Z</time>
      </trkpt>
      <trkpt lat="44.28805" lon="6.84945">
        <ele>1696.8000488281</ele>
        <time>2019-02-17T08:35:47.000Z</time>
      </trkpt>
      <trkpt lat="44.28809" lon="6.84933">
        <ele>1697.4000244141</ele>
        <time>2019-02-17T08:35:55.000Z</time>
      </trkpt>
      <trkpt lat="44.2881" lon="6.84914">
        <ele>1698.4000244141</ele>
        <time>2019-02-17T08:36:09.000Z</time>
      </trkpt>
      <trkpt lat="44.288" lon="6.84903">
        <ele>1699.4000244141</ele>
        <time>2019-02-17T08:36:19.000Z</time>
      </trkpt>
      <trkpt lat="44.28797" lon="6.84898">
        <ele>1699.5999755859</ele>
        <time>2019-02-17T08:36:24.000Z</time>
      </trkpt>
      <trkpt lat="44.2879" lon="6.84875">
        <ele>1700.5999755859</ele>
        <time>2019-02-17T08:36:42.000Z</time>
      </trkpt>
      <trkpt lat="44.2879" lon="6.84871">
        <ele>1701</ele>
        <time>2019-02-17T08:36:45.000Z</time>
      </trkpt>
      <trkpt lat="44.2879" lon="6.84866">
        <ele>1701.4000244141</ele>
        <time>2019-02-17T08:36:48.000Z</time>
      </trkpt>
      <trkpt lat="44.2879" lon="6.84859">
        <ele>1701.8000488281</ele>
        <time>2019-02-17T08:36:53.000Z</time>
      </trkpt>
      <trkpt lat="44.28789" lon="6.84857">
        <ele>1701.8000488281</ele>
        <time>2019-02-17T08:36:55.000Z</time>
      </trkpt>
      <trkpt lat="44.28788" lon="6.84853">
        <ele>1702</ele>
        <time>2019-02-17T08:36:58.000Z</time>
      </trkpt>
      <trkpt lat="44.28786" lon="6.84848">
        <ele>1702.5999755859</ele>
        <time>2019-02-17T08:37:02.000Z</time>
      </trkpt>
      <trkpt lat="44.28786" lon="6.84847">
        <ele>1702.8000488281</ele>
        <time>2019-02-17T08:37:03.000Z</time>
      </trkpt>
      <trkpt lat="44.28784" lon="6.84843">
        <ele>1703</ele>
        <time>2019-02-17T08:37:07.000Z</time>
      </trkpt>
      <trkpt lat="44.28783" lon="6.8484">
        <ele>1703.4000244141</ele>
        <time>2019-02-17T08:37:10.000Z</time>
      </trkpt>
      <trkpt lat="44.28781" lon="6.84836">
        <ele>1704</ele>
        <time>2019-02-17T08:37:14.000Z</time>
      </trkpt>
      <trkpt lat="44.2878" lon="6.84835">
        <ele>1704</ele>
        <time>2019-02-17T08:37:15.000Z</time>
      </trkpt>
      <trkpt lat="44.28779" lon="6.84825">
        <ele>1705</ele>
        <time>2019-02-17T08:37:23.000Z</time>
      </trkpt>
      <trkpt lat="44.28779" lon="6.84823">
        <ele>1705.1999511719</ele>
        <time>2019-02-17T08:37:25.000Z</time>
      </trkpt>
      <trkpt lat="44.28779" lon="6.84819">
        <ele>1705.4000244141</ele>
        <time>2019-02-17T08:37:28.000Z</time>
      </trkpt>
      <trkpt lat="44.28779" lon="6.84811">
        <ele>1706</ele>
        <time>2019-02-17T08:37:32.000Z</time>
      </trkpt>
      <trkpt lat="44.28779" lon="6.8481">
        <ele>1706</ele>
        <time>2019-02-17T08:37:33.000Z</time>
      </trkpt>
      <trkpt lat="44.2878" lon="6.84808">
        <ele>1706.1999511719</ele>
        <time>2019-02-17T08:37:35.000Z</time>
      </trkpt>
      <trkpt lat="44.2878" lon="6.84804">
        <ele>1706.4000244141</ele>
        <time>2019-02-17T08:37:37.000Z</time>
      </trkpt>
      <trkpt lat="44.28781" lon="6.84801">
        <ele>1706.8000488281</ele>
        <time>2019-02-17T08:37:40.000Z</time>
      </trkpt>
      <trkpt lat="44.28782" lon="6.84799">
        <ele>1706.8000488281</ele>
        <time>2019-02-17T08:37:42.000Z</time>
      </trkpt>
      <trkpt lat="44.28783" lon="6.84795">
        <ele>1707</ele>
        <time>2019-02-17T08:37:45.000Z</time>
      </trkpt>
      <trkpt lat="44.28784" lon="6.84794">
        <ele>1707.1999511719</ele>
        <time>2019-02-17T08:37:46.000Z</time>
      </trkpt>
      <trkpt lat="44.28787" lon="6.8479">
        <ele>1707.5999755859</ele>
        <time>2019-02-17T08:37:50.000Z</time>
      </trkpt>
      <trkpt lat="44.28793" lon="6.84778">
        <ele>1708.1999511719</ele>
        <time>2019-02-17T08:37:59.000Z</time>
      </trkpt>
      <trkpt lat="44.28794" lon="6.84777">
        <ele>1708.1999511719</ele>
        <time>2019-02-17T08:38:00.000Z</time>
      </trkpt>
      <trkpt lat="44.28796" lon="6.84773">
        <ele>1708.5999755859</ele>
        <time>2019-02-17T08:38:03.000Z</time>
      </trkpt>
      <trkpt lat="44.28796" lon="6.8477">
        <ele>1708.8000488281</ele>
        <time>2019-02-17T08:38:05.000Z</time>
      </trkpt>
      <trkpt lat="44.28792" lon="6.84762">
        <ele>1709.1999511719</ele>
        <time>2019-02-17T08:38:09.000Z</time>
      </trkpt>
      <trkpt lat="44.2879" lon="6.84757">
        <ele>1709.1999511719</ele>
        <time>2019-02-17T08:38:12.000Z</time>
      </trkpt>
      <trkpt lat="44.2879" lon="6.84755">
        <ele>1709.4000244141</ele>
        <time>2019-02-17T08:38:13.000Z</time>
      </trkpt>
      <trkpt lat="44.2879" lon="6.84752">
        <ele>1709.8000488281</ele>
        <time>2019-02-17T08:38:15.000Z</time>
      </trkpt>
      <trkpt lat="44.28791" lon="6.84746">
        <ele>1710.1999511719</ele>
        <time>2019-02-17T08:38:19.000Z</time>
      </trkpt>
      <trkpt lat="44.28792" lon="6.84745">
        <ele>1710.4000244141</ele>
        <time>2019-02-17T08:38:20.000Z</time>
      </trkpt>
      <trkpt lat="44.28793" lon="6.84743">
        <ele>1710.4000244141</ele>
        <time>2019-02-17T08:38:22.000Z</time>
      </trkpt>
      <trkpt lat="44.28792" lon="6.84735">
        <ele>1710.5999755859</ele>
        <time>2019-02-17T08:38:26.000Z</time>
      </trkpt>
      <trkpt lat="44.28793" lon="6.84733">
        <ele>1711</ele>
        <time>2019-02-17T08:38:28.000Z</time>
      </trkpt>
      <trkpt lat="44.28792" lon="6.84723">
        <ele>1711.1999511719</ele>
        <time>2019-02-17T08:38:34.000Z</time>
      </trkpt>
      <trkpt lat="44.28792" lon="6.84721">
        <ele>1711.1999511719</ele>
        <time>2019-02-17T08:38:35.000Z</time>
      </trkpt>
      <trkpt lat="44.28792" lon="6.84719">
        <ele>1711.5999755859</ele>
        <time>2019-02-17T08:38:37.000Z</time>
      </trkpt>
      <trkpt lat="44.28796" lon="6.84712">
        <ele>1712</ele>
        <time>2019-02-17T08:38:44.000Z</time>
      </trkpt>
      <trkpt lat="44.28799" lon="6.8471">
        <ele>1712.1999511719</ele>
        <time>2019-02-17T08:38:47.000Z</time>
      </trkpt>
      <trkpt lat="44.28805" lon="6.84707">
        <ele>1712.8000488281</ele>
        <time>2019-02-17T08:38:53.000Z</time>
      </trkpt>
      <trkpt lat="44.28807" lon="6.84704">
        <ele>1713.1999511719</ele>
        <time>2019-02-17T08:38:57.000Z</time>
      </trkpt>
      <trkpt lat="44.2881" lon="6.84703">
        <ele>1713.4000244141</ele>
        <time>2019-02-17T08:39:00.000Z</time>
      </trkpt>
      <trkpt lat="44.28815" lon="6.84697">
        <ele>1713.5999755859</ele>
        <time>2019-02-17T08:39:06.000Z</time>
      </trkpt>
      <trkpt lat="44.28821" lon="6.84693">
        <ele>1714.1999511719</ele>
        <time>2019-02-17T08:39:13.000Z</time>
      </trkpt>
      <trkpt lat="44.28822" lon="6.84692">
        <ele>1714.4000244141</ele>
        <time>2019-02-17T08:39:16.000Z</time>
      </trkpt>
      <trkpt lat="44.28829" lon="6.84687">
        <ele>1715</ele>
        <time>2019-02-17T08:39:25.000Z</time>
      </trkpt>
      <trkpt lat="44.28834" lon="6.84683">
        <ele>1715.4000244141</ele>
        <time>2019-02-17T08:39:30.000Z</time>
      </trkpt>
      <trkpt lat="44.28837" lon="6.84681">
        <ele>1715.4000244141</ele>
        <time>2019-02-17T08:39:32.000Z</time>
      </trkpt>
      <trkpt lat="44.28838" lon="6.84676">
        <ele>1715.5999755859</ele>
        <time>2019-02-17T08:39:37.000Z</time>
      </trkpt>
      <trkpt lat="44.28836" lon="6.84674">
        <ele>1715.8000488281</ele>
        <time>2019-02-17T08:39:39.000Z</time>
      </trkpt>
      <trkpt lat="44.28839" lon="6.8467">
        <ele>1716.4000244141</ele>
        <time>2019-02-17T08:39:45.000Z</time>
      </trkpt>
      <trkpt lat="44.2884" lon="6.84664">
        <ele>1716.5999755859</ele>
        <time>2019-02-17T08:39:50.000Z</time>
      </trkpt>
      <trkpt lat="44.28844" lon="6.84658">
        <ele>1717.4000244141</ele>
        <time>2019-02-17T08:39:58.000Z</time>
      </trkpt>
      <trkpt lat="44.28845" lon="6.84656">
        <ele>1717.4000244141</ele>
        <time>2019-02-17T08:40:00.000Z</time>
      </trkpt>
      <trkpt lat="44.28846" lon="6.84655">
        <ele>1717.5999755859</ele>
        <time>2019-02-17T08:40:01.000Z</time>
      </trkpt>
      <trkpt lat="44.28846" lon="6.84653">
        <ele>1717.5999755859</ele>
        <time>2019-02-17T08:40:03.000Z</time>
      </trkpt>
      <trkpt lat="44.28846" lon="6.8465">
        <ele>1717.5999755859</ele>
        <time>2019-02-17T08:40:05.000Z</time>
      </trkpt>
      <trkpt lat="44.28848" lon="6.84642">
        <ele>1718.1999511719</ele>
        <time>2019-02-17T08:40:11.000Z</time>
      </trkpt>
      <trkpt lat="44.2885" lon="6.84641">
        <ele>1718.4000244141</ele>
        <time>2019-02-17T08:40:13.000Z</time>
      </trkpt>
      <trkpt lat="44.28851" lon="6.84638">
        <ele>1718.4000244141</ele>
        <time>2019-02-17T08:40:16.000Z</time>
      </trkpt>
      <trkpt lat="44.28852" lon="6.84637">
        <ele>1718.5999755859</ele>
        <time>2019-02-17T08:40:18.000Z</time>
      </trkpt>
      <trkpt lat="44.28852" lon="6.84636">
        <ele>1718.8000488281</ele>
        <time>2019-02-17T08:40:19.000Z</time>
      </trkpt>
      <trkpt lat="44.28852" lon="6.84631">
        <ele>1719.1999511719</ele>
        <time>2019-02-17T08:40:23.000Z</time>
      </trkpt>
      <trkpt lat="44.28853" lon="6.8463">
        <ele>1719.4000244141</ele>
        <time>2019-02-17T08:40:25.000Z</time>
      </trkpt>
      <trkpt lat="44.28854" lon="6.8462">
        <ele>1719.8000488281</ele>
        <time>2019-02-17T08:40:35.000Z</time>
      </trkpt>
      <trkpt lat="44.28853" lon="6.84616">
        <ele>1720.1999511719</ele>
        <time>2019-02-17T08:40:37.000Z</time>
      </trkpt>
      <trkpt lat="44.28853" lon="6.84613">
        <ele>1720.1999511719</ele>
        <time>2019-02-17T08:40:39.000Z</time>
      </trkpt>
      <trkpt lat="44.28853" lon="6.84611">
        <ele>1720.4000244141</ele>
        <time>2019-02-17T08:40:41.000Z</time>
      </trkpt>
      <trkpt lat="44.28853" lon="6.84603">
        <ele>1721</ele>
        <time>2019-02-17T08:40:47.000Z</time>
      </trkpt>
      <trkpt lat="44.28864" lon="6.84593">
        <ele>1722</ele>
        <time>2019-02-17T08:41:00.000Z</time>
      </trkpt>
      <trkpt lat="44.28865" lon="6.8458">
        <ele>1723</ele>
        <time>2019-02-17T08:41:13.000Z</time>
      </trkpt>
      <trkpt lat="44.28867" lon="6.8458">
        <ele>1723.1999511719</ele>
        <time>2019-02-17T08:41:14.000Z</time>
      </trkpt>
      <trkpt lat="44.28868" lon="6.84573">
        <ele>1723.4000244141</ele>
        <time>2019-02-17T08:41:19.000Z</time>
      </trkpt>
      <trkpt lat="44.28868" lon="6.84571">
        <ele>1723.4000244141</ele>
        <time>2019-02-17T08:41:21.000Z</time>
      </trkpt>
      <trkpt lat="44.28875" lon="6.84561">
        <ele>1724.1999511719</ele>
        <time>2019-02-17T08:41:35.000Z</time>
      </trkpt>
      <trkpt lat="44.28877" lon="6.84544">
        <ele>1725</ele>
        <time>2019-02-17T08:41:48.000Z</time>
      </trkpt>
      <trkpt lat="44.28878" lon="6.84541">
        <ele>1725.1999511719</ele>
        <time>2019-02-17T08:41:51.000Z</time>
      </trkpt>
      <trkpt lat="44.28878" lon="6.8454">
        <ele>1725.1999511719</ele>
        <time>2019-02-17T08:41:52.000Z</time>
      </trkpt>
      <trkpt lat="44.2888" lon="6.84535">
        <ele>1725.5999755859</ele>
        <time>2019-02-17T08:41:55.000Z</time>
      </trkpt>
      <trkpt lat="44.2888" lon="6.84533">
        <ele>1726</ele>
        <time>2019-02-17T08:41:57.000Z</time>
      </trkpt>
      <trkpt lat="44.28882" lon="6.84522">
        <ele>1726.1999511719</ele>
        <time>2019-02-17T08:42:04.000Z</time>
      </trkpt>
      <trkpt lat="44.28882" lon="6.84519">
        <ele>1726.5999755859</ele>
        <time>2019-02-17T08:42:06.000Z</time>
      </trkpt>
      <trkpt lat="44.28883" lon="6.84511">
        <ele>1726.8000488281</ele>
        <time>2019-02-17T08:42:11.000Z</time>
      </trkpt>
      <trkpt lat="44.28885" lon="6.84503">
        <ele>1727.4000244141</ele>
        <time>2019-02-17T08:42:16.000Z</time>
      </trkpt>
      <trkpt lat="44.28889" lon="6.84501">
        <ele>1727.8000488281</ele>
        <time>2019-02-17T08:42:20.000Z</time>
      </trkpt>
      <trkpt lat="44.28895" lon="6.84499">
        <ele>1728</ele>
        <time>2019-02-17T08:42:24.000Z</time>
      </trkpt>
      <trkpt lat="44.28901" lon="6.84499">
        <ele>1728.4000244141</ele>
        <time>2019-02-17T08:42:28.000Z</time>
      </trkpt>
      <trkpt lat="44.28903" lon="6.84498">
        <ele>1728.4000244141</ele>
        <time>2019-02-17T08:42:30.000Z</time>
      </trkpt>
      <trkpt lat="44.28904" lon="6.84498">
        <ele>1728.4000244141</ele>
        <time>2019-02-17T08:42:31.000Z</time>
      </trkpt>
      <trkpt lat="44.28906" lon="6.84496">
        <ele>1728.5999755859</ele>
        <time>2019-02-17T08:42:33.000Z</time>
      </trkpt>
      <trkpt lat="44.28908" lon="6.84495">
        <ele>1728.8000488281</ele>
        <time>2019-02-17T08:42:35.000Z</time>
      </trkpt>
      <trkpt lat="44.2891" lon="6.84491">
        <ele>1729.1999511719</ele>
        <time>2019-02-17T08:42:40.000Z</time>
      </trkpt>
      <trkpt lat="44.2891" lon="6.84489">
        <ele>1729.5999755859</ele>
        <time>2019-02-17T08:42:42.000Z</time>
      </trkpt>
      <trkpt lat="44.28916" lon="6.84485">
        <ele>1730.4000244141</ele>
        <time>2019-02-17T08:42:48.000Z</time>
      </trkpt>
      <trkpt lat="44.2892" lon="6.8448">
        <ele>1730.8000488281</ele>
        <time>2019-02-17T08:42:53.000Z</time>
      </trkpt>
      <trkpt lat="44.28922" lon="6.84478">
        <ele>1731</ele>
        <time>2019-02-17T08:42:55.000Z</time>
      </trkpt>
      <trkpt lat="44.28923" lon="6.8447">
        <ele>1731.8000488281</ele>
        <time>2019-02-17T08:43:01.000Z</time>
      </trkpt>
      <trkpt lat="44.28922" lon="6.84466">
        <ele>1732.1999511719</ele>
        <time>2019-02-17T08:43:04.000Z</time>
      </trkpt>
      <trkpt lat="44.28921" lon="6.84459">
        <ele>1732.8000488281</ele>
        <time>2019-02-17T08:43:10.000Z</time>
      </trkpt>
      <trkpt lat="44.28921" lon="6.84457">
        <ele>1733</ele>
        <time>2019-02-17T08:43:11.000Z</time>
      </trkpt>
      <trkpt lat="44.2892" lon="6.84454">
        <ele>1733.1999511719</ele>
        <time>2019-02-17T08:43:13.000Z</time>
      </trkpt>
      <trkpt lat="44.28913" lon="6.84441">
        <ele>1733.5999755859</ele>
        <time>2019-02-17T08:43:25.000Z</time>
      </trkpt>
      <trkpt lat="44.2891" lon="6.84438">
        <ele>1734</ele>
        <time>2019-02-17T08:43:28.000Z</time>
      </trkpt>
      <trkpt lat="44.28909" lon="6.84436">
        <ele>1734.4000244141</ele>
        <time>2019-02-17T08:43:30.000Z</time>
      </trkpt>
      <trkpt lat="44.28908" lon="6.84432">
        <ele>1734.4000244141</ele>
        <time>2019-02-17T08:43:34.000Z</time>
      </trkpt>
      <trkpt lat="44.28908" lon="6.84427">
        <ele>1734.1999511719</ele>
        <time>2019-02-17T08:43:37.000Z</time>
      </trkpt>
      <trkpt lat="44.28906" lon="6.8442">
        <ele>1734</ele>
        <time>2019-02-17T08:43:41.000Z</time>
      </trkpt>
      <trkpt lat="44.28907" lon="6.84418">
        <ele>1734</ele>
        <time>2019-02-17T08:43:43.000Z</time>
      </trkpt>
      <trkpt lat="44.28908" lon="6.84412">
        <ele>1734</ele>
        <time>2019-02-17T08:43:47.000Z</time>
      </trkpt>
      <trkpt lat="44.28909" lon="6.8441">
        <ele>1734.1999511719</ele>
        <time>2019-02-17T08:43:49.000Z</time>
      </trkpt>
      <trkpt lat="44.28911" lon="6.84404">
        <ele>1734.5999755859</ele>
        <time>2019-02-17T08:43:53.000Z</time>
      </trkpt>
      <trkpt lat="44.28914" lon="6.84397">
        <ele>1734.4000244141</ele>
        <time>2019-02-17T08:43:57.000Z</time>
      </trkpt>
      <trkpt lat="44.28915" lon="6.84395">
        <ele>1734.5999755859</ele>
        <time>2019-02-17T08:43:59.000Z</time>
      </trkpt>
      <trkpt lat="44.28916" lon="6.8439">
        <ele>1734.8000488281</ele>
        <time>2019-02-17T08:44:02.000Z</time>
      </trkpt>
      <trkpt lat="44.28918" lon="6.84389">
        <ele>1735</ele>
        <time>2019-02-17T08:44:03.000Z</time>
      </trkpt>
      <trkpt lat="44.28918" lon="6.84388">
        <ele>1735.1999511719</ele>
        <time>2019-02-17T08:44:04.000Z</time>
      </trkpt>
      <trkpt lat="44.28921" lon="6.84381">
        <ele>1734.8000488281</ele>
        <time>2019-02-17T08:44:10.000Z</time>
      </trkpt>
      <trkpt lat="44.28922" lon="6.84378">
        <ele>1734.8000488281</ele>
        <time>2019-02-17T08:44:12.000Z</time>
      </trkpt>
      <trkpt lat="44.28922" lon="6.84376">
        <ele>1735</ele>
        <time>2019-02-17T08:44:14.000Z</time>
      </trkpt>
      <trkpt lat="44.28926" lon="6.84369">
        <ele>1735.4000244141</ele>
        <time>2019-02-17T08:44:19.000Z</time>
      </trkpt>
      <trkpt lat="44.28929" lon="6.84364">
        <ele>1735.8000488281</ele>
        <time>2019-02-17T08:44:24.000Z</time>
      </trkpt>
      <trkpt lat="44.28931" lon="6.84361">
        <ele>1736</ele>
        <time>2019-02-17T08:44:27.000Z</time>
      </trkpt>
      <trkpt lat="44.28935" lon="6.84356">
        <ele>1736.1999511719</ele>
        <time>2019-02-17T08:44:33.000Z</time>
      </trkpt>
      <trkpt lat="44.28938" lon="6.84333">
        <ele>1736.8000488281</ele>
        <time>2019-02-17T08:44:42.000Z</time>
      </trkpt>
      <trkpt lat="44.28939" lon="6.84325">
        <ele>1736.8000488281</ele>
        <time>2019-02-17T08:44:47.000Z</time>
      </trkpt>
      <trkpt lat="44.28942" lon="6.84322">
        <ele>1736.8000488281</ele>
        <time>2019-02-17T08:44:49.000Z</time>
      </trkpt>
      <trkpt lat="44.28944" lon="6.8432">
        <ele>1737</ele>
        <time>2019-02-17T08:44:51.000Z</time>
      </trkpt>
      <trkpt lat="44.28945" lon="6.84319">
        <ele>1737</ele>
        <time>2019-02-17T08:44:52.000Z</time>
      </trkpt>
      <trkpt lat="44.2895" lon="6.84312">
        <ele>1737.4000244141</ele>
        <time>2019-02-17T08:44:58.000Z</time>
      </trkpt>
      <trkpt lat="44.28952" lon="6.84308">
        <ele>1737.8000488281</ele>
        <time>2019-02-17T08:45:02.000Z</time>
      </trkpt>
      <trkpt lat="44.28954" lon="6.84305">
        <ele>1738.1999511719</ele>
        <time>2019-02-17T08:45:06.000Z</time>
      </trkpt>
      <trkpt lat="44.28956" lon="6.84301">
        <ele>1738.4000244141</ele>
        <time>2019-02-17T08:45:10.000Z</time>
      </trkpt>
      <trkpt lat="44.28958" lon="6.84295">
        <ele>1739</ele>
        <time>2019-02-17T08:45:15.000Z</time>
      </trkpt>
      <trkpt lat="44.2896" lon="6.84292">
        <ele>1739.4000244141</ele>
        <time>2019-02-17T08:45:17.000Z</time>
      </trkpt>
      <trkpt lat="44.2896" lon="6.8429">
        <ele>1739.4000244141</ele>
        <time>2019-02-17T08:45:18.000Z</time>
      </trkpt>
      <trkpt lat="44.28964" lon="6.84274">
        <ele>1740.1999511719</ele>
        <time>2019-02-17T08:45:30.000Z</time>
      </trkpt>
      <trkpt lat="44.28964" lon="6.8427">
        <ele>1740.5999755859</ele>
        <time>2019-02-17T08:45:32.000Z</time>
      </trkpt>
      <trkpt lat="44.28966" lon="6.84262">
        <ele>1740.8000488281</ele>
        <time>2019-02-17T08:45:38.000Z</time>
      </trkpt>
      <trkpt lat="44.28967" lon="6.84257">
        <ele>1741.1999511719</ele>
        <time>2019-02-17T08:45:41.000Z</time>
      </trkpt>
      <trkpt lat="44.28968" lon="6.84248">
        <ele>1741.4000244141</ele>
        <time>2019-02-17T08:45:47.000Z</time>
      </trkpt>
      <trkpt lat="44.28968" lon="6.84246">
        <ele>1741.5999755859</ele>
        <time>2019-02-17T08:45:48.000Z</time>
      </trkpt>
      <trkpt lat="44.28968" lon="6.84245">
        <ele>1741.8000488281</ele>
        <time>2019-02-17T08:45:49.000Z</time>
      </trkpt>
      <trkpt lat="44.28967" lon="6.84238">
        <ele>1742</ele>
        <time>2019-02-17T08:45:53.000Z</time>
      </trkpt>
      <trkpt lat="44.28966" lon="6.84236">
        <ele>1742.1999511719</ele>
        <time>2019-02-17T08:45:55.000Z</time>
      </trkpt>
      <trkpt lat="44.28966" lon="6.84232">
        <ele>1742.4000244141</ele>
        <time>2019-02-17T08:45:59.000Z</time>
      </trkpt>
      <trkpt lat="44.28966" lon="6.8423">
        <ele>1742.8000488281</ele>
        <time>2019-02-17T08:46:01.000Z</time>
      </trkpt>
      <trkpt lat="44.28965" lon="6.84225">
        <ele>1743.1999511719</ele>
        <time>2019-02-17T08:46:04.000Z</time>
      </trkpt>
      <trkpt lat="44.28964" lon="6.84222">
        <ele>1743.4000244141</ele>
        <time>2019-02-17T08:46:06.000Z</time>
      </trkpt>
      <trkpt lat="44.28963" lon="6.8422">
        <ele>1743.5999755859</ele>
        <time>2019-02-17T08:46:09.000Z</time>
      </trkpt>
      <trkpt lat="44.28965" lon="6.84218">
        <ele>1743.8000488281</ele>
        <time>2019-02-17T08:46:11.000Z</time>
      </trkpt>
      <trkpt lat="44.28968" lon="6.84214">
        <ele>1744</ele>
        <time>2019-02-17T08:46:15.000Z</time>
      </trkpt>
      <trkpt lat="44.2897" lon="6.84209">
        <ele>1744.4000244141</ele>
        <time>2019-02-17T08:46:19.000Z</time>
      </trkpt>
      <trkpt lat="44.28972" lon="6.84207">
        <ele>1744.8000488281</ele>
        <time>2019-02-17T08:46:21.000Z</time>
      </trkpt>
      <trkpt lat="44.28973" lon="6.84204">
        <ele>1745</ele>
        <time>2019-02-17T08:46:23.000Z</time>
      </trkpt>
      <trkpt lat="44.28974" lon="6.84202">
        <ele>1745</ele>
        <time>2019-02-17T08:46:25.000Z</time>
      </trkpt>
      <trkpt lat="44.28974" lon="6.84192">
        <ele>1745.4000244141</ele>
        <time>2019-02-17T08:46:32.000Z</time>
      </trkpt>
      <trkpt lat="44.28974" lon="6.84189">
        <ele>1745.5999755859</ele>
        <time>2019-02-17T08:46:34.000Z</time>
      </trkpt>
      <trkpt lat="44.28972" lon="6.84182">
        <ele>1746</ele>
        <time>2019-02-17T08:46:38.000Z</time>
      </trkpt>
      <trkpt lat="44.28973" lon="6.84181">
        <ele>1746</ele>
        <time>2019-02-17T08:46:39.000Z</time>
      </trkpt>
      <trkpt lat="44.28972" lon="6.84175">
        <ele>1746.5999755859</ele>
        <time>2019-02-17T08:46:44.000Z</time>
      </trkpt>
      <trkpt lat="44.28973" lon="6.84172">
        <ele>1747.1999511719</ele>
        <time>2019-02-17T08:46:47.000Z</time>
      </trkpt>
      <trkpt lat="44.28973" lon="6.8417">
        <ele>1747.1999511719</ele>
        <time>2019-02-17T08:46:49.000Z</time>
      </trkpt>
      <trkpt lat="44.28974" lon="6.84166">
        <ele>1747.5999755859</ele>
        <time>2019-02-17T08:46:53.000Z</time>
      </trkpt>
      <trkpt lat="44.28976" lon="6.84161">
        <ele>1748</ele>
        <time>2019-02-17T08:46:57.000Z</time>
      </trkpt>
      <trkpt lat="44.28976" lon="6.84158">
        <ele>1748.1999511719</ele>
        <time>2019-02-17T08:46:59.000Z</time>
      </trkpt>
      <trkpt lat="44.28977" lon="6.84155">
        <ele>1748.5999755859</ele>
        <time>2019-02-17T08:47:03.000Z</time>
      </trkpt>
      <trkpt lat="44.28977" lon="6.84151">
        <ele>1749.1999511719</ele>
        <time>2019-02-17T08:47:06.000Z</time>
      </trkpt>
      <trkpt lat="44.28979" lon="6.84147">
        <ele>1749.8000488281</ele>
        <time>2019-02-17T08:47:10.000Z</time>
      </trkpt>
      <trkpt lat="44.28985" lon="6.84138">
        <ele>1750.1999511719</ele>
        <time>2019-02-17T08:47:17.000Z</time>
      </trkpt>
      <trkpt lat="44.28984" lon="6.84133">
        <ele>1750.8000488281</ele>
        <time>2019-02-17T08:47:21.000Z</time>
      </trkpt>
      <trkpt lat="44.28983" lon="6.84132">
        <ele>1750.8000488281</ele>
        <time>2019-02-17T08:47:22.000Z</time>
      </trkpt>
      <trkpt lat="44.28981" lon="6.84126">
        <ele>1751.4000244141</ele>
        <time>2019-02-17T08:47:26.000Z</time>
      </trkpt>
      <trkpt lat="44.28981" lon="6.84122">
        <ele>1751.4000244141</ele>
        <time>2019-02-17T08:47:28.000Z</time>
      </trkpt>
      <trkpt lat="44.28984" lon="6.84115">
        <ele>1752.1999511719</ele>
        <time>2019-02-17T08:47:33.000Z</time>
      </trkpt>
      <trkpt lat="44.28984" lon="6.84111">
        <ele>1752.4000244141</ele>
        <time>2019-02-17T08:47:36.000Z</time>
      </trkpt>
      <trkpt lat="44.28984" lon="6.84103">
        <ele>1753</ele>
        <time>2019-02-17T08:47:42.000Z</time>
      </trkpt>
      <trkpt lat="44.28983" lon="6.84098">
        <ele>1753.4000244141</ele>
        <time>2019-02-17T08:47:46.000Z</time>
      </trkpt>
      <trkpt lat="44.28983" lon="6.84096">
        <ele>1753.4000244141</ele>
        <time>2019-02-17T08:47:47.000Z</time>
      </trkpt>
      <trkpt lat="44.28982" lon="6.84093">
        <ele>1753.5999755859</ele>
        <time>2019-02-17T08:47:49.000Z</time>
      </trkpt>
      <trkpt lat="44.28981" lon="6.84088">
        <ele>1754.4000244141</ele>
        <time>2019-02-17T08:47:53.000Z</time>
      </trkpt>
      <trkpt lat="44.28981" lon="6.84084">
        <ele>1754.5999755859</ele>
        <time>2019-02-17T08:47:57.000Z</time>
      </trkpt>
      <trkpt lat="44.28981" lon="6.84081">
        <ele>1754.8000488281</ele>
        <time>2019-02-17T08:48:00.000Z</time>
      </trkpt>
      <trkpt lat="44.28983" lon="6.84075">
        <ele>1755.4000244141</ele>
        <time>2019-02-17T08:48:06.000Z</time>
      </trkpt>
      <trkpt lat="44.28983" lon="6.84073">
        <ele>1755.5999755859</ele>
        <time>2019-02-17T08:48:07.000Z</time>
      </trkpt>
      <trkpt lat="44.28984" lon="6.8406">
        <ele>1756.4000244141</ele>
        <time>2019-02-17T08:48:17.000Z</time>
      </trkpt>
      <trkpt lat="44.28982" lon="6.84058">
        <ele>1756.5999755859</ele>
        <time>2019-02-17T08:48:18.000Z</time>
      </trkpt>
      <trkpt lat="44.2898" lon="6.84055">
        <ele>1756.8000488281</ele>
        <time>2019-02-17T08:48:20.000Z</time>
      </trkpt>
      <trkpt lat="44.28981" lon="6.84047">
        <ele>1757.5999755859</ele>
        <time>2019-02-17T08:48:26.000Z</time>
      </trkpt>
      <trkpt lat="44.28981" lon="6.84044">
        <ele>1757.5999755859</ele>
        <time>2019-02-17T08:48:28.000Z</time>
      </trkpt>
      <trkpt lat="44.28982" lon="6.84039">
        <ele>1758.1999511719</ele>
        <time>2019-02-17T08:48:32.000Z</time>
      </trkpt>
      <trkpt lat="44.28985" lon="6.84034">
        <ele>1758.4000244141</ele>
        <time>2019-02-17T08:48:35.000Z</time>
      </trkpt>
      <trkpt lat="44.28986" lon="6.8403">
        <ele>1758.5999755859</ele>
        <time>2019-02-17T08:48:38.000Z</time>
      </trkpt>
      <trkpt lat="44.28987" lon="6.84025">
        <ele>1759</ele>
        <time>2019-02-17T08:48:42.000Z</time>
      </trkpt>
      <trkpt lat="44.28987" lon="6.84023">
        <ele>1759.1999511719</ele>
        <time>2019-02-17T08:48:44.000Z</time>
      </trkpt>
      <trkpt lat="44.28986" lon="6.84019">
        <ele>1759.8000488281</ele>
        <time>2019-02-17T08:48:47.000Z</time>
      </trkpt>
      <trkpt lat="44.28986" lon="6.84017">
        <ele>1760</ele>
        <time>2019-02-17T08:48:49.000Z</time>
      </trkpt>
      <trkpt lat="44.28989" lon="6.84001">
        <ele>1760.5999755859</ele>
        <time>2019-02-17T08:49:01.000Z</time>
      </trkpt>
      <trkpt lat="44.28989" lon="6.84">
        <ele>1760.8000488281</ele>
        <time>2019-02-17T08:49:02.000Z</time>
      </trkpt>
      <trkpt lat="44.28989" lon="6.83994">
        <ele>1761.4000244141</ele>
        <time>2019-02-17T08:49:07.000Z</time>
      </trkpt>
      <trkpt lat="44.28989" lon="6.83991">
        <ele>1761.8000488281</ele>
        <time>2019-02-17T08:49:09.000Z</time>
      </trkpt>
      <trkpt lat="44.28988" lon="6.83987">
        <ele>1762</ele>
        <time>2019-02-17T08:49:12.000Z</time>
      </trkpt>
      <trkpt lat="44.28986" lon="6.83975">
        <ele>1762.5999755859</ele>
        <time>2019-02-17T08:49:18.000Z</time>
      </trkpt>
      <trkpt lat="44.28987" lon="6.83972">
        <ele>1762.8000488281</ele>
        <time>2019-02-17T08:49:21.000Z</time>
      </trkpt>
      <trkpt lat="44.28988" lon="6.83971">
        <ele>1763</ele>
        <time>2019-02-17T08:49:22.000Z</time>
      </trkpt>
      <trkpt lat="44.28988" lon="6.8397">
        <ele>1763.1999511719</ele>
        <time>2019-02-17T08:49:23.000Z</time>
      </trkpt>
      <trkpt lat="44.2899" lon="6.83959">
        <ele>1764</ele>
        <time>2019-02-17T08:49:32.000Z</time>
      </trkpt>
      <trkpt lat="44.28989" lon="6.83958">
        <ele>1764</ele>
        <time>2019-02-17T08:49:33.000Z</time>
      </trkpt>
      <trkpt lat="44.28988" lon="6.83958">
        <ele>1764.1999511719</ele>
        <time>2019-02-17T08:49:34.000Z</time>
      </trkpt>
      <trkpt lat="44.28989" lon="6.83948">
        <ele>1764.8000488281</ele>
        <time>2019-02-17T08:49:41.000Z</time>
      </trkpt>
      <trkpt lat="44.28991" lon="6.83945">
        <ele>1765.1999511719</ele>
        <time>2019-02-17T08:49:43.000Z</time>
      </trkpt>
      <trkpt lat="44.28992" lon="6.83941">
        <ele>1765.5999755859</ele>
        <time>2019-02-17T08:49:46.000Z</time>
      </trkpt>
      <trkpt lat="44.28992" lon="6.83938">
        <ele>1765.8000488281</ele>
        <time>2019-02-17T08:49:49.000Z</time>
      </trkpt>
      <trkpt lat="44.28994" lon="6.8393">
        <ele>1766.1999511719</ele>
        <time>2019-02-17T08:49:55.000Z</time>
      </trkpt>
      <trkpt lat="44.28994" lon="6.83929">
        <ele>1766.4000244141</ele>
        <time>2019-02-17T08:49:56.000Z</time>
      </trkpt>
      <trkpt lat="44.28997" lon="6.83924">
        <ele>1767</ele>
        <time>2019-02-17T08:50:01.000Z</time>
      </trkpt>
      <trkpt lat="44.28998" lon="6.8392">
        <ele>1767.1999511719</ele>
        <time>2019-02-17T08:50:03.000Z</time>
      </trkpt>
      <trkpt lat="44.29" lon="6.83914">
        <ele>1767.4000244141</ele>
        <time>2019-02-17T08:50:07.000Z</time>
      </trkpt>
      <trkpt lat="44.29" lon="6.83912">
        <ele>1767.4000244141</ele>
        <time>2019-02-17T08:50:08.000Z</time>
      </trkpt>
      <trkpt lat="44.29" lon="6.83908">
        <ele>1767.8000488281</ele>
        <time>2019-02-17T08:50:11.000Z</time>
      </trkpt>
      <trkpt lat="44.29" lon="6.83908">
        <ele>1768</ele>
        <time>2019-02-17T08:50:14.000Z</time>
      </trkpt>
      <trkpt lat="44.29" lon="6.83909">
        <ele>1768.1999511719</ele>
        <time>2019-02-17T08:50:18.000Z</time>
      </trkpt>
      <trkpt lat="44.29" lon="6.83907">
        <ele>1768.1999511719</ele>
        <time>2019-02-17T08:50:20.000Z</time>
      </trkpt>
      <trkpt lat="44.29002" lon="6.83904">
        <ele>1768.5999755859</ele>
        <time>2019-02-17T08:50:23.000Z</time>
      </trkpt>
      <trkpt lat="44.29001" lon="6.83902">
        <ele>1769</ele>
        <time>2019-02-17T08:50:25.000Z</time>
      </trkpt>
      <trkpt lat="44.28996" lon="6.83887">
        <ele>1769.5999755859</ele>
        <time>2019-02-17T08:50:46.000Z</time>
      </trkpt>
      <trkpt lat="44.28999" lon="6.83882">
        <ele>1770.1999511719</ele>
        <time>2019-02-17T08:50:51.000Z</time>
      </trkpt>
      <trkpt lat="44.29001" lon="6.83872">
        <ele>1770.5999755859</ele>
        <time>2019-02-17T08:51:01.000Z</time>
      </trkpt>
      <trkpt lat="44.29" lon="6.83866">
        <ele>1771.8000488281</ele>
        <time>2019-02-17T08:51:06.000Z</time>
      </trkpt>
      <trkpt lat="44.29" lon="6.83857">
        <ele>1772.8000488281</ele>
        <time>2019-02-17T08:51:13.000Z</time>
      </trkpt>
      <trkpt lat="44.29001" lon="6.83855">
        <ele>1772.8000488281</ele>
        <time>2019-02-17T08:51:14.000Z</time>
      </trkpt>
      <trkpt lat="44.29001" lon="6.83852">
        <ele>1772.8000488281</ele>
        <time>2019-02-17T08:51:16.000Z</time>
      </trkpt>
      <trkpt lat="44.29004" lon="6.8385">
        <ele>1773.1999511719</ele>
        <time>2019-02-17T08:51:18.000Z</time>
      </trkpt>
      <trkpt lat="44.29006" lon="6.83847">
        <ele>1773.4000244141</ele>
        <time>2019-02-17T08:51:20.000Z</time>
      </trkpt>
      <trkpt lat="44.29007" lon="6.8384">
        <ele>1773.5999755859</ele>
        <time>2019-02-17T08:51:25.000Z</time>
      </trkpt>
      <trkpt lat="44.29009" lon="6.83834">
        <ele>1773.8000488281</ele>
        <time>2019-02-17T08:51:29.000Z</time>
      </trkpt>
      <trkpt lat="44.2901" lon="6.83831">
        <ele>1774</ele>
        <time>2019-02-17T08:51:32.000Z</time>
      </trkpt>
      <trkpt lat="44.29011" lon="6.83825">
        <ele>1774.1999511719</ele>
        <time>2019-02-17T08:51:35.000Z</time>
      </trkpt>
      <trkpt lat="44.29012" lon="6.8382">
        <ele>1774.8000488281</ele>
        <time>2019-02-17T08:51:38.000Z</time>
      </trkpt>
      <trkpt lat="44.29012" lon="6.83816">
        <ele>1775.1999511719</ele>
        <time>2019-02-17T08:51:41.000Z</time>
      </trkpt>
      <trkpt lat="44.29014" lon="6.83811">
        <ele>1775.4000244141</ele>
        <time>2019-02-17T08:51:45.000Z</time>
      </trkpt>
      <trkpt lat="44.29015" lon="6.83806">
        <ele>1775.8000488281</ele>
        <time>2019-02-17T08:51:49.000Z</time>
      </trkpt>
      <trkpt lat="44.29018" lon="6.83797">
        <ele>1776.5999755859</ele>
        <time>2019-02-17T08:51:56.000Z</time>
      </trkpt>
      <trkpt lat="44.29018" lon="6.83795">
        <ele>1776.8000488281</ele>
        <time>2019-02-17T08:51:58.000Z</time>
      </trkpt>
      <trkpt lat="44.29021" lon="6.8379">
        <ele>1777.4000244141</ele>
        <time>2019-02-17T08:52:04.000Z</time>
      </trkpt>
      <trkpt lat="44.29024" lon="6.83784">
        <ele>1777.5999755859</ele>
        <time>2019-02-17T08:52:08.000Z</time>
      </trkpt>
      <trkpt lat="44.29023" lon="6.83782">
        <ele>1777.8000488281</ele>
        <time>2019-02-17T08:52:10.000Z</time>
      </trkpt>
      <trkpt lat="44.29022" lon="6.8378">
        <ele>1778</ele>
        <time>2019-02-17T08:52:11.000Z</time>
      </trkpt>
      <trkpt lat="44.29021" lon="6.83778">
        <ele>1778.1999511719</ele>
        <time>2019-02-17T08:52:13.000Z</time>
      </trkpt>
      <trkpt lat="44.2902" lon="6.83771">
        <ele>1778.4000244141</ele>
        <time>2019-02-17T08:52:18.000Z</time>
      </trkpt>
      <trkpt lat="44.29019" lon="6.83768">
        <ele>1778.8000488281</ele>
        <time>2019-02-17T08:52:20.000Z</time>
      </trkpt>
      <trkpt lat="44.29018" lon="6.83764">
        <ele>1779</ele>
        <time>2019-02-17T08:52:23.000Z</time>
      </trkpt>
      <trkpt lat="44.29018" lon="6.83762">
        <ele>1779.1999511719</ele>
        <time>2019-02-17T08:52:24.000Z</time>
      </trkpt>
      <trkpt lat="44.29019" lon="6.83757">
        <ele>1779.5999755859</ele>
        <time>2019-02-17T08:52:27.000Z</time>
      </trkpt>
      <trkpt lat="44.29019" lon="6.83749">
        <ele>1780</ele>
        <time>2019-02-17T08:52:33.000Z</time>
      </trkpt>
      <trkpt lat="44.29018" lon="6.83739">
        <ele>1780.8000488281</ele>
        <time>2019-02-17T08:52:43.000Z</time>
      </trkpt>
      <trkpt lat="44.29018" lon="6.83738">
        <ele>1781</ele>
        <time>2019-02-17T08:52:45.000Z</time>
      </trkpt>
      <trkpt lat="44.29018" lon="6.83723">
        <ele>1782</ele>
        <time>2019-02-17T08:52:57.000Z</time>
      </trkpt>
      <trkpt lat="44.29018" lon="6.83722">
        <ele>1782</ele>
        <time>2019-02-17T08:52:58.000Z</time>
      </trkpt>
      <trkpt lat="44.29018" lon="6.8372">
        <ele>1782.1999511719</ele>
        <time>2019-02-17T08:52:59.000Z</time>
      </trkpt>
      <trkpt lat="44.29019" lon="6.83715">
        <ele>1782.8000488281</ele>
        <time>2019-02-17T08:53:02.000Z</time>
      </trkpt>
      <trkpt lat="44.2902" lon="6.8371">
        <ele>1783.1999511719</ele>
        <time>2019-02-17T08:53:06.000Z</time>
      </trkpt>
      <trkpt lat="44.29021" lon="6.83708">
        <ele>1783.4000244141</ele>
        <time>2019-02-17T08:53:07.000Z</time>
      </trkpt>
      <trkpt lat="44.29022" lon="6.83706">
        <ele>1783.4000244141</ele>
        <time>2019-02-17T08:53:09.000Z</time>
      </trkpt>
      <trkpt lat="44.29023" lon="6.83704">
        <ele>1783.4000244141</ele>
        <time>2019-02-17T08:53:11.000Z</time>
      </trkpt>
      <trkpt lat="44.29023" lon="6.83701">
        <ele>1783.5999755859</ele>
        <time>2019-02-17T08:53:13.000Z</time>
      </trkpt>
      <trkpt lat="44.29023" lon="6.83696">
        <ele>1784.1999511719</ele>
        <time>2019-02-17T08:53:16.000Z</time>
      </trkpt>
      <trkpt lat="44.29024" lon="6.83694">
        <ele>1784.4000244141</ele>
        <time>2019-02-17T08:53:18.000Z</time>
      </trkpt>
      <trkpt lat="44.29024" lon="6.8369">
        <ele>1784.8000488281</ele>
        <time>2019-02-17T08:53:21.000Z</time>
      </trkpt>
      <trkpt lat="44.29025" lon="6.83683">
        <ele>1785.1999511719</ele>
        <time>2019-02-17T08:53:26.000Z</time>
      </trkpt>
      <trkpt lat="44.29024" lon="6.83682">
        <ele>1785.4000244141</ele>
        <time>2019-02-17T08:53:27.000Z</time>
      </trkpt>
      <trkpt lat="44.29024" lon="6.83674">
        <ele>1785.5999755859</ele>
        <time>2019-02-17T08:53:32.000Z</time>
      </trkpt>
      <trkpt lat="44.29026" lon="6.83664">
        <ele>1786.5999755859</ele>
        <time>2019-02-17T08:53:39.000Z</time>
      </trkpt>
      <trkpt lat="44.29026" lon="6.83653">
        <ele>1786.8000488281</ele>
        <time>2019-02-17T08:53:47.000Z</time>
      </trkpt>
      <trkpt lat="44.29026" lon="6.83649">
        <ele>1786.8000488281</ele>
        <time>2019-02-17T08:53:50.000Z</time>
      </trkpt>
      <trkpt lat="44.29026" lon="6.83648">
        <ele>1786.8000488281</ele>
        <time>2019-02-17T08:53:52.000Z</time>
      </trkpt>
      <trkpt lat="44.29027" lon="6.83645">
        <ele>1787</ele>
        <time>2019-02-17T08:53:58.000Z</time>
      </trkpt>
      <trkpt lat="44.29029" lon="6.83639">
        <ele>1787.5999755859</ele>
        <time>2019-02-17T08:54:10.000Z</time>
      </trkpt>
      <trkpt lat="44.29029" lon="6.83635">
        <ele>1788.8000488281</ele>
        <time>2019-02-17T08:54:16.000Z</time>
      </trkpt>
      <trkpt lat="44.2903" lon="6.83634">
        <ele>1790</ele>
        <time>2019-02-17T08:54:20.000Z</time>
      </trkpt>
      <trkpt lat="44.29029" lon="6.83629">
        <ele>1791</ele>
        <time>2019-02-17T08:54:28.000Z</time>
      </trkpt>
      <trkpt lat="44.29027" lon="6.83624">
        <ele>1792.1999511719</ele>
        <time>2019-02-17T08:54:35.000Z</time>
      </trkpt>
      <trkpt lat="44.29027" lon="6.83621">
        <ele>1793.1999511719</ele>
        <time>2019-02-17T08:54:39.000Z</time>
      </trkpt>
      <trkpt lat="44.29031" lon="6.83618">
        <ele>1794.4000244141</ele>
        <time>2019-02-17T08:54:45.000Z</time>
      </trkpt>
      <trkpt lat="44.29035" lon="6.83616">
        <ele>1795.4000244141</ele>
        <time>2019-02-17T08:54:51.000Z</time>
      </trkpt>
      <trkpt lat="44.29042" lon="6.83615">
        <ele>1796.4000244141</ele>
        <time>2019-02-17T08:54:59.000Z</time>
      </trkpt>
      <trkpt lat="44.29056" lon="6.83616">
        <ele>1797.5999755859</ele>
        <time>2019-02-17T08:55:21.000Z</time>
      </trkpt>
      <trkpt lat="44.29054" lon="6.83609">
        <ele>1798.5999755859</ele>
        <time>2019-02-17T08:55:27.000Z</time>
      </trkpt>
      <trkpt lat="44.29048" lon="6.83601">
        <ele>1799</ele>
        <time>2019-02-17T08:55:38.000Z</time>
      </trkpt>
      <trkpt lat="44.29047" lon="6.83599">
        <ele>1799</ele>
        <time>2019-02-17T08:55:40.000Z</time>
      </trkpt>
      <trkpt lat="44.29047" lon="6.83594">
        <ele>1799</ele>
        <time>2019-02-17T08:55:42.000Z</time>
      </trkpt>
      <trkpt lat="44.29049" lon="6.83586">
        <ele>1799.5999755859</ele>
        <time>2019-02-17T08:55:48.000Z</time>
      </trkpt>
      <trkpt lat="44.2905" lon="6.83582">
        <ele>1800</ele>
        <time>2019-02-17T08:55:50.000Z</time>
      </trkpt>
      <trkpt lat="44.29049" lon="6.83575">
        <ele>1800.5999755859</ele>
        <time>2019-02-17T08:55:54.000Z</time>
      </trkpt>
      <trkpt lat="44.2905" lon="6.83569">
        <ele>1800.8000488281</ele>
        <time>2019-02-17T08:55:58.000Z</time>
      </trkpt>
      <trkpt lat="44.29052" lon="6.83565">
        <ele>1800.8000488281</ele>
        <time>2019-02-17T08:56:01.000Z</time>
      </trkpt>
      <trkpt lat="44.29053" lon="6.83561">
        <ele>1801.4000244141</ele>
        <time>2019-02-17T08:56:05.000Z</time>
      </trkpt>
      <trkpt lat="44.29053" lon="6.83559">
        <ele>1801.8000488281</ele>
        <time>2019-02-17T08:56:07.000Z</time>
      </trkpt>
      <trkpt lat="44.29053" lon="6.83556">
        <ele>1802</ele>
        <time>2019-02-17T08:56:09.000Z</time>
      </trkpt>
      <trkpt lat="44.29052" lon="6.83551">
        <ele>1802.1999511719</ele>
        <time>2019-02-17T08:56:12.000Z</time>
      </trkpt>
      <trkpt lat="44.2905" lon="6.83548">
        <ele>1802.1999511719</ele>
        <time>2019-02-17T08:56:14.000Z</time>
      </trkpt>
      <trkpt lat="44.29051" lon="6.8354">
        <ele>1802.8000488281</ele>
        <time>2019-02-17T08:56:20.000Z</time>
      </trkpt>
      <trkpt lat="44.29051" lon="6.83539">
        <ele>1803</ele>
        <time>2019-02-17T08:56:21.000Z</time>
      </trkpt>
      <trkpt lat="44.29051" lon="6.83536">
        <ele>1803.1999511719</ele>
        <time>2019-02-17T08:56:23.000Z</time>
      </trkpt>
      <trkpt lat="44.29057" lon="6.83525">
        <ele>1803.8000488281</ele>
        <time>2019-02-17T08:56:30.000Z</time>
      </trkpt>
      <trkpt lat="44.29057" lon="6.83522">
        <ele>1804</ele>
        <time>2019-02-17T08:56:32.000Z</time>
      </trkpt>
      <trkpt lat="44.29056" lon="6.8352">
        <ele>1804.1999511719</ele>
        <time>2019-02-17T08:56:33.000Z</time>
      </trkpt>
      <trkpt lat="44.29056" lon="6.83516">
        <ele>1804.4000244141</ele>
        <time>2019-02-17T08:56:35.000Z</time>
      </trkpt>
      <trkpt lat="44.29056" lon="6.8351">
        <ele>1804.4000244141</ele>
        <time>2019-02-17T08:56:38.000Z</time>
      </trkpt>
      <trkpt lat="44.29054" lon="6.835">
        <ele>1804.8000488281</ele>
        <time>2019-02-17T08:56:43.000Z</time>
      </trkpt>
      <trkpt lat="44.29055" lon="6.83495">
        <ele>1805</ele>
        <time>2019-02-17T08:56:46.000Z</time>
      </trkpt>
      <trkpt lat="44.29054" lon="6.83488">
        <ele>1805.4000244141</ele>
        <time>2019-02-17T08:56:49.000Z</time>
      </trkpt>
      <trkpt lat="44.29054" lon="6.83484">
        <ele>1806</ele>
        <time>2019-02-17T08:56:52.000Z</time>
      </trkpt>
      <trkpt lat="44.29054" lon="6.83482">
        <ele>1806.1999511719</ele>
        <time>2019-02-17T08:56:54.000Z</time>
      </trkpt>
      <trkpt lat="44.29054" lon="6.8348">
        <ele>1806.4000244141</ele>
        <time>2019-02-17T08:56:56.000Z</time>
      </trkpt>
      <trkpt lat="44.29055" lon="6.83477">
        <ele>1807.1999511719</ele>
        <time>2019-02-17T08:56:59.000Z</time>
      </trkpt>
      <trkpt lat="44.29059" lon="6.83473">
        <ele>1807.5999755859</ele>
        <time>2019-02-17T08:57:04.000Z</time>
      </trkpt>
      <trkpt lat="44.2906" lon="6.83471">
        <ele>1808.1999511719</ele>
        <time>2019-02-17T08:57:08.000Z</time>
      </trkpt>
      <trkpt lat="44.29065" lon="6.83463">
        <ele>1809</ele>
        <time>2019-02-17T08:57:23.000Z</time>
      </trkpt>
      <trkpt lat="44.29066" lon="6.8346">
        <ele>1809</ele>
        <time>2019-02-17T08:57:28.000Z</time>
      </trkpt>
      <trkpt lat="44.29066" lon="6.83456">
        <ele>1809.4000244141</ele>
        <time>2019-02-17T08:57:31.000Z</time>
      </trkpt>
      <trkpt lat="44.29064" lon="6.83454">
        <ele>1810</ele>
        <time>2019-02-17T08:57:34.000Z</time>
      </trkpt>
      <trkpt lat="44.29064" lon="6.83452">
        <ele>1810.4000244141</ele>
        <time>2019-02-17T08:57:36.000Z</time>
      </trkpt>
      <trkpt lat="44.29065" lon="6.83447">
        <ele>1811.1999511719</ele>
        <time>2019-02-17T08:57:40.000Z</time>
      </trkpt>
      <trkpt lat="44.29067" lon="6.83441">
        <ele>1811.5999755859</ele>
        <time>2019-02-17T08:57:44.000Z</time>
      </trkpt>
      <trkpt lat="44.29065" lon="6.83436">
        <ele>1812</ele>
        <time>2019-02-17T08:57:47.000Z</time>
      </trkpt>
      <trkpt lat="44.29063" lon="6.83433">
        <ele>1812.4000244141</ele>
        <time>2019-02-17T08:57:49.000Z</time>
      </trkpt>
      <trkpt lat="44.29063" lon="6.83432">
        <ele>1812.5999755859</ele>
        <time>2019-02-17T08:57:50.000Z</time>
      </trkpt>
      <trkpt lat="44.29064" lon="6.8343">
        <ele>1812.8000488281</ele>
        <time>2019-02-17T08:57:51.000Z</time>
      </trkpt>
      <trkpt lat="44.29065" lon="6.83429">
        <ele>1813.4000244141</ele>
        <time>2019-02-17T08:57:53.000Z</time>
      </trkpt>
      <trkpt lat="44.29066" lon="6.83426">
        <ele>1813.5999755859</ele>
        <time>2019-02-17T08:57:56.000Z</time>
      </trkpt>
      <trkpt lat="44.29066" lon="6.83425">
        <ele>1814.4000244141</ele>
        <time>2019-02-17T08:57:59.000Z</time>
      </trkpt>
      <trkpt lat="44.29066" lon="6.83425">
        <ele>1814.8000488281</ele>
        <time>2019-02-17T08:58:00.000Z</time>
      </trkpt>
      <trkpt lat="44.29064" lon="6.8342">
        <ele>1815.8000488281</ele>
        <time>2019-02-17T08:58:06.000Z</time>
      </trkpt>
      <trkpt lat="44.29063" lon="6.83416">
        <ele>1817</ele>
        <time>2019-02-17T08:58:11.000Z</time>
      </trkpt>
      <trkpt lat="44.29062" lon="6.83414">
        <ele>1817.4000244141</ele>
        <time>2019-02-17T08:58:14.000Z</time>
      </trkpt>
      <trkpt lat="44.2906" lon="6.8341">
        <ele>1818.1999511719</ele>
        <time>2019-02-17T08:58:18.000Z</time>
      </trkpt>
      <trkpt lat="44.29053" lon="6.83403">
        <ele>1819</ele>
        <time>2019-02-17T08:58:24.000Z</time>
      </trkpt>
      <trkpt lat="44.29053" lon="6.834">
        <ele>1819.1999511719</ele>
        <time>2019-02-17T08:58:26.000Z</time>
      </trkpt>
      <trkpt lat="44.29059" lon="6.83391">
        <ele>1819.8000488281</ele>
        <time>2019-02-17T08:58:31.000Z</time>
      </trkpt>
      <trkpt lat="44.29061" lon="6.83386">
        <ele>1820.1999511719</ele>
        <time>2019-02-17T08:58:33.000Z</time>
      </trkpt>
      <trkpt lat="44.29062" lon="6.83384">
        <ele>1820.4000244141</ele>
        <time>2019-02-17T08:58:34.000Z</time>
      </trkpt>
      <trkpt lat="44.29061" lon="6.83381">
        <ele>1820.5999755859</ele>
        <time>2019-02-17T08:58:36.000Z</time>
      </trkpt>
      <trkpt lat="44.2906" lon="6.83379">
        <ele>1820.5999755859</ele>
        <time>2019-02-17T08:58:38.000Z</time>
      </trkpt>
      <trkpt lat="44.29061" lon="6.83375">
        <ele>1821</ele>
        <time>2019-02-17T08:58:41.000Z</time>
      </trkpt>
      <trkpt lat="44.29061" lon="6.83373">
        <ele>1821.1999511719</ele>
        <time>2019-02-17T08:58:44.000Z</time>
      </trkpt>
      <trkpt lat="44.29061" lon="6.83372">
        <ele>1821.4000244141</ele>
        <time>2019-02-17T08:58:45.000Z</time>
      </trkpt>
      <trkpt lat="44.29059" lon="6.83369">
        <ele>1822</ele>
        <time>2019-02-17T08:58:48.000Z</time>
      </trkpt>
      <trkpt lat="44.29059" lon="6.83366">
        <ele>1822.4000244141</ele>
        <time>2019-02-17T08:58:51.000Z</time>
      </trkpt>
      <trkpt lat="44.29059" lon="6.83364">
        <ele>1822.5999755859</ele>
        <time>2019-02-17T08:58:52.000Z</time>
      </trkpt>
      <trkpt lat="44.2906" lon="6.8336">
        <ele>1823.5999755859</ele>
        <time>2019-02-17T08:58:56.000Z</time>
      </trkpt>
      <trkpt lat="44.29062" lon="6.83357">
        <ele>1824.1999511719</ele>
        <time>2019-02-17T08:58:59.000Z</time>
      </trkpt>
      <trkpt lat="44.29063" lon="6.83353">
        <ele>1824.5999755859</ele>
        <time>2019-02-17T08:59:03.000Z</time>
      </trkpt>
      <trkpt lat="44.29063" lon="6.83352">
        <ele>1824.8000488281</ele>
        <time>2019-02-17T08:59:04.000Z</time>
      </trkpt>
      <trkpt lat="44.29058" lon="6.83343">
        <ele>1825.5999755859</ele>
        <time>2019-02-17T08:59:12.000Z</time>
      </trkpt>
      <trkpt lat="44.29056" lon="6.83334">
        <ele>1826.8000488281</ele>
        <time>2019-02-17T08:59:19.000Z</time>
      </trkpt>
      <trkpt lat="44.29056" lon="6.83333">
        <ele>1827</ele>
        <time>2019-02-17T08:59:20.000Z</time>
      </trkpt>
      <trkpt lat="44.29056" lon="6.8333">
        <ele>1827.4000244141</ele>
        <time>2019-02-17T08:59:23.000Z</time>
      </trkpt>
      <trkpt lat="44.29055" lon="6.83327">
        <ele>1828</ele>
        <time>2019-02-17T08:59:26.000Z</time>
      </trkpt>
      <trkpt lat="44.29054" lon="6.83326">
        <ele>1828.4000244141</ele>
        <time>2019-02-17T08:59:28.000Z</time>
      </trkpt>
      <trkpt lat="44.29053" lon="6.83323">
        <ele>1828.5999755859</ele>
        <time>2019-02-17T08:59:31.000Z</time>
      </trkpt>
      <trkpt lat="44.29053" lon="6.83321">
        <ele>1828.8000488281</ele>
        <time>2019-02-17T08:59:33.000Z</time>
      </trkpt>
      <trkpt lat="44.29054" lon="6.8332">
        <ele>1829</ele>
        <time>2019-02-17T08:59:34.000Z</time>
      </trkpt>
      <trkpt lat="44.29055" lon="6.83319">
        <ele>1829.1999511719</ele>
        <time>2019-02-17T08:59:35.000Z</time>
      </trkpt>
      <trkpt lat="44.29055" lon="6.83318">
        <ele>1829.1999511719</ele>
        <time>2019-02-17T08:59:36.000Z</time>
      </trkpt>
      <trkpt lat="44.29055" lon="6.83317">
        <ele>1829.4000244141</ele>
        <time>2019-02-17T08:59:37.000Z</time>
      </trkpt>
      <trkpt lat="44.29062" lon="6.83308">
        <ele>1830.1999511719</ele>
        <time>2019-02-17T08:59:44.000Z</time>
      </trkpt>
      <trkpt lat="44.29065" lon="6.83305">
        <ele>1830.4000244141</ele>
        <time>2019-02-17T08:59:47.000Z</time>
      </trkpt>
      <trkpt lat="44.29062" lon="6.83296">
        <ele>1830.8000488281</ele>
        <time>2019-02-17T08:59:51.000Z</time>
      </trkpt>
      <trkpt lat="44.29061" lon="6.83292">
        <ele>1830.8000488281</ele>
        <time>2019-02-17T08:59:53.000Z</time>
      </trkpt>
      <trkpt lat="44.29061" lon="6.83289">
        <ele>1831.1999511719</ele>
        <time>2019-02-17T08:59:56.000Z</time>
      </trkpt>
      <trkpt lat="44.29062" lon="6.83287">
        <ele>1831.8000488281</ele>
        <time>2019-02-17T08:59:59.000Z</time>
      </trkpt>
      <trkpt lat="44.29064" lon="6.83284">
        <ele>1831.8000488281</ele>
        <time>2019-02-17T09:00:02.000Z</time>
      </trkpt>
      <trkpt lat="44.29061" lon="6.83282">
        <ele>1831.8000488281</ele>
        <time>2019-02-17T09:00:04.000Z</time>
      </trkpt>
      <trkpt lat="44.29059" lon="6.83279">
        <ele>1832</ele>
        <time>2019-02-17T09:00:06.000Z</time>
      </trkpt>
      <trkpt lat="44.29063" lon="6.83277">
        <ele>1832.1999511719</ele>
        <time>2019-02-17T09:00:08.000Z</time>
      </trkpt>
      <trkpt lat="44.29064" lon="6.83276">
        <ele>1832.4000244141</ele>
        <time>2019-02-17T09:00:09.000Z</time>
      </trkpt>
      <trkpt lat="44.29068" lon="6.83272">
        <ele>1832.8000488281</ele>
        <time>2019-02-17T09:00:12.000Z</time>
      </trkpt>
      <trkpt lat="44.29073" lon="6.83268">
        <ele>1833</ele>
        <time>2019-02-17T09:00:15.000Z</time>
      </trkpt>
      <trkpt lat="44.29077" lon="6.83263">
        <ele>1833.4000244141</ele>
        <time>2019-02-17T09:00:19.000Z</time>
      </trkpt>
      <trkpt lat="44.29072" lon="6.83257">
        <ele>1833.5999755859</ele>
        <time>2019-02-17T09:00:21.000Z</time>
      </trkpt>
      <trkpt lat="44.2907" lon="6.83252">
        <ele>1833.8000488281</ele>
        <time>2019-02-17T09:00:24.000Z</time>
      </trkpt>
      <trkpt lat="44.29058" lon="6.83241">
        <ele>1834.4000244141</ele>
        <time>2019-02-17T09:00:31.000Z</time>
      </trkpt>
      <trkpt lat="44.29057" lon="6.83241">
        <ele>1834.4000244141</ele>
        <time>2019-02-17T09:00:33.000Z</time>
      </trkpt>
      <trkpt lat="44.29057" lon="6.83241">
        <ele>1834.4000244141</ele>
        <time>2019-02-17T09:00:34.000Z</time>
      </trkpt>
      <trkpt lat="44.29058" lon="6.83244">
        <ele>1834.4000244141</ele>
        <time>2019-02-17T09:00:35.000Z</time>
      </trkpt>
      <trkpt lat="44.29056" lon="6.83243">
        <ele>1834.4000244141</ele>
        <time>2019-02-17T09:01:00.000Z</time>
      </trkpt>
      <trkpt lat="44.29069" lon="6.83234">
        <ele>1834.8000488281</ele>
        <time>2019-02-17T09:01:10.000Z</time>
      </trkpt>
      <trkpt lat="44.29073" lon="6.8323">
        <ele>1835</ele>
        <time>2019-02-17T09:01:14.000Z</time>
      </trkpt>
      <trkpt lat="44.29075" lon="6.83227">
        <ele>1835.4000244141</ele>
        <time>2019-02-17T09:01:17.000Z</time>
      </trkpt>
      <trkpt lat="44.29076" lon="6.83226">
        <ele>1835.5999755859</ele>
        <time>2019-02-17T09:01:18.000Z</time>
      </trkpt>
      <trkpt lat="44.29076" lon="6.8322">
        <ele>1836.4000244141</ele>
        <time>2019-02-17T09:01:22.000Z</time>
      </trkpt>
      <trkpt lat="44.29073" lon="6.83211">
        <ele>1837.5999755859</ele>
        <time>2019-02-17T09:01:27.000Z</time>
      </trkpt>
      <trkpt lat="44.2907" lon="6.83208">
        <ele>1837.8000488281</ele>
        <time>2019-02-17T09:01:29.000Z</time>
      </trkpt>
      <trkpt lat="44.29071" lon="6.83203">
        <ele>1837.8000488281</ele>
        <time>2019-02-17T09:01:33.000Z</time>
      </trkpt>
      <trkpt lat="44.29073" lon="6.83199">
        <ele>1838.5999755859</ele>
        <time>2019-02-17T09:01:37.000Z</time>
      </trkpt>
      <trkpt lat="44.29078" lon="6.83197">
        <ele>1839.8000488281</ele>
        <time>2019-02-17T09:01:42.000Z</time>
      </trkpt>
      <trkpt lat="44.29083" lon="6.83194">
        <ele>1840.8000488281</ele>
        <time>2019-02-17T09:01:46.000Z</time>
      </trkpt>
      <trkpt lat="44.29083" lon="6.83193">
        <ele>1841</ele>
        <time>2019-02-17T09:01:47.000Z</time>
      </trkpt>
      <trkpt lat="44.29083" lon="6.83192">
        <ele>1841.1999511719</ele>
        <time>2019-02-17T09:01:49.000Z</time>
      </trkpt>
      <trkpt lat="44.29084" lon="6.83191">
        <ele>1841.4000244141</ele>
        <time>2019-02-17T09:01:51.000Z</time>
      </trkpt>
      <trkpt lat="44.29087" lon="6.83191">
        <ele>1841.8000488281</ele>
        <time>2019-02-17T09:01:54.000Z</time>
      </trkpt>
      <trkpt lat="44.29088" lon="6.8319">
        <ele>1842.1999511719</ele>
        <time>2019-02-17T09:01:55.000Z</time>
      </trkpt>
      <trkpt lat="44.29091" lon="6.83191">
        <ele>1842.5999755859</ele>
        <time>2019-02-17T09:01:58.000Z</time>
      </trkpt>
      <trkpt lat="44.29094" lon="6.8319">
        <ele>1842.8000488281</ele>
        <time>2019-02-17T09:02:01.000Z</time>
      </trkpt>
      <trkpt lat="44.29095" lon="6.83187">
        <ele>1843.1999511719</ele>
        <time>2019-02-17T09:02:06.000Z</time>
      </trkpt>
      <trkpt lat="44.29098" lon="6.83185">
        <ele>1843.8000488281</ele>
        <time>2019-02-17T09:02:09.000Z</time>
      </trkpt>
      <trkpt lat="44.29099" lon="6.83184">
        <ele>1844</ele>
        <time>2019-02-17T09:02:11.000Z</time>
      </trkpt>
      <trkpt lat="44.29102" lon="6.83183">
        <ele>1844.1999511719</ele>
        <time>2019-02-17T09:02:13.000Z</time>
      </trkpt>
      <trkpt lat="44.29105" lon="6.83181">
        <ele>1844.4000244141</ele>
        <time>2019-02-17T09:02:15.000Z</time>
      </trkpt>
      <trkpt lat="44.29108" lon="6.8318">
        <ele>1844.8000488281</ele>
        <time>2019-02-17T09:02:18.000Z</time>
      </trkpt>
      <trkpt lat="44.29111" lon="6.83178">
        <ele>1845.4000244141</ele>
        <time>2019-02-17T09:02:23.000Z</time>
      </trkpt>
      <trkpt lat="44.29117" lon="6.83173">
        <ele>1846.4000244141</ele>
        <time>2019-02-17T09:02:28.000Z</time>
      </trkpt>
      <trkpt lat="44.29117" lon="6.83171">
        <ele>1846.8000488281</ele>
        <time>2019-02-17T09:02:31.000Z</time>
      </trkpt>
      <trkpt lat="44.29117" lon="6.83169">
        <ele>1847</ele>
        <time>2019-02-17T09:02:36.000Z</time>
      </trkpt>
      <trkpt lat="44.29115" lon="6.83168">
        <ele>1847</ele>
        <time>2019-02-17T09:02:39.000Z</time>
      </trkpt>
      <trkpt lat="44.29112" lon="6.83163">
        <ele>1847.5999755859</ele>
        <time>2019-02-17T09:02:44.000Z</time>
      </trkpt>
      <trkpt lat="44.29111" lon="6.83163">
        <ele>1847.5999755859</ele>
        <time>2019-02-17T09:02:45.000Z</time>
      </trkpt>
      <trkpt lat="44.2911" lon="6.8316">
        <ele>1848.8000488281</ele>
        <time>2019-02-17T09:02:52.000Z</time>
      </trkpt>
      <trkpt lat="44.29113" lon="6.83154">
        <ele>1849.8000488281</ele>
        <time>2019-02-17T09:02:59.000Z</time>
      </trkpt>
      <trkpt lat="44.29114" lon="6.83147">
        <ele>1850.8000488281</ele>
        <time>2019-02-17T09:03:05.000Z</time>
      </trkpt>
      <trkpt lat="44.29116" lon="6.83137">
        <ele>1852</ele>
        <time>2019-02-17T09:03:17.000Z</time>
      </trkpt>
      <trkpt lat="44.29117" lon="6.83139">
        <ele>1853</ele>
        <time>2019-02-17T09:03:26.000Z</time>
      </trkpt>
      <trkpt lat="44.29108" lon="6.83143">
        <ele>1853.5999755859</ele>
        <time>2019-02-17T09:03:30.000Z</time>
      </trkpt>
      <trkpt lat="44.29106" lon="6.83144">
        <ele>1854.1999511719</ele>
        <time>2019-02-17T09:03:35.000Z</time>
      </trkpt>
      <trkpt lat="44.29105" lon="6.83145">
        <ele>1854.1999511719</ele>
        <time>2019-02-17T09:03:36.000Z</time>
      </trkpt>
      <trkpt lat="44.29102" lon="6.83149">
        <ele>1854.1999511719</ele>
        <time>2019-02-17T09:03:38.000Z</time>
      </trkpt>
      <trkpt lat="44.29104" lon="6.83145">
        <ele>1855</ele>
        <time>2019-02-17T09:03:47.000Z</time>
      </trkpt>
      <trkpt lat="44.29107" lon="6.83143">
        <ele>1855.1999511719</ele>
        <time>2019-02-17T09:03:49.000Z</time>
      </trkpt>
      <trkpt lat="44.29111" lon="6.8314">
        <ele>1855.8000488281</ele>
        <time>2019-02-17T09:03:52.000Z</time>
      </trkpt>
      <trkpt lat="44.29112" lon="6.83139">
        <ele>1856.4000244141</ele>
        <time>2019-02-17T09:03:54.000Z</time>
      </trkpt>
      <trkpt lat="44.29119" lon="6.83132">
        <ele>1857.4000244141</ele>
        <time>2019-02-17T09:04:02.000Z</time>
      </trkpt>
      <trkpt lat="44.2912" lon="6.8313">
        <ele>1858.5999755859</ele>
        <time>2019-02-17T09:04:09.000Z</time>
      </trkpt>
      <trkpt lat="44.29132" lon="6.8313">
        <ele>1859.8000488281</ele>
        <time>2019-02-17T09:04:16.000Z</time>
      </trkpt>
      <trkpt lat="44.29133" lon="6.83129">
        <ele>1860</ele>
        <time>2019-02-17T09:04:17.000Z</time>
      </trkpt>
      <trkpt lat="44.29133" lon="6.83127">
        <ele>1860.1999511719</ele>
        <time>2019-02-17T09:04:19.000Z</time>
      </trkpt>
      <trkpt lat="44.29132" lon="6.83127">
        <ele>1860.8000488281</ele>
        <time>2019-02-17T09:04:21.000Z</time>
      </trkpt>
      <trkpt lat="44.29131" lon="6.83127">
        <ele>1861.1999511719</ele>
        <time>2019-02-17T09:04:22.000Z</time>
      </trkpt>
      <trkpt lat="44.29132" lon="6.83124">
        <ele>1861.8000488281</ele>
        <time>2019-02-17T09:04:25.000Z</time>
      </trkpt>
      <trkpt lat="44.29135" lon="6.83119">
        <ele>1862.1999511719</ele>
        <time>2019-02-17T09:04:28.000Z</time>
      </trkpt>
      <trkpt lat="44.29141" lon="6.83116">
        <ele>1863</ele>
        <time>2019-02-17T09:04:32.000Z</time>
      </trkpt>
      <trkpt lat="44.29143" lon="6.83111">
        <ele>1863.1999511719</ele>
        <time>2019-02-17T09:04:35.000Z</time>
      </trkpt>
      <trkpt lat="44.29145" lon="6.83108">
        <ele>1863.4000244141</ele>
        <time>2019-02-17T09:04:37.000Z</time>
      </trkpt>
      <trkpt lat="44.29149" lon="6.83106">
        <ele>1863.5999755859</ele>
        <time>2019-02-17T09:04:40.000Z</time>
      </trkpt>
      <trkpt lat="44.29148" lon="6.83101">
        <ele>1864</ele>
        <time>2019-02-17T09:04:44.000Z</time>
      </trkpt>
      <trkpt lat="44.29148" lon="6.831">
        <ele>1864.1999511719</ele>
        <time>2019-02-17T09:04:45.000Z</time>
      </trkpt>
      <trkpt lat="44.29147" lon="6.83098">
        <ele>1864.4000244141</ele>
        <time>2019-02-17T09:04:47.000Z</time>
      </trkpt>
      <trkpt lat="44.29147" lon="6.83095">
        <ele>1865</ele>
        <time>2019-02-17T09:04:51.000Z</time>
      </trkpt>
      <trkpt lat="44.29146" lon="6.83093">
        <ele>1865.4000244141</ele>
        <time>2019-02-17T09:04:56.000Z</time>
      </trkpt>
      <trkpt lat="44.29139" lon="6.83088">
        <ele>1865.8000488281</ele>
        <time>2019-02-17T09:04:59.000Z</time>
      </trkpt>
      <trkpt lat="44.29133" lon="6.83086">
        <ele>1865.8000488281</ele>
        <time>2019-02-17T09:05:01.000Z</time>
      </trkpt>
      <trkpt lat="44.29133" lon="6.83087">
        <ele>1866</ele>
        <time>2019-02-17T09:05:03.000Z</time>
      </trkpt>
      <trkpt lat="44.29139" lon="6.8309">
        <ele>1866.5999755859</ele>
        <time>2019-02-17T09:05:06.000Z</time>
      </trkpt>
      <trkpt lat="44.29139" lon="6.8309">
        <ele>1866.5999755859</ele>
        <time>2019-02-17T09:05:07.000Z</time>
      </trkpt>
      <trkpt lat="44.29143" lon="6.83088">
        <ele>1867.5999755859</ele>
        <time>2019-02-17T09:05:12.000Z</time>
      </trkpt>
      <trkpt lat="44.29144" lon="6.83088">
        <ele>1867.5999755859</ele>
        <time>2019-02-17T09:05:13.000Z</time>
      </trkpt>
      <trkpt lat="44.29145" lon="6.83087">
        <ele>1867.5999755859</ele>
        <time>2019-02-17T09:05:14.000Z</time>
      </trkpt>
      <trkpt lat="44.29154" lon="6.83084">
        <ele>1868.5999755859</ele>
        <time>2019-02-17T09:05:20.000Z</time>
      </trkpt>
      <trkpt lat="44.29186" lon="6.83088">
        <ele>1868.5999755859</ele>
        <time>2019-02-17T09:05:57.000Z</time>
      </trkpt>
      <trkpt lat="44.29153" lon="6.83078">
        <ele>1869</ele>
        <time>2019-02-17T09:06:21.000Z</time>
      </trkpt>
      <trkpt lat="44.29147" lon="6.83076">
        <ele>1869.1999511719</ele>
        <time>2019-02-17T09:06:25.000Z</time>
      </trkpt>
      <trkpt lat="44.29142" lon="6.83075">
        <ele>1869.1999511719</ele>
        <time>2019-02-17T09:06:29.000Z</time>
      </trkpt>
      <trkpt lat="44.29142" lon="6.83075">
        <ele>1869.1999511719</ele>
        <time>2019-02-17T09:06:30.000Z</time>
      </trkpt>
      <trkpt lat="44.29139" lon="6.83075">
        <ele>1869.1999511719</ele>
        <time>2019-02-17T09:06:35.000Z</time>
      </trkpt>
      <trkpt lat="44.29139" lon="6.83075">
        <ele>1869</ele>
        <time>2019-02-17T09:06:37.000Z</time>
      </trkpt>
      <trkpt lat="44.29143" lon="6.83077">
        <ele>1869</ele>
        <time>2019-02-17T09:06:43.000Z</time>
      </trkpt>
      <trkpt lat="44.29149" lon="6.83078">
        <ele>1868.8000488281</ele>
        <time>2019-02-17T09:07:01.000Z</time>
      </trkpt>
      <trkpt lat="44.29162" lon="6.83085">
        <ele>1869.1999511719</ele>
        <time>2019-02-17T09:07:12.000Z</time>
      </trkpt>
      <trkpt lat="44.29167" lon="6.83088">
        <ele>1869.1999511719</ele>
        <time>2019-02-17T09:07:22.000Z</time>
      </trkpt>
      <trkpt lat="44.29167" lon="6.83085">
        <ele>1869.1999511719</ele>
        <time>2019-02-17T09:07:27.000Z</time>
      </trkpt>
      <trkpt lat="44.2916" lon="6.83081">
        <ele>1869.1999511719</ele>
        <time>2019-02-17T09:07:36.000Z</time>
      </trkpt>
      <trkpt lat="44.29153" lon="6.83079">
        <ele>1869.1999511719</ele>
        <time>2019-02-17T09:07:41.000Z</time>
      </trkpt>
      <trkpt lat="44.29151" lon="6.83079">
        <ele>1869.1999511719</ele>
        <time>2019-02-17T09:07:46.000Z</time>
      </trkpt>
      <trkpt lat="44.29149" lon="6.83079">
        <ele>1869.1999511719</ele>
        <time>2019-02-17T09:07:48.000Z</time>
      </trkpt>
      <trkpt lat="44.29151" lon="6.83079">
        <ele>1869.4000244141</ele>
        <time>2019-02-17T09:07:50.000Z</time>
      </trkpt>
      <trkpt lat="44.29154" lon="6.83078">
        <ele>1869.4000244141</ele>
        <time>2019-02-17T09:07:54.000Z</time>
      </trkpt>
      <trkpt lat="44.29153" lon="6.83077">
        <ele>1869.4000244141</ele>
        <time>2019-02-17T09:07:56.000Z</time>
      </trkpt>
      <trkpt lat="44.29136" lon="6.8307">
        <ele>1869.4000244141</ele>
        <time>2019-02-17T09:07:59.000Z</time>
      </trkpt>
      <trkpt lat="44.29135" lon="6.83071">
        <ele>1869.4000244141</ele>
        <time>2019-02-17T09:08:00.000Z</time>
      </trkpt>
      <trkpt lat="44.29129" lon="6.83068">
        <ele>1869.4000244141</ele>
        <time>2019-02-17T09:08:02.000Z</time>
      </trkpt>
      <trkpt lat="44.29131" lon="6.83069">
        <ele>1869.4000244141</ele>
        <time>2019-02-17T09:08:04.000Z</time>
      </trkpt>
      <trkpt lat="44.29152" lon="6.83079">
        <ele>1869</ele>
        <time>2019-02-17T09:08:32.000Z</time>
      </trkpt>
      <trkpt lat="44.29142" lon="6.83074">
        <ele>1869.4000244141</ele>
        <time>2019-02-17T09:09:06.000Z</time>
      </trkpt>
      <trkpt lat="44.29146" lon="6.8308">
        <ele>1869.4000244141</ele>
        <time>2019-02-17T09:09:11.000Z</time>
      </trkpt>
      <trkpt lat="44.29131" lon="6.83074">
        <ele>1869.5999755859</ele>
        <time>2019-02-17T09:10:00.000Z</time>
      </trkpt>
      <trkpt lat="44.29166" lon="6.83079">
        <ele>1869.8000488281</ele>
        <time>2019-02-17T09:10:24.000Z</time>
      </trkpt>
      <trkpt lat="44.2916" lon="6.83076">
        <ele>1869.8000488281</ele>
        <time>2019-02-17T09:10:53.000Z</time>
      </trkpt>
      <trkpt lat="44.29152" lon="6.83071">
        <ele>1869.4000244141</ele>
        <time>2019-02-17T09:11:14.000Z</time>
      </trkpt>
      <trkpt lat="44.2915" lon="6.83071">
        <ele>1869.4000244141</ele>
        <time>2019-02-17T09:11:16.000Z</time>
      </trkpt>
      <trkpt lat="44.29148" lon="6.83075">
        <ele>1869.5999755859</ele>
        <time>2019-02-17T09:11:36.000Z</time>
      </trkpt>
      <trkpt lat="44.29147" lon="6.83084">
        <ele>1869.5999755859</ele>
        <time>2019-02-17T09:11:55.000Z</time>
      </trkpt>
      <trkpt lat="44.29143" lon="6.83081">
        <ele>1869.5999755859</ele>
        <time>2019-02-17T09:11:58.000Z</time>
      </trkpt>
      <trkpt lat="44.29143" lon="6.8308">
        <ele>1869.5999755859</ele>
        <time>2019-02-17T09:12:00.000Z</time>
      </trkpt>
      <trkpt lat="44.29141" lon="6.83075">
        <ele>1870</ele>
        <time>2019-02-17T09:12:05.000Z</time>
      </trkpt>
      <trkpt lat="44.29142" lon="6.83076">
        <ele>1870</ele>
        <time>2019-02-17T09:12:07.000Z</time>
      </trkpt>
      <trkpt lat="44.29146" lon="6.83075">
        <ele>1870</ele>
        <time>2019-02-17T09:12:12.000Z</time>
      </trkpt>
      <trkpt lat="44.29127" lon="6.83073">
        <ele>1870</ele>
        <time>2019-02-17T09:12:22.000Z</time>
      </trkpt>
      <trkpt lat="44.29122" lon="6.83071">
        <ele>1870</ele>
        <time>2019-02-17T09:12:25.000Z</time>
      </trkpt>
      <trkpt lat="44.29125" lon="6.83071">
        <ele>1870</ele>
        <time>2019-02-17T09:12:27.000Z</time>
      </trkpt>
      <trkpt lat="44.29143" lon="6.83067">
        <ele>1869.8000488281</ele>
        <time>2019-02-17T09:12:36.000Z</time>
      </trkpt>
      <trkpt lat="44.2916" lon="6.83072">
        <ele>1870</ele>
        <time>2019-02-17T09:12:56.000Z</time>
      </trkpt>
      <trkpt lat="44.29161" lon="6.8307">
        <ele>1870.1999511719</ele>
        <time>2019-02-17T09:12:59.000Z</time>
      </trkpt>
      <trkpt lat="44.29159" lon="6.83069">
        <ele>1870.5999755859</ele>
        <time>2019-02-17T09:13:01.000Z</time>
      </trkpt>
      <trkpt lat="44.29158" lon="6.83068">
        <ele>1870.8000488281</ele>
        <time>2019-02-17T09:13:02.000Z</time>
      </trkpt>
      <trkpt lat="44.2916" lon="6.83067">
        <ele>1871.4000244141</ele>
        <time>2019-02-17T09:13:06.000Z</time>
      </trkpt>
      <trkpt lat="44.29164" lon="6.83065">
        <ele>1872</ele>
        <time>2019-02-17T09:13:09.000Z</time>
      </trkpt>
      <trkpt lat="44.29163" lon="6.83064">
        <ele>1872.1999511719</ele>
        <time>2019-02-17T09:13:10.000Z</time>
      </trkpt>
      <trkpt lat="44.29163" lon="6.8306">
        <ele>1872.8000488281</ele>
        <time>2019-02-17T09:13:15.000Z</time>
      </trkpt>
      <trkpt lat="44.29163" lon="6.83059">
        <ele>1873</ele>
        <time>2019-02-17T09:13:16.000Z</time>
      </trkpt>
      <trkpt lat="44.29164" lon="6.83057">
        <ele>1874.1999511719</ele>
        <time>2019-02-17T09:13:21.000Z</time>
      </trkpt>
      <trkpt lat="44.2917" lon="6.83049">
        <ele>1875.1999511719</ele>
        <time>2019-02-17T09:13:30.000Z</time>
      </trkpt>
      <trkpt lat="44.29173" lon="6.83042">
        <ele>1876.1999511719</ele>
        <time>2019-02-17T09:13:39.000Z</time>
      </trkpt>
      <trkpt lat="44.29179" lon="6.83036">
        <ele>1877</ele>
        <time>2019-02-17T09:13:46.000Z</time>
      </trkpt>
      <trkpt lat="44.29181" lon="6.83035">
        <ele>1877.4000244141</ele>
        <time>2019-02-17T09:13:48.000Z</time>
      </trkpt>
      <trkpt lat="44.29182" lon="6.83035">
        <ele>1877.5999755859</ele>
        <time>2019-02-17T09:13:49.000Z</time>
      </trkpt>
      <trkpt lat="44.29182" lon="6.83029">
        <ele>1878.4000244141</ele>
        <time>2019-02-17T09:13:57.000Z</time>
      </trkpt>
      <trkpt lat="44.29184" lon="6.83017">
        <ele>1879.4000244141</ele>
        <time>2019-02-17T09:14:08.000Z</time>
      </trkpt>
      <trkpt lat="44.29185" lon="6.83013">
        <ele>1880.4000244141</ele>
        <time>2019-02-17T09:14:15.000Z</time>
      </trkpt>
      <trkpt lat="44.29192" lon="6.83012">
        <ele>1881</ele>
        <time>2019-02-17T09:14:20.000Z</time>
      </trkpt>
      <trkpt lat="44.29194" lon="6.83011">
        <ele>1881.5999755859</ele>
        <time>2019-02-17T09:14:22.000Z</time>
      </trkpt>
      <trkpt lat="44.29197" lon="6.83009">
        <ele>1882</ele>
        <time>2019-02-17T09:14:26.000Z</time>
      </trkpt>
      <trkpt lat="44.29201" lon="6.83008">
        <ele>1882.1999511719</ele>
        <time>2019-02-17T09:14:28.000Z</time>
      </trkpt>
      <trkpt lat="44.29203" lon="6.83006">
        <ele>1882.5999755859</ele>
        <time>2019-02-17T09:14:30.000Z</time>
      </trkpt>
      <trkpt lat="44.29203" lon="6.83005">
        <ele>1883.1999511719</ele>
        <time>2019-02-17T09:14:33.000Z</time>
      </trkpt>
      <trkpt lat="44.29203" lon="6.83004">
        <ele>1883.1999511719</ele>
        <time>2019-02-17T09:14:34.000Z</time>
      </trkpt>
      <trkpt lat="44.29201" lon="6.83003">
        <ele>1883.5999755859</ele>
        <time>2019-02-17T09:14:36.000Z</time>
      </trkpt>
      <trkpt lat="44.29201" lon="6.83002">
        <ele>1883.5999755859</ele>
        <time>2019-02-17T09:14:37.000Z</time>
      </trkpt>
      <trkpt lat="44.29213" lon="6.83">
        <ele>1884.1999511719</ele>
        <time>2019-02-17T09:15:01.000Z</time>
      </trkpt>
      <trkpt lat="44.29205" lon="6.83001">
        <ele>1884.5999755859</ele>
        <time>2019-02-17T09:15:08.000Z</time>
      </trkpt>
      <trkpt lat="44.29198" lon="6.82995">
        <ele>1884.8000488281</ele>
        <time>2019-02-17T09:15:14.000Z</time>
      </trkpt>
      <trkpt lat="44.29195" lon="6.82995">
        <ele>1885</ele>
        <time>2019-02-17T09:15:16.000Z</time>
      </trkpt>
      <trkpt lat="44.29191" lon="6.82996">
        <ele>1885</ele>
        <time>2019-02-17T09:15:18.000Z</time>
      </trkpt>
      <trkpt lat="44.29197" lon="6.82997">
        <ele>1885.1999511719</ele>
        <time>2019-02-17T09:15:23.000Z</time>
      </trkpt>
      <trkpt lat="44.29203" lon="6.82998">
        <ele>1885.1999511719</ele>
        <time>2019-02-17T09:15:26.000Z</time>
      </trkpt>
      <trkpt lat="44.2921" lon="6.83">
        <ele>1885.4000244141</ele>
        <time>2019-02-17T09:15:29.000Z</time>
      </trkpt>
      <trkpt lat="44.29217" lon="6.83002">
        <ele>1885.4000244141</ele>
        <time>2019-02-17T09:15:31.000Z</time>
      </trkpt>
      <trkpt lat="44.29222" lon="6.83004">
        <ele>1885.4000244141</ele>
        <time>2019-02-17T09:15:34.000Z</time>
      </trkpt>
      <trkpt lat="44.29217" lon="6.83001">
        <ele>1885.4000244141</ele>
        <time>2019-02-17T09:15:37.000Z</time>
      </trkpt>
      <trkpt lat="44.2921" lon="6.83">
        <ele>1885.4000244141</ele>
        <time>2019-02-17T09:15:42.000Z</time>
      </trkpt>
      <trkpt lat="44.29201" lon="6.83004">
        <ele>1885.5999755859</ele>
        <time>2019-02-17T09:15:47.000Z</time>
      </trkpt>
      <trkpt lat="44.29199" lon="6.83004">
        <ele>1885.8000488281</ele>
        <time>2019-02-17T09:15:49.000Z</time>
      </trkpt>
      <trkpt lat="44.29198" lon="6.83005">
        <ele>1886</ele>
        <time>2019-02-17T09:15:51.000Z</time>
      </trkpt>
      <trkpt lat="44.29195" lon="6.83004">
        <ele>1886.4000244141</ele>
        <time>2019-02-17T09:15:54.000Z</time>
      </trkpt>
      <trkpt lat="44.29194" lon="6.83005">
        <ele>1886.5999755859</ele>
        <time>2019-02-17T09:15:57.000Z</time>
      </trkpt>
      <trkpt lat="44.29195" lon="6.83002">
        <ele>1886.8000488281</ele>
        <time>2019-02-17T09:15:59.000Z</time>
      </trkpt>
      <trkpt lat="44.29194" lon="6.83001">
        <ele>1886.8000488281</ele>
        <time>2019-02-17T09:16:00.000Z</time>
      </trkpt>
      <trkpt lat="44.29195" lon="6.82999">
        <ele>1887</ele>
        <time>2019-02-17T09:16:02.000Z</time>
      </trkpt>
      <trkpt lat="44.29195" lon="6.82997">
        <ele>1887.1999511719</ele>
        <time>2019-02-17T09:16:04.000Z</time>
      </trkpt>
      <trkpt lat="44.29204" lon="6.82992">
        <ele>1887.1999511719</ele>
        <time>2019-02-17T09:16:16.000Z</time>
      </trkpt>
      <trkpt lat="44.2921" lon="6.82988">
        <ele>1887.8000488281</ele>
        <time>2019-02-17T09:16:20.000Z</time>
      </trkpt>
      <trkpt lat="44.29214" lon="6.82984">
        <ele>1888.4000244141</ele>
        <time>2019-02-17T09:16:24.000Z</time>
      </trkpt>
      <trkpt lat="44.29214" lon="6.82981">
        <ele>1888.4000244141</ele>
        <time>2019-02-17T09:16:26.000Z</time>
      </trkpt>
      <trkpt lat="44.29215" lon="6.8298">
        <ele>1888.5999755859</ele>
        <time>2019-02-17T09:16:29.000Z</time>
      </trkpt>
      <trkpt lat="44.29218" lon="6.82978">
        <ele>1888.8000488281</ele>
        <time>2019-02-17T09:16:32.000Z</time>
      </trkpt>
      <trkpt lat="44.29219" lon="6.82976">
        <ele>1889</ele>
        <time>2019-02-17T09:16:35.000Z</time>
      </trkpt>
      <trkpt lat="44.29224" lon="6.82974">
        <ele>1889.5999755859</ele>
        <time>2019-02-17T09:16:40.000Z</time>
      </trkpt>
      <trkpt lat="44.29223" lon="6.8297">
        <ele>1890</ele>
        <time>2019-02-17T09:16:44.000Z</time>
      </trkpt>
      <trkpt lat="44.29227" lon="6.82967">
        <ele>1890.5999755859</ele>
        <time>2019-02-17T09:16:49.000Z</time>
      </trkpt>
      <trkpt lat="44.29229" lon="6.82965">
        <ele>1890.5999755859</ele>
        <time>2019-02-17T09:16:51.000Z</time>
      </trkpt>
      <trkpt lat="44.2923" lon="6.82963">
        <ele>1890.5999755859</ele>
        <time>2019-02-17T09:16:53.000Z</time>
      </trkpt>
      <trkpt lat="44.2923" lon="6.82962">
        <ele>1890.8000488281</ele>
        <time>2019-02-17T09:16:55.000Z</time>
      </trkpt>
      <trkpt lat="44.29229" lon="6.8296">
        <ele>1891.1999511719</ele>
        <time>2019-02-17T09:16:57.000Z</time>
      </trkpt>
      <trkpt lat="44.29224" lon="6.82947">
        <ele>1892</ele>
        <time>2019-02-17T09:17:08.000Z</time>
      </trkpt>
      <trkpt lat="44.29226" lon="6.82945">
        <ele>1892.1999511719</ele>
        <time>2019-02-17T09:17:10.000Z</time>
      </trkpt>
      <trkpt lat="44.2923" lon="6.82942">
        <ele>1892.8000488281</ele>
        <time>2019-02-17T09:17:15.000Z</time>
      </trkpt>
      <trkpt lat="44.29239" lon="6.82939">
        <ele>1893.1999511719</ele>
        <time>2019-02-17T09:17:21.000Z</time>
      </trkpt>
      <trkpt lat="44.2924" lon="6.82939">
        <ele>1893.4000244141</ele>
        <time>2019-02-17T09:17:22.000Z</time>
      </trkpt>
      <trkpt lat="44.29246" lon="6.82936">
        <ele>1894</ele>
        <time>2019-02-17T09:17:28.000Z</time>
      </trkpt>
      <trkpt lat="44.29247" lon="6.82935">
        <ele>1894.1999511719</ele>
        <time>2019-02-17T09:17:30.000Z</time>
      </trkpt>
      <trkpt lat="44.29249" lon="6.82931">
        <ele>1894.4000244141</ele>
        <time>2019-02-17T09:17:33.000Z</time>
      </trkpt>
      <trkpt lat="44.29254" lon="6.82925">
        <ele>1895.1999511719</ele>
        <time>2019-02-17T09:17:39.000Z</time>
      </trkpt>
      <trkpt lat="44.29255" lon="6.82924">
        <ele>1895.4000244141</ele>
        <time>2019-02-17T09:17:40.000Z</time>
      </trkpt>
      <trkpt lat="44.29256" lon="6.82919">
        <ele>1895.8000488281</ele>
        <time>2019-02-17T09:17:44.000Z</time>
      </trkpt>
      <trkpt lat="44.29259" lon="6.82916">
        <ele>1896.4000244141</ele>
        <time>2019-02-17T09:17:47.000Z</time>
      </trkpt>
      <trkpt lat="44.2926" lon="6.82914">
        <ele>1896.5999755859</ele>
        <time>2019-02-17T09:17:49.000Z</time>
      </trkpt>
      <trkpt lat="44.2926" lon="6.82913">
        <ele>1896.8000488281</ele>
        <time>2019-02-17T09:17:51.000Z</time>
      </trkpt>
      <trkpt lat="44.29261" lon="6.82907">
        <ele>1897.1999511719</ele>
        <time>2019-02-17T09:17:55.000Z</time>
      </trkpt>
      <trkpt lat="44.29262" lon="6.82906">
        <ele>1897.4000244141</ele>
        <time>2019-02-17T09:17:56.000Z</time>
      </trkpt>
      <trkpt lat="44.29263" lon="6.82903">
        <ele>1897.5999755859</ele>
        <time>2019-02-17T09:17:59.000Z</time>
      </trkpt>
      <trkpt lat="44.29267" lon="6.82897">
        <ele>1898.4000244141</ele>
        <time>2019-02-17T09:18:04.000Z</time>
      </trkpt>
      <trkpt lat="44.29268" lon="6.82897">
        <ele>1898.4000244141</ele>
        <time>2019-02-17T09:18:05.000Z</time>
      </trkpt>
      <trkpt lat="44.29273" lon="6.82888">
        <ele>1899.1999511719</ele>
        <time>2019-02-17T09:18:11.000Z</time>
      </trkpt>
      <trkpt lat="44.29273" lon="6.82885">
        <ele>1899.4000244141</ele>
        <time>2019-02-17T09:18:14.000Z</time>
      </trkpt>
      <trkpt lat="44.29273" lon="6.82883">
        <ele>1899.4000244141</ele>
        <time>2019-02-17T09:18:15.000Z</time>
      </trkpt>
      <trkpt lat="44.29274" lon="6.82882">
        <ele>1899.5999755859</ele>
        <time>2019-02-17T09:18:16.000Z</time>
      </trkpt>
      <trkpt lat="44.29275" lon="6.82876">
        <ele>1900.1999511719</ele>
        <time>2019-02-17T09:18:22.000Z</time>
      </trkpt>
      <trkpt lat="44.29278" lon="6.82871">
        <ele>1900.4000244141</ele>
        <time>2019-02-17T09:18:27.000Z</time>
      </trkpt>
      <trkpt lat="44.29278" lon="6.82871">
        <ele>1900.5999755859</ele>
        <time>2019-02-17T09:18:28.000Z</time>
      </trkpt>
      <trkpt lat="44.29277" lon="6.82869">
        <ele>1900.8000488281</ele>
        <time>2019-02-17T09:18:30.000Z</time>
      </trkpt>
      <trkpt lat="44.2928" lon="6.82866">
        <ele>1900.8000488281</ele>
        <time>2019-02-17T09:18:32.000Z</time>
      </trkpt>
      <trkpt lat="44.29281" lon="6.82864">
        <ele>1901</ele>
        <time>2019-02-17T09:18:34.000Z</time>
      </trkpt>
      <trkpt lat="44.29281" lon="6.82861">
        <ele>1901.1999511719</ele>
        <time>2019-02-17T09:18:36.000Z</time>
      </trkpt>
      <trkpt lat="44.29282" lon="6.82859">
        <ele>1901.4000244141</ele>
        <time>2019-02-17T09:18:38.000Z</time>
      </trkpt>
      <trkpt lat="44.29282" lon="6.82857">
        <ele>1901.5999755859</ele>
        <time>2019-02-17T09:18:39.000Z</time>
      </trkpt>
      <trkpt lat="44.29282" lon="6.82856">
        <ele>1901.5999755859</ele>
        <time>2019-02-17T09:18:40.000Z</time>
      </trkpt>
      <trkpt lat="44.29278" lon="6.8285">
        <ele>1902</ele>
        <time>2019-02-17T09:18:44.000Z</time>
      </trkpt>
      <trkpt lat="44.29278" lon="6.82849">
        <ele>1902</ele>
        <time>2019-02-17T09:18:45.000Z</time>
      </trkpt>
      <trkpt lat="44.29277" lon="6.82846">
        <ele>1902.4000244141</ele>
        <time>2019-02-17T09:18:47.000Z</time>
      </trkpt>
      <trkpt lat="44.29275" lon="6.82843">
        <ele>1902.4000244141</ele>
        <time>2019-02-17T09:18:49.000Z</time>
      </trkpt>
      <trkpt lat="44.29274" lon="6.82842">
        <ele>1902.5999755859</ele>
        <time>2019-02-17T09:18:50.000Z</time>
      </trkpt>
      <trkpt lat="44.29272" lon="6.82839">
        <ele>1903</ele>
        <time>2019-02-17T09:18:53.000Z</time>
      </trkpt>
      <trkpt lat="44.2927" lon="6.82835">
        <ele>1903.1999511719</ele>
        <time>2019-02-17T09:18:56.000Z</time>
      </trkpt>
      <trkpt lat="44.29271" lon="6.82832">
        <ele>1903.5999755859</ele>
        <time>2019-02-17T09:18:58.000Z</time>
      </trkpt>
      <trkpt lat="44.29272" lon="6.82831">
        <ele>1903.5999755859</ele>
        <time>2019-02-17T09:18:59.000Z</time>
      </trkpt>
      <trkpt lat="44.29272" lon="6.82829">
        <ele>1903.5999755859</ele>
        <time>2019-02-17T09:19:00.000Z</time>
      </trkpt>
      <trkpt lat="44.29273" lon="6.82827">
        <ele>1903.8000488281</ele>
        <time>2019-02-17T09:19:02.000Z</time>
      </trkpt>
      <trkpt lat="44.29273" lon="6.82823">
        <ele>1904</ele>
        <time>2019-02-17T09:19:05.000Z</time>
      </trkpt>
      <trkpt lat="44.29273" lon="6.82821">
        <ele>1904.1999511719</ele>
        <time>2019-02-17T09:19:07.000Z</time>
      </trkpt>
      <trkpt lat="44.29272" lon="6.82816">
        <ele>1904.8000488281</ele>
        <time>2019-02-17T09:19:11.000Z</time>
      </trkpt>
      <trkpt lat="44.29272" lon="6.82814">
        <ele>1904.8000488281</ele>
        <time>2019-02-17T09:19:12.000Z</time>
      </trkpt>
      <trkpt lat="44.2927" lon="6.82811">
        <ele>1905.1999511719</ele>
        <time>2019-02-17T09:19:15.000Z</time>
      </trkpt>
      <trkpt lat="44.29272" lon="6.828">
        <ele>1905.4000244141</ele>
        <time>2019-02-17T09:19:23.000Z</time>
      </trkpt>
      <trkpt lat="44.2927" lon="6.82795">
        <ele>1905.8000488281</ele>
        <time>2019-02-17T09:19:26.000Z</time>
      </trkpt>
      <trkpt lat="44.29271" lon="6.82794">
        <ele>1905.8000488281</ele>
        <time>2019-02-17T09:19:27.000Z</time>
      </trkpt>
      <trkpt lat="44.29271" lon="6.82792">
        <ele>1906</ele>
        <time>2019-02-17T09:19:29.000Z</time>
      </trkpt>
      <trkpt lat="44.29271" lon="6.82789">
        <ele>1906.1999511719</ele>
        <time>2019-02-17T09:19:33.000Z</time>
      </trkpt>
      <trkpt lat="44.29274" lon="6.82783">
        <ele>1906.4000244141</ele>
        <time>2019-02-17T09:19:38.000Z</time>
      </trkpt>
      <trkpt lat="44.29274" lon="6.82779">
        <ele>1906.5999755859</ele>
        <time>2019-02-17T09:19:41.000Z</time>
      </trkpt>
      <trkpt lat="44.29274" lon="6.82778">
        <ele>1906.8000488281</ele>
        <time>2019-02-17T09:19:42.000Z</time>
      </trkpt>
      <trkpt lat="44.29276" lon="6.82773">
        <ele>1907.1999511719</ele>
        <time>2019-02-17T09:19:45.000Z</time>
      </trkpt>
      <trkpt lat="44.29281" lon="6.82762">
        <ele>1907.5999755859</ele>
        <time>2019-02-17T09:19:53.000Z</time>
      </trkpt>
      <trkpt lat="44.29284" lon="6.82756">
        <ele>1907.8000488281</ele>
        <time>2019-02-17T09:19:57.000Z</time>
      </trkpt>
      <trkpt lat="44.29299" lon="6.82749">
        <ele>1908.1999511719</ele>
        <time>2019-02-17T09:20:05.000Z</time>
      </trkpt>
      <trkpt lat="44.29308" lon="6.82743">
        <ele>1908.5999755859</ele>
        <time>2019-02-17T09:20:11.000Z</time>
      </trkpt>
      <trkpt lat="44.2931" lon="6.82739">
        <ele>1908.8000488281</ele>
        <time>2019-02-17T09:20:15.000Z</time>
      </trkpt>
      <trkpt lat="44.29309" lon="6.82738">
        <ele>1908.8000488281</ele>
        <time>2019-02-17T09:20:16.000Z</time>
      </trkpt>
      <trkpt lat="44.29308" lon="6.82736">
        <ele>1909</ele>
        <time>2019-02-17T09:20:18.000Z</time>
      </trkpt>
      <trkpt lat="44.29311" lon="6.82729">
        <ele>1909.1999511719</ele>
        <time>2019-02-17T09:20:24.000Z</time>
      </trkpt>
      <trkpt lat="44.29316" lon="6.8272">
        <ele>1909.4000244141</ele>
        <time>2019-02-17T09:20:33.000Z</time>
      </trkpt>
      <trkpt lat="44.29319" lon="6.82714">
        <ele>1909.5999755859</ele>
        <time>2019-02-17T09:20:37.000Z</time>
      </trkpt>
      <trkpt lat="44.29316" lon="6.8271">
        <ele>1909.8000488281</ele>
        <time>2019-02-17T09:20:41.000Z</time>
      </trkpt>
      <trkpt lat="44.29316" lon="6.82709">
        <ele>1910</ele>
        <time>2019-02-17T09:20:42.000Z</time>
      </trkpt>
      <trkpt lat="44.29317" lon="6.82707">
        <ele>1910.1999511719</ele>
        <time>2019-02-17T09:20:45.000Z</time>
      </trkpt>
      <trkpt lat="44.29318" lon="6.82703">
        <ele>1910.4000244141</ele>
        <time>2019-02-17T09:20:48.000Z</time>
      </trkpt>
      <trkpt lat="44.29321" lon="6.827">
        <ele>1910.8000488281</ele>
        <time>2019-02-17T09:20:52.000Z</time>
      </trkpt>
      <trkpt lat="44.29323" lon="6.82695">
        <ele>1910.8000488281</ele>
        <time>2019-02-17T09:20:57.000Z</time>
      </trkpt>
      <trkpt lat="44.29323" lon="6.82693">
        <ele>1911</ele>
        <time>2019-02-17T09:20:58.000Z</time>
      </trkpt>
      <trkpt lat="44.29322" lon="6.82685">
        <ele>1911.4000244141</ele>
        <time>2019-02-17T09:21:03.000Z</time>
      </trkpt>
      <trkpt lat="44.29322" lon="6.8268">
        <ele>1911.5999755859</ele>
        <time>2019-02-17T09:21:07.000Z</time>
      </trkpt>
      <trkpt lat="44.29322" lon="6.82678">
        <ele>1911.5999755859</ele>
        <time>2019-02-17T09:21:09.000Z</time>
      </trkpt>
      <trkpt lat="44.29322" lon="6.82676">
        <ele>1911.8000488281</ele>
        <time>2019-02-17T09:21:11.000Z</time>
      </trkpt>
      <trkpt lat="44.29317" lon="6.82667">
        <ele>1912</ele>
        <time>2019-02-17T09:21:18.000Z</time>
      </trkpt>
      <trkpt lat="44.29317" lon="6.82652">
        <ele>1912.8000488281</ele>
        <time>2019-02-17T09:22:01.000Z</time>
      </trkpt>
      <trkpt lat="44.29317" lon="6.82649">
        <ele>1912.8000488281</ele>
        <time>2019-02-17T09:22:03.000Z</time>
      </trkpt>
      <trkpt lat="44.29317" lon="6.82646">
        <ele>1913</ele>
        <time>2019-02-17T09:22:05.000Z</time>
      </trkpt>
      <trkpt lat="44.29317" lon="6.82638">
        <ele>1913</ele>
        <time>2019-02-17T09:22:10.000Z</time>
      </trkpt>
      <trkpt lat="44.29317" lon="6.82634">
        <ele>1913.1999511719</ele>
        <time>2019-02-17T09:22:13.000Z</time>
      </trkpt>
      <trkpt lat="44.29316" lon="6.82631">
        <ele>1913.5999755859</ele>
        <time>2019-02-17T09:22:15.000Z</time>
      </trkpt>
      <trkpt lat="44.29317" lon="6.82628">
        <ele>1913.8000488281</ele>
        <time>2019-02-17T09:22:18.000Z</time>
      </trkpt>
      <trkpt lat="44.29317" lon="6.82627">
        <ele>1914</ele>
        <time>2019-02-17T09:22:19.000Z</time>
      </trkpt>
      <trkpt lat="44.29317" lon="6.82623">
        <ele>1914.4000244141</ele>
        <time>2019-02-17T09:22:22.000Z</time>
      </trkpt>
      <trkpt lat="44.29319" lon="6.82618">
        <ele>1914.5999755859</ele>
        <time>2019-02-17T09:22:26.000Z</time>
      </trkpt>
      <trkpt lat="44.29319" lon="6.82615">
        <ele>1914.8000488281</ele>
        <time>2019-02-17T09:22:28.000Z</time>
      </trkpt>
      <trkpt lat="44.29319" lon="6.82613">
        <ele>1914.8000488281</ele>
        <time>2019-02-17T09:22:30.000Z</time>
      </trkpt>
      <trkpt lat="44.29319" lon="6.82609">
        <ele>1915</ele>
        <time>2019-02-17T09:22:35.000Z</time>
      </trkpt>
      <trkpt lat="44.29318" lon="6.82597">
        <ele>1916</ele>
        <time>2019-02-17T09:22:45.000Z</time>
      </trkpt>
      <trkpt lat="44.29318" lon="6.82595">
        <ele>1916.4000244141</ele>
        <time>2019-02-17T09:22:47.000Z</time>
      </trkpt>
      <trkpt lat="44.29318" lon="6.82585">
        <ele>1917.1999511719</ele>
        <time>2019-02-17T09:23:06.000Z</time>
      </trkpt>
      <trkpt lat="44.29321" lon="6.82575">
        <ele>1918.1999511719</ele>
        <time>2019-02-17T09:23:15.000Z</time>
      </trkpt>
      <trkpt lat="44.29321" lon="6.82564">
        <ele>1919</ele>
        <time>2019-02-17T09:23:24.000Z</time>
      </trkpt>
      <trkpt lat="44.29321" lon="6.82562">
        <ele>1919.1999511719</ele>
        <time>2019-02-17T09:23:25.000Z</time>
      </trkpt>
      <trkpt lat="44.29321" lon="6.82561">
        <ele>1919.4000244141</ele>
        <time>2019-02-17T09:23:26.000Z</time>
      </trkpt>
      <trkpt lat="44.29321" lon="6.82559">
        <ele>1919.4000244141</ele>
        <time>2019-02-17T09:23:28.000Z</time>
      </trkpt>
      <trkpt lat="44.29322" lon="6.82552">
        <ele>1920</ele>
        <time>2019-02-17T09:23:33.000Z</time>
      </trkpt>
      <trkpt lat="44.29322" lon="6.82549">
        <ele>1920.1999511719</ele>
        <time>2019-02-17T09:23:35.000Z</time>
      </trkpt>
      <trkpt lat="44.29317" lon="6.82542">
        <ele>1921</ele>
        <time>2019-02-17T09:23:42.000Z</time>
      </trkpt>
      <trkpt lat="44.29316" lon="6.82539">
        <ele>1921.4000244141</ele>
        <time>2019-02-17T09:23:45.000Z</time>
      </trkpt>
      <trkpt lat="44.29314" lon="6.82529">
        <ele>1922</ele>
        <time>2019-02-17T09:23:54.000Z</time>
      </trkpt>
      <trkpt lat="44.29313" lon="6.82525">
        <ele>1922.4000244141</ele>
        <time>2019-02-17T09:23:57.000Z</time>
      </trkpt>
      <trkpt lat="44.29311" lon="6.82522">
        <ele>1922.4000244141</ele>
        <time>2019-02-17T09:24:00.000Z</time>
      </trkpt>
      <trkpt lat="44.29309" lon="6.82516">
        <ele>1922.8000488281</ele>
        <time>2019-02-17T09:24:04.000Z</time>
      </trkpt>
      <trkpt lat="44.29306" lon="6.82506">
        <ele>1923.1999511719</ele>
        <time>2019-02-17T09:24:11.000Z</time>
      </trkpt>
      <trkpt lat="44.29305" lon="6.82505">
        <ele>1923.4000244141</ele>
        <time>2019-02-17T09:24:12.000Z</time>
      </trkpt>
      <trkpt lat="44.29308" lon="6.82492">
        <ele>1924.4000244141</ele>
        <time>2019-02-17T09:24:22.000Z</time>
      </trkpt>
      <trkpt lat="44.29309" lon="6.82491">
        <ele>1924.4000244141</ele>
        <time>2019-02-17T09:24:23.000Z</time>
      </trkpt>
      <trkpt lat="44.29322" lon="6.82483">
        <ele>1925</ele>
        <time>2019-02-17T09:24:36.000Z</time>
      </trkpt>
      <trkpt lat="44.29328" lon="6.82483">
        <ele>1925.1999511719</ele>
        <time>2019-02-17T09:24:40.000Z</time>
      </trkpt>
      <trkpt lat="44.29331" lon="6.82482">
        <ele>1925.1999511719</ele>
        <time>2019-02-17T09:24:43.000Z</time>
      </trkpt>
      <trkpt lat="44.29331" lon="6.82481">
        <ele>1925.4000244141</ele>
        <time>2019-02-17T09:24:46.000Z</time>
      </trkpt>
      <trkpt lat="44.29335" lon="6.8248">
        <ele>1925.5999755859</ele>
        <time>2019-02-17T09:24:51.000Z</time>
      </trkpt>
      <trkpt lat="44.2934" lon="6.82476">
        <ele>1925.8000488281</ele>
        <time>2019-02-17T09:25:01.000Z</time>
      </trkpt>
      <trkpt lat="44.29349" lon="6.82481">
        <ele>1926.5999755859</ele>
        <time>2019-02-17T09:25:09.000Z</time>
      </trkpt>
      <trkpt lat="44.29354" lon="6.82484">
        <ele>1927.4000244141</ele>
        <time>2019-02-17T09:25:20.000Z</time>
      </trkpt>
      <trkpt lat="44.29356" lon="6.82485">
        <ele>1927.5999755859</ele>
        <time>2019-02-17T09:25:22.000Z</time>
      </trkpt>
      <trkpt lat="44.29361" lon="6.82484">
        <ele>1928.8000488281</ele>
        <time>2019-02-17T09:25:32.000Z</time>
      </trkpt>
      <trkpt lat="44.29368" lon="6.8248">
        <ele>1929.5999755859</ele>
        <time>2019-02-17T09:25:39.000Z</time>
      </trkpt>
      <trkpt lat="44.2937" lon="6.82479">
        <ele>1929.8000488281</ele>
        <time>2019-02-17T09:25:41.000Z</time>
      </trkpt>
      <trkpt lat="44.29372" lon="6.82478">
        <ele>1930.4000244141</ele>
        <time>2019-02-17T09:25:44.000Z</time>
      </trkpt>
      <trkpt lat="44.29374" lon="6.82476">
        <ele>1930.5999755859</ele>
        <time>2019-02-17T09:25:50.000Z</time>
      </trkpt>
      <trkpt lat="44.29376" lon="6.82475">
        <ele>1930.8000488281</ele>
        <time>2019-02-17T09:25:51.000Z</time>
      </trkpt>
      <trkpt lat="44.29377" lon="6.8247">
        <ele>1931.4000244141</ele>
        <time>2019-02-17T09:25:56.000Z</time>
      </trkpt>
      <trkpt lat="44.29378" lon="6.82468">
        <ele>1932</ele>
        <time>2019-02-17T09:26:00.000Z</time>
      </trkpt>
      <trkpt lat="44.29381" lon="6.82455">
        <ele>1933</ele>
        <time>2019-02-17T09:26:12.000Z</time>
      </trkpt>
      <trkpt lat="44.29383" lon="6.82449">
        <ele>1933.5999755859</ele>
        <time>2019-02-17T09:26:17.000Z</time>
      </trkpt>
      <trkpt lat="44.29385" lon="6.82445">
        <ele>1934</ele>
        <time>2019-02-17T09:26:22.000Z</time>
      </trkpt>
      <trkpt lat="44.29385" lon="6.82434">
        <ele>1935.1999511719</ele>
        <time>2019-02-17T09:26:32.000Z</time>
      </trkpt>
      <trkpt lat="44.29382" lon="6.82429">
        <ele>1936.1999511719</ele>
        <time>2019-02-17T09:26:40.000Z</time>
      </trkpt>
      <trkpt lat="44.29377" lon="6.82422">
        <ele>1937.4000244141</ele>
        <time>2019-02-17T09:26:51.000Z</time>
      </trkpt>
      <trkpt lat="44.29374" lon="6.82419">
        <ele>1938.4000244141</ele>
        <time>2019-02-17T09:26:59.000Z</time>
      </trkpt>
      <trkpt lat="44.29371" lon="6.82408">
        <ele>1939.4000244141</ele>
        <time>2019-02-17T09:27:47.000Z</time>
      </trkpt>
      <trkpt lat="44.2937" lon="6.82406">
        <ele>1939.5999755859</ele>
        <time>2019-02-17T09:27:49.000Z</time>
      </trkpt>
      <trkpt lat="44.29369" lon="6.82403">
        <ele>1939.8000488281</ele>
        <time>2019-02-17T09:27:52.000Z</time>
      </trkpt>
      <trkpt lat="44.29367" lon="6.82398">
        <ele>1940.4000244141</ele>
        <time>2019-02-17T09:27:56.000Z</time>
      </trkpt>
      <trkpt lat="44.29366" lon="6.82397">
        <ele>1940.4000244141</ele>
        <time>2019-02-17T09:27:57.000Z</time>
      </trkpt>
      <trkpt lat="44.29364" lon="6.82394">
        <ele>1940.8000488281</ele>
        <time>2019-02-17T09:28:00.000Z</time>
      </trkpt>
      <trkpt lat="44.29363" lon="6.8239">
        <ele>1941.1999511719</ele>
        <time>2019-02-17T09:28:03.000Z</time>
      </trkpt>
      <trkpt lat="44.29363" lon="6.82385">
        <ele>1941.5999755859</ele>
        <time>2019-02-17T09:28:06.000Z</time>
      </trkpt>
      <trkpt lat="44.29363" lon="6.82382">
        <ele>1941.5999755859</ele>
        <time>2019-02-17T09:28:08.000Z</time>
      </trkpt>
      <trkpt lat="44.29362" lon="6.82376">
        <ele>1941.8000488281</ele>
        <time>2019-02-17T09:28:11.000Z</time>
      </trkpt>
      <trkpt lat="44.29363" lon="6.82374">
        <ele>1942.1999511719</ele>
        <time>2019-02-17T09:28:13.000Z</time>
      </trkpt>
      <trkpt lat="44.29364" lon="6.82371">
        <ele>1942.5999755859</ele>
        <time>2019-02-17T09:28:15.000Z</time>
      </trkpt>
      <trkpt lat="44.29365" lon="6.82369">
        <ele>1942.5999755859</ele>
        <time>2019-02-17T09:28:16.000Z</time>
      </trkpt>
      <trkpt lat="44.29366" lon="6.82368">
        <ele>1942.8000488281</ele>
        <time>2019-02-17T09:28:17.000Z</time>
      </trkpt>
      <trkpt lat="44.29368" lon="6.82362">
        <ele>1943.5999755859</ele>
        <time>2019-02-17T09:28:22.000Z</time>
      </trkpt>
      <trkpt lat="44.29368" lon="6.82361">
        <ele>1943.5999755859</ele>
        <time>2019-02-17T09:28:23.000Z</time>
      </trkpt>
      <trkpt lat="44.29372" lon="6.82351">
        <ele>1944.8000488281</ele>
        <time>2019-02-17T09:28:32.000Z</time>
      </trkpt>
      <trkpt lat="44.29373" lon="6.8235">
        <ele>1944.8000488281</ele>
        <time>2019-02-17T09:28:33.000Z</time>
      </trkpt>
      <trkpt lat="44.29375" lon="6.82348">
        <ele>1945</ele>
        <time>2019-02-17T09:28:35.000Z</time>
      </trkpt>
      <trkpt lat="44.29376" lon="6.82347">
        <ele>1945.4000244141</ele>
        <time>2019-02-17T09:28:37.000Z</time>
      </trkpt>
      <trkpt lat="44.29381" lon="6.82344">
        <ele>1945.8000488281</ele>
        <time>2019-02-17T09:28:41.000Z</time>
      </trkpt>
      <trkpt lat="44.29388" lon="6.8234">
        <ele>1946.8000488281</ele>
        <time>2019-02-17T09:28:49.000Z</time>
      </trkpt>
      <trkpt lat="44.29389" lon="6.82339">
        <ele>1946.8000488281</ele>
        <time>2019-02-17T09:28:50.000Z</time>
      </trkpt>
      <trkpt lat="44.2939" lon="6.82339">
        <ele>1947</ele>
        <time>2019-02-17T09:28:51.000Z</time>
      </trkpt>
      <trkpt lat="44.29396" lon="6.82338">
        <ele>1947.5999755859</ele>
        <time>2019-02-17T09:28:56.000Z</time>
      </trkpt>
      <trkpt lat="44.29399" lon="6.82336">
        <ele>1947.8000488281</ele>
        <time>2019-02-17T09:28:59.000Z</time>
      </trkpt>
      <trkpt lat="44.29401" lon="6.82334">
        <ele>1948.1999511719</ele>
        <time>2019-02-17T09:29:02.000Z</time>
      </trkpt>
      <trkpt lat="44.29408" lon="6.82332">
        <ele>1949</ele>
        <time>2019-02-17T09:29:09.000Z</time>
      </trkpt>
      <trkpt lat="44.29414" lon="6.82329">
        <ele>1949.5999755859</ele>
        <time>2019-02-17T09:29:14.000Z</time>
      </trkpt>
      <trkpt lat="44.29416" lon="6.82326">
        <ele>1949.8000488281</ele>
        <time>2019-02-17T09:29:17.000Z</time>
      </trkpt>
      <trkpt lat="44.29418" lon="6.82323">
        <ele>1950</ele>
        <time>2019-02-17T09:29:20.000Z</time>
      </trkpt>
      <trkpt lat="44.29422" lon="6.82319">
        <ele>1950.5999755859</ele>
        <time>2019-02-17T09:29:25.000Z</time>
      </trkpt>
      <trkpt lat="44.29422" lon="6.82317">
        <ele>1950.8000488281</ele>
        <time>2019-02-17T09:29:27.000Z</time>
      </trkpt>
      <trkpt lat="44.29424" lon="6.82315">
        <ele>1951</ele>
        <time>2019-02-17T09:29:30.000Z</time>
      </trkpt>
      <trkpt lat="44.29425" lon="6.82314">
        <ele>1951.1999511719</ele>
        <time>2019-02-17T09:29:31.000Z</time>
      </trkpt>
      <trkpt lat="44.29426" lon="6.82313">
        <ele>1951.1999511719</ele>
        <time>2019-02-17T09:29:32.000Z</time>
      </trkpt>
      <trkpt lat="44.29434" lon="6.82303">
        <ele>1952.1999511719</ele>
        <time>2019-02-17T09:29:43.000Z</time>
      </trkpt>
      <trkpt lat="44.29437" lon="6.82298">
        <ele>1953</ele>
        <time>2019-02-17T09:29:50.000Z</time>
      </trkpt>
      <trkpt lat="44.29438" lon="6.82295">
        <ele>1953.1999511719</ele>
        <time>2019-02-17T09:29:53.000Z</time>
      </trkpt>
      <trkpt lat="44.29438" lon="6.82294">
        <ele>1953.4000244141</ele>
        <time>2019-02-17T09:29:54.000Z</time>
      </trkpt>
      <trkpt lat="44.29441" lon="6.82289">
        <ele>1954.4000244141</ele>
        <time>2019-02-17T09:30:00.000Z</time>
      </trkpt>
      <trkpt lat="44.29444" lon="6.82286">
        <ele>1954.8000488281</ele>
        <time>2019-02-17T09:30:04.000Z</time>
      </trkpt>
      <trkpt lat="44.29452" lon="6.82282">
        <ele>1955.4000244141</ele>
        <time>2019-02-17T09:30:11.000Z</time>
      </trkpt>
      <trkpt lat="44.29459" lon="6.82279">
        <ele>1956.4000244141</ele>
        <time>2019-02-17T09:30:18.000Z</time>
      </trkpt>
      <trkpt lat="44.29459" lon="6.82279">
        <ele>1956.4000244141</ele>
        <time>2019-02-17T09:30:20.000Z</time>
      </trkpt>
      <trkpt lat="44.2946" lon="6.82278">
        <ele>1956.4000244141</ele>
        <time>2019-02-17T09:30:21.000Z</time>
      </trkpt>
      <trkpt lat="44.2946" lon="6.82271">
        <ele>1957.5999755859</ele>
        <time>2019-02-17T09:31:18.000Z</time>
      </trkpt>
      <trkpt lat="44.29464" lon="6.82276">
        <ele>1957.8000488281</ele>
        <time>2019-02-17T09:31:59.000Z</time>
      </trkpt>
      <trkpt lat="44.29483" lon="6.82279">
        <ele>1957</ele>
        <time>2019-02-17T09:32:16.000Z</time>
      </trkpt>
      <trkpt lat="44.29477" lon="6.82281">
        <ele>1957</ele>
        <time>2019-02-17T09:32:18.000Z</time>
      </trkpt>
      <trkpt lat="44.29483" lon="6.8228">
        <ele>1957.1999511719</ele>
        <time>2019-02-17T09:32:26.000Z</time>
      </trkpt>
      <trkpt lat="44.29482" lon="6.8228">
        <ele>1957.1999511719</ele>
        <time>2019-02-17T09:32:29.000Z</time>
      </trkpt>
      <trkpt lat="44.29479" lon="6.82275">
        <ele>1957.1999511719</ele>
        <time>2019-02-17T09:32:35.000Z</time>
      </trkpt>
      <trkpt lat="44.29476" lon="6.82268">
        <ele>1958</ele>
        <time>2019-02-17T09:32:40.000Z</time>
      </trkpt>
      <trkpt lat="44.29471" lon="6.82247">
        <ele>1957.8000488281</ele>
        <time>2019-02-17T09:34:14.000Z</time>
      </trkpt>
      <trkpt lat="44.29473" lon="6.82242">
        <ele>1958</ele>
        <time>2019-02-17T09:34:18.000Z</time>
      </trkpt>
      <trkpt lat="44.29481" lon="6.82217">
        <ele>1958.5999755859</ele>
        <time>2019-02-17T09:34:36.000Z</time>
      </trkpt>
      <trkpt lat="44.29489" lon="6.82179">
        <ele>1959</ele>
        <time>2019-02-17T09:35:04.000Z</time>
      </trkpt>
      <trkpt lat="44.29489" lon="6.8218">
        <ele>1959</ele>
        <time>2019-02-17T09:35:06.000Z</time>
      </trkpt>
      <trkpt lat="44.29489" lon="6.82172">
        <ele>1959.4000244141</ele>
        <time>2019-02-17T09:35:13.000Z</time>
      </trkpt>
      <trkpt lat="44.2949" lon="6.8217">
        <ele>1959.5999755859</ele>
        <time>2019-02-17T09:35:16.000Z</time>
      </trkpt>
      <trkpt lat="44.29494" lon="6.82164">
        <ele>1959.8000488281</ele>
        <time>2019-02-17T09:35:22.000Z</time>
      </trkpt>
      <trkpt lat="44.29497" lon="6.82151">
        <ele>1960</ele>
        <time>2019-02-17T09:35:33.000Z</time>
      </trkpt>
      <trkpt lat="44.29509" lon="6.8214">
        <ele>1960.5999755859</ele>
        <time>2019-02-17T09:35:48.000Z</time>
      </trkpt>
      <trkpt lat="44.29524" lon="6.82125">
        <ele>1961.4000244141</ele>
        <time>2019-02-17T09:36:06.000Z</time>
      </trkpt>
      <trkpt lat="44.29525" lon="6.82123">
        <ele>1961.4000244141</ele>
        <time>2019-02-17T09:36:08.000Z</time>
      </trkpt>
      <trkpt lat="44.29525" lon="6.82121">
        <ele>1961.5999755859</ele>
        <time>2019-02-17T09:36:10.000Z</time>
      </trkpt>
      <trkpt lat="44.29524" lon="6.82115">
        <ele>1962.1999511719</ele>
        <time>2019-02-17T09:36:14.000Z</time>
      </trkpt>
      <trkpt lat="44.29524" lon="6.8211">
        <ele>1962.5999755859</ele>
        <time>2019-02-17T09:36:17.000Z</time>
      </trkpt>
      <trkpt lat="44.29524" lon="6.82104">
        <ele>1962.5999755859</ele>
        <time>2019-02-17T09:36:21.000Z</time>
      </trkpt>
      <trkpt lat="44.29524" lon="6.82102">
        <ele>1962.5999755859</ele>
        <time>2019-02-17T09:36:22.000Z</time>
      </trkpt>
      <trkpt lat="44.29524" lon="6.821">
        <ele>1962.8000488281</ele>
        <time>2019-02-17T09:36:24.000Z</time>
      </trkpt>
      <trkpt lat="44.29526" lon="6.82084">
        <ele>1963.4000244141</ele>
        <time>2019-02-17T09:36:37.000Z</time>
      </trkpt>
      <trkpt lat="44.29526" lon="6.8208">
        <ele>1963.4000244141</ele>
        <time>2019-02-17T09:36:40.000Z</time>
      </trkpt>
      <trkpt lat="44.29526" lon="6.82077">
        <ele>1963.4000244141</ele>
        <time>2019-02-17T09:36:42.000Z</time>
      </trkpt>
      <trkpt lat="44.29526" lon="6.82072">
        <ele>1963.8000488281</ele>
        <time>2019-02-17T09:36:46.000Z</time>
      </trkpt>
      <trkpt lat="44.29527" lon="6.82068">
        <ele>1964</ele>
        <time>2019-02-17T09:36:50.000Z</time>
      </trkpt>
      <trkpt lat="44.29527" lon="6.82064">
        <ele>1964.5999755859</ele>
        <time>2019-02-17T09:36:54.000Z</time>
      </trkpt>
      <trkpt lat="44.29526" lon="6.82062">
        <ele>1964.8000488281</ele>
        <time>2019-02-17T09:36:56.000Z</time>
      </trkpt>
      <trkpt lat="44.29526" lon="6.8206">
        <ele>1965</ele>
        <time>2019-02-17T09:36:58.000Z</time>
      </trkpt>
      <trkpt lat="44.29538" lon="6.82055">
        <ele>1965.4000244141</ele>
        <time>2019-02-17T09:38:46.000Z</time>
      </trkpt>
      <trkpt lat="44.29533" lon="6.82047">
        <ele>1965.8000488281</ele>
        <time>2019-02-17T09:38:54.000Z</time>
      </trkpt>
      <trkpt lat="44.29534" lon="6.82045">
        <ele>1965.8000488281</ele>
        <time>2019-02-17T09:38:56.000Z</time>
      </trkpt>
      <trkpt lat="44.29537" lon="6.82044">
        <ele>1965.8000488281</ele>
        <time>2019-02-17T09:38:58.000Z</time>
      </trkpt>
      <trkpt lat="44.29543" lon="6.82037">
        <ele>1965.8000488281</ele>
        <time>2019-02-17T09:39:06.000Z</time>
      </trkpt>
      <trkpt lat="44.29541" lon="6.82033">
        <ele>1966.1999511719</ele>
        <time>2019-02-17T09:39:16.000Z</time>
      </trkpt>
      <trkpt lat="44.29541" lon="6.82028">
        <ele>1966.4000244141</ele>
        <time>2019-02-17T09:39:20.000Z</time>
      </trkpt>
      <trkpt lat="44.29541" lon="6.82024">
        <ele>1966.8000488281</ele>
        <time>2019-02-17T09:39:24.000Z</time>
      </trkpt>
      <trkpt lat="44.29541" lon="6.82021">
        <ele>1967</ele>
        <time>2019-02-17T09:39:27.000Z</time>
      </trkpt>
      <trkpt lat="44.29541" lon="6.82018">
        <ele>1967.4000244141</ele>
        <time>2019-02-17T09:39:31.000Z</time>
      </trkpt>
      <trkpt lat="44.29542" lon="6.82015">
        <ele>1967.5999755859</ele>
        <time>2019-02-17T09:39:34.000Z</time>
      </trkpt>
      <trkpt lat="44.29542" lon="6.82013">
        <ele>1967.8000488281</ele>
        <time>2019-02-17T09:39:36.000Z</time>
      </trkpt>
      <trkpt lat="44.29543" lon="6.82009">
        <ele>1967.8000488281</ele>
        <time>2019-02-17T09:39:40.000Z</time>
      </trkpt>
      <trkpt lat="44.29544" lon="6.82005">
        <ele>1968</ele>
        <time>2019-02-17T09:39:43.000Z</time>
      </trkpt>
      <trkpt lat="44.29545" lon="6.82002">
        <ele>1968.1999511719</ele>
        <time>2019-02-17T09:39:46.000Z</time>
      </trkpt>
      <trkpt lat="44.29546" lon="6.81994">
        <ele>1968.8000488281</ele>
        <time>2019-02-17T09:39:53.000Z</time>
      </trkpt>
      <trkpt lat="44.2955" lon="6.81993">
        <ele>1969</ele>
        <time>2019-02-17T09:39:56.000Z</time>
      </trkpt>
      <trkpt lat="44.29551" lon="6.81993">
        <ele>1969</ele>
        <time>2019-02-17T09:39:57.000Z</time>
      </trkpt>
      <trkpt lat="44.29568" lon="6.81989">
        <ele>1970</ele>
        <time>2019-02-17T09:40:13.000Z</time>
      </trkpt>
      <trkpt lat="44.29572" lon="6.81986">
        <ele>1970.5999755859</ele>
        <time>2019-02-17T09:40:19.000Z</time>
      </trkpt>
      <trkpt lat="44.29573" lon="6.81985">
        <ele>1970.5999755859</ele>
        <time>2019-02-17T09:40:21.000Z</time>
      </trkpt>
      <trkpt lat="44.29575" lon="6.81981">
        <ele>1971.1999511719</ele>
        <time>2019-02-17T09:40:27.000Z</time>
      </trkpt>
      <trkpt lat="44.29576" lon="6.81981">
        <ele>1971.1999511719</ele>
        <time>2019-02-17T09:40:28.000Z</time>
      </trkpt>
      <trkpt lat="44.29577" lon="6.8198">
        <ele>1971.4000244141</ele>
        <time>2019-02-17T09:40:30.000Z</time>
      </trkpt>
      <trkpt lat="44.29577" lon="6.81977">
        <ele>1971.4000244141</ele>
        <time>2019-02-17T09:40:32.000Z</time>
      </trkpt>
      <trkpt lat="44.29577" lon="6.81973">
        <ele>1971.8000488281</ele>
        <time>2019-02-17T09:40:35.000Z</time>
      </trkpt>
      <trkpt lat="44.29578" lon="6.81969">
        <ele>1972</ele>
        <time>2019-02-17T09:40:38.000Z</time>
      </trkpt>
      <trkpt lat="44.2958" lon="6.81967">
        <ele>1972</ele>
        <time>2019-02-17T09:40:40.000Z</time>
      </trkpt>
      <trkpt lat="44.29582" lon="6.81962">
        <ele>1972</ele>
        <time>2019-02-17T09:40:44.000Z</time>
      </trkpt>
      <trkpt lat="44.29583" lon="6.81961">
        <ele>1972.1999511719</ele>
        <time>2019-02-17T09:40:46.000Z</time>
      </trkpt>
      <trkpt lat="44.29583" lon="6.81958">
        <ele>1972.4000244141</ele>
        <time>2019-02-17T09:40:48.000Z</time>
      </trkpt>
      <trkpt lat="44.29586" lon="6.81954">
        <ele>1972.5999755859</ele>
        <time>2019-02-17T09:40:51.000Z</time>
      </trkpt>
      <trkpt lat="44.29587" lon="6.81953">
        <ele>1972.5999755859</ele>
        <time>2019-02-17T09:40:53.000Z</time>
      </trkpt>
      <trkpt lat="44.29591" lon="6.81949">
        <ele>1973.4000244141</ele>
        <time>2019-02-17T09:40:58.000Z</time>
      </trkpt>
      <trkpt lat="44.29591" lon="6.81946">
        <ele>1973.4000244141</ele>
        <time>2019-02-17T09:41:00.000Z</time>
      </trkpt>
      <trkpt lat="44.29592" lon="6.81943">
        <ele>1973.5999755859</ele>
        <time>2019-02-17T09:41:02.000Z</time>
      </trkpt>
      <trkpt lat="44.29595" lon="6.8193">
        <ele>1974.4000244141</ele>
        <time>2019-02-17T09:41:13.000Z</time>
      </trkpt>
      <trkpt lat="44.29599" lon="6.81916">
        <ele>1975.4000244141</ele>
        <time>2019-02-17T09:41:25.000Z</time>
      </trkpt>
      <trkpt lat="44.29599" lon="6.81913">
        <ele>1975.5999755859</ele>
        <time>2019-02-17T09:41:27.000Z</time>
      </trkpt>
      <trkpt lat="44.29602" lon="6.8191">
        <ele>1976</ele>
        <time>2019-02-17T09:41:31.000Z</time>
      </trkpt>
      <trkpt lat="44.29603" lon="6.81908">
        <ele>1976.1999511719</ele>
        <time>2019-02-17T09:41:33.000Z</time>
      </trkpt>
      <trkpt lat="44.29604" lon="6.81906">
        <ele>1976.4000244141</ele>
        <time>2019-02-17T09:41:35.000Z</time>
      </trkpt>
      <trkpt lat="44.29608" lon="6.819">
        <ele>1976.5999755859</ele>
        <time>2019-02-17T09:41:40.000Z</time>
      </trkpt>
      <trkpt lat="44.29612" lon="6.8189">
        <ele>1977.4000244141</ele>
        <time>2019-02-17T09:41:48.000Z</time>
      </trkpt>
      <trkpt lat="44.29611" lon="6.81887">
        <ele>1977.5999755859</ele>
        <time>2019-02-17T09:41:50.000Z</time>
      </trkpt>
      <trkpt lat="44.29611" lon="6.81883">
        <ele>1977.5999755859</ele>
        <time>2019-02-17T09:41:52.000Z</time>
      </trkpt>
      <trkpt lat="44.29616" lon="6.81879">
        <ele>1978.4000244141</ele>
        <time>2019-02-17T09:41:58.000Z</time>
      </trkpt>
      <trkpt lat="44.29621" lon="6.81878">
        <ele>1978.8000488281</ele>
        <time>2019-02-17T09:42:01.000Z</time>
      </trkpt>
      <trkpt lat="44.29622" lon="6.81877">
        <ele>1979</ele>
        <time>2019-02-17T09:42:03.000Z</time>
      </trkpt>
      <trkpt lat="44.29623" lon="6.81873">
        <ele>1979.1999511719</ele>
        <time>2019-02-17T09:42:06.000Z</time>
      </trkpt>
      <trkpt lat="44.29624" lon="6.81867">
        <ele>1979.5999755859</ele>
        <time>2019-02-17T09:42:10.000Z</time>
      </trkpt>
      <trkpt lat="44.29624" lon="6.81866">
        <ele>1979.8000488281</ele>
        <time>2019-02-17T09:42:11.000Z</time>
      </trkpt>
      <trkpt lat="44.29625" lon="6.81866">
        <ele>1980</ele>
        <time>2019-02-17T09:42:12.000Z</time>
      </trkpt>
      <trkpt lat="44.29629" lon="6.81862">
        <ele>1980.1999511719</ele>
        <time>2019-02-17T09:42:17.000Z</time>
      </trkpt>
      <trkpt lat="44.29629" lon="6.81855">
        <ele>1980.8000488281</ele>
        <time>2019-02-17T09:42:23.000Z</time>
      </trkpt>
      <trkpt lat="44.29633" lon="6.81852">
        <ele>1981.1999511719</ele>
        <time>2019-02-17T09:42:28.000Z</time>
      </trkpt>
      <trkpt lat="44.29638" lon="6.81851">
        <ele>1981.4000244141</ele>
        <time>2019-02-17T09:42:31.000Z</time>
      </trkpt>
      <trkpt lat="44.29644" lon="6.81849">
        <ele>1981.8000488281</ele>
        <time>2019-02-17T09:42:34.000Z</time>
      </trkpt>
      <trkpt lat="44.2966" lon="6.81835">
        <ele>1982.8000488281</ele>
        <time>2019-02-17T09:42:49.000Z</time>
      </trkpt>
      <trkpt lat="44.29669" lon="6.81831">
        <ele>1984</ele>
        <time>2019-02-17T09:42:57.000Z</time>
      </trkpt>
      <trkpt lat="44.29671" lon="6.81831">
        <ele>1984.1999511719</ele>
        <time>2019-02-17T09:42:59.000Z</time>
      </trkpt>
      <trkpt lat="44.29672" lon="6.81832">
        <ele>1984.4000244141</ele>
        <time>2019-02-17T09:43:01.000Z</time>
      </trkpt>
      <trkpt lat="44.29674" lon="6.81834">
        <ele>1985</ele>
        <time>2019-02-17T09:43:06.000Z</time>
      </trkpt>
      <trkpt lat="44.29677" lon="6.81834">
        <ele>1985.5999755859</ele>
        <time>2019-02-17T09:43:09.000Z</time>
      </trkpt>
      <trkpt lat="44.29677" lon="6.8183">
        <ele>1985.8000488281</ele>
        <time>2019-02-17T09:43:14.000Z</time>
      </trkpt>
      <trkpt lat="44.29677" lon="6.81829">
        <ele>1986</ele>
        <time>2019-02-17T09:43:15.000Z</time>
      </trkpt>
      <trkpt lat="44.29677" lon="6.81825">
        <ele>1986.5999755859</ele>
        <time>2019-02-17T09:43:19.000Z</time>
      </trkpt>
      <trkpt lat="44.29682" lon="6.81823">
        <ele>1987</ele>
        <time>2019-02-17T09:43:23.000Z</time>
      </trkpt>
      <trkpt lat="44.29683" lon="6.81822">
        <ele>1987.1999511719</ele>
        <time>2019-02-17T09:43:25.000Z</time>
      </trkpt>
      <trkpt lat="44.29689" lon="6.81813">
        <ele>1987.8000488281</ele>
        <time>2019-02-17T09:43:34.000Z</time>
      </trkpt>
      <trkpt lat="44.29689" lon="6.81811">
        <ele>1988</ele>
        <time>2019-02-17T09:43:36.000Z</time>
      </trkpt>
      <trkpt lat="44.29693" lon="6.81809">
        <ele>1988.1999511719</ele>
        <time>2019-02-17T09:43:41.000Z</time>
      </trkpt>
      <trkpt lat="44.29696" lon="6.81804">
        <ele>1989.4000244141</ele>
        <time>2019-02-17T09:43:46.000Z</time>
      </trkpt>
      <trkpt lat="44.29697" lon="6.81802">
        <ele>1989.5999755859</ele>
        <time>2019-02-17T09:43:48.000Z</time>
      </trkpt>
      <trkpt lat="44.297" lon="6.81797">
        <ele>1989.8000488281</ele>
        <time>2019-02-17T09:43:51.000Z</time>
      </trkpt>
      <trkpt lat="44.29703" lon="6.81792">
        <ele>1990</ele>
        <time>2019-02-17T09:43:54.000Z</time>
      </trkpt>
      <trkpt lat="44.29703" lon="6.81789">
        <ele>1990.4000244141</ele>
        <time>2019-02-17T09:43:58.000Z</time>
      </trkpt>
      <trkpt lat="44.29702" lon="6.81784">
        <ele>1990.8000488281</ele>
        <time>2019-02-17T09:44:02.000Z</time>
      </trkpt>
      <trkpt lat="44.29702" lon="6.81775">
        <ele>1991.5999755859</ele>
        <time>2019-02-17T09:44:10.000Z</time>
      </trkpt>
      <trkpt lat="44.29702" lon="6.8177">
        <ele>1992.1999511719</ele>
        <time>2019-02-17T09:44:15.000Z</time>
      </trkpt>
      <trkpt lat="44.29701" lon="6.81763">
        <ele>1992.5999755859</ele>
        <time>2019-02-17T09:44:21.000Z</time>
      </trkpt>
      <trkpt lat="44.29701" lon="6.81763">
        <ele>1992.8000488281</ele>
        <time>2019-02-17T09:44:22.000Z</time>
      </trkpt>
      <trkpt lat="44.29704" lon="6.81756">
        <ele>1993.1999511719</ele>
        <time>2019-02-17T09:44:27.000Z</time>
      </trkpt>
      <trkpt lat="44.29706" lon="6.81752">
        <ele>1993.8000488281</ele>
        <time>2019-02-17T09:44:30.000Z</time>
      </trkpt>
      <trkpt lat="44.29707" lon="6.8175">
        <ele>1993.8000488281</ele>
        <time>2019-02-17T09:44:32.000Z</time>
      </trkpt>
      <trkpt lat="44.29708" lon="6.81749">
        <ele>1994.1999511719</ele>
        <time>2019-02-17T09:44:34.000Z</time>
      </trkpt>
      <trkpt lat="44.29709" lon="6.81745">
        <ele>1994.4000244141</ele>
        <time>2019-02-17T09:44:38.000Z</time>
      </trkpt>
      <trkpt lat="44.29708" lon="6.8174">
        <ele>1994.5999755859</ele>
        <time>2019-02-17T09:44:41.000Z</time>
      </trkpt>
      <trkpt lat="44.29707" lon="6.81737">
        <ele>1994.5999755859</ele>
        <time>2019-02-17T09:44:43.000Z</time>
      </trkpt>
      <trkpt lat="44.29706" lon="6.81736">
        <ele>1994.8000488281</ele>
        <time>2019-02-17T09:44:44.000Z</time>
      </trkpt>
      <trkpt lat="44.29705" lon="6.81735">
        <ele>1994.8000488281</ele>
        <time>2019-02-17T09:44:45.000Z</time>
      </trkpt>
      <trkpt lat="44.29705" lon="6.81736">
        <ele>1995</ele>
        <time>2019-02-17T09:44:47.000Z</time>
      </trkpt>
      <trkpt lat="44.29706" lon="6.81737">
        <ele>1995</ele>
        <time>2019-02-17T09:44:49.000Z</time>
      </trkpt>
      <trkpt lat="44.29703" lon="6.81726">
        <ele>1995.8000488281</ele>
        <time>2019-02-17T09:45:03.000Z</time>
      </trkpt>
      <trkpt lat="44.29694" lon="6.81719">
        <ele>1996.8000488281</ele>
        <time>2019-02-17T09:45:16.000Z</time>
      </trkpt>
      <trkpt lat="44.29692" lon="6.81716">
        <ele>1997</ele>
        <time>2019-02-17T09:45:18.000Z</time>
      </trkpt>
      <trkpt lat="44.29689" lon="6.81713">
        <ele>1997.4000244141</ele>
        <time>2019-02-17T09:45:23.000Z</time>
      </trkpt>
      <trkpt lat="44.29688" lon="6.81709">
        <ele>1997.8000488281</ele>
        <time>2019-02-17T09:45:27.000Z</time>
      </trkpt>
      <trkpt lat="44.29686" lon="6.81703">
        <ele>1998</ele>
        <time>2019-02-17T09:45:30.000Z</time>
      </trkpt>
      <trkpt lat="44.29685" lon="6.81701">
        <ele>1998.1999511719</ele>
        <time>2019-02-17T09:45:32.000Z</time>
      </trkpt>
      <trkpt lat="44.29684" lon="6.81691">
        <ele>1999</ele>
        <time>2019-02-17T09:45:38.000Z</time>
      </trkpt>
      <trkpt lat="44.29684" lon="6.81686">
        <ele>1999.1999511719</ele>
        <time>2019-02-17T09:45:41.000Z</time>
      </trkpt>
      <trkpt lat="44.29686" lon="6.81681">
        <ele>1999.5999755859</ele>
        <time>2019-02-17T09:45:45.000Z</time>
      </trkpt>
      <trkpt lat="44.29689" lon="6.81677">
        <ele>2000</ele>
        <time>2019-02-17T09:45:49.000Z</time>
      </trkpt>
      <trkpt lat="44.2969" lon="6.81676">
        <ele>2000.1999511719</ele>
        <time>2019-02-17T09:45:50.000Z</time>
      </trkpt>
      <trkpt lat="44.29698" lon="6.81673">
        <ele>2001</ele>
        <time>2019-02-17T09:45:57.000Z</time>
      </trkpt>
      <trkpt lat="44.29707" lon="6.81672">
        <ele>2002</ele>
        <time>2019-02-17T09:46:04.000Z</time>
      </trkpt>
      <trkpt lat="44.29712" lon="6.81671">
        <ele>2002.5999755859</ele>
        <time>2019-02-17T09:46:11.000Z</time>
      </trkpt>
      <trkpt lat="44.29714" lon="6.8167">
        <ele>2003.1999511719</ele>
        <time>2019-02-17T09:46:13.000Z</time>
      </trkpt>
      <trkpt lat="44.29719" lon="6.81671">
        <ele>2003.5999755859</ele>
        <time>2019-02-17T09:46:17.000Z</time>
      </trkpt>
      <trkpt lat="44.29727" lon="6.81671">
        <ele>2004.1999511719</ele>
        <time>2019-02-17T09:46:25.000Z</time>
      </trkpt>
      <trkpt lat="44.29733" lon="6.81673">
        <ele>2004.8000488281</ele>
        <time>2019-02-17T09:46:29.000Z</time>
      </trkpt>
      <trkpt lat="44.29737" lon="6.81674">
        <ele>2005</ele>
        <time>2019-02-17T09:46:32.000Z</time>
      </trkpt>
      <trkpt lat="44.2974" lon="6.81676">
        <ele>2005.1999511719</ele>
        <time>2019-02-17T09:46:35.000Z</time>
      </trkpt>
      <trkpt lat="44.29744" lon="6.81678">
        <ele>2005.5999755859</ele>
        <time>2019-02-17T09:46:37.000Z</time>
      </trkpt>
      <trkpt lat="44.29752" lon="6.81683">
        <ele>2006</ele>
        <time>2019-02-17T09:46:44.000Z</time>
      </trkpt>
      <trkpt lat="44.29754" lon="6.81684">
        <ele>2006.1999511719</ele>
        <time>2019-02-17T09:46:45.000Z</time>
      </trkpt>
      <trkpt lat="44.29755" lon="6.81685">
        <ele>2006.4000244141</ele>
        <time>2019-02-17T09:46:47.000Z</time>
      </trkpt>
      <trkpt lat="44.29756" lon="6.81686">
        <ele>2006.5999755859</ele>
        <time>2019-02-17T09:46:49.000Z</time>
      </trkpt>
      <trkpt lat="44.29756" lon="6.81698">
        <ele>2007.1999511719</ele>
        <time>2019-02-17T09:46:56.000Z</time>
      </trkpt>
      <trkpt lat="44.29756" lon="6.817">
        <ele>2007.4000244141</ele>
        <time>2019-02-17T09:46:57.000Z</time>
      </trkpt>
      <trkpt lat="44.29756" lon="6.81701">
        <ele>2007.5999755859</ele>
        <time>2019-02-17T09:46:58.000Z</time>
      </trkpt>
      <trkpt lat="44.29757" lon="6.81709">
        <ele>2008.1999511719</ele>
        <time>2019-02-17T09:47:03.000Z</time>
      </trkpt>
      <trkpt lat="44.29758" lon="6.8171">
        <ele>2008.4000244141</ele>
        <time>2019-02-17T09:47:05.000Z</time>
      </trkpt>
      <trkpt lat="44.2976" lon="6.81714">
        <ele>2009.1999511719</ele>
        <time>2019-02-17T09:47:12.000Z</time>
      </trkpt>
      <trkpt lat="44.2976" lon="6.81714">
        <ele>2009.4000244141</ele>
        <time>2019-02-17T09:47:14.000Z</time>
      </trkpt>
      <trkpt lat="44.29759" lon="6.81713">
        <ele>2009.8000488281</ele>
        <time>2019-02-17T09:47:18.000Z</time>
      </trkpt>
      <trkpt lat="44.29762" lon="6.81704">
        <ele>2010.4000244141</ele>
        <time>2019-02-17T09:47:23.000Z</time>
      </trkpt>
      <trkpt lat="44.29763" lon="6.81701">
        <ele>2010.5999755859</ele>
        <time>2019-02-17T09:47:25.000Z</time>
      </trkpt>
      <trkpt lat="44.29766" lon="6.8169">
        <ele>2011.5999755859</ele>
        <time>2019-02-17T09:47:36.000Z</time>
      </trkpt>
      <trkpt lat="44.29769" lon="6.81685">
        <ele>2012.4000244141</ele>
        <time>2019-02-17T09:47:40.000Z</time>
      </trkpt>
      <trkpt lat="44.2977" lon="6.81684">
        <ele>2012.5999755859</ele>
        <time>2019-02-17T09:47:42.000Z</time>
      </trkpt>
      <trkpt lat="44.29761" lon="6.81676">
        <ele>2013.8000488281</ele>
        <time>2019-02-17T09:48:11.000Z</time>
      </trkpt>
      <trkpt lat="44.2976" lon="6.81672">
        <ele>2014</ele>
        <time>2019-02-17T09:48:14.000Z</time>
      </trkpt>
      <trkpt lat="44.29762" lon="6.81658">
        <ele>2014.8000488281</ele>
        <time>2019-02-17T09:48:25.000Z</time>
      </trkpt>
      <trkpt lat="44.29762" lon="6.81657">
        <ele>2014.8000488281</ele>
        <time>2019-02-17T09:48:26.000Z</time>
      </trkpt>
      <trkpt lat="44.2976" lon="6.81656">
        <ele>2015</ele>
        <time>2019-02-17T09:48:28.000Z</time>
      </trkpt>
      <trkpt lat="44.29761" lon="6.81653">
        <ele>2015.5999755859</ele>
        <time>2019-02-17T09:48:34.000Z</time>
      </trkpt>
      <trkpt lat="44.2976" lon="6.81652">
        <ele>2015.8000488281</ele>
        <time>2019-02-17T09:48:36.000Z</time>
      </trkpt>
      <trkpt lat="44.29756" lon="6.81645">
        <ele>2017</ele>
        <time>2019-02-17T09:48:45.000Z</time>
      </trkpt>
      <trkpt lat="44.29748" lon="6.81639">
        <ele>2018</ele>
        <time>2019-02-17T09:48:57.000Z</time>
      </trkpt>
      <trkpt lat="44.29745" lon="6.8163">
        <ele>2019.1999511719</ele>
        <time>2019-02-17T09:49:06.000Z</time>
      </trkpt>
      <trkpt lat="44.29742" lon="6.81624">
        <ele>2020.1999511719</ele>
        <time>2019-02-17T09:49:13.000Z</time>
      </trkpt>
      <trkpt lat="44.29739" lon="6.81613">
        <ele>2021.1999511719</ele>
        <time>2019-02-17T09:49:22.000Z</time>
      </trkpt>
      <trkpt lat="44.29735" lon="6.81609">
        <ele>2022.4000244141</ele>
        <time>2019-02-17T09:49:32.000Z</time>
      </trkpt>
      <trkpt lat="44.29728" lon="6.81602">
        <ele>2023.1999511719</ele>
        <time>2019-02-17T09:49:41.000Z</time>
      </trkpt>
      <trkpt lat="44.29728" lon="6.81601">
        <ele>2023.4000244141</ele>
        <time>2019-02-17T09:49:42.000Z</time>
      </trkpt>
      <trkpt lat="44.29727" lon="6.81595">
        <ele>2023.8000488281</ele>
        <time>2019-02-17T09:49:47.000Z</time>
      </trkpt>
      <trkpt lat="44.29722" lon="6.81587">
        <ele>2024.4000244141</ele>
        <time>2019-02-17T09:49:54.000Z</time>
      </trkpt>
      <trkpt lat="44.2972" lon="6.81584">
        <ele>2024.8000488281</ele>
        <time>2019-02-17T09:49:56.000Z</time>
      </trkpt>
      <trkpt lat="44.29716" lon="6.81579">
        <ele>2025.1999511719</ele>
        <time>2019-02-17T09:50:01.000Z</time>
      </trkpt>
      <trkpt lat="44.29715" lon="6.81576">
        <ele>2025.4000244141</ele>
        <time>2019-02-17T09:50:04.000Z</time>
      </trkpt>
      <trkpt lat="44.29712" lon="6.81571">
        <ele>2025.8000488281</ele>
        <time>2019-02-17T09:50:09.000Z</time>
      </trkpt>
      <trkpt lat="44.29711" lon="6.8157">
        <ele>2026.1999511719</ele>
        <time>2019-02-17T09:50:11.000Z</time>
      </trkpt>
      <trkpt lat="44.2971" lon="6.81567">
        <ele>2026.4000244141</ele>
        <time>2019-02-17T09:50:15.000Z</time>
      </trkpt>
      <trkpt lat="44.2971" lon="6.81565">
        <ele>2026.4000244141</ele>
        <time>2019-02-17T09:50:16.000Z</time>
      </trkpt>
      <trkpt lat="44.29709" lon="6.81564">
        <ele>2026.5999755859</ele>
        <time>2019-02-17T09:50:17.000Z</time>
      </trkpt>
      <trkpt lat="44.29706" lon="6.81562">
        <ele>2027</ele>
        <time>2019-02-17T09:50:21.000Z</time>
      </trkpt>
      <trkpt lat="44.29704" lon="6.8156">
        <ele>2027.1999511719</ele>
        <time>2019-02-17T09:50:23.000Z</time>
      </trkpt>
      <trkpt lat="44.29703" lon="6.81559">
        <ele>2027.5999755859</ele>
        <time>2019-02-17T09:50:25.000Z</time>
      </trkpt>
      <trkpt lat="44.297" lon="6.81554">
        <ele>2028</ele>
        <time>2019-02-17T09:50:29.000Z</time>
      </trkpt>
      <trkpt lat="44.29698" lon="6.81547">
        <ele>2028.5999755859</ele>
        <time>2019-02-17T09:50:34.000Z</time>
      </trkpt>
      <trkpt lat="44.29697" lon="6.81546">
        <ele>2028.5999755859</ele>
        <time>2019-02-17T09:50:35.000Z</time>
      </trkpt>
      <trkpt lat="44.29698" lon="6.81539">
        <ele>2029</ele>
        <time>2019-02-17T09:50:39.000Z</time>
      </trkpt>
      <trkpt lat="44.297" lon="6.81532">
        <ele>2029.1999511719</ele>
        <time>2019-02-17T09:50:43.000Z</time>
      </trkpt>
      <trkpt lat="44.29699" lon="6.81527">
        <ele>2029.5999755859</ele>
        <time>2019-02-17T09:50:45.000Z</time>
      </trkpt>
      <trkpt lat="44.29699" lon="6.81522">
        <ele>2030</ele>
        <time>2019-02-17T09:50:48.000Z</time>
      </trkpt>
      <trkpt lat="44.29706" lon="6.81521">
        <ele>2030.8000488281</ele>
        <time>2019-02-17T09:50:53.000Z</time>
      </trkpt>
      <trkpt lat="44.2971" lon="6.81522">
        <ele>2031</ele>
        <time>2019-02-17T09:50:55.000Z</time>
      </trkpt>
      <trkpt lat="44.29717" lon="6.81526">
        <ele>2031.1999511719</ele>
        <time>2019-02-17T09:50:57.000Z</time>
      </trkpt>
      <trkpt lat="44.29725" lon="6.81526">
        <ele>2031.8000488281</ele>
        <time>2019-02-17T09:51:06.000Z</time>
      </trkpt>
      <trkpt lat="44.29733" lon="6.81524">
        <ele>2032.8000488281</ele>
        <time>2019-02-17T09:51:18.000Z</time>
      </trkpt>
      <trkpt lat="44.29739" lon="6.81525">
        <ele>2033.4000244141</ele>
        <time>2019-02-17T09:51:26.000Z</time>
      </trkpt>
      <trkpt lat="44.29742" lon="6.81527">
        <ele>2033.5999755859</ele>
        <time>2019-02-17T09:51:28.000Z</time>
      </trkpt>
      <trkpt lat="44.29747" lon="6.81529">
        <ele>2033.8000488281</ele>
        <time>2019-02-17T09:51:31.000Z</time>
      </trkpt>
      <trkpt lat="44.29759" lon="6.81536">
        <ele>2034.4000244141</ele>
        <time>2019-02-17T09:51:39.000Z</time>
      </trkpt>
      <trkpt lat="44.29762" lon="6.81538">
        <ele>2034.5999755859</ele>
        <time>2019-02-17T09:51:42.000Z</time>
      </trkpt>
      <trkpt lat="44.29764" lon="6.8154">
        <ele>2034.8000488281</ele>
        <time>2019-02-17T09:51:44.000Z</time>
      </trkpt>
      <trkpt lat="44.29765" lon="6.81541">
        <ele>2035</ele>
        <time>2019-02-17T09:51:45.000Z</time>
      </trkpt>
      <trkpt lat="44.29768" lon="6.81543">
        <ele>2035.1999511719</ele>
        <time>2019-02-17T09:51:48.000Z</time>
      </trkpt>
      <trkpt lat="44.2977" lon="6.81548">
        <ele>2035.5999755859</ele>
        <time>2019-02-17T09:51:52.000Z</time>
      </trkpt>
      <trkpt lat="44.29772" lon="6.81552">
        <ele>2035.8000488281</ele>
        <time>2019-02-17T09:51:56.000Z</time>
      </trkpt>
      <trkpt lat="44.29772" lon="6.81553">
        <ele>2036</ele>
        <time>2019-02-17T09:51:58.000Z</time>
      </trkpt>
      <trkpt lat="44.29774" lon="6.81557">
        <ele>2036.1999511719</ele>
        <time>2019-02-17T09:52:01.000Z</time>
      </trkpt>
      <trkpt lat="44.29776" lon="6.81559">
        <ele>2036.4000244141</ele>
        <time>2019-02-17T09:52:03.000Z</time>
      </trkpt>
      <trkpt lat="44.29779" lon="6.81563">
        <ele>2036.8000488281</ele>
        <time>2019-02-17T09:52:08.000Z</time>
      </trkpt>
      <trkpt lat="44.29781" lon="6.81566">
        <ele>2037</ele>
        <time>2019-02-17T09:52:11.000Z</time>
      </trkpt>
      <trkpt lat="44.29782" lon="6.81571">
        <ele>2037.4000244141</ele>
        <time>2019-02-17T09:52:15.000Z</time>
      </trkpt>
      <trkpt lat="44.29782" lon="6.81576">
        <ele>2037.8000488281</ele>
        <time>2019-02-17T09:52:18.000Z</time>
      </trkpt>
      <trkpt lat="44.29782" lon="6.81577">
        <ele>2038.1999511719</ele>
        <time>2019-02-17T09:52:20.000Z</time>
      </trkpt>
      <trkpt lat="44.29784" lon="6.8158">
        <ele>2038.4000244141</ele>
        <time>2019-02-17T09:52:24.000Z</time>
      </trkpt>
      <trkpt lat="44.29786" lon="6.81582">
        <ele>2038.8000488281</ele>
        <time>2019-02-17T09:52:27.000Z</time>
      </trkpt>
      <trkpt lat="44.2979" lon="6.81584">
        <ele>2039.1999511719</ele>
        <time>2019-02-17T09:52:31.000Z</time>
      </trkpt>
      <trkpt lat="44.29793" lon="6.81586">
        <ele>2039.4000244141</ele>
        <time>2019-02-17T09:52:35.000Z</time>
      </trkpt>
      <trkpt lat="44.29797" lon="6.81588">
        <ele>2040.4000244141</ele>
        <time>2019-02-17T09:52:42.000Z</time>
      </trkpt>
      <trkpt lat="44.29798" lon="6.8159">
        <ele>2040.8000488281</ele>
        <time>2019-02-17T09:52:44.000Z</time>
      </trkpt>
      <trkpt lat="44.29805" lon="6.81592">
        <ele>2041.4000244141</ele>
        <time>2019-02-17T09:52:57.000Z</time>
      </trkpt>
      <trkpt lat="44.29815" lon="6.81597">
        <ele>2042.4000244141</ele>
        <time>2019-02-17T09:53:14.000Z</time>
      </trkpt>
      <trkpt lat="44.29818" lon="6.81597">
        <ele>2042.8000488281</ele>
        <time>2019-02-17T09:53:17.000Z</time>
      </trkpt>
      <trkpt lat="44.29822" lon="6.81598">
        <ele>2043.5999755859</ele>
        <time>2019-02-17T09:53:23.000Z</time>
      </trkpt>
      <trkpt lat="44.29822" lon="6.81599">
        <ele>2043.8000488281</ele>
        <time>2019-02-17T09:53:24.000Z</time>
      </trkpt>
      <trkpt lat="44.29826" lon="6.816">
        <ele>2044</ele>
        <time>2019-02-17T09:53:29.000Z</time>
      </trkpt>
      <trkpt lat="44.29827" lon="6.816">
        <ele>2044.1999511719</ele>
        <time>2019-02-17T09:53:31.000Z</time>
      </trkpt>
      <trkpt lat="44.29829" lon="6.81601">
        <ele>2044.5999755859</ele>
        <time>2019-02-17T09:53:34.000Z</time>
      </trkpt>
      <trkpt lat="44.2984" lon="6.81605">
        <ele>2045.5999755859</ele>
        <time>2019-02-17T09:53:47.000Z</time>
      </trkpt>
      <trkpt lat="44.29843" lon="6.81605">
        <ele>2045.8000488281</ele>
        <time>2019-02-17T09:53:49.000Z</time>
      </trkpt>
      <trkpt lat="44.29847" lon="6.81604">
        <ele>2046</ele>
        <time>2019-02-17T09:53:53.000Z</time>
      </trkpt>
      <trkpt lat="44.29849" lon="6.81605">
        <ele>2046.4000244141</ele>
        <time>2019-02-17T09:53:55.000Z</time>
      </trkpt>
      <trkpt lat="44.29851" lon="6.81605">
        <ele>2046.8000488281</ele>
        <time>2019-02-17T09:53:59.000Z</time>
      </trkpt>
      <trkpt lat="44.29859" lon="6.81602">
        <ele>2047.8000488281</ele>
        <time>2019-02-17T09:54:07.000Z</time>
      </trkpt>
      <trkpt lat="44.29863" lon="6.816">
        <ele>2048.1999511719</ele>
        <time>2019-02-17T09:54:10.000Z</time>
      </trkpt>
      <trkpt lat="44.29871" lon="6.81599">
        <ele>2049</ele>
        <time>2019-02-17T09:54:16.000Z</time>
      </trkpt>
      <trkpt lat="44.29875" lon="6.81595">
        <ele>2049.1999511719</ele>
        <time>2019-02-17T09:54:19.000Z</time>
      </trkpt>
      <trkpt lat="44.29877" lon="6.81594">
        <ele>2049.6000976562</ele>
        <time>2019-02-17T09:54:22.000Z</time>
      </trkpt>
      <trkpt lat="44.29877" lon="6.81594">
        <ele>2050.1999511719</ele>
        <time>2019-02-17T09:54:25.000Z</time>
      </trkpt>
      <trkpt lat="44.29885" lon="6.81596">
        <ele>2051.1999511719</ele>
        <time>2019-02-17T09:55:14.000Z</time>
      </trkpt>
      <trkpt lat="44.29889" lon="6.81592">
        <ele>2052.3999023438</ele>
        <time>2019-02-17T09:55:22.000Z</time>
      </trkpt>
      <trkpt lat="44.29896" lon="6.8159">
        <ele>2053.3999023438</ele>
        <time>2019-02-17T09:55:30.000Z</time>
      </trkpt>
      <trkpt lat="44.29899" lon="6.8159">
        <ele>2053.8000488281</ele>
        <time>2019-02-17T09:55:33.000Z</time>
      </trkpt>
      <trkpt lat="44.29904" lon="6.81591">
        <ele>2054.3999023438</ele>
        <time>2019-02-17T09:55:38.000Z</time>
      </trkpt>
      <trkpt lat="44.29904" lon="6.81591">
        <ele>2054.6000976562</ele>
        <time>2019-02-17T09:55:39.000Z</time>
      </trkpt>
      <trkpt lat="44.29909" lon="6.81593">
        <ele>2055</ele>
        <time>2019-02-17T09:55:44.000Z</time>
      </trkpt>
      <trkpt lat="44.29912" lon="6.81595">
        <ele>2055.3999023438</ele>
        <time>2019-02-17T09:55:48.000Z</time>
      </trkpt>
      <trkpt lat="44.29915" lon="6.81596">
        <ele>2055.6000976562</ele>
        <time>2019-02-17T09:55:50.000Z</time>
      </trkpt>
      <trkpt lat="44.2992" lon="6.81598">
        <ele>2056.1999511719</ele>
        <time>2019-02-17T09:55:55.000Z</time>
      </trkpt>
      <trkpt lat="44.29921" lon="6.81599">
        <ele>2056.3999023438</ele>
        <time>2019-02-17T09:55:57.000Z</time>
      </trkpt>
      <trkpt lat="44.29922" lon="6.816">
        <ele>2056.6000976562</ele>
        <time>2019-02-17T09:55:58.000Z</time>
      </trkpt>
      <trkpt lat="44.29924" lon="6.81601">
        <ele>2056.8000488281</ele>
        <time>2019-02-17T09:56:00.000Z</time>
      </trkpt>
      <trkpt lat="44.29926" lon="6.81606">
        <ele>2057.3999023438</ele>
        <time>2019-02-17T09:56:03.000Z</time>
      </trkpt>
      <trkpt lat="44.29927" lon="6.81608">
        <ele>2057.6000976562</ele>
        <time>2019-02-17T09:56:06.000Z</time>
      </trkpt>
      <trkpt lat="44.29928" lon="6.81608">
        <ele>2057.6000976562</ele>
        <time>2019-02-17T09:56:07.000Z</time>
      </trkpt>
      <trkpt lat="44.29929" lon="6.81608">
        <ele>2057.6000976562</ele>
        <time>2019-02-17T09:56:09.000Z</time>
      </trkpt>
      <trkpt lat="44.2993" lon="6.81611">
        <ele>2057.8000488281</ele>
        <time>2019-02-17T09:58:15.000Z</time>
      </trkpt>
      <trkpt lat="44.29936" lon="6.81607">
        <ele>2057.8000488281</ele>
        <time>2019-02-17T10:00:18.000Z</time>
      </trkpt>
      <trkpt lat="44.29941" lon="6.81612">
        <ele>2058.6000976562</ele>
        <time>2019-02-17T10:01:17.000Z</time>
      </trkpt>
      <trkpt lat="44.29944" lon="6.81614">
        <ele>2058.8000488281</ele>
        <time>2019-02-17T10:01:22.000Z</time>
      </trkpt>
      <trkpt lat="44.29945" lon="6.81616">
        <ele>2058.8000488281</ele>
        <time>2019-02-17T10:01:24.000Z</time>
      </trkpt>
      <trkpt lat="44.29952" lon="6.81622">
        <ele>2059.6000976562</ele>
        <time>2019-02-17T10:01:34.000Z</time>
      </trkpt>
      <trkpt lat="44.29955" lon="6.81623">
        <ele>2059.8000488281</ele>
        <time>2019-02-17T10:01:38.000Z</time>
      </trkpt>
      <trkpt lat="44.29957" lon="6.81625">
        <ele>2060.3999023438</ele>
        <time>2019-02-17T10:01:43.000Z</time>
      </trkpt>
      <trkpt lat="44.2996" lon="6.81625">
        <ele>2060.6000976562</ele>
        <time>2019-02-17T10:01:47.000Z</time>
      </trkpt>
      <trkpt lat="44.29972" lon="6.81629">
        <ele>2061.6000976562</ele>
        <time>2019-02-17T10:02:09.000Z</time>
      </trkpt>
      <trkpt lat="44.29973" lon="6.81629">
        <ele>2061.8000488281</ele>
        <time>2019-02-17T10:02:11.000Z</time>
      </trkpt>
      <trkpt lat="44.29979" lon="6.81629">
        <ele>2062.3999023438</ele>
        <time>2019-02-17T10:02:19.000Z</time>
      </trkpt>
      <trkpt lat="44.29984" lon="6.8163">
        <ele>2062.8000488281</ele>
        <time>2019-02-17T10:02:25.000Z</time>
      </trkpt>
      <trkpt lat="44.29985" lon="6.81631">
        <ele>2063</ele>
        <time>2019-02-17T10:02:27.000Z</time>
      </trkpt>
      <trkpt lat="44.30003" lon="6.8163">
        <ele>2063.3999023438</ele>
        <time>2019-02-17T10:02:49.000Z</time>
      </trkpt>
      <trkpt lat="44.30008" lon="6.8163">
        <ele>2063.1999511719</ele>
        <time>2019-02-17T10:02:56.000Z</time>
      </trkpt>
      <trkpt lat="44.30018" lon="6.81629">
        <ele>2063</ele>
        <time>2019-02-17T10:03:05.000Z</time>
      </trkpt>
      <trkpt lat="44.3002" lon="6.81629">
        <ele>2062.8000488281</ele>
        <time>2019-02-17T10:03:07.000Z</time>
      </trkpt>
      <trkpt lat="44.30022" lon="6.81628">
        <ele>2062.6000976562</ele>
        <time>2019-02-17T10:03:10.000Z</time>
      </trkpt>
      <trkpt lat="44.30028" lon="6.81629">
        <ele>2062.3999023438</ele>
        <time>2019-02-17T10:03:14.000Z</time>
      </trkpt>
      <trkpt lat="44.30035" lon="6.81632">
        <ele>2062.1999511719</ele>
        <time>2019-02-17T10:03:21.000Z</time>
      </trkpt>
      <trkpt lat="44.30036" lon="6.81632">
        <ele>2062.1999511719</ele>
        <time>2019-02-17T10:03:23.000Z</time>
      </trkpt>
      <trkpt lat="44.30044" lon="6.8163">
        <ele>2062.1999511719</ele>
        <time>2019-02-17T10:03:46.000Z</time>
      </trkpt>
      <trkpt lat="44.30048" lon="6.81632">
        <ele>2062.1999511719</ele>
        <time>2019-02-17T10:03:49.000Z</time>
      </trkpt>
      <trkpt lat="44.30051" lon="6.81632">
        <ele>2062</ele>
        <time>2019-02-17T10:03:51.000Z</time>
      </trkpt>
      <trkpt lat="44.30055" lon="6.81633">
        <ele>2062.1999511719</ele>
        <time>2019-02-17T10:03:56.000Z</time>
      </trkpt>
      <trkpt lat="44.30056" lon="6.81633">
        <ele>2062.3999023438</ele>
        <time>2019-02-17T10:03:58.000Z</time>
      </trkpt>
      <trkpt lat="44.30067" lon="6.81625">
        <ele>2062</ele>
        <time>2019-02-17T10:04:11.000Z</time>
      </trkpt>
      <trkpt lat="44.30072" lon="6.8162">
        <ele>2061.6000976562</ele>
        <time>2019-02-17T10:04:16.000Z</time>
      </trkpt>
      <trkpt lat="44.30078" lon="6.81617">
        <ele>2061.6000976562</ele>
        <time>2019-02-17T10:04:20.000Z</time>
      </trkpt>
      <trkpt lat="44.30087" lon="6.81614">
        <ele>2060.6000976562</ele>
        <time>2019-02-17T10:04:27.000Z</time>
      </trkpt>
      <trkpt lat="44.30095" lon="6.81607">
        <ele>2060.1999511719</ele>
        <time>2019-02-17T10:04:33.000Z</time>
      </trkpt>
      <trkpt lat="44.30101" lon="6.81604">
        <ele>2059.6000976562</ele>
        <time>2019-02-17T10:04:38.000Z</time>
      </trkpt>
      <trkpt lat="44.30122" lon="6.81597">
        <ele>2059.1999511719</ele>
        <time>2019-02-17T10:04:56.000Z</time>
      </trkpt>
      <trkpt lat="44.30132" lon="6.81589">
        <ele>2059.6000976562</ele>
        <time>2019-02-17T10:05:07.000Z</time>
      </trkpt>
      <trkpt lat="44.30133" lon="6.81588">
        <ele>2059.8000488281</ele>
        <time>2019-02-17T10:05:09.000Z</time>
      </trkpt>
      <trkpt lat="44.30136" lon="6.81587">
        <ele>2059.8000488281</ele>
        <time>2019-02-17T10:05:12.000Z</time>
      </trkpt>
      <trkpt lat="44.30142" lon="6.81587">
        <ele>2060.1999511719</ele>
        <time>2019-02-17T10:05:16.000Z</time>
      </trkpt>
      <trkpt lat="44.3015" lon="6.81583">
        <ele>2060.6000976562</ele>
        <time>2019-02-17T10:05:26.000Z</time>
      </trkpt>
      <trkpt lat="44.30157" lon="6.81578">
        <ele>2061.6000976562</ele>
        <time>2019-02-17T10:05:35.000Z</time>
      </trkpt>
      <trkpt lat="44.30157" lon="6.81577">
        <ele>2061.8000488281</ele>
        <time>2019-02-17T10:05:36.000Z</time>
      </trkpt>
      <trkpt lat="44.3016" lon="6.81575">
        <ele>2062.1999511719</ele>
        <time>2019-02-17T10:05:39.000Z</time>
      </trkpt>
      <trkpt lat="44.30163" lon="6.81572">
        <ele>2062.1999511719</ele>
        <time>2019-02-17T10:05:42.000Z</time>
      </trkpt>
      <trkpt lat="44.30164" lon="6.81568">
        <ele>2062.6000976562</ele>
        <time>2019-02-17T10:05:45.000Z</time>
      </trkpt>
      <trkpt lat="44.30168" lon="6.81565">
        <ele>2062.8000488281</ele>
        <time>2019-02-17T10:05:48.000Z</time>
      </trkpt>
      <trkpt lat="44.3017" lon="6.81563">
        <ele>2063</ele>
        <time>2019-02-17T10:05:50.000Z</time>
      </trkpt>
      <trkpt lat="44.30174" lon="6.81555">
        <ele>2063.6000976562</ele>
        <time>2019-02-17T10:05:57.000Z</time>
      </trkpt>
      <trkpt lat="44.30175" lon="6.81553">
        <ele>2064</ele>
        <time>2019-02-17T10:05:59.000Z</time>
      </trkpt>
      <trkpt lat="44.30178" lon="6.81551">
        <ele>2064</ele>
        <time>2019-02-17T10:06:02.000Z</time>
      </trkpt>
      <trkpt lat="44.30178" lon="6.81548">
        <ele>2064</ele>
        <time>2019-02-17T10:06:05.000Z</time>
      </trkpt>
      <trkpt lat="44.30178" lon="6.81545">
        <ele>2064.1999511719</ele>
        <time>2019-02-17T10:06:08.000Z</time>
      </trkpt>
      <trkpt lat="44.30179" lon="6.81542">
        <ele>2064.3999023438</ele>
        <time>2019-02-17T10:06:10.000Z</time>
      </trkpt>
      <trkpt lat="44.3018" lon="6.8154">
        <ele>2064.6000976562</ele>
        <time>2019-02-17T10:06:12.000Z</time>
      </trkpt>
      <trkpt lat="44.30181" lon="6.81538">
        <ele>2065</ele>
        <time>2019-02-17T10:06:15.000Z</time>
      </trkpt>
      <trkpt lat="44.30183" lon="6.81536">
        <ele>2065.1999511719</ele>
        <time>2019-02-17T10:06:18.000Z</time>
      </trkpt>
      <trkpt lat="44.3019" lon="6.8153">
        <ele>2065.6000976562</ele>
        <time>2019-02-17T10:06:28.000Z</time>
      </trkpt>
      <trkpt lat="44.30193" lon="6.81527">
        <ele>2066</ele>
        <time>2019-02-17T10:06:31.000Z</time>
      </trkpt>
      <trkpt lat="44.30204" lon="6.8152">
        <ele>2066.8000488281</ele>
        <time>2019-02-17T10:06:42.000Z</time>
      </trkpt>
      <trkpt lat="44.30205" lon="6.81523">
        <ele>2067</ele>
        <time>2019-02-17T10:06:45.000Z</time>
      </trkpt>
      <trkpt lat="44.30207" lon="6.81527">
        <ele>2067</ele>
        <time>2019-02-17T10:06:47.000Z</time>
      </trkpt>
      <trkpt lat="44.30213" lon="6.81525">
        <ele>2067</ele>
        <time>2019-02-17T10:06:51.000Z</time>
      </trkpt>
      <trkpt lat="44.30216" lon="6.81521">
        <ele>2067.6000976562</ele>
        <time>2019-02-17T10:06:56.000Z</time>
      </trkpt>
      <trkpt lat="44.30217" lon="6.81519">
        <ele>2067.6000976562</ele>
        <time>2019-02-17T10:06:58.000Z</time>
      </trkpt>
      <trkpt lat="44.30219" lon="6.81517">
        <ele>2068</ele>
        <time>2019-02-17T10:07:01.000Z</time>
      </trkpt>
      <trkpt lat="44.30221" lon="6.81515">
        <ele>2068.1999511719</ele>
        <time>2019-02-17T10:07:03.000Z</time>
      </trkpt>
      <trkpt lat="44.30221" lon="6.81514">
        <ele>2068.3999023438</ele>
        <time>2019-02-17T10:07:05.000Z</time>
      </trkpt>
      <trkpt lat="44.30224" lon="6.81511">
        <ele>2068.6000976562</ele>
        <time>2019-02-17T10:07:08.000Z</time>
      </trkpt>
      <trkpt lat="44.30227" lon="6.81508">
        <ele>2069</ele>
        <time>2019-02-17T10:07:12.000Z</time>
      </trkpt>
      <trkpt lat="44.30227" lon="6.81504">
        <ele>2069.1999511719</ele>
        <time>2019-02-17T10:07:15.000Z</time>
      </trkpt>
      <trkpt lat="44.30235" lon="6.81496">
        <ele>2070.3999023438</ele>
        <time>2019-02-17T10:07:25.000Z</time>
      </trkpt>
      <trkpt lat="44.30235" lon="6.81494">
        <ele>2070.6000976562</ele>
        <time>2019-02-17T10:07:28.000Z</time>
      </trkpt>
      <trkpt lat="44.30239" lon="6.81494">
        <ele>2071</ele>
        <time>2019-02-17T10:07:32.000Z</time>
      </trkpt>
      <trkpt lat="44.30242" lon="6.81493">
        <ele>2071.3999023438</ele>
        <time>2019-02-17T10:07:35.000Z</time>
      </trkpt>
      <trkpt lat="44.30244" lon="6.81493">
        <ele>2071.3999023438</ele>
        <time>2019-02-17T10:07:36.000Z</time>
      </trkpt>
      <trkpt lat="44.30245" lon="6.81492">
        <ele>2071.6000976562</ele>
        <time>2019-02-17T10:07:37.000Z</time>
      </trkpt>
      <trkpt lat="44.3025" lon="6.81491">
        <ele>2072.3999023438</ele>
        <time>2019-02-17T10:07:43.000Z</time>
      </trkpt>
      <trkpt lat="44.30251" lon="6.81491">
        <ele>2072.6000976562</ele>
        <time>2019-02-17T10:07:44.000Z</time>
      </trkpt>
      <trkpt lat="44.30256" lon="6.81485">
        <ele>2073.6000976562</ele>
        <time>2019-02-17T10:07:54.000Z</time>
      </trkpt>
      <trkpt lat="44.3026" lon="6.81481">
        <ele>2074.3999023438</ele>
        <time>2019-02-17T10:08:02.000Z</time>
      </trkpt>
      <trkpt lat="44.30263" lon="6.8148">
        <ele>2074.6000976562</ele>
        <time>2019-02-17T10:08:06.000Z</time>
      </trkpt>
      <trkpt lat="44.30272" lon="6.81476">
        <ele>2075.3999023438</ele>
        <time>2019-02-17T10:08:14.000Z</time>
      </trkpt>
      <trkpt lat="44.30273" lon="6.81476">
        <ele>2075.6000976562</ele>
        <time>2019-02-17T10:08:15.000Z</time>
      </trkpt>
      <trkpt lat="44.30273" lon="6.81475">
        <ele>2076</ele>
        <time>2019-02-17T10:08:16.000Z</time>
      </trkpt>
      <trkpt lat="44.3028" lon="6.81474">
        <ele>2076.6000976562</ele>
        <time>2019-02-17T10:08:24.000Z</time>
      </trkpt>
      <trkpt lat="44.30281" lon="6.81474">
        <ele>2076.8000488281</ele>
        <time>2019-02-17T10:08:25.000Z</time>
      </trkpt>
      <trkpt lat="44.30282" lon="6.81474">
        <ele>2077</ele>
        <time>2019-02-17T10:08:27.000Z</time>
      </trkpt>
      <trkpt lat="44.30289" lon="6.81471">
        <ele>2077.8000488281</ele>
        <time>2019-02-17T10:08:39.000Z</time>
      </trkpt>
      <trkpt lat="44.30294" lon="6.8147">
        <ele>2078.1999511719</ele>
        <time>2019-02-17T10:08:42.000Z</time>
      </trkpt>
      <trkpt lat="44.30293" lon="6.81466">
        <ele>2078.8000488281</ele>
        <time>2019-02-17T10:08:49.000Z</time>
      </trkpt>
      <trkpt lat="44.3028" lon="6.81457">
        <ele>2079.1999511719</ele>
        <time>2019-02-17T10:09:04.000Z</time>
      </trkpt>
      <trkpt lat="44.30279" lon="6.81455">
        <ele>2079.3999023438</ele>
        <time>2019-02-17T10:09:09.000Z</time>
      </trkpt>
      <trkpt lat="44.30275" lon="6.81453">
        <ele>2080</ele>
        <time>2019-02-17T10:09:15.000Z</time>
      </trkpt>
      <trkpt lat="44.3027" lon="6.81449">
        <ele>2080.6000976562</ele>
        <time>2019-02-17T10:09:23.000Z</time>
      </trkpt>
      <trkpt lat="44.30268" lon="6.81447">
        <ele>2081</ele>
        <time>2019-02-17T10:09:27.000Z</time>
      </trkpt>
      <trkpt lat="44.30264" lon="6.81441">
        <ele>2081.6000976562</ele>
        <time>2019-02-17T10:09:34.000Z</time>
      </trkpt>
      <trkpt lat="44.30263" lon="6.81438">
        <ele>2082</ele>
        <time>2019-02-17T10:09:37.000Z</time>
      </trkpt>
      <trkpt lat="44.30266" lon="6.8143">
        <ele>2083</ele>
        <time>2019-02-17T10:09:48.000Z</time>
      </trkpt>
      <trkpt lat="44.30274" lon="6.81436">
        <ele>2084</ele>
        <time>2019-02-17T10:10:08.000Z</time>
      </trkpt>
      <trkpt lat="44.30275" lon="6.81437">
        <ele>2084.1999511719</ele>
        <time>2019-02-17T10:10:10.000Z</time>
      </trkpt>
      <trkpt lat="44.30279" lon="6.8144">
        <ele>2084.3999023438</ele>
        <time>2019-02-17T10:10:15.000Z</time>
      </trkpt>
      <trkpt lat="44.30281" lon="6.8144">
        <ele>2084.6000976562</ele>
        <time>2019-02-17T10:10:18.000Z</time>
      </trkpt>
      <trkpt lat="44.30287" lon="6.81439">
        <ele>2085.1999511719</ele>
        <time>2019-02-17T10:10:25.000Z</time>
      </trkpt>
      <trkpt lat="44.30291" lon="6.81439">
        <ele>2085.6000976562</ele>
        <time>2019-02-17T10:10:28.000Z</time>
      </trkpt>
      <trkpt lat="44.30298" lon="6.81438">
        <ele>2086.1999511719</ele>
        <time>2019-02-17T10:10:35.000Z</time>
      </trkpt>
      <trkpt lat="44.30302" lon="6.81435">
        <ele>2087</ele>
        <time>2019-02-17T10:10:42.000Z</time>
      </trkpt>
      <trkpt lat="44.30306" lon="6.81435">
        <ele>2087.1999511719</ele>
        <time>2019-02-17T10:10:55.000Z</time>
      </trkpt>
      <trkpt lat="44.30314" lon="6.81431">
        <ele>2088.3999023438</ele>
        <time>2019-02-17T10:11:04.000Z</time>
      </trkpt>
      <trkpt lat="44.3032" lon="6.8143">
        <ele>2088.6000976562</ele>
        <time>2019-02-17T10:11:08.000Z</time>
      </trkpt>
      <trkpt lat="44.30322" lon="6.81428">
        <ele>2088.8000488281</ele>
        <time>2019-02-17T10:11:10.000Z</time>
      </trkpt>
      <trkpt lat="44.30325" lon="6.81427">
        <ele>2089.3999023438</ele>
        <time>2019-02-17T10:11:14.000Z</time>
      </trkpt>
      <trkpt lat="44.30331" lon="6.81416">
        <ele>2090.3999023438</ele>
        <time>2019-02-17T10:11:28.000Z</time>
      </trkpt>
      <trkpt lat="44.30332" lon="6.81415">
        <ele>2090.3999023438</ele>
        <time>2019-02-17T10:11:29.000Z</time>
      </trkpt>
      <trkpt lat="44.30335" lon="6.81412">
        <ele>2090.8000488281</ele>
        <time>2019-02-17T10:11:34.000Z</time>
      </trkpt>
      <trkpt lat="44.30337" lon="6.81409">
        <ele>2091.3999023438</ele>
        <time>2019-02-17T10:11:39.000Z</time>
      </trkpt>
      <trkpt lat="44.30347" lon="6.81401">
        <ele>2092.6000976562</ele>
        <time>2019-02-17T10:11:52.000Z</time>
      </trkpt>
      <trkpt lat="44.30356" lon="6.81397">
        <ele>2093.6000976562</ele>
        <time>2019-02-17T10:12:04.000Z</time>
      </trkpt>
      <trkpt lat="44.30366" lon="6.8139">
        <ele>2094.1999511719</ele>
        <time>2019-02-17T10:12:26.000Z</time>
      </trkpt>
      <trkpt lat="44.30368" lon="6.81389">
        <ele>2094.1999511719</ele>
        <time>2019-02-17T10:12:28.000Z</time>
      </trkpt>
      <trkpt lat="44.30369" lon="6.81387">
        <ele>2094.6000976562</ele>
        <time>2019-02-17T10:12:30.000Z</time>
      </trkpt>
      <trkpt lat="44.30373" lon="6.81384">
        <ele>2095.6000976562</ele>
        <time>2019-02-17T10:12:38.000Z</time>
      </trkpt>
      <trkpt lat="44.30373" lon="6.81377">
        <ele>2096.6000976562</ele>
        <time>2019-02-17T10:12:54.000Z</time>
      </trkpt>
      <trkpt lat="44.30382" lon="6.81372">
        <ele>2097.6000976562</ele>
        <time>2019-02-17T10:13:04.000Z</time>
      </trkpt>
      <trkpt lat="44.30383" lon="6.81371">
        <ele>2097.8000488281</ele>
        <time>2019-02-17T10:13:06.000Z</time>
      </trkpt>
      <trkpt lat="44.30387" lon="6.8137">
        <ele>2098.3999023438</ele>
        <time>2019-02-17T10:13:10.000Z</time>
      </trkpt>
      <trkpt lat="44.3039" lon="6.81365">
        <ele>2098.8000488281</ele>
        <time>2019-02-17T10:13:16.000Z</time>
      </trkpt>
      <trkpt lat="44.30396" lon="6.81359">
        <ele>2099.8000488281</ele>
        <time>2019-02-17T10:13:25.000Z</time>
      </trkpt>
      <trkpt lat="44.304" lon="6.81356">
        <ele>2100.8000488281</ele>
        <time>2019-02-17T10:13:32.000Z</time>
      </trkpt>
      <trkpt lat="44.30407" lon="6.81351">
        <ele>2101.8000488281</ele>
        <time>2019-02-17T10:13:43.000Z</time>
      </trkpt>
      <trkpt lat="44.30412" lon="6.81347">
        <ele>2102.8000488281</ele>
        <time>2019-02-17T10:13:50.000Z</time>
      </trkpt>
      <trkpt lat="44.30417" lon="6.81344">
        <ele>2104</ele>
        <time>2019-02-17T10:13:56.000Z</time>
      </trkpt>
      <trkpt lat="44.30424" lon="6.81339">
        <ele>2105</ele>
        <time>2019-02-17T10:14:06.000Z</time>
      </trkpt>
      <trkpt lat="44.30429" lon="6.81337">
        <ele>2105.8000488281</ele>
        <time>2019-02-17T10:14:10.000Z</time>
      </trkpt>
      <trkpt lat="44.30431" lon="6.81335">
        <ele>2106</ele>
        <time>2019-02-17T10:14:12.000Z</time>
      </trkpt>
      <trkpt lat="44.30432" lon="6.81335">
        <ele>2106</ele>
        <time>2019-02-17T10:14:13.000Z</time>
      </trkpt>
      <trkpt lat="44.30432" lon="6.81334">
        <ele>2106</ele>
        <time>2019-02-17T10:14:14.000Z</time>
      </trkpt>
      <trkpt lat="44.30437" lon="6.81331">
        <ele>2106.6000976562</ele>
        <time>2019-02-17T10:14:19.000Z</time>
      </trkpt>
      <trkpt lat="44.30438" lon="6.8133">
        <ele>2107</ele>
        <time>2019-02-17T10:14:21.000Z</time>
      </trkpt>
      <trkpt lat="44.30438" lon="6.81329">
        <ele>2107</ele>
        <time>2019-02-17T10:14:22.000Z</time>
      </trkpt>
      <trkpt lat="44.3044" lon="6.81325">
        <ele>2107.1999511719</ele>
        <time>2019-02-17T10:14:26.000Z</time>
      </trkpt>
      <trkpt lat="44.30441" lon="6.81323">
        <ele>2107.6000976562</ele>
        <time>2019-02-17T10:14:30.000Z</time>
      </trkpt>
      <trkpt lat="44.3044" lon="6.81322">
        <ele>2108.1999511719</ele>
        <time>2019-02-17T10:14:37.000Z</time>
      </trkpt>
      <trkpt lat="44.30443" lon="6.81324">
        <ele>2108.1999511719</ele>
        <time>2019-02-17T10:14:44.000Z</time>
      </trkpt>
      <trkpt lat="44.30443" lon="6.81325">
        <ele>2108.1999511719</ele>
        <time>2019-02-17T10:18:45.000Z</time>
      </trkpt>
      <trkpt lat="44.30454" lon="6.81324">
        <ele>2109.1999511719</ele>
        <time>2019-02-17T10:19:49.000Z</time>
      </trkpt>
      <trkpt lat="44.30461" lon="6.81318">
        <ele>2110.1999511719</ele>
        <time>2019-02-17T10:20:01.000Z</time>
      </trkpt>
      <trkpt lat="44.30464" lon="6.81314">
        <ele>2110.6000976562</ele>
        <time>2019-02-17T10:20:07.000Z</time>
      </trkpt>
      <trkpt lat="44.30467" lon="6.8131">
        <ele>2111.3999023438</ele>
        <time>2019-02-17T10:20:12.000Z</time>
      </trkpt>
      <trkpt lat="44.30468" lon="6.81309">
        <ele>2111.6000976562</ele>
        <time>2019-02-17T10:20:14.000Z</time>
      </trkpt>
      <trkpt lat="44.30471" lon="6.81306">
        <ele>2111.8000488281</ele>
        <time>2019-02-17T10:20:17.000Z</time>
      </trkpt>
      <trkpt lat="44.30474" lon="6.81303">
        <ele>2111.8000488281</ele>
        <time>2019-02-17T10:20:20.000Z</time>
      </trkpt>
      <trkpt lat="44.30475" lon="6.81302">
        <ele>2112</ele>
        <time>2019-02-17T10:20:22.000Z</time>
      </trkpt>
      <trkpt lat="44.30477" lon="6.81299">
        <ele>2112.1999511719</ele>
        <time>2019-02-17T10:20:25.000Z</time>
      </trkpt>
      <trkpt lat="44.30478" lon="6.81298">
        <ele>2112.6000976562</ele>
        <time>2019-02-17T10:20:27.000Z</time>
      </trkpt>
      <trkpt lat="44.30482" lon="6.81287">
        <ele>2113.8000488281</ele>
        <time>2019-02-17T10:20:37.000Z</time>
      </trkpt>
      <trkpt lat="44.30482" lon="6.81286">
        <ele>2114</ele>
        <time>2019-02-17T10:20:38.000Z</time>
      </trkpt>
      <trkpt lat="44.30484" lon="6.81282">
        <ele>2114.6000976562</ele>
        <time>2019-02-17T10:20:43.000Z</time>
      </trkpt>
      <trkpt lat="44.30485" lon="6.8128">
        <ele>2114.8000488281</ele>
        <time>2019-02-17T10:20:46.000Z</time>
      </trkpt>
      <trkpt lat="44.30487" lon="6.81278">
        <ele>2115</ele>
        <time>2019-02-17T10:20:48.000Z</time>
      </trkpt>
      <trkpt lat="44.30487" lon="6.81276">
        <ele>2115.1999511719</ele>
        <time>2019-02-17T10:20:51.000Z</time>
      </trkpt>
      <trkpt lat="44.30488" lon="6.81275">
        <ele>2115.3999023438</ele>
        <time>2019-02-17T10:20:53.000Z</time>
      </trkpt>
      <trkpt lat="44.30489" lon="6.8127">
        <ele>2115.8000488281</ele>
        <time>2019-02-17T10:20:58.000Z</time>
      </trkpt>
      <trkpt lat="44.3049" lon="6.81269">
        <ele>2115.8000488281</ele>
        <time>2019-02-17T10:20:59.000Z</time>
      </trkpt>
      <trkpt lat="44.30494" lon="6.81261">
        <ele>2117</ele>
        <time>2019-02-17T10:21:09.000Z</time>
      </trkpt>
      <trkpt lat="44.30499" lon="6.81256">
        <ele>2118</ele>
        <time>2019-02-17T10:21:17.000Z</time>
      </trkpt>
      <trkpt lat="44.30503" lon="6.81255">
        <ele>2118</ele>
        <time>2019-02-17T10:21:19.000Z</time>
      </trkpt>
      <trkpt lat="44.30509" lon="6.81251">
        <ele>2118.6000976562</ele>
        <time>2019-02-17T10:21:25.000Z</time>
      </trkpt>
      <trkpt lat="44.3051" lon="6.81251">
        <ele>2119</ele>
        <time>2019-02-17T10:21:28.000Z</time>
      </trkpt>
      <trkpt lat="44.30511" lon="6.8125">
        <ele>2119.1999511719</ele>
        <time>2019-02-17T10:21:29.000Z</time>
      </trkpt>
      <trkpt lat="44.30512" lon="6.81249">
        <ele>2119.3999023438</ele>
        <time>2019-02-17T10:21:31.000Z</time>
      </trkpt>
      <trkpt lat="44.30515" lon="6.81246">
        <ele>2119.8000488281</ele>
        <time>2019-02-17T10:21:35.000Z</time>
      </trkpt>
      <trkpt lat="44.30517" lon="6.81241">
        <ele>2120.1999511719</ele>
        <time>2019-02-17T10:21:39.000Z</time>
      </trkpt>
      <trkpt lat="44.30519" lon="6.81234">
        <ele>2121.3999023438</ele>
        <time>2019-02-17T10:22:00.000Z</time>
      </trkpt>
      <trkpt lat="44.3052" lon="6.81237">
        <ele>2122.3999023438</ele>
        <time>2019-02-17T10:22:58.000Z</time>
      </trkpt>
      <trkpt lat="44.30523" lon="6.81217">
        <ele>2123.3999023438</ele>
        <time>2019-02-17T10:23:35.000Z</time>
      </trkpt>
      <trkpt lat="44.30523" lon="6.8121">
        <ele>2124.1999511719</ele>
        <time>2019-02-17T10:23:49.000Z</time>
      </trkpt>
      <trkpt lat="44.30523" lon="6.81211">
        <ele>2124.6000976562</ele>
        <time>2019-02-17T10:23:51.000Z</time>
      </trkpt>
      <trkpt lat="44.30521" lon="6.81215">
        <ele>2125.6000976562</ele>
        <time>2019-02-17T10:24:52.000Z</time>
      </trkpt>
      <trkpt lat="44.30515" lon="6.81214">
        <ele>2126.3999023438</ele>
        <time>2019-02-17T10:24:58.000Z</time>
      </trkpt>
      <trkpt lat="44.30514" lon="6.81213">
        <ele>2126.8000488281</ele>
        <time>2019-02-17T10:24:59.000Z</time>
      </trkpt>
      <trkpt lat="44.30512" lon="6.81212">
        <ele>2127</ele>
        <time>2019-02-17T10:25:01.000Z</time>
      </trkpt>
      <trkpt lat="44.30505" lon="6.8121">
        <ele>2127.8000488281</ele>
        <time>2019-02-17T10:25:06.000Z</time>
      </trkpt>
      <trkpt lat="44.30502" lon="6.81209">
        <ele>2128.3999023438</ele>
        <time>2019-02-17T10:25:10.000Z</time>
      </trkpt>
      <trkpt lat="44.30501" lon="6.81206">
        <ele>2128.8000488281</ele>
        <time>2019-02-17T10:25:14.000Z</time>
      </trkpt>
      <trkpt lat="44.30501" lon="6.81205">
        <ele>2128.8000488281</ele>
        <time>2019-02-17T10:25:15.000Z</time>
      </trkpt>
      <trkpt lat="44.3051" lon="6.81196">
        <ele>2130</ele>
        <time>2019-02-17T10:25:26.000Z</time>
      </trkpt>
      <trkpt lat="44.30519" lon="6.81182">
        <ele>2131</ele>
        <time>2019-02-17T10:25:40.000Z</time>
      </trkpt>
      <trkpt lat="44.3052" lon="6.81179">
        <ele>2131.1999511719</ele>
        <time>2019-02-17T10:25:43.000Z</time>
      </trkpt>
      <trkpt lat="44.30521" lon="6.81177">
        <ele>2131.1999511719</ele>
        <time>2019-02-17T10:25:45.000Z</time>
      </trkpt>
      <trkpt lat="44.30523" lon="6.81171">
        <ele>2131.3999023438</ele>
        <time>2019-02-17T10:25:49.000Z</time>
      </trkpt>
      <trkpt lat="44.30526" lon="6.81166">
        <ele>2132.1999511719</ele>
        <time>2019-02-17T10:25:54.000Z</time>
      </trkpt>
      <trkpt lat="44.30526" lon="6.81166">
        <ele>2132.1999511719</ele>
        <time>2019-02-17T10:25:55.000Z</time>
      </trkpt>
      <trkpt lat="44.30527" lon="6.81165">
        <ele>2132.3999023438</ele>
        <time>2019-02-17T10:25:58.000Z</time>
      </trkpt>
      <trkpt lat="44.30529" lon="6.81162">
        <ele>2132.6000976562</ele>
        <time>2019-02-17T10:26:04.000Z</time>
      </trkpt>
      <trkpt lat="44.30533" lon="6.81158">
        <ele>2133.1999511719</ele>
        <time>2019-02-17T10:26:11.000Z</time>
      </trkpt>
      <trkpt lat="44.3054" lon="6.81146">
        <ele>2134.1999511719</ele>
        <time>2019-02-17T10:26:25.000Z</time>
      </trkpt>
      <trkpt lat="44.30541" lon="6.81145">
        <ele>2134.3999023438</ele>
        <time>2019-02-17T10:26:26.000Z</time>
      </trkpt>
      <trkpt lat="44.30543" lon="6.81139">
        <ele>2134.6000976562</ele>
        <time>2019-02-17T10:26:33.000Z</time>
      </trkpt>
      <trkpt lat="44.30544" lon="6.81133">
        <ele>2135.1999511719</ele>
        <time>2019-02-17T10:26:40.000Z</time>
      </trkpt>
      <trkpt lat="44.30545" lon="6.81131">
        <ele>2136.1999511719</ele>
        <time>2019-02-17T10:26:46.000Z</time>
      </trkpt>
      <trkpt lat="44.30549" lon="6.81124">
        <ele>2137.6000976562</ele>
        <time>2019-02-17T10:28:18.000Z</time>
      </trkpt>
      <trkpt lat="44.30553" lon="6.81118">
        <ele>2138.6000976562</ele>
        <time>2019-02-17T10:28:27.000Z</time>
      </trkpt>
      <trkpt lat="44.30554" lon="6.81115">
        <ele>2139.8000488281</ele>
        <time>2019-02-17T10:28:32.000Z</time>
      </trkpt>
      <trkpt lat="44.30556" lon="6.8111">
        <ele>2140.8000488281</ele>
        <time>2019-02-17T10:28:39.000Z</time>
      </trkpt>
      <trkpt lat="44.30557" lon="6.81106">
        <ele>2141.8000488281</ele>
        <time>2019-02-17T10:28:45.000Z</time>
      </trkpt>
      <trkpt lat="44.30558" lon="6.81103">
        <ele>2142.8000488281</ele>
        <time>2019-02-17T10:28:50.000Z</time>
      </trkpt>
      <trkpt lat="44.30553" lon="6.81109">
        <ele>2143.6000976562</ele>
        <time>2019-02-17T10:29:10.000Z</time>
      </trkpt>
      <trkpt lat="44.30545" lon="6.81111">
        <ele>2143.8000488281</ele>
        <time>2019-02-17T10:29:19.000Z</time>
      </trkpt>
      <trkpt lat="44.30536" lon="6.81115">
        <ele>2145</ele>
        <time>2019-02-17T10:29:29.000Z</time>
      </trkpt>
      <trkpt lat="44.30534" lon="6.81115">
        <ele>2145</ele>
        <time>2019-02-17T10:29:31.000Z</time>
      </trkpt>
      <trkpt lat="44.30528" lon="6.81118">
        <ele>2146</ele>
        <time>2019-02-17T10:29:39.000Z</time>
      </trkpt>
      <trkpt lat="44.30527" lon="6.81118">
        <ele>2146.1999511719</ele>
        <time>2019-02-17T10:29:41.000Z</time>
      </trkpt>
      <trkpt lat="44.30517" lon="6.81122">
        <ele>2147.1999511719</ele>
        <time>2019-02-17T10:29:54.000Z</time>
      </trkpt>
      <trkpt lat="44.30515" lon="6.81122">
        <ele>2147.8000488281</ele>
        <time>2019-02-17T10:30:01.000Z</time>
      </trkpt>
      <trkpt lat="44.30508" lon="6.81124">
        <ele>2148</ele>
        <time>2019-02-17T10:30:08.000Z</time>
      </trkpt>
      <trkpt lat="44.30507" lon="6.81125">
        <ele>2148.1999511719</ele>
        <time>2019-02-17T10:30:09.000Z</time>
      </trkpt>
      <trkpt lat="44.30506" lon="6.81125">
        <ele>2148.3999023438</ele>
        <time>2019-02-17T10:30:10.000Z</time>
      </trkpt>
      <trkpt lat="44.30503" lon="6.81127">
        <ele>2148.8000488281</ele>
        <time>2019-02-17T10:30:15.000Z</time>
      </trkpt>
      <trkpt lat="44.30499" lon="6.81129">
        <ele>2149.3999023438</ele>
        <time>2019-02-17T10:30:19.000Z</time>
      </trkpt>
      <trkpt lat="44.30495" lon="6.81129">
        <ele>2149.6000976562</ele>
        <time>2019-02-17T10:30:24.000Z</time>
      </trkpt>
      <trkpt lat="44.30485" lon="6.81131">
        <ele>2150.3999023438</ele>
        <time>2019-02-17T10:30:33.000Z</time>
      </trkpt>
      <trkpt lat="44.30483" lon="6.81131">
        <ele>2150.6000976562</ele>
        <time>2019-02-17T10:30:35.000Z</time>
      </trkpt>
      <trkpt lat="44.30475" lon="6.81131">
        <ele>2151.1999511719</ele>
        <time>2019-02-17T10:30:42.000Z</time>
      </trkpt>
      <trkpt lat="44.30475" lon="6.8113">
        <ele>2151.3999023438</ele>
        <time>2019-02-17T10:30:43.000Z</time>
      </trkpt>
      <trkpt lat="44.30473" lon="6.8113">
        <ele>2151.3999023438</ele>
        <time>2019-02-17T10:30:44.000Z</time>
      </trkpt>
      <trkpt lat="44.3047" lon="6.81129">
        <ele>2151.8000488281</ele>
        <time>2019-02-17T10:30:47.000Z</time>
      </trkpt>
      <trkpt lat="44.30468" lon="6.81128">
        <ele>2151.8000488281</ele>
        <time>2019-02-17T10:30:49.000Z</time>
      </trkpt>
      <trkpt lat="44.30464" lon="6.81125">
        <ele>2152.3999023438</ele>
        <time>2019-02-17T10:30:56.000Z</time>
      </trkpt>
      <trkpt lat="44.30461" lon="6.81124">
        <ele>2152.8000488281</ele>
        <time>2019-02-17T10:30:59.000Z</time>
      </trkpt>
      <trkpt lat="44.30456" lon="6.81126">
        <ele>2153</ele>
        <time>2019-02-17T10:31:06.000Z</time>
      </trkpt>
      <trkpt lat="44.30454" lon="6.81126">
        <ele>2153.3999023438</ele>
        <time>2019-02-17T10:31:08.000Z</time>
      </trkpt>
      <trkpt lat="44.30452" lon="6.81128">
        <ele>2153.6000976562</ele>
        <time>2019-02-17T10:31:11.000Z</time>
      </trkpt>
      <trkpt lat="44.3045" lon="6.81129">
        <ele>2153.8000488281</ele>
        <time>2019-02-17T10:31:13.000Z</time>
      </trkpt>
      <trkpt lat="44.30444" lon="6.81128">
        <ele>2154.3999023438</ele>
        <time>2019-02-17T10:31:21.000Z</time>
      </trkpt>
      <trkpt lat="44.30442" lon="6.81126">
        <ele>2154.3999023438</ele>
        <time>2019-02-17T10:31:23.000Z</time>
      </trkpt>
      <trkpt lat="44.30442" lon="6.81125">
        <ele>2154.6000976562</ele>
        <time>2019-02-17T10:31:24.000Z</time>
      </trkpt>
      <trkpt lat="44.30442" lon="6.81123">
        <ele>2154.8000488281</ele>
        <time>2019-02-17T10:31:26.000Z</time>
      </trkpt>
      <trkpt lat="44.30442" lon="6.81121">
        <ele>2155</ele>
        <time>2019-02-17T10:31:28.000Z</time>
      </trkpt>
      <trkpt lat="44.30444" lon="6.81116">
        <ele>2155.1999511719</ele>
        <time>2019-02-17T10:31:31.000Z</time>
      </trkpt>
      <trkpt lat="44.30446" lon="6.81113">
        <ele>2155.6000976562</ele>
        <time>2019-02-17T10:31:34.000Z</time>
      </trkpt>
      <trkpt lat="44.30449" lon="6.81109">
        <ele>2156.6000976562</ele>
        <time>2019-02-17T10:31:42.000Z</time>
      </trkpt>
      <trkpt lat="44.3046" lon="6.81099">
        <ele>2157.6000976562</ele>
        <time>2019-02-17T10:32:20.000Z</time>
      </trkpt>
      <trkpt lat="44.30467" lon="6.81096">
        <ele>2158.6000976562</ele>
        <time>2019-02-17T10:32:29.000Z</time>
      </trkpt>
      <trkpt lat="44.30474" lon="6.81091">
        <ele>2159.8000488281</ele>
        <time>2019-02-17T10:32:40.000Z</time>
      </trkpt>
      <trkpt lat="44.30477" lon="6.81087">
        <ele>2160.8000488281</ele>
        <time>2019-02-17T10:33:00.000Z</time>
      </trkpt>
      <trkpt lat="44.30484" lon="6.8108">
        <ele>2162</ele>
        <time>2019-02-17T10:33:10.000Z</time>
      </trkpt>
      <trkpt lat="44.3049" lon="6.81075">
        <ele>2162.8000488281</ele>
        <time>2019-02-17T10:33:18.000Z</time>
      </trkpt>
      <trkpt lat="44.30493" lon="6.81074">
        <ele>2163.1999511719</ele>
        <time>2019-02-17T10:33:21.000Z</time>
      </trkpt>
      <trkpt lat="44.30504" lon="6.81071">
        <ele>2164.1999511719</ele>
        <time>2019-02-17T10:33:33.000Z</time>
      </trkpt>
      <trkpt lat="44.30508" lon="6.8107">
        <ele>2165</ele>
        <time>2019-02-17T10:33:41.000Z</time>
      </trkpt>
      <trkpt lat="44.30507" lon="6.8107">
        <ele>2165.1999511719</ele>
        <time>2019-02-17T10:33:45.000Z</time>
      </trkpt>
      <trkpt lat="44.30514" lon="6.81066">
        <ele>2166.1999511719</ele>
        <time>2019-02-17T10:34:36.000Z</time>
      </trkpt>
      <trkpt lat="44.3052" lon="6.81061">
        <ele>2167.1999511719</ele>
        <time>2019-02-17T10:34:44.000Z</time>
      </trkpt>
      <trkpt lat="44.30525" lon="6.81054">
        <ele>2168.1999511719</ele>
        <time>2019-02-17T10:34:52.000Z</time>
      </trkpt>
      <trkpt lat="44.30526" lon="6.81054">
        <ele>2168.3999023438</ele>
        <time>2019-02-17T10:34:54.000Z</time>
      </trkpt>
      <trkpt lat="44.30534" lon="6.81047">
        <ele>2169.3999023438</ele>
        <time>2019-02-17T10:35:12.000Z</time>
      </trkpt>
      <trkpt lat="44.30536" lon="6.81047">
        <ele>2169.8000488281</ele>
        <time>2019-02-17T10:35:15.000Z</time>
      </trkpt>
      <trkpt lat="44.30538" lon="6.81048">
        <ele>2170.3999023438</ele>
        <time>2019-02-17T10:35:20.000Z</time>
      </trkpt>
      <trkpt lat="44.30542" lon="6.81042">
        <ele>2171.3999023438</ele>
        <time>2019-02-17T10:35:28.000Z</time>
      </trkpt>
      <trkpt lat="44.30547" lon="6.81037">
        <ele>2172.1999511719</ele>
        <time>2019-02-17T10:35:35.000Z</time>
      </trkpt>
      <trkpt lat="44.30547" lon="6.81036">
        <ele>2172.3999023438</ele>
        <time>2019-02-17T10:35:36.000Z</time>
      </trkpt>
      <trkpt lat="44.30548" lon="6.81036">
        <ele>2173</ele>
        <time>2019-02-17T10:36:18.000Z</time>
      </trkpt>
      <trkpt lat="44.30551" lon="6.81032">
        <ele>2173.6000976562</ele>
        <time>2019-02-17T10:36:22.000Z</time>
      </trkpt>
      <trkpt lat="44.30557" lon="6.81027">
        <ele>2174.6000976562</ele>
        <time>2019-02-17T10:36:30.000Z</time>
      </trkpt>
      <trkpt lat="44.30558" lon="6.81025">
        <ele>2175</ele>
        <time>2019-02-17T10:36:33.000Z</time>
      </trkpt>
      <trkpt lat="44.30559" lon="6.81022">
        <ele>2175.6000976562</ele>
        <time>2019-02-17T10:36:36.000Z</time>
      </trkpt>
      <trkpt lat="44.3056" lon="6.81018">
        <ele>2176.6000976562</ele>
        <time>2019-02-17T10:36:41.000Z</time>
      </trkpt>
      <trkpt lat="44.30561" lon="6.81019">
        <ele>2177.6000976562</ele>
        <time>2019-02-17T10:36:48.000Z</time>
      </trkpt>
      <trkpt lat="44.30551" lon="6.81021">
        <ele>2177.6000976562</ele>
        <time>2019-02-17T10:37:03.000Z</time>
      </trkpt>
      <trkpt lat="44.30554" lon="6.81036">
        <ele>2178.1999511719</ele>
        <time>2019-02-17T10:38:05.000Z</time>
      </trkpt>
      <trkpt lat="44.30547" lon="6.81032">
        <ele>2178.8000488281</ele>
        <time>2019-02-17T10:38:24.000Z</time>
      </trkpt>
      <trkpt lat="44.30555" lon="6.8102">
        <ele>2179.8000488281</ele>
        <time>2019-02-17T10:38:58.000Z</time>
      </trkpt>
      <trkpt lat="44.30568" lon="6.81008">
        <ele>2180</ele>
        <time>2019-02-17T10:42:42.000Z</time>
      </trkpt>
      <trkpt lat="44.30575" lon="6.81001">
        <ele>2188</ele>
        <time>2019-02-17T10:43:13.000Z</time>
      </trkpt>
      <trkpt lat="44.30574" lon="6.80999">
        <ele>2189</ele>
        <time>2019-02-17T10:44:18.000Z</time>
      </trkpt>
      <trkpt lat="44.3057" lon="6.80995">
        <ele>2190</ele>
        <time>2019-02-17T10:44:28.000Z</time>
      </trkpt>
      <trkpt lat="44.30567" lon="6.80991">
        <ele>2191.1999511719</ele>
        <time>2019-02-17T10:44:40.000Z</time>
      </trkpt>
      <trkpt lat="44.30568" lon="6.80987">
        <ele>2192.1999511719</ele>
        <time>2019-02-17T10:44:46.000Z</time>
      </trkpt>
      <trkpt lat="44.30575" lon="6.80986">
        <ele>2193.3999023438</ele>
        <time>2019-02-17T10:45:35.000Z</time>
      </trkpt>
      <trkpt lat="44.30577" lon="6.80986">
        <ele>2194.6000976562</ele>
        <time>2019-02-17T10:45:41.000Z</time>
      </trkpt>
      <trkpt lat="44.30573" lon="6.80984">
        <ele>2195.6000976562</ele>
        <time>2019-02-17T10:46:12.000Z</time>
      </trkpt>
      <trkpt lat="44.3057" lon="6.80976">
        <ele>2196.6000976562</ele>
        <time>2019-02-17T10:47:05.000Z</time>
      </trkpt>
      <trkpt lat="44.30568" lon="6.80975">
        <ele>2197.8000488281</ele>
        <time>2019-02-17T10:47:11.000Z</time>
      </trkpt>
      <trkpt lat="44.30565" lon="6.80974">
        <ele>2198.8000488281</ele>
        <time>2019-02-17T10:47:16.000Z</time>
      </trkpt>
      <trkpt lat="44.30562" lon="6.80976">
        <ele>2199.8000488281</ele>
        <time>2019-02-17T10:47:22.000Z</time>
      </trkpt>
      <trkpt lat="44.30569" lon="6.80969">
        <ele>2200.3999023438</ele>
        <time>2019-02-17T10:47:59.000Z</time>
      </trkpt>
      <trkpt lat="44.3057" lon="6.80967">
        <ele>2200.6000976562</ele>
        <time>2019-02-17T10:48:01.000Z</time>
      </trkpt>
      <trkpt lat="44.30571" lon="6.80966">
        <ele>2201</ele>
        <time>2019-02-17T10:48:03.000Z</time>
      </trkpt>
      <trkpt lat="44.30573" lon="6.80962">
        <ele>2202</ele>
        <time>2019-02-17T10:48:19.000Z</time>
      </trkpt>
      <trkpt lat="44.30575" lon="6.80959">
        <ele>2203.1999511719</ele>
        <time>2019-02-17T10:48:25.000Z</time>
      </trkpt>
      <trkpt lat="44.30577" lon="6.8096">
        <ele>2204.3999023438</ele>
        <time>2019-02-17T10:49:03.000Z</time>
      </trkpt>
      <trkpt lat="44.3058" lon="6.80957">
        <ele>2205.6000976562</ele>
        <time>2019-02-17T10:49:11.000Z</time>
      </trkpt>
      <trkpt lat="44.30583" lon="6.80955">
        <ele>2206.6000976562</ele>
        <time>2019-02-17T10:49:18.000Z</time>
      </trkpt>
      <trkpt lat="44.30587" lon="6.80954">
        <ele>2207.8000488281</ele>
        <time>2019-02-17T10:49:25.000Z</time>
      </trkpt>
      <trkpt lat="44.30589" lon="6.80952">
        <ele>2209</ele>
        <time>2019-02-17T10:49:50.000Z</time>
      </trkpt>
      <trkpt lat="44.3059" lon="6.80951">
        <ele>2210.1999511719</ele>
        <time>2019-02-17T10:49:55.000Z</time>
      </trkpt>
      <trkpt lat="44.30592" lon="6.80949">
        <ele>2211.1999511719</ele>
        <time>2019-02-17T10:49:59.000Z</time>
      </trkpt>
      <trkpt lat="44.30594" lon="6.80948">
        <ele>2212.3999023438</ele>
        <time>2019-02-17T10:50:06.000Z</time>
      </trkpt>
      <trkpt lat="44.30597" lon="6.80944">
        <ele>2213.6000976562</ele>
        <time>2019-02-17T10:50:18.000Z</time>
      </trkpt>
      <trkpt lat="44.30599" lon="6.80939">
        <ele>2214.8000488281</ele>
        <time>2019-02-17T10:50:25.000Z</time>
      </trkpt>
      <trkpt lat="44.306" lon="6.80937">
        <ele>2215.8000488281</ele>
        <time>2019-02-17T10:50:31.000Z</time>
      </trkpt>
      <trkpt lat="44.30601" lon="6.80929">
        <ele>2216.8000488281</ele>
        <time>2019-02-17T10:50:42.000Z</time>
      </trkpt>
      <trkpt lat="44.30603" lon="6.80924">
        <ele>2218</ele>
        <time>2019-02-17T10:50:48.000Z</time>
      </trkpt>
      <trkpt lat="44.30605" lon="6.80922">
        <ele>2219</ele>
        <time>2019-02-17T10:50:54.000Z</time>
      </trkpt>
      <trkpt lat="44.3061" lon="6.8092">
        <ele>2220.1999511719</ele>
        <time>2019-02-17T10:51:07.000Z</time>
      </trkpt>
      <trkpt lat="44.30612" lon="6.80908">
        <ele>2221.1999511719</ele>
        <time>2019-02-17T10:51:37.000Z</time>
      </trkpt>
      <trkpt lat="44.30615" lon="6.809">
        <ele>2222.3999023438</ele>
        <time>2019-02-17T10:51:46.000Z</time>
      </trkpt>
      <trkpt lat="44.30617" lon="6.80888">
        <ele>2223.3999023438</ele>
        <time>2019-02-17T10:51:56.000Z</time>
      </trkpt>
      <trkpt lat="44.30617" lon="6.80887">
        <ele>2223.6000976562</ele>
        <time>2019-02-17T10:51:57.000Z</time>
      </trkpt>
      <trkpt lat="44.30619" lon="6.80877">
        <ele>2224.1999511719</ele>
        <time>2019-02-17T10:52:06.000Z</time>
      </trkpt>
      <trkpt lat="44.3062" lon="6.80875">
        <ele>2224.3999023438</ele>
        <time>2019-02-17T10:52:08.000Z</time>
      </trkpt>
      <trkpt lat="44.3062" lon="6.80874">
        <ele>2224.6000976562</ele>
        <time>2019-02-17T10:52:09.000Z</time>
      </trkpt>
      <trkpt lat="44.30623" lon="6.80867">
        <ele>2225</ele>
        <time>2019-02-17T10:52:16.000Z</time>
      </trkpt>
      <trkpt lat="44.30624" lon="6.80865">
        <ele>2225</ele>
        <time>2019-02-17T10:52:18.000Z</time>
      </trkpt>
      <trkpt lat="44.30626" lon="6.80861">
        <ele>2225.6000976562</ele>
        <time>2019-02-17T10:52:23.000Z</time>
      </trkpt>
      <trkpt lat="44.30629" lon="6.80859">
        <ele>2226.6000976562</ele>
        <time>2019-02-17T10:53:39.000Z</time>
      </trkpt>
      <trkpt lat="44.30629" lon="6.80857">
        <ele>2227.1999511719</ele>
        <time>2019-02-17T10:53:41.000Z</time>
      </trkpt>
      <trkpt lat="44.30629" lon="6.80855">
        <ele>2227.6000976562</ele>
        <time>2019-02-17T10:53:44.000Z</time>
      </trkpt>
      <trkpt lat="44.30631" lon="6.80848">
        <ele>2228.8000488281</ele>
        <time>2019-02-17T10:53:54.000Z</time>
      </trkpt>
      <trkpt lat="44.30633" lon="6.80843">
        <ele>2230</ele>
        <time>2019-02-17T10:54:00.000Z</time>
      </trkpt>
      <trkpt lat="44.30633" lon="6.80841">
        <ele>2230.1999511719</ele>
        <time>2019-02-17T10:54:02.000Z</time>
      </trkpt>
      <trkpt lat="44.30635" lon="6.80838">
        <ele>2231</ele>
        <time>2019-02-17T10:54:09.000Z</time>
      </trkpt>
      <trkpt lat="44.30638" lon="6.80832">
        <ele>2232</ele>
        <time>2019-02-17T10:54:19.000Z</time>
      </trkpt>
      <trkpt lat="44.30644" lon="6.80831">
        <ele>2233.1999511719</ele>
        <time>2019-02-17T10:54:35.000Z</time>
      </trkpt>
      <trkpt lat="44.30645" lon="6.80826">
        <ele>2234.1999511719</ele>
        <time>2019-02-17T10:54:42.000Z</time>
      </trkpt>
      <trkpt lat="44.30645" lon="6.80826">
        <ele>2234.8000488281</ele>
        <time>2019-02-17T10:54:47.000Z</time>
      </trkpt>
      <trkpt lat="44.30645" lon="6.80821">
        <ele>2235.1999511719</ele>
        <time>2019-02-17T10:54:56.000Z</time>
      </trkpt>
      <trkpt lat="44.30643" lon="6.80818">
        <ele>2236.3999023438</ele>
        <time>2019-02-17T10:54:59.000Z</time>
      </trkpt>
      <trkpt lat="44.3064" lon="6.80813">
        <ele>2237.3999023438</ele>
        <time>2019-02-17T10:55:07.000Z</time>
      </trkpt>
      <trkpt lat="44.30637" lon="6.80805">
        <ele>2238.1999511719</ele>
        <time>2019-02-17T10:55:13.000Z</time>
      </trkpt>
      <trkpt lat="44.30637" lon="6.80802">
        <ele>2238.3999023438</ele>
        <time>2019-02-17T10:55:15.000Z</time>
      </trkpt>
      <trkpt lat="44.30643" lon="6.80796">
        <ele>2239.3999023438</ele>
        <time>2019-02-17T10:55:41.000Z</time>
      </trkpt>
      <trkpt lat="44.30648" lon="6.80795">
        <ele>2240.6000976562</ele>
        <time>2019-02-17T10:55:51.000Z</time>
      </trkpt>
      <trkpt lat="44.30651" lon="6.80794">
        <ele>2241.6000976562</ele>
        <time>2019-02-17T10:55:58.000Z</time>
      </trkpt>
      <trkpt lat="44.30651" lon="6.80791">
        <ele>2242.6000976562</ele>
        <time>2019-02-17T10:56:04.000Z</time>
      </trkpt>
      <trkpt lat="44.30648" lon="6.80787">
        <ele>2243.8000488281</ele>
        <time>2019-02-17T10:56:10.000Z</time>
      </trkpt>
      <trkpt lat="44.30647" lon="6.80776">
        <ele>2245</ele>
        <time>2019-02-17T10:56:48.000Z</time>
      </trkpt>
      <trkpt lat="44.30646" lon="6.80775">
        <ele>2245.1999511719</ele>
        <time>2019-02-17T10:56:49.000Z</time>
      </trkpt>
      <trkpt lat="44.30644" lon="6.8077">
        <ele>2246</ele>
        <time>2019-02-17T10:56:53.000Z</time>
      </trkpt>
      <trkpt lat="44.30644" lon="6.80768">
        <ele>2246.1999511719</ele>
        <time>2019-02-17T10:56:55.000Z</time>
      </trkpt>
      <trkpt lat="44.30641" lon="6.80762">
        <ele>2246.6000976562</ele>
        <time>2019-02-17T10:57:01.000Z</time>
      </trkpt>
      <trkpt lat="44.30641" lon="6.8076">
        <ele>2247</ele>
        <time>2019-02-17T10:57:04.000Z</time>
      </trkpt>
      <trkpt lat="44.30644" lon="6.80761">
        <ele>2248</ele>
        <time>2019-02-17T10:57:28.000Z</time>
      </trkpt>
      <trkpt lat="44.3065" lon="6.80763">
        <ele>2249.3999023438</ele>
        <time>2019-02-17T10:57:48.000Z</time>
      </trkpt>
      <trkpt lat="44.30654" lon="6.80762">
        <ele>2250.3999023438</ele>
        <time>2019-02-17T10:57:58.000Z</time>
      </trkpt>
      <trkpt lat="44.30657" lon="6.80761">
        <ele>2251.3999023438</ele>
        <time>2019-02-17T10:58:04.000Z</time>
      </trkpt>
      <trkpt lat="44.30661" lon="6.8076">
        <ele>2252.6000976562</ele>
        <time>2019-02-17T10:58:10.000Z</time>
      </trkpt>
      <trkpt lat="44.30659" lon="6.80758">
        <ele>2253.6000976562</ele>
        <time>2019-02-17T10:58:27.000Z</time>
      </trkpt>
      <trkpt lat="44.30655" lon="6.80748">
        <ele>2254.6000976562</ele>
        <time>2019-02-17T10:58:52.000Z</time>
      </trkpt>
      <trkpt lat="44.30653" lon="6.80741">
        <ele>2255.8000488281</ele>
        <time>2019-02-17T10:59:00.000Z</time>
      </trkpt>
      <trkpt lat="44.30652" lon="6.80738">
        <ele>2256.8000488281</ele>
        <time>2019-02-17T10:59:07.000Z</time>
      </trkpt>
      <trkpt lat="44.30652" lon="6.80739">
        <ele>2257.8000488281</ele>
        <time>2019-02-17T10:59:17.000Z</time>
      </trkpt>
      <trkpt lat="44.30653" lon="6.80732">
        <ele>2258.8000488281</ele>
        <time>2019-02-17T10:59:34.000Z</time>
      </trkpt>
      <trkpt lat="44.30648" lon="6.80724">
        <ele>2260</ele>
        <time>2019-02-17T11:00:01.000Z</time>
      </trkpt>
      <trkpt lat="44.30647" lon="6.80722">
        <ele>2261</ele>
        <time>2019-02-17T11:00:11.000Z</time>
      </trkpt>
      <trkpt lat="44.30647" lon="6.80718">
        <ele>2262</ele>
        <time>2019-02-17T11:00:17.000Z</time>
      </trkpt>
      <trkpt lat="44.30648" lon="6.80724">
        <ele>2262.8000488281</ele>
        <time>2019-02-17T11:00:24.000Z</time>
      </trkpt>
      <trkpt lat="44.30647" lon="6.80721">
        <ele>2262.8000488281</ele>
        <time>2019-02-17T11:00:26.000Z</time>
      </trkpt>
      <trkpt lat="44.30646" lon="6.80716">
        <ele>2263.1999511719</ele>
        <time>2019-02-17T11:00:29.000Z</time>
      </trkpt>
      <trkpt lat="44.30646" lon="6.80713">
        <ele>2263.3999023438</ele>
        <time>2019-02-17T11:00:31.000Z</time>
      </trkpt>
      <trkpt lat="44.30646" lon="6.8071">
        <ele>2263.8000488281</ele>
        <time>2019-02-17T11:00:33.000Z</time>
      </trkpt>
      <trkpt lat="44.30646" lon="6.80706">
        <ele>2264.1999511719</ele>
        <time>2019-02-17T11:00:36.000Z</time>
      </trkpt>
      <trkpt lat="44.30646" lon="6.80701">
        <ele>2264.8000488281</ele>
        <time>2019-02-17T11:00:40.000Z</time>
      </trkpt>
      <trkpt lat="44.30646" lon="6.80697">
        <ele>2265.3999023438</ele>
        <time>2019-02-17T11:00:43.000Z</time>
      </trkpt>
      <trkpt lat="44.30646" lon="6.80696">
        <ele>2265.8000488281</ele>
        <time>2019-02-17T11:00:46.000Z</time>
      </trkpt>
      <trkpt lat="44.30646" lon="6.80695">
        <ele>2266.6000976562</ele>
        <time>2019-02-17T11:00:48.000Z</time>
      </trkpt>
      <trkpt lat="44.30647" lon="6.80693">
        <ele>2267.1999511719</ele>
        <time>2019-02-17T11:00:51.000Z</time>
      </trkpt>
      <trkpt lat="44.30648" lon="6.80689">
        <ele>2267.8000488281</ele>
        <time>2019-02-17T11:00:53.000Z</time>
      </trkpt>
      <trkpt lat="44.30649" lon="6.80686">
        <ele>2268.3999023438</ele>
        <time>2019-02-17T11:00:56.000Z</time>
      </trkpt>
      <trkpt lat="44.3065" lon="6.80685">
        <ele>2268.8000488281</ele>
        <time>2019-02-17T11:00:59.000Z</time>
      </trkpt>
      <trkpt lat="44.30654" lon="6.80678">
        <ele>2270</ele>
        <time>2019-02-17T11:01:13.000Z</time>
      </trkpt>
      <trkpt lat="44.30655" lon="6.80674">
        <ele>2271</ele>
        <time>2019-02-17T11:01:19.000Z</time>
      </trkpt>
      <trkpt lat="44.30659" lon="6.80668">
        <ele>2272</ele>
        <time>2019-02-17T11:01:38.000Z</time>
      </trkpt>
      <trkpt lat="44.30654" lon="6.80668">
        <ele>2272.6000976562</ele>
        <time>2019-02-17T11:02:03.000Z</time>
      </trkpt>
      <trkpt lat="44.3066" lon="6.80667">
        <ele>2272.6000976562</ele>
        <time>2019-02-17T11:02:15.000Z</time>
      </trkpt>
      <trkpt lat="44.30658" lon="6.80664">
        <ele>2272.8000488281</ele>
        <time>2019-02-17T11:03:19.000Z</time>
      </trkpt>
      <trkpt lat="44.30658" lon="6.80668">
        <ele>2272.8000488281</ele>
        <time>2019-02-17T11:04:24.000Z</time>
      </trkpt>
      <trkpt lat="44.30659" lon="6.80667">
        <ele>2272.8000488281</ele>
        <time>2019-02-17T11:06:21.000Z</time>
      </trkpt>
      <trkpt lat="44.30661" lon="6.80666">
        <ele>2273.1999511719</ele>
        <time>2019-02-17T11:08:59.000Z</time>
      </trkpt>
      <trkpt lat="44.30658" lon="6.80669">
        <ele>2274</ele>
        <time>2019-02-17T11:12:29.000Z</time>
      </trkpt>
      <trkpt lat="44.30658" lon="6.8067">
        <ele>2274</ele>
        <time>2019-02-17T11:12:32.000Z</time>
      </trkpt>
      <trkpt lat="44.30658" lon="6.80668">
        <ele>2273.1999511719</ele>
        <time>2019-02-17T11:15:26.000Z</time>
      </trkpt>
      <trkpt lat="44.30662" lon="6.80651">
        <ele>2272.8000488281</ele>
        <time>2019-02-17T11:15:40.000Z</time>
      </trkpt>
      <trkpt lat="44.30665" lon="6.80645">
        <ele>2273</ele>
        <time>2019-02-17T11:15:46.000Z</time>
      </trkpt>
      <trkpt lat="44.30667" lon="6.80642">
        <ele>2273</ele>
        <time>2019-02-17T11:15:50.000Z</time>
      </trkpt>
      <trkpt lat="44.30668" lon="6.8064">
        <ele>2273</ele>
        <time>2019-02-17T11:15:52.000Z</time>
      </trkpt>
      <trkpt lat="44.30671" lon="6.80634">
        <ele>2273.8000488281</ele>
        <time>2019-02-17T11:16:00.000Z</time>
      </trkpt>
      <trkpt lat="44.30671" lon="6.80627">
        <ele>2274</ele>
        <time>2019-02-17T11:16:05.000Z</time>
      </trkpt>
      <trkpt lat="44.3067" lon="6.80626">
        <ele>2274.1999511719</ele>
        <time>2019-02-17T11:16:07.000Z</time>
      </trkpt>
      <trkpt lat="44.30671" lon="6.80623">
        <ele>2274.1999511719</ele>
        <time>2019-02-17T11:16:09.000Z</time>
      </trkpt>
      <trkpt lat="44.30673" lon="6.8062">
        <ele>2274.3999023438</ele>
        <time>2019-02-17T11:16:11.000Z</time>
      </trkpt>
      <trkpt lat="44.30674" lon="6.80618">
        <ele>2274.6000976562</ele>
        <time>2019-02-17T11:16:13.000Z</time>
      </trkpt>
      <trkpt lat="44.30675" lon="6.80614">
        <ele>2275.3999023438</ele>
        <time>2019-02-17T11:16:17.000Z</time>
      </trkpt>
      <trkpt lat="44.30675" lon="6.80606">
        <ele>2276</ele>
        <time>2019-02-17T11:16:24.000Z</time>
      </trkpt>
      <trkpt lat="44.30675" lon="6.80603">
        <ele>2276.1999511719</ele>
        <time>2019-02-17T11:16:26.000Z</time>
      </trkpt>
      <trkpt lat="44.30675" lon="6.80601">
        <ele>2276.3999023438</ele>
        <time>2019-02-17T11:16:28.000Z</time>
      </trkpt>
      <trkpt lat="44.30675" lon="6.806">
        <ele>2276.8000488281</ele>
        <time>2019-02-17T11:16:31.000Z</time>
      </trkpt>
      <trkpt lat="44.30677" lon="6.80596">
        <ele>2277.6000976562</ele>
        <time>2019-02-17T11:16:42.000Z</time>
      </trkpt>
      <trkpt lat="44.30679" lon="6.80595">
        <ele>2278.1999511719</ele>
        <time>2019-02-17T11:17:05.000Z</time>
      </trkpt>
      <trkpt lat="44.3068" lon="6.80588">
        <ele>2278.6000976562</ele>
        <time>2019-02-17T11:17:20.000Z</time>
      </trkpt>
      <trkpt lat="44.30682" lon="6.80583">
        <ele>2279.8000488281</ele>
        <time>2019-02-17T11:17:26.000Z</time>
      </trkpt>
      <trkpt lat="44.30684" lon="6.80573">
        <ele>2280.8000488281</ele>
        <time>2019-02-17T11:17:39.000Z</time>
      </trkpt>
      <trkpt lat="44.30685" lon="6.80568">
        <ele>2281.8000488281</ele>
        <time>2019-02-17T11:17:47.000Z</time>
      </trkpt>
      <trkpt lat="44.30687" lon="6.80561">
        <ele>2283</ele>
        <time>2019-02-17T11:18:02.000Z</time>
      </trkpt>
      <trkpt lat="44.3069" lon="6.80555">
        <ele>2284</ele>
        <time>2019-02-17T11:18:26.000Z</time>
      </trkpt>
      <trkpt lat="44.3069" lon="6.80551">
        <ele>2285</ele>
        <time>2019-02-17T11:18:33.000Z</time>
      </trkpt>
      <trkpt lat="44.30692" lon="6.80546">
        <ele>2286.1999511719</ele>
        <time>2019-02-17T11:18:41.000Z</time>
      </trkpt>
      <trkpt lat="44.30693" lon="6.80538">
        <ele>2287.3999023438</ele>
        <time>2019-02-17T11:19:02.000Z</time>
      </trkpt>
      <trkpt lat="44.30695" lon="6.80532">
        <ele>2288.3999023438</ele>
        <time>2019-02-17T11:19:08.000Z</time>
      </trkpt>
      <trkpt lat="44.30696" lon="6.80528">
        <ele>2289.6000976562</ele>
        <time>2019-02-17T11:19:15.000Z</time>
      </trkpt>
      <trkpt lat="44.30698" lon="6.80524">
        <ele>2290.6000976562</ele>
        <time>2019-02-17T11:19:21.000Z</time>
      </trkpt>
      <trkpt lat="44.30701" lon="6.80518">
        <ele>2291.8000488281</ele>
        <time>2019-02-17T11:19:38.000Z</time>
      </trkpt>
      <trkpt lat="44.30701" lon="6.80513">
        <ele>2292.8000488281</ele>
        <time>2019-02-17T11:19:44.000Z</time>
      </trkpt>
      <trkpt lat="44.30705" lon="6.80507">
        <ele>2293.8000488281</ele>
        <time>2019-02-17T11:20:05.000Z</time>
      </trkpt>
      <trkpt lat="44.30707" lon="6.80503">
        <ele>2294.8000488281</ele>
        <time>2019-02-17T11:20:10.000Z</time>
      </trkpt>
      <trkpt lat="44.30708" lon="6.80492">
        <ele>2295.8000488281</ele>
        <time>2019-02-17T11:20:20.000Z</time>
      </trkpt>
      <trkpt lat="44.30708" lon="6.80489">
        <ele>2296.8000488281</ele>
        <time>2019-02-17T11:20:29.000Z</time>
      </trkpt>
      <trkpt lat="44.3071" lon="6.80479">
        <ele>2297.8000488281</ele>
        <time>2019-02-17T11:20:42.000Z</time>
      </trkpt>
      <trkpt lat="44.30713" lon="6.8047">
        <ele>2299</ele>
        <time>2019-02-17T11:20:58.000Z</time>
      </trkpt>
      <trkpt lat="44.30714" lon="6.80464">
        <ele>2300.1999511719</ele>
        <time>2019-02-17T11:21:05.000Z</time>
      </trkpt>
      <trkpt lat="44.30714" lon="6.80455">
        <ele>2301.1999511719</ele>
        <time>2019-02-17T11:21:15.000Z</time>
      </trkpt>
      <trkpt lat="44.30715" lon="6.80448">
        <ele>2302.3999023438</ele>
        <time>2019-02-17T11:21:23.000Z</time>
      </trkpt>
      <trkpt lat="44.30716" lon="6.8044">
        <ele>2303.3999023438</ele>
        <time>2019-02-17T11:21:35.000Z</time>
      </trkpt>
      <trkpt lat="44.30716" lon="6.80437">
        <ele>2304.3999023438</ele>
        <time>2019-02-17T11:21:53.000Z</time>
      </trkpt>
      <trkpt lat="44.30718" lon="6.80426">
        <ele>2305.6000976562</ele>
        <time>2019-02-17T11:22:04.000Z</time>
      </trkpt>
      <trkpt lat="44.30719" lon="6.8042">
        <ele>2306.6000976562</ele>
        <time>2019-02-17T11:22:11.000Z</time>
      </trkpt>
      <trkpt lat="44.3072" lon="6.8041">
        <ele>2307.8000488281</ele>
        <time>2019-02-17T11:22:20.000Z</time>
      </trkpt>
      <trkpt lat="44.3072" lon="6.80408">
        <ele>2308.8000488281</ele>
        <time>2019-02-17T11:22:27.000Z</time>
      </trkpt>
      <trkpt lat="44.30722" lon="6.80398">
        <ele>2310</ele>
        <time>2019-02-17T11:22:40.000Z</time>
      </trkpt>
      <trkpt lat="44.30723" lon="6.8039">
        <ele>2311</ele>
        <time>2019-02-17T11:22:49.000Z</time>
      </trkpt>
      <trkpt lat="44.30721" lon="6.80385">
        <ele>2312</ele>
        <time>2019-02-17T11:23:11.000Z</time>
      </trkpt>
      <trkpt lat="44.30724" lon="6.80377">
        <ele>2313.1999511719</ele>
        <time>2019-02-17T11:23:20.000Z</time>
      </trkpt>
      <trkpt lat="44.30726" lon="6.80368">
        <ele>2314.1999511719</ele>
        <time>2019-02-17T11:23:29.000Z</time>
      </trkpt>
      <trkpt lat="44.30726" lon="6.8036">
        <ele>2315.3999023438</ele>
        <time>2019-02-17T11:23:38.000Z</time>
      </trkpt>
      <trkpt lat="44.30726" lon="6.80354">
        <ele>2316.3999023438</ele>
        <time>2019-02-17T11:23:49.000Z</time>
      </trkpt>
      <trkpt lat="44.30727" lon="6.80351">
        <ele>2317.3999023438</ele>
        <time>2019-02-17T11:24:07.000Z</time>
      </trkpt>
      <trkpt lat="44.30729" lon="6.8034">
        <ele>2318.6000976562</ele>
        <time>2019-02-17T11:24:23.000Z</time>
      </trkpt>
      <trkpt lat="44.30731" lon="6.80334">
        <ele>2319.6000976562</ele>
        <time>2019-02-17T11:24:30.000Z</time>
      </trkpt>
      <trkpt lat="44.30733" lon="6.80326">
        <ele>2320.8000488281</ele>
        <time>2019-02-17T11:24:38.000Z</time>
      </trkpt>
      <trkpt lat="44.30735" lon="6.80318">
        <ele>2321.8000488281</ele>
        <time>2019-02-17T11:24:47.000Z</time>
      </trkpt>
      <trkpt lat="44.30737" lon="6.80313">
        <ele>2323</ele>
        <time>2019-02-17T11:24:53.000Z</time>
      </trkpt>
      <trkpt lat="44.30739" lon="6.80308">
        <ele>2324</ele>
        <time>2019-02-17T11:24:59.000Z</time>
      </trkpt>
      <trkpt lat="44.30741" lon="6.80302">
        <ele>2325.1999511719</ele>
        <time>2019-02-17T11:25:18.000Z</time>
      </trkpt>
      <trkpt lat="44.30743" lon="6.80296">
        <ele>2326.3999023438</ele>
        <time>2019-02-17T11:25:26.000Z</time>
      </trkpt>
      <trkpt lat="44.30746" lon="6.80289">
        <ele>2327.3999023438</ele>
        <time>2019-02-17T11:25:36.000Z</time>
      </trkpt>
      <trkpt lat="44.30748" lon="6.80285">
        <ele>2328.3999023438</ele>
        <time>2019-02-17T11:25:42.000Z</time>
      </trkpt>
      <trkpt lat="44.30752" lon="6.80281">
        <ele>2329.3999023438</ele>
        <time>2019-02-17T11:25:50.000Z</time>
      </trkpt>
      <trkpt lat="44.30754" lon="6.80278">
        <ele>2330.6000976562</ele>
        <time>2019-02-17T11:25:56.000Z</time>
      </trkpt>
      <trkpt lat="44.30758" lon="6.80274">
        <ele>2331.6000976562</ele>
        <time>2019-02-17T11:26:04.000Z</time>
      </trkpt>
      <trkpt lat="44.30761" lon="6.8027">
        <ele>2332.6000976562</ele>
        <time>2019-02-17T11:26:12.000Z</time>
      </trkpt>
      <trkpt lat="44.30764" lon="6.80264">
        <ele>2333.6000976562</ele>
        <time>2019-02-17T11:27:10.000Z</time>
      </trkpt>
      <trkpt lat="44.30767" lon="6.80259">
        <ele>2335</ele>
        <time>2019-02-17T11:27:19.000Z</time>
      </trkpt>
      <trkpt lat="44.30767" lon="6.80257">
        <ele>2336</ele>
        <time>2019-02-17T11:27:24.000Z</time>
      </trkpt>
      <trkpt lat="44.30767" lon="6.80255">
        <ele>2337</ele>
        <time>2019-02-17T11:27:32.000Z</time>
      </trkpt>
      <trkpt lat="44.30767" lon="6.80245">
        <ele>2338.1999511719</ele>
        <time>2019-02-17T11:27:49.000Z</time>
      </trkpt>
      <trkpt lat="44.30767" lon="6.80242">
        <ele>2339.3999023438</ele>
        <time>2019-02-17T11:27:54.000Z</time>
      </trkpt>
      <trkpt lat="44.30768" lon="6.8024">
        <ele>2340.3999023438</ele>
        <time>2019-02-17T11:27:59.000Z</time>
      </trkpt>
      <trkpt lat="44.30769" lon="6.80235">
        <ele>2341.6000976562</ele>
        <time>2019-02-17T11:28:06.000Z</time>
      </trkpt>
      <trkpt lat="44.3077" lon="6.80226">
        <ele>2342.6000976562</ele>
        <time>2019-02-17T11:28:28.000Z</time>
      </trkpt>
      <trkpt lat="44.30771" lon="6.80219">
        <ele>2343.8000488281</ele>
        <time>2019-02-17T11:28:36.000Z</time>
      </trkpt>
      <trkpt lat="44.30771" lon="6.80215">
        <ele>2344.8000488281</ele>
        <time>2019-02-17T11:28:44.000Z</time>
      </trkpt>
      <trkpt lat="44.30771" lon="6.80211">
        <ele>2345.8000488281</ele>
        <time>2019-02-17T11:28:50.000Z</time>
      </trkpt>
      <trkpt lat="44.30771" lon="6.80213">
        <ele>2346.6000976562</ele>
        <time>2019-02-17T11:29:08.000Z</time>
      </trkpt>
      <trkpt lat="44.30774" lon="6.80212">
        <ele>2346.8000488281</ele>
        <time>2019-02-17T11:29:15.000Z</time>
      </trkpt>
      <trkpt lat="44.30779" lon="6.80213">
        <ele>2347.8000488281</ele>
        <time>2019-02-17T11:29:21.000Z</time>
      </trkpt>
      <trkpt lat="44.3078" lon="6.80214">
        <ele>2348</ele>
        <time>2019-02-17T11:29:22.000Z</time>
      </trkpt>
      <trkpt lat="44.30777" lon="6.80213">
        <ele>2349</ele>
        <time>2019-02-17T11:30:00.000Z</time>
      </trkpt>
      <trkpt lat="44.30776" lon="6.80203">
        <ele>2350.1999511719</ele>
        <time>2019-02-17T11:30:21.000Z</time>
      </trkpt>
      <trkpt lat="44.30775" lon="6.80201">
        <ele>2351.1999511719</ele>
        <time>2019-02-17T11:30:27.000Z</time>
      </trkpt>
      <trkpt lat="44.30774" lon="6.80191">
        <ele>2352.3999023438</ele>
        <time>2019-02-17T11:30:37.000Z</time>
      </trkpt>
      <trkpt lat="44.30773" lon="6.80184">
        <ele>2353.6000976562</ele>
        <time>2019-02-17T11:30:44.000Z</time>
      </trkpt>
      <trkpt lat="44.30772" lon="6.80181">
        <ele>2354.6000976562</ele>
        <time>2019-02-17T11:30:49.000Z</time>
      </trkpt>
      <trkpt lat="44.30776" lon="6.80182">
        <ele>2355.6000976562</ele>
        <time>2019-02-17T11:31:30.000Z</time>
      </trkpt>
      <trkpt lat="44.3078" lon="6.80181">
        <ele>2356.8000488281</ele>
        <time>2019-02-17T11:31:36.000Z</time>
      </trkpt>
      <trkpt lat="44.30785" lon="6.8018">
        <ele>2357.8000488281</ele>
        <time>2019-02-17T11:31:44.000Z</time>
      </trkpt>
      <trkpt lat="44.30789" lon="6.80178">
        <ele>2359</ele>
        <time>2019-02-17T11:31:54.000Z</time>
      </trkpt>
      <trkpt lat="44.30793" lon="6.80177">
        <ele>2360</ele>
        <time>2019-02-17T11:32:01.000Z</time>
      </trkpt>
      <trkpt lat="44.30798" lon="6.80162">
        <ele>2361</ele>
        <time>2019-02-17T11:32:35.000Z</time>
      </trkpt>
      <trkpt lat="44.30798" lon="6.80162">
        <ele>2362</ele>
        <time>2019-02-17T11:32:41.000Z</time>
      </trkpt>
      <trkpt lat="44.30799" lon="6.80162">
        <ele>2362.3999023438</ele>
        <time>2019-02-17T11:32:42.000Z</time>
      </trkpt>
      <trkpt lat="44.308" lon="6.80164">
        <ele>2363.1999511719</ele>
        <time>2019-02-17T11:32:47.000Z</time>
      </trkpt>
      <trkpt lat="44.30805" lon="6.8016">
        <ele>2363.8000488281</ele>
        <time>2019-02-17T11:32:56.000Z</time>
      </trkpt>
      <trkpt lat="44.30808" lon="6.80158">
        <ele>2364.1999511719</ele>
        <time>2019-02-17T11:33:02.000Z</time>
      </trkpt>
      <trkpt lat="44.30812" lon="6.80157">
        <ele>2365.3999023438</ele>
        <time>2019-02-17T11:33:10.000Z</time>
      </trkpt>
      <trkpt lat="44.30819" lon="6.80155">
        <ele>2366.3999023438</ele>
        <time>2019-02-17T11:33:57.000Z</time>
      </trkpt>
      <trkpt lat="44.30822" lon="6.80152">
        <ele>2366.8000488281</ele>
        <time>2019-02-17T11:34:01.000Z</time>
      </trkpt>
      <trkpt lat="44.30822" lon="6.8015">
        <ele>2367.1999511719</ele>
        <time>2019-02-17T11:34:03.000Z</time>
      </trkpt>
      <trkpt lat="44.30822" lon="6.80148">
        <ele>2367.3999023438</ele>
        <time>2019-02-17T11:34:05.000Z</time>
      </trkpt>
      <trkpt lat="44.30821" lon="6.80144">
        <ele>2368.6000976562</ele>
        <time>2019-02-17T11:34:10.000Z</time>
      </trkpt>
      <trkpt lat="44.30818" lon="6.8014">
        <ele>2369.6000976562</ele>
        <time>2019-02-17T11:34:21.000Z</time>
      </trkpt>
      <trkpt lat="44.30817" lon="6.80136">
        <ele>2370.6000976562</ele>
        <time>2019-02-17T11:34:26.000Z</time>
      </trkpt>
      <trkpt lat="44.30817" lon="6.80132">
        <ele>2371.6000976562</ele>
        <time>2019-02-17T11:34:37.000Z</time>
      </trkpt>
      <trkpt lat="44.30821" lon="6.80128">
        <ele>2372.8000488281</ele>
        <time>2019-02-17T11:34:45.000Z</time>
      </trkpt>
      <trkpt lat="44.3082" lon="6.8012">
        <ele>2373.8000488281</ele>
        <time>2019-02-17T11:35:10.000Z</time>
      </trkpt>
      <trkpt lat="44.30819" lon="6.80115">
        <ele>2374.8000488281</ele>
        <time>2019-02-17T11:35:15.000Z</time>
      </trkpt>
      <trkpt lat="44.30819" lon="6.80106">
        <ele>2376</ele>
        <time>2019-02-17T11:35:45.000Z</time>
      </trkpt>
      <trkpt lat="44.30818" lon="6.80099">
        <ele>2376.6000976562</ele>
        <time>2019-02-17T11:36:04.000Z</time>
      </trkpt>
      <trkpt lat="44.30817" lon="6.80097">
        <ele>2376.8000488281</ele>
        <time>2019-02-17T11:36:06.000Z</time>
      </trkpt>
      <trkpt lat="44.30817" lon="6.80095">
        <ele>2377</ele>
        <time>2019-02-17T11:36:07.000Z</time>
      </trkpt>
      <trkpt lat="44.30817" lon="6.80092">
        <ele>2377.3999023438</ele>
        <time>2019-02-17T11:36:10.000Z</time>
      </trkpt>
      <trkpt lat="44.30817" lon="6.80089">
        <ele>2378.1999511719</ele>
        <time>2019-02-17T11:36:14.000Z</time>
      </trkpt>
      <trkpt lat="44.30815" lon="6.80081">
        <ele>2379.3999023438</ele>
        <time>2019-02-17T11:36:22.000Z</time>
      </trkpt>
      <trkpt lat="44.30813" lon="6.80073">
        <ele>2380.3999023438</ele>
        <time>2019-02-17T11:36:29.000Z</time>
      </trkpt>
      <trkpt lat="44.30813" lon="6.80065">
        <ele>2381.6000976562</ele>
        <time>2019-02-17T11:36:36.000Z</time>
      </trkpt>
      <trkpt lat="44.30812" lon="6.8006">
        <ele>2382.6000976562</ele>
        <time>2019-02-17T11:36:58.000Z</time>
      </trkpt>
      <trkpt lat="44.30812" lon="6.80054">
        <ele>2383.6000976562</ele>
        <time>2019-02-17T11:37:06.000Z</time>
      </trkpt>
      <trkpt lat="44.30811" lon="6.80048">
        <ele>2384.8000488281</ele>
        <time>2019-02-17T11:37:12.000Z</time>
      </trkpt>
      <trkpt lat="44.30811" lon="6.80041">
        <ele>2385.8000488281</ele>
        <time>2019-02-17T11:37:21.000Z</time>
      </trkpt>
      <trkpt lat="44.30811" lon="6.80034">
        <ele>2387</ele>
        <time>2019-02-17T11:37:30.000Z</time>
      </trkpt>
      <trkpt lat="44.30811" lon="6.80028">
        <ele>2388</ele>
        <time>2019-02-17T11:37:55.000Z</time>
      </trkpt>
      <trkpt lat="44.30812" lon="6.80021">
        <ele>2389</ele>
        <time>2019-02-17T11:38:05.000Z</time>
      </trkpt>
      <trkpt lat="44.30812" lon="6.80013">
        <ele>2390.1999511719</ele>
        <time>2019-02-17T11:38:13.000Z</time>
      </trkpt>
      <trkpt lat="44.30811" lon="6.80008">
        <ele>2391.1999511719</ele>
        <time>2019-02-17T11:38:20.000Z</time>
      </trkpt>
      <trkpt lat="44.3081" lon="6.80004">
        <ele>2392.1999511719</ele>
        <time>2019-02-17T11:38:27.000Z</time>
      </trkpt>
      <trkpt lat="44.30807" lon="6.79995">
        <ele>2393.3999023438</ele>
        <time>2019-02-17T11:38:38.000Z</time>
      </trkpt>
      <trkpt lat="44.30805" lon="6.7999">
        <ele>2394.6000976562</ele>
        <time>2019-02-17T11:38:43.000Z</time>
      </trkpt>
      <trkpt lat="44.30804" lon="6.79983">
        <ele>2395.6000976562</ele>
        <time>2019-02-17T11:38:59.000Z</time>
      </trkpt>
      <trkpt lat="44.30803" lon="6.79977">
        <ele>2396.8000488281</ele>
        <time>2019-02-17T11:39:07.000Z</time>
      </trkpt>
      <trkpt lat="44.30801" lon="6.79971">
        <ele>2397.8000488281</ele>
        <time>2019-02-17T11:39:14.000Z</time>
      </trkpt>
      <trkpt lat="44.30796" lon="6.7996">
        <ele>2399</ele>
        <time>2019-02-17T11:39:35.000Z</time>
      </trkpt>
      <trkpt lat="44.30793" lon="6.79941">
        <ele>2399.6000976562</ele>
        <time>2019-02-17T11:39:49.000Z</time>
      </trkpt>
      <trkpt lat="44.3079" lon="6.79929">
        <ele>2400</ele>
        <time>2019-02-17T11:39:59.000Z</time>
      </trkpt>
      <trkpt lat="44.3079" lon="6.79925">
        <ele>2400.1999511719</ele>
        <time>2019-02-17T11:40:02.000Z</time>
      </trkpt>
      <trkpt lat="44.30788" lon="6.79908">
        <ele>2401.1999511719</ele>
        <time>2019-02-17T11:40:18.000Z</time>
      </trkpt>
      <trkpt lat="44.30787" lon="6.79897">
        <ele>2402.1999511719</ele>
        <time>2019-02-17T11:40:30.000Z</time>
      </trkpt>
      <trkpt lat="44.30786" lon="6.79886">
        <ele>2403.1999511719</ele>
        <time>2019-02-17T11:40:41.000Z</time>
      </trkpt>
      <trkpt lat="44.30784" lon="6.79885">
        <ele>2403.8000488281</ele>
        <time>2019-02-17T11:41:58.000Z</time>
      </trkpt>
      <trkpt lat="44.30783" lon="6.79878">
        <ele>2404</ele>
        <time>2019-02-17T11:42:02.000Z</time>
      </trkpt>
      <trkpt lat="44.30783" lon="6.79875">
        <ele>2404.1999511719</ele>
        <time>2019-02-17T11:42:04.000Z</time>
      </trkpt>
      <trkpt lat="44.30783" lon="6.79872">
        <ele>2404.6000976562</ele>
        <time>2019-02-17T11:42:06.000Z</time>
      </trkpt>
      <trkpt lat="44.30783" lon="6.79853">
        <ele>2405.3999023438</ele>
        <time>2019-02-17T11:42:20.000Z</time>
      </trkpt>
      <trkpt lat="44.30783" lon="6.79842">
        <ele>2406.3999023438</ele>
        <time>2019-02-17T11:42:30.000Z</time>
      </trkpt>
      <trkpt lat="44.30783" lon="6.79839">
        <ele>2406.6000976562</ele>
        <time>2019-02-17T11:42:33.000Z</time>
      </trkpt>
      <trkpt lat="44.30781" lon="6.79831">
        <ele>2407.6000976562</ele>
        <time>2019-02-17T11:42:42.000Z</time>
      </trkpt>
      <trkpt lat="44.30778" lon="6.79819">
        <ele>2408.6000976562</ele>
        <time>2019-02-17T11:43:02.000Z</time>
      </trkpt>
      <trkpt lat="44.30777" lon="6.79811">
        <ele>2409.8000488281</ele>
        <time>2019-02-17T11:43:11.000Z</time>
      </trkpt>
      <trkpt lat="44.30775" lon="6.79801">
        <ele>2410.8000488281</ele>
        <time>2019-02-17T11:43:21.000Z</time>
      </trkpt>
      <trkpt lat="44.30771" lon="6.7979">
        <ele>2411.8000488281</ele>
        <time>2019-02-17T11:43:32.000Z</time>
      </trkpt>
      <trkpt lat="44.30766" lon="6.79767">
        <ele>2412.8000488281</ele>
        <time>2019-02-17T11:43:54.000Z</time>
      </trkpt>
      <trkpt lat="44.3076" lon="6.79746">
        <ele>2413</ele>
        <time>2019-02-17T11:44:48.000Z</time>
      </trkpt>
      <trkpt lat="44.30755" lon="6.79713">
        <ele>2413.6000976562</ele>
        <time>2019-02-17T11:45:12.000Z</time>
      </trkpt>
      <trkpt lat="44.30754" lon="6.79709">
        <ele>2414</ele>
        <time>2019-02-17T11:45:17.000Z</time>
      </trkpt>
      <trkpt lat="44.30755" lon="6.79703">
        <ele>2415</ele>
        <time>2019-02-17T11:45:25.000Z</time>
      </trkpt>
      <trkpt lat="44.30757" lon="6.79688">
        <ele>2416.1999511719</ele>
        <time>2019-02-17T11:45:37.000Z</time>
      </trkpt>
      <trkpt lat="44.30758" lon="6.79681">
        <ele>2417.1999511719</ele>
        <time>2019-02-17T11:46:39.000Z</time>
      </trkpt>
      <trkpt lat="44.30757" lon="6.79676">
        <ele>2418.3999023438</ele>
        <time>2019-02-17T11:46:44.000Z</time>
      </trkpt>
      <trkpt lat="44.30755" lon="6.79669">
        <ele>2419.3999023438</ele>
        <time>2019-02-17T11:46:52.000Z</time>
      </trkpt>
      <trkpt lat="44.30753" lon="6.79663">
        <ele>2420.6000976562</ele>
        <time>2019-02-17T11:46:57.000Z</time>
      </trkpt>
      <trkpt lat="44.30753" lon="6.79657">
        <ele>2421.6000976562</ele>
        <time>2019-02-17T11:47:04.000Z</time>
      </trkpt>
      <trkpt lat="44.30753" lon="6.79654">
        <ele>2422.8000488281</ele>
        <time>2019-02-17T11:47:11.000Z</time>
      </trkpt>
      <trkpt lat="44.30753" lon="6.79649">
        <ele>2423.8000488281</ele>
        <time>2019-02-17T11:47:22.000Z</time>
      </trkpt>
      <trkpt lat="44.30753" lon="6.79644">
        <ele>2424.8000488281</ele>
        <time>2019-02-17T11:47:34.000Z</time>
      </trkpt>
      <trkpt lat="44.30751" lon="6.79635">
        <ele>2426</ele>
        <time>2019-02-17T11:47:44.000Z</time>
      </trkpt>
      <trkpt lat="44.30749" lon="6.79627">
        <ele>2427</ele>
        <time>2019-02-17T11:47:52.000Z</time>
      </trkpt>
      <trkpt lat="44.30747" lon="6.7962">
        <ele>2428</ele>
        <time>2019-02-17T11:48:05.000Z</time>
      </trkpt>
      <trkpt lat="44.30746" lon="6.79614">
        <ele>2429.1999511719</ele>
        <time>2019-02-17T11:48:11.000Z</time>
      </trkpt>
      <trkpt lat="44.30743" lon="6.79607">
        <ele>2430.1999511719</ele>
        <time>2019-02-17T11:48:21.000Z</time>
      </trkpt>
      <trkpt lat="44.30746" lon="6.796">
        <ele>2431.1999511719</ele>
        <time>2019-02-17T11:48:29.000Z</time>
      </trkpt>
      <trkpt lat="44.30746" lon="6.79595">
        <ele>2432.3999023438</ele>
        <time>2019-02-17T11:48:43.000Z</time>
      </trkpt>
      <trkpt lat="44.30746" lon="6.79587">
        <ele>2433.3999023438</ele>
        <time>2019-02-17T11:48:52.000Z</time>
      </trkpt>
      <trkpt lat="44.30747" lon="6.79579">
        <ele>2434.3999023438</ele>
        <time>2019-02-17T11:49:11.000Z</time>
      </trkpt>
      <trkpt lat="44.30748" lon="6.79571">
        <ele>2435.3999023438</ele>
        <time>2019-02-17T11:49:23.000Z</time>
      </trkpt>
      <trkpt lat="44.3075" lon="6.79564">
        <ele>2436.3999023438</ele>
        <time>2019-02-17T11:49:31.000Z</time>
      </trkpt>
      <trkpt lat="44.3075" lon="6.79556">
        <ele>2437.6000976562</ele>
        <time>2019-02-17T11:49:40.000Z</time>
      </trkpt>
      <trkpt lat="44.30749" lon="6.79548">
        <ele>2438.8000488281</ele>
        <time>2019-02-17T11:49:49.000Z</time>
      </trkpt>
      <trkpt lat="44.30749" lon="6.79537">
        <ele>2439.8000488281</ele>
        <time>2019-02-17T11:49:59.000Z</time>
      </trkpt>
      <trkpt lat="44.30751" lon="6.79528">
        <ele>2440.8000488281</ele>
        <time>2019-02-17T11:50:08.000Z</time>
      </trkpt>
      <trkpt lat="44.30756" lon="6.79522">
        <ele>2441.8000488281</ele>
        <time>2019-02-17T11:50:27.000Z</time>
      </trkpt>
      <trkpt lat="44.30757" lon="6.7951">
        <ele>2443</ele>
        <time>2019-02-17T11:50:39.000Z</time>
      </trkpt>
      <trkpt lat="44.30759" lon="6.79504">
        <ele>2444</ele>
        <time>2019-02-17T11:50:45.000Z</time>
      </trkpt>
      <trkpt lat="44.30761" lon="6.79497">
        <ele>2445</ele>
        <time>2019-02-17T11:50:53.000Z</time>
      </trkpt>
      <trkpt lat="44.30762" lon="6.79489">
        <ele>2446</ele>
        <time>2019-02-17T11:51:01.000Z</time>
      </trkpt>
      <trkpt lat="44.30764" lon="6.7948">
        <ele>2447.1999511719</ele>
        <time>2019-02-17T11:51:10.000Z</time>
      </trkpt>
      <trkpt lat="44.30765" lon="6.79472">
        <ele>2448.1999511719</ele>
        <time>2019-02-17T11:51:20.000Z</time>
      </trkpt>
      <trkpt lat="44.30766" lon="6.79471">
        <ele>2448.1999511719</ele>
        <time>2019-02-17T11:51:21.000Z</time>
      </trkpt>
      <trkpt lat="44.30767" lon="6.79471">
        <ele>2448.3999023438</ele>
        <time>2019-02-17T11:51:22.000Z</time>
      </trkpt>
      <trkpt lat="44.30768" lon="6.79468">
        <ele>2449.3999023438</ele>
        <time>2019-02-17T11:51:28.000Z</time>
      </trkpt>
      <trkpt lat="44.30767" lon="6.79465">
        <ele>2450.3999023438</ele>
        <time>2019-02-17T11:53:04.000Z</time>
      </trkpt>
      <trkpt lat="44.30781" lon="6.7946">
        <ele>2449.8000488281</ele>
        <time>2019-02-17T11:57:11.000Z</time>
      </trkpt>
      <trkpt lat="44.30773" lon="6.79463">
        <ele>2449.6000976562</ele>
        <time>2019-02-17T11:57:44.000Z</time>
      </trkpt>
      <trkpt lat="44.30768" lon="6.79462">
        <ele>2450</ele>
        <time>2019-02-17T11:59:51.000Z</time>
      </trkpt>
      <trkpt lat="44.30766" lon="6.79465">
        <ele>2450</ele>
        <time>2019-02-17T12:00:27.000Z</time>
      </trkpt>
      <trkpt lat="44.30767" lon="6.79466">
        <ele>2450</ele>
        <time>2019-02-17T12:01:47.000Z</time>
      </trkpt>
      <trkpt lat="44.30772" lon="6.79463">
        <ele>2450</ele>
        <time>2019-02-17T12:05:45.000Z</time>
      </trkpt>
      <trkpt lat="44.30768" lon="6.79463">
        <ele>2450</ele>
        <time>2019-02-17T12:09:30.000Z</time>
      </trkpt>
      <trkpt lat="44.30767" lon="6.79467">
        <ele>2450</ele>
        <time>2019-02-17T12:11:59.000Z</time>
      </trkpt>
      <trkpt lat="44.30764" lon="6.79466">
        <ele>2450</ele>
        <time>2019-02-17T12:14:06.000Z</time>
      </trkpt>
      <trkpt lat="44.30766" lon="6.79464">
        <ele>2450</ele>
        <time>2019-02-17T12:20:12.000Z</time>
      </trkpt>
      <trkpt lat="44.30766" lon="6.79464">
        <ele>2450</ele>
        <time>2019-02-17T12:21:44.000Z</time>
      </trkpt>
      <trkpt lat="44.30766" lon="6.79464">
        <ele>2450</ele>
        <time>2019-02-17T12:23:05.000Z</time>
      </trkpt>
      <trkpt lat="44.30764" lon="6.79464">
        <ele>2450</ele>
        <time>2019-02-17T12:30:15.000Z</time>
      </trkpt>
      <trkpt lat="44.30761" lon="6.79457">
        <ele>2449.6000976562</ele>
        <time>2019-02-17T12:30:22.000Z</time>
      </trkpt>
      <trkpt lat="44.3076" lon="6.79454">
        <ele>2449.8000488281</ele>
        <time>2019-02-17T12:30:24.000Z</time>
      </trkpt>
      <trkpt lat="44.3076" lon="6.79452">
        <ele>2449.3999023438</ele>
        <time>2019-02-17T12:30:27.000Z</time>
      </trkpt>
      <trkpt lat="44.30759" lon="6.79451">
        <ele>2449.1999511719</ele>
        <time>2019-02-17T12:30:29.000Z</time>
      </trkpt>
      <trkpt lat="44.30764" lon="6.79457">
        <ele>2450</ele>
        <time>2019-02-17T12:31:29.000Z</time>
      </trkpt>
      <trkpt lat="44.30764" lon="6.79459">
        <ele>2450.1999511719</ele>
        <time>2019-02-17T12:31:31.000Z</time>
      </trkpt>
      <trkpt lat="44.30765" lon="6.79465">
        <ele>2450.1999511719</ele>
        <time>2019-02-17T12:31:36.000Z</time>
      </trkpt>
      <trkpt lat="44.30764" lon="6.79465">
        <ele>2450.3999023438</ele>
        <time>2019-02-17T12:31:41.000Z</time>
      </trkpt>
      <trkpt lat="44.30767" lon="6.79466">
        <ele>2450.1999511719</ele>
        <time>2019-02-17T12:39:14.000Z</time>
      </trkpt>
      <trkpt lat="44.30761" lon="6.7947">
        <ele>2450.1999511719</ele>
        <time>2019-02-17T12:41:50.000Z</time>
      </trkpt>
      <trkpt lat="44.30757" lon="6.79471">
        <ele>2449.6000976562</ele>
        <time>2019-02-17T12:41:53.000Z</time>
      </trkpt>
      <trkpt lat="44.30757" lon="6.79471">
        <ele>2449.1999511719</ele>
        <time>2019-02-17T12:41:54.000Z</time>
      </trkpt>
      <trkpt lat="44.30758" lon="6.79475">
        <ele>2449</ele>
        <time>2019-02-17T12:44:38.000Z</time>
      </trkpt>
      <trkpt lat="44.30761" lon="6.79486">
        <ele>2449</ele>
        <time>2019-02-17T12:46:19.000Z</time>
      </trkpt>
      <trkpt lat="44.30764" lon="6.79496">
        <ele>2448</ele>
        <time>2019-02-17T12:46:23.000Z</time>
      </trkpt>
      <trkpt lat="44.30768" lon="6.79515">
        <ele>2447.1999511719</ele>
        <time>2019-02-17T12:46:29.000Z</time>
      </trkpt>
      <trkpt lat="44.30765" lon="6.79517">
        <ele>2446.8000488281</ele>
        <time>2019-02-17T12:46:30.000Z</time>
      </trkpt>
      <trkpt lat="44.30756" lon="6.79524">
        <ele>2445.6000976562</ele>
        <time>2019-02-17T12:46:33.000Z</time>
      </trkpt>
      <trkpt lat="44.30749" lon="6.79533">
        <ele>2445.1999511719</ele>
        <time>2019-02-17T12:46:35.000Z</time>
      </trkpt>
      <trkpt lat="44.30749" lon="6.79542">
        <ele>2444.1999511719</ele>
        <time>2019-02-17T12:46:37.000Z</time>
      </trkpt>
      <trkpt lat="44.30749" lon="6.79545">
        <ele>2443.6000976562</ele>
        <time>2019-02-17T12:46:38.000Z</time>
      </trkpt>
      <trkpt lat="44.30748" lon="6.79549">
        <ele>2443</ele>
        <time>2019-02-17T12:46:39.000Z</time>
      </trkpt>
      <trkpt lat="44.30746" lon="6.7956">
        <ele>2442</ele>
        <time>2019-02-17T12:46:42.000Z</time>
      </trkpt>
      <trkpt lat="44.30749" lon="6.79566">
        <ele>2440.8000488281</ele>
        <time>2019-02-17T12:46:44.000Z</time>
      </trkpt>
      <trkpt lat="44.30752" lon="6.79574">
        <ele>2439.8000488281</ele>
        <time>2019-02-17T12:46:46.000Z</time>
      </trkpt>
      <trkpt lat="44.30751" lon="6.79578">
        <ele>2439.6000976562</ele>
        <time>2019-02-17T12:46:47.000Z</time>
      </trkpt>
      <trkpt lat="44.30744" lon="6.79588">
        <ele>2438.3999023438</ele>
        <time>2019-02-17T12:46:50.000Z</time>
      </trkpt>
      <trkpt lat="44.30738" lon="6.796">
        <ele>2436.8000488281</ele>
        <time>2019-02-17T12:46:53.000Z</time>
      </trkpt>
      <trkpt lat="44.30737" lon="6.79602">
        <ele>2435.6000976562</ele>
        <time>2019-02-17T12:46:55.000Z</time>
      </trkpt>
      <trkpt lat="44.30737" lon="6.79604">
        <ele>2434.6000976562</ele>
        <time>2019-02-17T12:47:11.000Z</time>
      </trkpt>
      <trkpt lat="44.30737" lon="6.79606">
        <ele>2434.6000976562</ele>
        <time>2019-02-17T12:47:12.000Z</time>
      </trkpt>
      <trkpt lat="44.30737" lon="6.79607">
        <ele>2434.3999023438</ele>
        <time>2019-02-17T12:47:13.000Z</time>
      </trkpt>
      <trkpt lat="44.30738" lon="6.79608">
        <ele>2433.6000976562</ele>
        <time>2019-02-17T12:47:18.000Z</time>
      </trkpt>
      <trkpt lat="44.30739" lon="6.79618">
        <ele>2433.6000976562</ele>
        <time>2019-02-17T12:47:33.000Z</time>
      </trkpt>
      <trkpt lat="44.30747" lon="6.79629">
        <ele>2432.1999511719</ele>
        <time>2019-02-17T12:47:36.000Z</time>
      </trkpt>
      <trkpt lat="44.30747" lon="6.79638">
        <ele>2431.1999511719</ele>
        <time>2019-02-17T12:47:38.000Z</time>
      </trkpt>
      <trkpt lat="44.30748" lon="6.79643">
        <ele>2430.3999023438</ele>
        <time>2019-02-17T12:47:39.000Z</time>
      </trkpt>
      <trkpt lat="44.30751" lon="6.79647">
        <ele>2429.8000488281</ele>
        <time>2019-02-17T12:47:40.000Z</time>
      </trkpt>
      <trkpt lat="44.30756" lon="6.79656">
        <ele>2428</ele>
        <time>2019-02-17T12:47:42.000Z</time>
      </trkpt>
      <trkpt lat="44.30755" lon="6.79668">
        <ele>2426.8000488281</ele>
        <time>2019-02-17T12:47:44.000Z</time>
      </trkpt>
      <trkpt lat="44.30756" lon="6.79679">
        <ele>2425</ele>
        <time>2019-02-17T12:47:46.000Z</time>
      </trkpt>
      <trkpt lat="44.30758" lon="6.79685">
        <ele>2424</ele>
        <time>2019-02-17T12:47:47.000Z</time>
      </trkpt>
      <trkpt lat="44.30763" lon="6.79703">
        <ele>2422.1999511719</ele>
        <time>2019-02-17T12:47:49.000Z</time>
      </trkpt>
      <trkpt lat="44.30767" lon="6.79725">
        <ele>2420.1999511719</ele>
        <time>2019-02-17T12:47:51.000Z</time>
      </trkpt>
      <trkpt lat="44.30769" lon="6.79736">
        <ele>2419</ele>
        <time>2019-02-17T12:47:52.000Z</time>
      </trkpt>
      <trkpt lat="44.30771" lon="6.79747">
        <ele>2417.8000488281</ele>
        <time>2019-02-17T12:47:53.000Z</time>
      </trkpt>
      <trkpt lat="44.30775" lon="6.79756">
        <ele>2416.8000488281</ele>
        <time>2019-02-17T12:47:54.000Z</time>
      </trkpt>
      <trkpt lat="44.30783" lon="6.79772">
        <ele>2415</ele>
        <time>2019-02-17T12:47:56.000Z</time>
      </trkpt>
      <trkpt lat="44.30788" lon="6.7979">
        <ele>2413.8000488281</ele>
        <time>2019-02-17T12:47:58.000Z</time>
      </trkpt>
      <trkpt lat="44.30792" lon="6.7981">
        <ele>2412.3999023438</ele>
        <time>2019-02-17T12:48:00.000Z</time>
      </trkpt>
      <trkpt lat="44.30796" lon="6.79831">
        <ele>2410.6000976562</ele>
        <time>2019-02-17T12:48:02.000Z</time>
      </trkpt>
      <trkpt lat="44.30798" lon="6.79853">
        <ele>2408.8000488281</ele>
        <time>2019-02-17T12:48:04.000Z</time>
      </trkpt>
      <trkpt lat="44.30798" lon="6.79871">
        <ele>2407.3999023438</ele>
        <time>2019-02-17T12:48:06.000Z</time>
      </trkpt>
      <trkpt lat="44.30798" lon="6.79886">
        <ele>2406</ele>
        <time>2019-02-17T12:48:08.000Z</time>
      </trkpt>
      <trkpt lat="44.30797" lon="6.79901">
        <ele>2404.8000488281</ele>
        <time>2019-02-17T12:48:11.000Z</time>
      </trkpt>
      <trkpt lat="44.30796" lon="6.79928">
        <ele>2403.6000976562</ele>
        <time>2019-02-17T12:48:17.000Z</time>
      </trkpt>
      <trkpt lat="44.30796" lon="6.79942">
        <ele>2402.6000976562</ele>
        <time>2019-02-17T12:48:21.000Z</time>
      </trkpt>
      <trkpt lat="44.30797" lon="6.7995">
        <ele>2402.1999511719</ele>
        <time>2019-02-17T12:48:26.000Z</time>
      </trkpt>
      <trkpt lat="44.30796" lon="6.79949">
        <ele>2401.8000488281</ele>
        <time>2019-02-17T12:48:32.000Z</time>
      </trkpt>
      <trkpt lat="44.308" lon="6.79959">
        <ele>2401.8000488281</ele>
        <time>2019-02-17T12:48:50.000Z</time>
      </trkpt>
      <trkpt lat="44.30802" lon="6.79969">
        <ele>2401.3999023438</ele>
        <time>2019-02-17T12:48:54.000Z</time>
      </trkpt>
      <trkpt lat="44.30802" lon="6.79979">
        <ele>2400.8000488281</ele>
        <time>2019-02-17T12:48:59.000Z</time>
      </trkpt>
      <trkpt lat="44.30805" lon="6.79983">
        <ele>2400.1999511719</ele>
        <time>2019-02-17T12:49:01.000Z</time>
      </trkpt>
      <trkpt lat="44.30807" lon="6.79986">
        <ele>2400</ele>
        <time>2019-02-17T12:49:02.000Z</time>
      </trkpt>
      <trkpt lat="44.30807" lon="6.79992">
        <ele>2399</ele>
        <time>2019-02-17T12:49:05.000Z</time>
      </trkpt>
      <trkpt lat="44.30809" lon="6.80005">
        <ele>2397.6000976562</ele>
        <time>2019-02-17T12:49:09.000Z</time>
      </trkpt>
      <trkpt lat="44.30809" lon="6.80007">
        <ele>2396.6000976562</ele>
        <time>2019-02-17T12:49:12.000Z</time>
      </trkpt>
      <trkpt lat="44.3081" lon="6.80018">
        <ele>2395.6000976562</ele>
        <time>2019-02-17T12:49:23.000Z</time>
      </trkpt>
      <trkpt lat="44.3081" lon="6.8002">
        <ele>2394.3999023438</ele>
        <time>2019-02-17T12:49:26.000Z</time>
      </trkpt>
      <trkpt lat="44.30811" lon="6.80023">
        <ele>2393.8000488281</ele>
        <time>2019-02-17T12:49:29.000Z</time>
      </trkpt>
      <trkpt lat="44.30811" lon="6.80028">
        <ele>2393.3999023438</ele>
        <time>2019-02-17T12:49:31.000Z</time>
      </trkpt>
      <trkpt lat="44.30811" lon="6.80028">
        <ele>2393.1999511719</ele>
        <time>2019-02-17T12:49:32.000Z</time>
      </trkpt>
      <trkpt lat="44.30813" lon="6.80034">
        <ele>2392.1999511719</ele>
        <time>2019-02-17T12:49:56.000Z</time>
      </trkpt>
      <trkpt lat="44.30812" lon="6.80046">
        <ele>2391</ele>
        <time>2019-02-17T12:50:04.000Z</time>
      </trkpt>
      <trkpt lat="44.30813" lon="6.80055">
        <ele>2390</ele>
        <time>2019-02-17T12:50:07.000Z</time>
      </trkpt>
      <trkpt lat="44.30813" lon="6.80063">
        <ele>2388.6000976562</ele>
        <time>2019-02-17T12:50:09.000Z</time>
      </trkpt>
      <trkpt lat="44.30813" lon="6.80072">
        <ele>2387.3999023438</ele>
        <time>2019-02-17T12:50:11.000Z</time>
      </trkpt>
      <trkpt lat="44.30812" lon="6.8008">
        <ele>2386.3999023438</ele>
        <time>2019-02-17T12:50:14.000Z</time>
      </trkpt>
      <trkpt lat="44.30814" lon="6.80091">
        <ele>2385</ele>
        <time>2019-02-17T12:50:17.000Z</time>
      </trkpt>
      <trkpt lat="44.30814" lon="6.80097">
        <ele>2383.6000976562</ele>
        <time>2019-02-17T12:50:19.000Z</time>
      </trkpt>
      <trkpt lat="44.30814" lon="6.80098">
        <ele>2382.1999511719</ele>
        <time>2019-02-17T12:50:21.000Z</time>
      </trkpt>
      <trkpt lat="44.30813" lon="6.80101">
        <ele>2381.6000976562</ele>
        <time>2019-02-17T12:50:23.000Z</time>
      </trkpt>
      <trkpt lat="44.30814" lon="6.80104">
        <ele>2381.1999511719</ele>
        <time>2019-02-17T12:50:25.000Z</time>
      </trkpt>
      <trkpt lat="44.30819" lon="6.80106">
        <ele>2380.6000976562</ele>
        <time>2019-02-17T12:50:27.000Z</time>
      </trkpt>
      <trkpt lat="44.30821" lon="6.8011">
        <ele>2380</ele>
        <time>2019-02-17T12:50:29.000Z</time>
      </trkpt>
      <trkpt lat="44.30821" lon="6.80112">
        <ele>2379</ele>
        <time>2019-02-17T12:50:33.000Z</time>
      </trkpt>
      <trkpt lat="44.30817" lon="6.8012">
        <ele>2378.6000976562</ele>
        <time>2019-02-17T12:50:43.000Z</time>
      </trkpt>
      <trkpt lat="44.30814" lon="6.80125">
        <ele>2377.8000488281</ele>
        <time>2019-02-17T12:50:47.000Z</time>
      </trkpt>
      <trkpt lat="44.30813" lon="6.80128">
        <ele>2376.8000488281</ele>
        <time>2019-02-17T12:51:38.000Z</time>
      </trkpt>
      <trkpt lat="44.30811" lon="6.8013">
        <ele>2376.6000976562</ele>
        <time>2019-02-17T12:51:39.000Z</time>
      </trkpt>
      <trkpt lat="44.30803" lon="6.80136">
        <ele>2375.6000976562</ele>
        <time>2019-02-17T12:51:43.000Z</time>
      </trkpt>
      <trkpt lat="44.30798" lon="6.80142">
        <ele>2374.1999511719</ele>
        <time>2019-02-17T12:51:46.000Z</time>
      </trkpt>
      <trkpt lat="44.30792" lon="6.80148">
        <ele>2372.8000488281</ele>
        <time>2019-02-17T12:51:49.000Z</time>
      </trkpt>
      <trkpt lat="44.30791" lon="6.8015">
        <ele>2371.8000488281</ele>
        <time>2019-02-17T12:51:51.000Z</time>
      </trkpt>
      <trkpt lat="44.30791" lon="6.80151">
        <ele>2370.6000976562</ele>
        <time>2019-02-17T12:51:56.000Z</time>
      </trkpt>
      <trkpt lat="44.30785" lon="6.80155">
        <ele>2370.1999511719</ele>
        <time>2019-02-17T12:52:04.000Z</time>
      </trkpt>
      <trkpt lat="44.3078" lon="6.8016">
        <ele>2369.6000976562</ele>
        <time>2019-02-17T12:52:06.000Z</time>
      </trkpt>
      <trkpt lat="44.30775" lon="6.80163">
        <ele>2368.3999023438</ele>
        <time>2019-02-17T12:52:08.000Z</time>
      </trkpt>
      <trkpt lat="44.30772" lon="6.80165">
        <ele>2367</ele>
        <time>2019-02-17T12:52:10.000Z</time>
      </trkpt>
      <trkpt lat="44.30768" lon="6.80167">
        <ele>2365.6000976562</ele>
        <time>2019-02-17T12:52:13.000Z</time>
      </trkpt>
      <trkpt lat="44.3076" lon="6.8017">
        <ele>2364.3999023438</ele>
        <time>2019-02-17T12:52:17.000Z</time>
      </trkpt>
      <trkpt lat="44.30765" lon="6.80184">
        <ele>2363</ele>
        <time>2019-02-17T12:52:20.000Z</time>
      </trkpt>
      <trkpt lat="44.30766" lon="6.80188">
        <ele>2361.8000488281</ele>
        <time>2019-02-17T12:52:21.000Z</time>
      </trkpt>
      <trkpt lat="44.30766" lon="6.80193">
        <ele>2360.6000976562</ele>
        <time>2019-02-17T12:52:22.000Z</time>
      </trkpt>
      <trkpt lat="44.30765" lon="6.80199">
        <ele>2359.3999023438</ele>
        <time>2019-02-17T12:52:23.000Z</time>
      </trkpt>
      <trkpt lat="44.30765" lon="6.80203">
        <ele>2358</ele>
        <time>2019-02-17T12:52:24.000Z</time>
      </trkpt>
      <trkpt lat="44.30767" lon="6.8021">
        <ele>2356.8000488281</ele>
        <time>2019-02-17T12:52:25.000Z</time>
      </trkpt>
      <trkpt lat="44.3077" lon="6.80215">
        <ele>2355.3999023438</ele>
        <time>2019-02-17T12:52:26.000Z</time>
      </trkpt>
      <trkpt lat="44.30773" lon="6.8022">
        <ele>2354.1999511719</ele>
        <time>2019-02-17T12:52:27.000Z</time>
      </trkpt>
      <trkpt lat="44.30775" lon="6.80224">
        <ele>2353</ele>
        <time>2019-02-17T12:52:28.000Z</time>
      </trkpt>
      <trkpt lat="44.30779" lon="6.8023">
        <ele>2351.6000976562</ele>
        <time>2019-02-17T12:52:30.000Z</time>
      </trkpt>
      <trkpt lat="44.30781" lon="6.80239">
        <ele>2350.8000488281</ele>
        <time>2019-02-17T12:52:33.000Z</time>
      </trkpt>
      <trkpt lat="44.30778" lon="6.80244">
        <ele>2350.3999023438</ele>
        <time>2019-02-17T12:52:35.000Z</time>
      </trkpt>
      <trkpt lat="44.30773" lon="6.80251">
        <ele>2349</ele>
        <time>2019-02-17T12:52:37.000Z</time>
      </trkpt>
      <trkpt lat="44.30774" lon="6.80256">
        <ele>2347.8000488281</ele>
        <time>2019-02-17T12:52:38.000Z</time>
      </trkpt>
      <trkpt lat="44.30775" lon="6.80261">
        <ele>2346.3999023438</ele>
        <time>2019-02-17T12:52:39.000Z</time>
      </trkpt>
      <trkpt lat="44.30777" lon="6.8027">
        <ele>2345</ele>
        <time>2019-02-17T12:52:40.000Z</time>
      </trkpt>
      <trkpt lat="44.30774" lon="6.80273">
        <ele>2344</ele>
        <time>2019-02-17T12:52:41.000Z</time>
      </trkpt>
      <trkpt lat="44.30771" lon="6.80275">
        <ele>2342.8000488281</ele>
        <time>2019-02-17T12:52:42.000Z</time>
      </trkpt>
      <trkpt lat="44.30768" lon="6.80275">
        <ele>2341.3999023438</ele>
        <time>2019-02-17T12:52:43.000Z</time>
      </trkpt>
      <trkpt lat="44.30765" lon="6.80276">
        <ele>2340.1999511719</ele>
        <time>2019-02-17T12:52:44.000Z</time>
      </trkpt>
      <trkpt lat="44.30756" lon="6.80277">
        <ele>2338.6000976562</ele>
        <time>2019-02-17T12:52:46.000Z</time>
      </trkpt>
      <trkpt lat="44.3075" lon="6.80279">
        <ele>2337.6000976562</ele>
        <time>2019-02-17T12:52:48.000Z</time>
      </trkpt>
      <trkpt lat="44.30745" lon="6.8028">
        <ele>2336.6000976562</ele>
        <time>2019-02-17T12:52:51.000Z</time>
      </trkpt>
      <trkpt lat="44.30741" lon="6.80286">
        <ele>2336</ele>
        <time>2019-02-17T12:52:56.000Z</time>
      </trkpt>
      <trkpt lat="44.30737" lon="6.8029">
        <ele>2335.6000976562</ele>
        <time>2019-02-17T12:52:58.000Z</time>
      </trkpt>
      <trkpt lat="44.30731" lon="6.80294">
        <ele>2334.1999511719</ele>
        <time>2019-02-17T12:53:01.000Z</time>
      </trkpt>
      <trkpt lat="44.3073" lon="6.80295">
        <ele>2333.6000976562</ele>
        <time>2019-02-17T12:53:03.000Z</time>
      </trkpt>
      <trkpt lat="44.3073" lon="6.80295">
        <ele>2333.1999511719</ele>
        <time>2019-02-17T12:53:05.000Z</time>
      </trkpt>
      <trkpt lat="44.30728" lon="6.80312">
        <ele>2332.3999023438</ele>
        <time>2019-02-17T12:53:37.000Z</time>
      </trkpt>
      <trkpt lat="44.30726" lon="6.80317">
        <ele>2332.1999511719</ele>
        <time>2019-02-17T12:53:38.000Z</time>
      </trkpt>
      <trkpt lat="44.30722" lon="6.80328">
        <ele>2331</ele>
        <time>2019-02-17T12:53:40.000Z</time>
      </trkpt>
      <trkpt lat="44.30718" lon="6.80339">
        <ele>2329.6000976562</ele>
        <time>2019-02-17T12:53:42.000Z</time>
      </trkpt>
      <trkpt lat="44.30716" lon="6.80348">
        <ele>2328.1999511719</ele>
        <time>2019-02-17T12:53:44.000Z</time>
      </trkpt>
      <trkpt lat="44.30714" lon="6.80359">
        <ele>2327</ele>
        <time>2019-02-17T12:53:46.000Z</time>
      </trkpt>
      <trkpt lat="44.30712" lon="6.80368">
        <ele>2325.8000488281</ele>
        <time>2019-02-17T12:53:48.000Z</time>
      </trkpt>
      <trkpt lat="44.30712" lon="6.8037">
        <ele>2324.6000976562</ele>
        <time>2019-02-17T12:53:50.000Z</time>
      </trkpt>
      <trkpt lat="44.30712" lon="6.80373">
        <ele>2323.3999023438</ele>
        <time>2019-02-17T12:53:55.000Z</time>
      </trkpt>
      <trkpt lat="44.30712" lon="6.80375">
        <ele>2323.3999023438</ele>
        <time>2019-02-17T12:53:56.000Z</time>
      </trkpt>
      <trkpt lat="44.3072" lon="6.8038">
        <ele>2322.1999511719</ele>
        <time>2019-02-17T12:54:00.000Z</time>
      </trkpt>
      <trkpt lat="44.30726" lon="6.8038">
        <ele>2321</ele>
        <time>2019-02-17T12:54:02.000Z</time>
      </trkpt>
      <trkpt lat="44.30726" lon="6.8039">
        <ele>2319.8000488281</ele>
        <time>2019-02-17T12:54:04.000Z</time>
      </trkpt>
      <trkpt lat="44.30724" lon="6.80402">
        <ele>2318.1999511719</ele>
        <time>2019-02-17T12:54:06.000Z</time>
      </trkpt>
      <trkpt lat="44.30723" lon="6.80406">
        <ele>2316.3999023438</ele>
        <time>2019-02-17T12:54:08.000Z</time>
      </trkpt>
      <trkpt lat="44.30723" lon="6.80406">
        <ele>2315.1999511719</ele>
        <time>2019-02-17T12:54:10.000Z</time>
      </trkpt>
      <trkpt lat="44.30724" lon="6.80413">
        <ele>2314.3999023438</ele>
        <time>2019-02-17T12:54:19.000Z</time>
      </trkpt>
      <trkpt lat="44.30722" lon="6.80422">
        <ele>2313.8000488281</ele>
        <time>2019-02-17T12:54:21.000Z</time>
      </trkpt>
      <trkpt lat="44.3072" lon="6.80431">
        <ele>2312.8000488281</ele>
        <time>2019-02-17T12:54:23.000Z</time>
      </trkpt>
      <trkpt lat="44.30718" lon="6.80437">
        <ele>2311.3999023438</ele>
        <time>2019-02-17T12:54:25.000Z</time>
      </trkpt>
      <trkpt lat="44.30717" lon="6.8044">
        <ele>2310.3999023438</ele>
        <time>2019-02-17T12:54:27.000Z</time>
      </trkpt>
      <trkpt lat="44.30718" lon="6.80441">
        <ele>2309.1999511719</ele>
        <time>2019-02-17T12:54:31.000Z</time>
      </trkpt>
      <trkpt lat="44.30718" lon="6.80444">
        <ele>2308.1999511719</ele>
        <time>2019-02-17T12:54:36.000Z</time>
      </trkpt>
      <trkpt lat="44.30718" lon="6.80462">
        <ele>2307.1999511719</ele>
        <time>2019-02-17T12:55:07.000Z</time>
      </trkpt>
      <trkpt lat="44.30717" lon="6.80466">
        <ele>2306.8000488281</ele>
        <time>2019-02-17T12:55:08.000Z</time>
      </trkpt>
      <trkpt lat="44.30714" lon="6.80477">
        <ele>2305.6000976562</ele>
        <time>2019-02-17T12:55:11.000Z</time>
      </trkpt>
      <trkpt lat="44.30711" lon="6.80489">
        <ele>2304.3999023438</ele>
        <time>2019-02-17T12:55:14.000Z</time>
      </trkpt>
      <trkpt lat="44.30707" lon="6.80498">
        <ele>2303</ele>
        <time>2019-02-17T12:55:17.000Z</time>
      </trkpt>
      <trkpt lat="44.30704" lon="6.80501">
        <ele>2301.6000976562</ele>
        <time>2019-02-17T12:55:20.000Z</time>
      </trkpt>
      <trkpt lat="44.30701" lon="6.80511">
        <ele>2300.6000976562</ele>
        <time>2019-02-17T12:55:43.000Z</time>
      </trkpt>
      <trkpt lat="44.307" lon="6.80515">
        <ele>2300.3999023438</ele>
        <time>2019-02-17T12:55:44.000Z</time>
      </trkpt>
      <trkpt lat="44.30694" lon="6.80522">
        <ele>2299</ele>
        <time>2019-02-17T12:55:47.000Z</time>
      </trkpt>
      <trkpt lat="44.30686" lon="6.80527">
        <ele>2297.8000488281</ele>
        <time>2019-02-17T12:55:50.000Z</time>
      </trkpt>
      <trkpt lat="44.30686" lon="6.80535">
        <ele>2297</ele>
        <time>2019-02-17T12:55:52.000Z</time>
      </trkpt>
      <trkpt lat="44.30688" lon="6.8054">
        <ele>2296.3999023438</ele>
        <time>2019-02-17T12:55:53.000Z</time>
      </trkpt>
      <trkpt lat="44.3069" lon="6.80548">
        <ele>2294.6000976562</ele>
        <time>2019-02-17T12:55:55.000Z</time>
      </trkpt>
      <trkpt lat="44.30687" lon="6.80557">
        <ele>2293.1999511719</ele>
        <time>2019-02-17T12:55:57.000Z</time>
      </trkpt>
      <trkpt lat="44.3069" lon="6.8057">
        <ele>2291.6000976562</ele>
        <time>2019-02-17T12:55:59.000Z</time>
      </trkpt>
      <trkpt lat="44.3069" lon="6.80576">
        <ele>2291</ele>
        <time>2019-02-17T12:56:00.000Z</time>
      </trkpt>
      <trkpt lat="44.30689" lon="6.80582">
        <ele>2290</ele>
        <time>2019-02-17T12:56:01.000Z</time>
      </trkpt>
      <trkpt lat="44.30685" lon="6.80594">
        <ele>2288.1999511719</ele>
        <time>2019-02-17T12:56:03.000Z</time>
      </trkpt>
      <trkpt lat="44.30684" lon="6.80606">
        <ele>2286.3999023438</ele>
        <time>2019-02-17T12:56:05.000Z</time>
      </trkpt>
      <trkpt lat="44.30681" lon="6.8061">
        <ele>2285.3999023438</ele>
        <time>2019-02-17T12:56:07.000Z</time>
      </trkpt>
      <trkpt lat="44.30681" lon="6.8061">
        <ele>2285</ele>
        <time>2019-02-17T12:56:08.000Z</time>
      </trkpt>
      <trkpt lat="44.30681" lon="6.80609">
        <ele>2284</ele>
        <time>2019-02-17T12:56:10.000Z</time>
      </trkpt>
      <trkpt lat="44.30678" lon="6.80611">
        <ele>2283.6000976562</ele>
        <time>2019-02-17T12:56:13.000Z</time>
      </trkpt>
      <trkpt lat="44.30674" lon="6.80615">
        <ele>2283.1999511719</ele>
        <time>2019-02-17T12:56:15.000Z</time>
      </trkpt>
      <trkpt lat="44.30672" lon="6.8062">
        <ele>2283</ele>
        <time>2019-02-17T12:56:16.000Z</time>
      </trkpt>
      <trkpt lat="44.30671" lon="6.80626">
        <ele>2282.8000488281</ele>
        <time>2019-02-17T12:56:17.000Z</time>
      </trkpt>
      <trkpt lat="44.30668" lon="6.80641">
        <ele>2281.6000976562</ele>
        <time>2019-02-17T12:56:19.000Z</time>
      </trkpt>
      <trkpt lat="44.30666" lon="6.80656">
        <ele>2280.1999511719</ele>
        <time>2019-02-17T12:56:21.000Z</time>
      </trkpt>
      <trkpt lat="44.30665" lon="6.8067">
        <ele>2279</ele>
        <time>2019-02-17T12:56:23.000Z</time>
      </trkpt>
      <trkpt lat="44.30665" lon="6.80682">
        <ele>2278.6000976562</ele>
        <time>2019-02-17T12:56:27.000Z</time>
      </trkpt>
      <trkpt lat="44.30656" lon="6.80681">
        <ele>2278.6000976562</ele>
        <time>2019-02-17T12:56:41.000Z</time>
      </trkpt>
      <trkpt lat="44.30649" lon="6.80681">
        <ele>2278</ele>
        <time>2019-02-17T12:56:44.000Z</time>
      </trkpt>
      <trkpt lat="44.30647" lon="6.80682">
        <ele>2277.6000976562</ele>
        <time>2019-02-17T12:56:45.000Z</time>
      </trkpt>
      <trkpt lat="44.30642" lon="6.80685">
        <ele>2276.6000976562</ele>
        <time>2019-02-17T12:56:47.000Z</time>
      </trkpt>
      <trkpt lat="44.30635" lon="6.80684">
        <ele>2275.6000976562</ele>
        <time>2019-02-17T12:56:49.000Z</time>
      </trkpt>
      <trkpt lat="44.30633" lon="6.80683">
        <ele>2274.3999023438</ele>
        <time>2019-02-17T12:56:51.000Z</time>
      </trkpt>
      <trkpt lat="44.30634" lon="6.80684">
        <ele>2273.1999511719</ele>
        <time>2019-02-17T12:56:54.000Z</time>
      </trkpt>
      <trkpt lat="44.3063" lon="6.80687">
        <ele>2272.6000976562</ele>
        <time>2019-02-17T12:57:00.000Z</time>
      </trkpt>
      <trkpt lat="44.3062" lon="6.80689">
        <ele>2271.8000488281</ele>
        <time>2019-02-17T12:57:03.000Z</time>
      </trkpt>
      <trkpt lat="44.30614" lon="6.80691">
        <ele>2270.3999023438</ele>
        <time>2019-02-17T12:57:05.000Z</time>
      </trkpt>
      <trkpt lat="44.30611" lon="6.80692">
        <ele>2269.8000488281</ele>
        <time>2019-02-17T12:57:06.000Z</time>
      </trkpt>
      <trkpt lat="44.3061" lon="6.80695">
        <ele>2269.3999023438</ele>
        <time>2019-02-17T12:57:07.000Z</time>
      </trkpt>
      <trkpt lat="44.30612" lon="6.80703">
        <ele>2267.8000488281</ele>
        <time>2019-02-17T12:57:09.000Z</time>
      </trkpt>
      <trkpt lat="44.30615" lon="6.80708">
        <ele>2266.6000976562</ele>
        <time>2019-02-17T12:57:10.000Z</time>
      </trkpt>
      <trkpt lat="44.30621" lon="6.80719">
        <ele>2265</ele>
        <time>2019-02-17T12:57:12.000Z</time>
      </trkpt>
      <trkpt lat="44.30627" lon="6.80731">
        <ele>2263.6000976562</ele>
        <time>2019-02-17T12:57:14.000Z</time>
      </trkpt>
      <trkpt lat="44.30632" lon="6.80741">
        <ele>2261.6000976562</ele>
        <time>2019-02-17T12:57:16.000Z</time>
      </trkpt>
      <trkpt lat="44.30637" lon="6.80749">
        <ele>2260</ele>
        <time>2019-02-17T12:57:18.000Z</time>
      </trkpt>
      <trkpt lat="44.30637" lon="6.80755">
        <ele>2259.3999023438</ele>
        <time>2019-02-17T12:57:19.000Z</time>
      </trkpt>
      <trkpt lat="44.30635" lon="6.80758">
        <ele>2259</ele>
        <time>2019-02-17T12:57:20.000Z</time>
      </trkpt>
      <trkpt lat="44.30628" lon="6.80766">
        <ele>2257.1999511719</ele>
        <time>2019-02-17T12:57:22.000Z</time>
      </trkpt>
      <trkpt lat="44.30628" lon="6.80771">
        <ele>2255.8000488281</ele>
        <time>2019-02-17T12:57:23.000Z</time>
      </trkpt>
      <trkpt lat="44.30631" lon="6.80777">
        <ele>2254.6000976562</ele>
        <time>2019-02-17T12:57:24.000Z</time>
      </trkpt>
      <trkpt lat="44.30634" lon="6.80782">
        <ele>2253.3999023438</ele>
        <time>2019-02-17T12:57:25.000Z</time>
      </trkpt>
      <trkpt lat="44.30637" lon="6.80786">
        <ele>2252.1999511719</ele>
        <time>2019-02-17T12:57:26.000Z</time>
      </trkpt>
      <trkpt lat="44.30642" lon="6.80791">
        <ele>2251</ele>
        <time>2019-02-17T12:57:28.000Z</time>
      </trkpt>
      <trkpt lat="44.30647" lon="6.80797">
        <ele>2250</ele>
        <time>2019-02-17T12:57:37.000Z</time>
      </trkpt>
      <trkpt lat="44.30648" lon="6.80798">
        <ele>2249.8000488281</ele>
        <time>2019-02-17T12:57:38.000Z</time>
      </trkpt>
      <trkpt lat="44.30655" lon="6.80807">
        <ele>2249</ele>
        <time>2019-02-17T12:58:53.000Z</time>
      </trkpt>
      <trkpt lat="44.30657" lon="6.80815">
        <ele>2248.8000488281</ele>
        <time>2019-02-17T12:58:55.000Z</time>
      </trkpt>
      <trkpt lat="44.30655" lon="6.80823">
        <ele>2247.8000488281</ele>
        <time>2019-02-17T12:58:57.000Z</time>
      </trkpt>
      <trkpt lat="44.30658" lon="6.80828">
        <ele>2246.8000488281</ele>
        <time>2019-02-17T12:58:58.000Z</time>
      </trkpt>
      <trkpt lat="44.30663" lon="6.80838">
        <ele>2244.8000488281</ele>
        <time>2019-02-17T12:59:00.000Z</time>
      </trkpt>
      <trkpt lat="44.30663" lon="6.80843">
        <ele>2243.6000976562</ele>
        <time>2019-02-17T12:59:01.000Z</time>
      </trkpt>
      <trkpt lat="44.30661" lon="6.80849">
        <ele>2242</ele>
        <time>2019-02-17T12:59:02.000Z</time>
      </trkpt>
      <trkpt lat="44.30661" lon="6.80853">
        <ele>2240.6000976562</ele>
        <time>2019-02-17T12:59:03.000Z</time>
      </trkpt>
      <trkpt lat="44.30663" lon="6.80857">
        <ele>2239</ele>
        <time>2019-02-17T12:59:04.000Z</time>
      </trkpt>
      <trkpt lat="44.30664" lon="6.80861">
        <ele>2237.6000976562</ele>
        <time>2019-02-17T12:59:05.000Z</time>
      </trkpt>
      <trkpt lat="44.30663" lon="6.80867">
        <ele>2236.1999511719</ele>
        <time>2019-02-17T12:59:06.000Z</time>
      </trkpt>
      <trkpt lat="44.30661" lon="6.80872">
        <ele>2234.8000488281</ele>
        <time>2019-02-17T12:59:07.000Z</time>
      </trkpt>
      <trkpt lat="44.30658" lon="6.80875">
        <ele>2233.1999511719</ele>
        <time>2019-02-17T12:59:08.000Z</time>
      </trkpt>
      <trkpt lat="44.30657" lon="6.80877">
        <ele>2231.6000976562</ele>
        <time>2019-02-17T12:59:09.000Z</time>
      </trkpt>
      <trkpt lat="44.30655" lon="6.80878">
        <ele>2230.3999023438</ele>
        <time>2019-02-17T12:59:10.000Z</time>
      </trkpt>
      <trkpt lat="44.30655" lon="6.80878">
        <ele>2229.6000976562</ele>
        <time>2019-02-17T12:59:11.000Z</time>
      </trkpt>
      <trkpt lat="44.30655" lon="6.80878">
        <ele>2229.1999511719</ele>
        <time>2019-02-17T12:59:12.000Z</time>
      </trkpt>
      <trkpt lat="44.3065" lon="6.80888">
        <ele>2228.3999023438</ele>
        <time>2019-02-17T12:59:47.000Z</time>
      </trkpt>
      <trkpt lat="44.30649" lon="6.80891">
        <ele>2228.1999511719</ele>
        <time>2019-02-17T12:59:48.000Z</time>
      </trkpt>
      <trkpt lat="44.30641" lon="6.80908">
        <ele>2227</ele>
        <time>2019-02-17T12:59:52.000Z</time>
      </trkpt>
      <trkpt lat="44.30636" lon="6.8092">
        <ele>2225.8000488281</ele>
        <time>2019-02-17T12:59:55.000Z</time>
      </trkpt>
      <trkpt lat="44.30629" lon="6.80931">
        <ele>2225.3999023438</ele>
        <time>2019-02-17T13:00:03.000Z</time>
      </trkpt>
      <trkpt lat="44.30622" lon="6.80938">
        <ele>2224.6000976562</ele>
        <time>2019-02-17T13:00:07.000Z</time>
      </trkpt>
      <trkpt lat="44.30615" lon="6.80945">
        <ele>2223.1999511719</ele>
        <time>2019-02-17T13:00:11.000Z</time>
      </trkpt>
      <trkpt lat="44.30615" lon="6.80945">
        <ele>2222.1999511719</ele>
        <time>2019-02-17T13:00:16.000Z</time>
      </trkpt>
      <trkpt lat="44.30613" lon="6.80953">
        <ele>2222.1999511719</ele>
        <time>2019-02-17T13:00:23.000Z</time>
      </trkpt>
      <trkpt lat="44.30616" lon="6.80956">
        <ele>2221.6000976562</ele>
        <time>2019-02-17T13:00:25.000Z</time>
      </trkpt>
      <trkpt lat="44.30618" lon="6.80955">
        <ele>2221</ele>
        <time>2019-02-17T13:00:26.000Z</time>
      </trkpt>
      <trkpt lat="44.30618" lon="6.80955">
        <ele>2220.3999023438</ele>
        <time>2019-02-17T13:00:28.000Z</time>
      </trkpt>
      <trkpt lat="44.30618" lon="6.80954">
        <ele>2219.8000488281</ele>
        <time>2019-02-17T13:00:30.000Z</time>
      </trkpt>
      <trkpt lat="44.30622" lon="6.80962">
        <ele>2219</ele>
        <time>2019-02-17T13:01:44.000Z</time>
      </trkpt>
      <trkpt lat="44.30622" lon="6.80964">
        <ele>2219</ele>
        <time>2019-02-17T13:01:46.000Z</time>
      </trkpt>
      <trkpt lat="44.30622" lon="6.80964">
        <ele>2217.8000488281</ele>
        <time>2019-02-17T13:01:47.000Z</time>
      </trkpt>
      <trkpt lat="44.30621" lon="6.80964">
        <ele>2216.8000488281</ele>
        <time>2019-02-17T13:01:51.000Z</time>
      </trkpt>
      <trkpt lat="44.30625" lon="6.80976">
        <ele>2215.6000976562</ele>
        <time>2019-02-17T13:02:03.000Z</time>
      </trkpt>
      <trkpt lat="44.30628" lon="6.80978">
        <ele>2214.3999023438</ele>
        <time>2019-02-17T13:02:05.000Z</time>
      </trkpt>
      <trkpt lat="44.30631" lon="6.80979">
        <ele>2213.1999511719</ele>
        <time>2019-02-17T13:02:07.000Z</time>
      </trkpt>
      <trkpt lat="44.30631" lon="6.80983">
        <ele>2212.1999511719</ele>
        <time>2019-02-17T13:02:09.000Z</time>
      </trkpt>
      <trkpt lat="44.3063" lon="6.80983">
        <ele>2211</ele>
        <time>2019-02-17T13:02:11.000Z</time>
      </trkpt>
      <trkpt lat="44.30629" lon="6.80983">
        <ele>2210</ele>
        <time>2019-02-17T13:02:15.000Z</time>
      </trkpt>
      <trkpt lat="44.3063" lon="6.80992">
        <ele>2208.6000976562</ele>
        <time>2019-02-17T13:02:23.000Z</time>
      </trkpt>
      <trkpt lat="44.30628" lon="6.80997">
        <ele>2207.3999023438</ele>
        <time>2019-02-17T13:02:25.000Z</time>
      </trkpt>
      <trkpt lat="44.30627" lon="6.80998">
        <ele>2205.6000976562</ele>
        <time>2019-02-17T13:02:27.000Z</time>
      </trkpt>
      <trkpt lat="44.30627" lon="6.80998">
        <ele>2204.1999511719</ele>
        <time>2019-02-17T13:02:29.000Z</time>
      </trkpt>
      <trkpt lat="44.30625" lon="6.80999">
        <ele>2203</ele>
        <time>2019-02-17T13:02:36.000Z</time>
      </trkpt>
      <trkpt lat="44.30621" lon="6.80999">
        <ele>2202.1999511719</ele>
        <time>2019-02-17T13:02:38.000Z</time>
      </trkpt>
      <trkpt lat="44.30619" lon="6.81">
        <ele>2201.6000976562</ele>
        <time>2019-02-17T13:02:39.000Z</time>
      </trkpt>
      <trkpt lat="44.30614" lon="6.81002">
        <ele>2199.8000488281</ele>
        <time>2019-02-17T13:02:41.000Z</time>
      </trkpt>
      <trkpt lat="44.3061" lon="6.81004">
        <ele>2198.6000976562</ele>
        <time>2019-02-17T13:02:42.000Z</time>
      </trkpt>
      <trkpt lat="44.30607" lon="6.81005">
        <ele>2197.1999511719</ele>
        <time>2019-02-17T13:02:43.000Z</time>
      </trkpt>
      <trkpt lat="44.30604" lon="6.81007">
        <ele>2195.6000976562</ele>
        <time>2019-02-17T13:02:44.000Z</time>
      </trkpt>
      <trkpt lat="44.30602" lon="6.81008">
        <ele>2194.3999023438</ele>
        <time>2019-02-17T13:02:45.000Z</time>
      </trkpt>
      <trkpt lat="44.306" lon="6.81009">
        <ele>2193.3999023438</ele>
        <time>2019-02-17T13:02:46.000Z</time>
      </trkpt>
      <trkpt lat="44.30597" lon="6.81012">
        <ele>2191.8000488281</ele>
        <time>2019-02-17T13:02:48.000Z</time>
      </trkpt>
      <trkpt lat="44.30596" lon="6.81012">
        <ele>2191</ele>
        <time>2019-02-17T13:02:49.000Z</time>
      </trkpt>
      <trkpt lat="44.30596" lon="6.81012">
        <ele>2190.3999023438</ele>
        <time>2019-02-17T13:02:50.000Z</time>
      </trkpt>
      <trkpt lat="44.3059" lon="6.81018">
        <ele>2189.1999511719</ele>
        <time>2019-02-17T13:02:55.000Z</time>
      </trkpt>
      <trkpt lat="44.30586" lon="6.8102">
        <ele>2189</ele>
        <time>2019-02-17T13:02:56.000Z</time>
      </trkpt>
      <trkpt lat="44.30573" lon="6.81026">
        <ele>2188</ele>
        <time>2019-02-17T13:02:59.000Z</time>
      </trkpt>
      <trkpt lat="44.30566" lon="6.81029">
        <ele>2186.8000488281</ele>
        <time>2019-02-17T13:03:01.000Z</time>
      </trkpt>
      <trkpt lat="44.30556" lon="6.81033">
        <ele>2185.1999511719</ele>
        <time>2019-02-17T13:03:04.000Z</time>
      </trkpt>
      <trkpt lat="44.30548" lon="6.81037">
        <ele>2183.8000488281</ele>
        <time>2019-02-17T13:03:06.000Z</time>
      </trkpt>
      <trkpt lat="44.30545" lon="6.81038">
        <ele>2182.8000488281</ele>
        <time>2019-02-17T13:03:08.000Z</time>
      </trkpt>
      <trkpt lat="44.30545" lon="6.81039">
        <ele>2182.3999023438</ele>
        <time>2019-02-17T13:03:09.000Z</time>
      </trkpt>
      <trkpt lat="44.30545" lon="6.81044">
        <ele>2181.6000976562</ele>
        <time>2019-02-17T13:03:12.000Z</time>
      </trkpt>
      <trkpt lat="44.30538" lon="6.8105">
        <ele>2180.8000488281</ele>
        <time>2019-02-17T13:03:16.000Z</time>
      </trkpt>
      <trkpt lat="44.30535" lon="6.81052">
        <ele>2180.3999023438</ele>
        <time>2019-02-17T13:03:17.000Z</time>
      </trkpt>
      <trkpt lat="44.30529" lon="6.81054">
        <ele>2179.1999511719</ele>
        <time>2019-02-17T13:03:20.000Z</time>
      </trkpt>
      <trkpt lat="44.30529" lon="6.81053">
        <ele>2179</ele>
        <time>2019-02-17T13:03:21.000Z</time>
      </trkpt>
      <trkpt lat="44.30527" lon="6.81055">
        <ele>2178.1999511719</ele>
        <time>2019-02-17T13:03:25.000Z</time>
      </trkpt>
      <trkpt lat="44.30521" lon="6.81064">
        <ele>2177.6000976562</ele>
        <time>2019-02-17T13:03:28.000Z</time>
      </trkpt>
      <trkpt lat="44.30516" lon="6.81069">
        <ele>2176.8000488281</ele>
        <time>2019-02-17T13:03:30.000Z</time>
      </trkpt>
      <trkpt lat="44.30511" lon="6.81074">
        <ele>2175.8000488281</ele>
        <time>2019-02-17T13:03:32.000Z</time>
      </trkpt>
      <trkpt lat="44.30506" lon="6.81079">
        <ele>2174.8000488281</ele>
        <time>2019-02-17T13:03:34.000Z</time>
      </trkpt>
      <trkpt lat="44.30501" lon="6.81082">
        <ele>2173.3999023438</ele>
        <time>2019-02-17T13:03:37.000Z</time>
      </trkpt>
      <trkpt lat="44.30501" lon="6.81083">
        <ele>2172</ele>
        <time>2019-02-17T13:03:39.000Z</time>
      </trkpt>
      <trkpt lat="44.30491" lon="6.811">
        <ele>2171.6000976562</ele>
        <time>2019-02-17T13:04:27.000Z</time>
      </trkpt>
      <trkpt lat="44.30481" lon="6.81105">
        <ele>2170.6000976562</ele>
        <time>2019-02-17T13:04:31.000Z</time>
      </trkpt>
      <trkpt lat="44.30473" lon="6.81109">
        <ele>2169.6000976562</ele>
        <time>2019-02-17T13:04:34.000Z</time>
      </trkpt>
      <trkpt lat="44.30465" lon="6.81115">
        <ele>2168.6000976562</ele>
        <time>2019-02-17T13:04:36.000Z</time>
      </trkpt>
      <trkpt lat="44.30457" lon="6.81119">
        <ele>2167.6000976562</ele>
        <time>2019-02-17T13:04:38.000Z</time>
      </trkpt>
      <trkpt lat="44.30446" lon="6.81127">
        <ele>2165.8000488281</ele>
        <time>2019-02-17T13:04:41.000Z</time>
      </trkpt>
      <trkpt lat="44.30443" lon="6.8113">
        <ele>2165</ele>
        <time>2019-02-17T13:04:42.000Z</time>
      </trkpt>
      <trkpt lat="44.30442" lon="6.81134">
        <ele>2164.3999023438</ele>
        <time>2019-02-17T13:04:43.000Z</time>
      </trkpt>
      <trkpt lat="44.30442" lon="6.81136">
        <ele>2164</ele>
        <time>2019-02-17T13:04:44.000Z</time>
      </trkpt>
      <trkpt lat="44.30442" lon="6.81138">
        <ele>2163.3999023438</ele>
        <time>2019-02-17T13:04:46.000Z</time>
      </trkpt>
      <trkpt lat="44.3044" lon="6.81147">
        <ele>2162.1999511719</ele>
        <time>2019-02-17T13:05:02.000Z</time>
      </trkpt>
      <trkpt lat="44.3043" lon="6.81151">
        <ele>2160.6000976562</ele>
        <time>2019-02-17T13:05:05.000Z</time>
      </trkpt>
      <trkpt lat="44.30425" lon="6.81155">
        <ele>2159.3999023438</ele>
        <time>2019-02-17T13:05:07.000Z</time>
      </trkpt>
      <trkpt lat="44.30419" lon="6.81163">
        <ele>2158</ele>
        <time>2019-02-17T13:05:10.000Z</time>
      </trkpt>
      <trkpt lat="44.30415" lon="6.81167">
        <ele>2156.3999023438</ele>
        <time>2019-02-17T13:05:13.000Z</time>
      </trkpt>
      <trkpt lat="44.30412" lon="6.81168">
        <ele>2155.6000976562</ele>
        <time>2019-02-17T13:05:15.000Z</time>
      </trkpt>
      <trkpt lat="44.30411" lon="6.81169">
        <ele>2155.3999023438</ele>
        <time>2019-02-17T13:05:16.000Z</time>
      </trkpt>
      <trkpt lat="44.3041" lon="6.81169">
        <ele>2155.1999511719</ele>
        <time>2019-02-17T13:05:17.000Z</time>
      </trkpt>
      <trkpt lat="44.30408" lon="6.81174">
        <ele>2154.1999511719</ele>
        <time>2019-02-17T13:05:21.000Z</time>
      </trkpt>
      <trkpt lat="44.3041" lon="6.81184">
        <ele>2153.1999511719</ele>
        <time>2019-02-17T13:05:24.000Z</time>
      </trkpt>
      <trkpt lat="44.30412" lon="6.81185">
        <ele>2152.8000488281</ele>
        <time>2019-02-17T13:05:25.000Z</time>
      </trkpt>
      <trkpt lat="44.30417" lon="6.81187">
        <ele>2151.3999023438</ele>
        <time>2019-02-17T13:05:28.000Z</time>
      </trkpt>
      <trkpt lat="44.30416" lon="6.81191">
        <ele>2150.3999023438</ele>
        <time>2019-02-17T13:05:31.000Z</time>
      </trkpt>
      <trkpt lat="44.30416" lon="6.81201">
        <ele>2149.3999023438</ele>
        <time>2019-02-17T13:06:29.000Z</time>
      </trkpt>
      <trkpt lat="44.30413" lon="6.81193">
        <ele>2149.3999023438</ele>
        <time>2019-02-17T13:06:34.000Z</time>
      </trkpt>
      <trkpt lat="44.3041" lon="6.81189">
        <ele>2149.3999023438</ele>
        <time>2019-02-17T13:06:38.000Z</time>
      </trkpt>
      <trkpt lat="44.30409" lon="6.81188">
        <ele>2149.3999023438</ele>
        <time>2019-02-17T13:06:41.000Z</time>
      </trkpt>
      <trkpt lat="44.304" lon="6.8118">
        <ele>2149.3999023438</ele>
        <time>2019-02-17T13:06:52.000Z</time>
      </trkpt>
      <trkpt lat="44.30403" lon="6.81182">
        <ele>2149.1999511719</ele>
        <time>2019-02-17T13:06:57.000Z</time>
      </trkpt>
      <trkpt lat="44.30409" lon="6.81189">
        <ele>2149.1999511719</ele>
        <time>2019-02-17T13:07:04.000Z</time>
      </trkpt>
      <trkpt lat="44.30418" lon="6.81195">
        <ele>2148.3999023438</ele>
        <time>2019-02-17T13:07:31.000Z</time>
      </trkpt>
      <trkpt lat="44.30413" lon="6.81214">
        <ele>2148</ele>
        <time>2019-02-17T13:08:00.000Z</time>
      </trkpt>
      <trkpt lat="44.30407" lon="6.81218">
        <ele>2147.3999023438</ele>
        <time>2019-02-17T13:08:02.000Z</time>
      </trkpt>
      <trkpt lat="44.30401" lon="6.8122">
        <ele>2146</ele>
        <time>2019-02-17T13:08:04.000Z</time>
      </trkpt>
      <trkpt lat="44.30396" lon="6.8122">
        <ele>2144.8000488281</ele>
        <time>2019-02-17T13:08:06.000Z</time>
      </trkpt>
      <trkpt lat="44.30394" lon="6.81222">
        <ele>2143.6000976562</ele>
        <time>2019-02-17T13:08:09.000Z</time>
      </trkpt>
      <trkpt lat="44.30392" lon="6.81225">
        <ele>2143</ele>
        <time>2019-02-17T13:08:14.000Z</time>
      </trkpt>
      <trkpt lat="44.30386" lon="6.81229">
        <ele>2142.6000976562</ele>
        <time>2019-02-17T13:08:16.000Z</time>
      </trkpt>
      <trkpt lat="44.30382" lon="6.81231">
        <ele>2141.3999023438</ele>
        <time>2019-02-17T13:08:18.000Z</time>
      </trkpt>
      <trkpt lat="44.30376" lon="6.81237">
        <ele>2140</ele>
        <time>2019-02-17T13:08:21.000Z</time>
      </trkpt>
      <trkpt lat="44.30374" lon="6.81237">
        <ele>2139.6000976562</ele>
        <time>2019-02-17T13:08:22.000Z</time>
      </trkpt>
      <trkpt lat="44.30374" lon="6.81236">
        <ele>2139</ele>
        <time>2019-02-17T13:08:23.000Z</time>
      </trkpt>
      <trkpt lat="44.30373" lon="6.81235">
        <ele>2138</ele>
        <time>2019-02-17T13:08:26.000Z</time>
      </trkpt>
      <trkpt lat="44.3037" lon="6.81235">
        <ele>2137.8000488281</ele>
        <time>2019-02-17T13:08:28.000Z</time>
      </trkpt>
      <trkpt lat="44.30375" lon="6.81242">
        <ele>2137.3999023438</ele>
        <time>2019-02-17T13:08:32.000Z</time>
      </trkpt>
      <trkpt lat="44.30377" lon="6.81246">
        <ele>2137</ele>
        <time>2019-02-17T13:08:33.000Z</time>
      </trkpt>
      <trkpt lat="44.30377" lon="6.81256">
        <ele>2136</ele>
        <time>2019-02-17T13:08:35.000Z</time>
      </trkpt>
      <trkpt lat="44.30374" lon="6.81259">
        <ele>2135.6000976562</ele>
        <time>2019-02-17T13:08:36.000Z</time>
      </trkpt>
      <trkpt lat="44.30368" lon="6.81266">
        <ele>2134.1999511719</ele>
        <time>2019-02-17T13:08:38.000Z</time>
      </trkpt>
      <trkpt lat="44.30364" lon="6.81268">
        <ele>2133.3999023438</ele>
        <time>2019-02-17T13:08:39.000Z</time>
      </trkpt>
      <trkpt lat="44.30361" lon="6.81268">
        <ele>2132.6000976562</ele>
        <time>2019-02-17T13:08:40.000Z</time>
      </trkpt>
      <trkpt lat="44.30358" lon="6.81266">
        <ele>2130.6000976562</ele>
        <time>2019-02-17T13:08:42.000Z</time>
      </trkpt>
      <trkpt lat="44.30358" lon="6.81266">
        <ele>2129.8000488281</ele>
        <time>2019-02-17T13:08:43.000Z</time>
      </trkpt>
      <trkpt lat="44.30358" lon="6.81266">
        <ele>2129.1999511719</ele>
        <time>2019-02-17T13:08:44.000Z</time>
      </trkpt>
      <trkpt lat="44.30356" lon="6.81267">
        <ele>2128.3999023438</ele>
        <time>2019-02-17T13:08:49.000Z</time>
      </trkpt>
      <trkpt lat="44.30353" lon="6.81272">
        <ele>2128.1999511719</ele>
        <time>2019-02-17T13:08:51.000Z</time>
      </trkpt>
      <trkpt lat="44.3035" lon="6.81277">
        <ele>2128</ele>
        <time>2019-02-17T13:08:52.000Z</time>
      </trkpt>
      <trkpt lat="44.30342" lon="6.81286">
        <ele>2127.1999511719</ele>
        <time>2019-02-17T13:08:54.000Z</time>
      </trkpt>
      <trkpt lat="44.3033" lon="6.81292">
        <ele>2125.3999023438</ele>
        <time>2019-02-17T13:08:56.000Z</time>
      </trkpt>
      <trkpt lat="44.30319" lon="6.81293">
        <ele>2123.6000976562</ele>
        <time>2019-02-17T13:08:58.000Z</time>
      </trkpt>
      <trkpt lat="44.30311" lon="6.81288">
        <ele>2122</ele>
        <time>2019-02-17T13:09:00.000Z</time>
      </trkpt>
      <trkpt lat="44.30305" lon="6.81285">
        <ele>2121</ele>
        <time>2019-02-17T13:09:03.000Z</time>
      </trkpt>
      <trkpt lat="44.303" lon="6.81292">
        <ele>2121</ele>
        <time>2019-02-17T13:09:44.000Z</time>
      </trkpt>
      <trkpt lat="44.30292" lon="6.81299">
        <ele>2119.3999023438</ele>
        <time>2019-02-17T13:09:48.000Z</time>
      </trkpt>
      <trkpt lat="44.30291" lon="6.81299">
        <ele>2118.6000976562</ele>
        <time>2019-02-17T13:09:49.000Z</time>
      </trkpt>
      <trkpt lat="44.30291" lon="6.81299">
        <ele>2118.1999511719</ele>
        <time>2019-02-17T13:09:50.000Z</time>
      </trkpt>
      <trkpt lat="44.30289" lon="6.81302">
        <ele>2117.3999023438</ele>
        <time>2019-02-17T13:09:53.000Z</time>
      </trkpt>
      <trkpt lat="44.30287" lon="6.81314">
        <ele>2117.1999511719</ele>
        <time>2019-02-17T13:09:55.000Z</time>
      </trkpt>
      <trkpt lat="44.30287" lon="6.8132">
        <ele>2117</ele>
        <time>2019-02-17T13:09:56.000Z</time>
      </trkpt>
      <trkpt lat="44.30288" lon="6.81329">
        <ele>2116</ele>
        <time>2019-02-17T13:09:59.000Z</time>
      </trkpt>
      <trkpt lat="44.30282" lon="6.81343">
        <ele>2115</ele>
        <time>2019-02-17T13:10:04.000Z</time>
      </trkpt>
      <trkpt lat="44.3028" lon="6.81361">
        <ele>2113.6000976562</ele>
        <time>2019-02-17T13:10:07.000Z</time>
      </trkpt>
      <trkpt lat="44.30279" lon="6.81372">
        <ele>2112.6000976562</ele>
        <time>2019-02-17T13:10:09.000Z</time>
      </trkpt>
      <trkpt lat="44.3028" lon="6.81376">
        <ele>2112.3999023438</ele>
        <time>2019-02-17T13:10:10.000Z</time>
      </trkpt>
      <trkpt lat="44.30282" lon="6.81386">
        <ele>2111.3999023438</ele>
        <time>2019-02-17T13:10:13.000Z</time>
      </trkpt>
      <trkpt lat="44.30282" lon="6.81387">
        <ele>2111</ele>
        <time>2019-02-17T13:10:14.000Z</time>
      </trkpt>
      <trkpt lat="44.30282" lon="6.81387">
        <ele>2110.8000488281</ele>
        <time>2019-02-17T13:10:15.000Z</time>
      </trkpt>
      <trkpt lat="44.30281" lon="6.8139">
        <ele>2110.3999023438</ele>
        <time>2019-02-17T13:10:22.000Z</time>
      </trkpt>
      <trkpt lat="44.30282" lon="6.81398">
        <ele>2110.1999511719</ele>
        <time>2019-02-17T13:10:24.000Z</time>
      </trkpt>
      <trkpt lat="44.3028" lon="6.81401">
        <ele>2108.8000488281</ele>
        <time>2019-02-17T13:10:27.000Z</time>
      </trkpt>
      <trkpt lat="44.30277" lon="6.814">
        <ele>2108</ele>
        <time>2019-02-17T13:10:29.000Z</time>
      </trkpt>
      <trkpt lat="44.30275" lon="6.81399">
        <ele>2107.6000976562</ele>
        <time>2019-02-17T13:10:30.000Z</time>
      </trkpt>
      <trkpt lat="44.30271" lon="6.81398">
        <ele>2107</ele>
        <time>2019-02-17T13:10:32.000Z</time>
      </trkpt>
      <trkpt lat="44.3027" lon="6.814">
        <ele>2106.6000976562</ele>
        <time>2019-02-17T13:10:33.000Z</time>
      </trkpt>
      <trkpt lat="44.30271" lon="6.8141">
        <ele>2105.1999511719</ele>
        <time>2019-02-17T13:10:36.000Z</time>
      </trkpt>
      <trkpt lat="44.30268" lon="6.81413">
        <ele>2104.1999511719</ele>
        <time>2019-02-17T13:10:38.000Z</time>
      </trkpt>
      <trkpt lat="44.30265" lon="6.81412">
        <ele>2103.3999023438</ele>
        <time>2019-02-17T13:10:39.000Z</time>
      </trkpt>
      <trkpt lat="44.3026" lon="6.81415">
        <ele>2101.6000976562</ele>
        <time>2019-02-17T13:10:41.000Z</time>
      </trkpt>
      <trkpt lat="44.30262" lon="6.81424">
        <ele>2099.6000976562</ele>
        <time>2019-02-17T13:10:43.000Z</time>
      </trkpt>
      <trkpt lat="44.30264" lon="6.81425">
        <ele>2098.6000976562</ele>
        <time>2019-02-17T13:10:44.000Z</time>
      </trkpt>
      <trkpt lat="44.30264" lon="6.81425">
        <ele>2097.8000488281</ele>
        <time>2019-02-17T13:10:45.000Z</time>
      </trkpt>
      <trkpt lat="44.30264" lon="6.81425">
        <ele>2097</ele>
        <time>2019-02-17T13:10:46.000Z</time>
      </trkpt>
      <trkpt lat="44.30262" lon="6.81431">
        <ele>2096</ele>
        <time>2019-02-17T13:10:58.000Z</time>
      </trkpt>
      <trkpt lat="44.3026" lon="6.81434">
        <ele>2095</ele>
        <time>2019-02-17T13:11:00.000Z</time>
      </trkpt>
      <trkpt lat="44.30259" lon="6.81435">
        <ele>2094.1999511719</ele>
        <time>2019-02-17T13:11:01.000Z</time>
      </trkpt>
      <trkpt lat="44.30258" lon="6.81439">
        <ele>2092.6000976562</ele>
        <time>2019-02-17T13:11:03.000Z</time>
      </trkpt>
      <trkpt lat="44.30258" lon="6.81442">
        <ele>2091.3999023438</ele>
        <time>2019-02-17T13:11:06.000Z</time>
      </trkpt>
      <trkpt lat="44.30265" lon="6.81454">
        <ele>2090.3999023438</ele>
        <time>2019-02-17T13:11:56.000Z</time>
      </trkpt>
      <trkpt lat="44.30258" lon="6.81466">
        <ele>2089.3999023438</ele>
        <time>2019-02-17T13:11:58.000Z</time>
      </trkpt>
      <trkpt lat="44.30254" lon="6.81473">
        <ele>2088.6000976562</ele>
        <time>2019-02-17T13:11:59.000Z</time>
      </trkpt>
      <trkpt lat="44.30249" lon="6.8148">
        <ele>2087.3999023438</ele>
        <time>2019-02-17T13:12:00.000Z</time>
      </trkpt>
      <trkpt lat="44.30244" lon="6.81488">
        <ele>2086.3999023438</ele>
        <time>2019-02-17T13:12:01.000Z</time>
      </trkpt>
      <trkpt lat="44.30238" lon="6.81496">
        <ele>2085.1999511719</ele>
        <time>2019-02-17T13:12:02.000Z</time>
      </trkpt>
      <trkpt lat="44.30231" lon="6.81505">
        <ele>2084.1999511719</ele>
        <time>2019-02-17T13:12:03.000Z</time>
      </trkpt>
      <trkpt lat="44.30224" lon="6.81513">
        <ele>2083</ele>
        <time>2019-02-17T13:12:04.000Z</time>
      </trkpt>
      <trkpt lat="44.30218" lon="6.81521">
        <ele>2081.8000488281</ele>
        <time>2019-02-17T13:12:05.000Z</time>
      </trkpt>
      <trkpt lat="44.30211" lon="6.81528">
        <ele>2080.6000976562</ele>
        <time>2019-02-17T13:12:06.000Z</time>
      </trkpt>
      <trkpt lat="44.30205" lon="6.81535">
        <ele>2079.3999023438</ele>
        <time>2019-02-17T13:12:07.000Z</time>
      </trkpt>
      <trkpt lat="44.30199" lon="6.81542">
        <ele>2078.3999023438</ele>
        <time>2019-02-17T13:12:08.000Z</time>
      </trkpt>
      <trkpt lat="44.30186" lon="6.81556">
        <ele>2076.3999023438</ele>
        <time>2019-02-17T13:12:10.000Z</time>
      </trkpt>
      <trkpt lat="44.30176" lon="6.8157">
        <ele>2074.8000488281</ele>
        <time>2019-02-17T13:12:12.000Z</time>
      </trkpt>
      <trkpt lat="44.30165" lon="6.81582">
        <ele>2073.3999023438</ele>
        <time>2019-02-17T13:12:14.000Z</time>
      </trkpt>
      <trkpt lat="44.30155" lon="6.81591">
        <ele>2072.3999023438</ele>
        <time>2019-02-17T13:12:16.000Z</time>
      </trkpt>
      <trkpt lat="44.30144" lon="6.81598">
        <ele>2071.1999511719</ele>
        <time>2019-02-17T13:12:18.000Z</time>
      </trkpt>
      <trkpt lat="44.30133" lon="6.81603">
        <ele>2070.1999511719</ele>
        <time>2019-02-17T13:12:20.000Z</time>
      </trkpt>
      <trkpt lat="44.30123" lon="6.81607">
        <ele>2069</ele>
        <time>2019-02-17T13:12:22.000Z</time>
      </trkpt>
      <trkpt lat="44.30108" lon="6.81614">
        <ele>2068</ele>
        <time>2019-02-17T13:12:26.000Z</time>
      </trkpt>
      <trkpt lat="44.30092" lon="6.81628">
        <ele>2068.8000488281</ele>
        <time>2019-02-17T13:12:44.000Z</time>
      </trkpt>
      <trkpt lat="44.30089" lon="6.8163">
        <ele>2068.8000488281</ele>
        <time>2019-02-17T13:12:47.000Z</time>
      </trkpt>
      <trkpt lat="44.30085" lon="6.81633">
        <ele>2068.8000488281</ele>
        <time>2019-02-17T13:12:52.000Z</time>
      </trkpt>
      <trkpt lat="44.30083" lon="6.81634">
        <ele>2069</ele>
        <time>2019-02-17T13:12:54.000Z</time>
      </trkpt>
      <trkpt lat="44.30081" lon="6.81635">
        <ele>2069</ele>
        <time>2019-02-17T13:12:56.000Z</time>
      </trkpt>
      <trkpt lat="44.30078" lon="6.81637">
        <ele>2069.1999511719</ele>
        <time>2019-02-17T13:12:59.000Z</time>
      </trkpt>
      <trkpt lat="44.30074" lon="6.81637">
        <ele>2069.3999023438</ele>
        <time>2019-02-17T13:13:02.000Z</time>
      </trkpt>
      <trkpt lat="44.30072" lon="6.81637">
        <ele>2069.3999023438</ele>
        <time>2019-02-17T13:13:05.000Z</time>
      </trkpt>
      <trkpt lat="44.3007" lon="6.81638">
        <ele>2069.6000976562</ele>
        <time>2019-02-17T13:13:08.000Z</time>
      </trkpt>
      <trkpt lat="44.30068" lon="6.8164">
        <ele>2069.8000488281</ele>
        <time>2019-02-17T13:13:11.000Z</time>
      </trkpt>
      <trkpt lat="44.30067" lon="6.8164">
        <ele>2069.8000488281</ele>
        <time>2019-02-17T13:13:13.000Z</time>
      </trkpt>
      <trkpt lat="44.30063" lon="6.81641">
        <ele>2070</ele>
        <time>2019-02-17T13:13:18.000Z</time>
      </trkpt>
      <trkpt lat="44.30061" lon="6.81642">
        <ele>2070.3999023438</ele>
        <time>2019-02-17T13:13:20.000Z</time>
      </trkpt>
      <trkpt lat="44.30059" lon="6.81642">
        <ele>2070.1999511719</ele>
        <time>2019-02-17T13:13:22.000Z</time>
      </trkpt>
      <trkpt lat="44.30057" lon="6.81642">
        <ele>2070.1999511719</ele>
        <time>2019-02-17T13:13:26.000Z</time>
      </trkpt>
      <trkpt lat="44.30052" lon="6.81642">
        <ele>2070.3999023438</ele>
        <time>2019-02-17T13:13:30.000Z</time>
      </trkpt>
      <trkpt lat="44.30051" lon="6.81642">
        <ele>2070.3999023438</ele>
        <time>2019-02-17T13:13:31.000Z</time>
      </trkpt>
      <trkpt lat="44.3005" lon="6.81642">
        <ele>2070.6000976562</ele>
        <time>2019-02-17T13:13:32.000Z</time>
      </trkpt>
      <trkpt lat="44.30025" lon="6.8164">
        <ele>2070.1999511719</ele>
        <time>2019-02-17T13:13:55.000Z</time>
      </trkpt>
      <trkpt lat="44.3002" lon="6.81638">
        <ele>2070.6000976562</ele>
        <time>2019-02-17T13:14:00.000Z</time>
      </trkpt>
      <trkpt lat="44.30015" lon="6.81639">
        <ele>2071</ele>
        <time>2019-02-17T13:14:06.000Z</time>
      </trkpt>
      <trkpt lat="44.30013" lon="6.81639">
        <ele>2071</ele>
        <time>2019-02-17T13:14:09.000Z</time>
      </trkpt>
      <trkpt lat="44.30012" lon="6.81639">
        <ele>2070.6000976562</ele>
        <time>2019-02-17T13:14:13.000Z</time>
      </trkpt>
      <trkpt lat="44.30004" lon="6.81639">
        <ele>2070.8000488281</ele>
        <time>2019-02-17T13:14:24.000Z</time>
      </trkpt>
      <trkpt lat="44.30001" lon="6.81639">
        <ele>2071</ele>
        <time>2019-02-17T13:14:27.000Z</time>
      </trkpt>
      <trkpt lat="44.3" lon="6.8164">
        <ele>2071</ele>
        <time>2019-02-17T13:14:28.000Z</time>
      </trkpt>
      <trkpt lat="44.29989" lon="6.8164">
        <ele>2071.1999511719</ele>
        <time>2019-02-17T13:14:42.000Z</time>
      </trkpt>
      <trkpt lat="44.29989" lon="6.8164">
        <ele>2071.1999511719</ele>
        <time>2019-02-17T13:14:44.000Z</time>
      </trkpt>
      <trkpt lat="44.2999" lon="6.8164">
        <ele>2070.8000488281</ele>
        <time>2019-02-17T13:14:46.000Z</time>
      </trkpt>
      <trkpt lat="44.29979" lon="6.81638">
        <ele>2070.8000488281</ele>
        <time>2019-02-17T13:15:00.000Z</time>
      </trkpt>
      <trkpt lat="44.29961" lon="6.81636">
        <ele>2070</ele>
        <time>2019-02-17T13:15:15.000Z</time>
      </trkpt>
      <trkpt lat="44.29946" lon="6.81629">
        <ele>2068.8000488281</ele>
        <time>2019-02-17T13:15:21.000Z</time>
      </trkpt>
      <trkpt lat="44.2994" lon="6.81625">
        <ele>2067.8000488281</ele>
        <time>2019-02-17T13:15:24.000Z</time>
      </trkpt>
      <trkpt lat="44.29928" lon="6.81613">
        <ele>2066.8000488281</ele>
        <time>2019-02-17T13:15:29.000Z</time>
      </trkpt>
      <trkpt lat="44.29919" lon="6.81605">
        <ele>2065.6000976562</ele>
        <time>2019-02-17T13:15:32.000Z</time>
      </trkpt>
      <trkpt lat="44.29908" lon="6.81599">
        <ele>2064</ele>
        <time>2019-02-17T13:15:35.000Z</time>
      </trkpt>
      <trkpt lat="44.29898" lon="6.81599">
        <ele>2063</ele>
        <time>2019-02-17T13:15:37.000Z</time>
      </trkpt>
      <trkpt lat="44.29889" lon="6.81599">
        <ele>2062</ele>
        <time>2019-02-17T13:15:39.000Z</time>
      </trkpt>
      <trkpt lat="44.29884" lon="6.816">
        <ele>2061.6000976562</ele>
        <time>2019-02-17T13:15:40.000Z</time>
      </trkpt>
      <trkpt lat="44.29873" lon="6.81602">
        <ele>2060.3999023438</ele>
        <time>2019-02-17T13:15:42.000Z</time>
      </trkpt>
      <trkpt lat="44.29862" lon="6.81603">
        <ele>2059</ele>
        <time>2019-02-17T13:15:44.000Z</time>
      </trkpt>
      <trkpt lat="44.29851" lon="6.81605">
        <ele>2057.8000488281</ele>
        <time>2019-02-17T13:15:46.000Z</time>
      </trkpt>
      <trkpt lat="44.29839" lon="6.81605">
        <ele>2056.1999511719</ele>
        <time>2019-02-17T13:15:48.000Z</time>
      </trkpt>
      <trkpt lat="44.29828" lon="6.81604">
        <ele>2054.6000976562</ele>
        <time>2019-02-17T13:15:50.000Z</time>
      </trkpt>
      <trkpt lat="44.29822" lon="6.81602">
        <ele>2053.3999023438</ele>
        <time>2019-02-17T13:15:52.000Z</time>
      </trkpt>
      <trkpt lat="44.29818" lon="6.81599">
        <ele>2052.1999511719</ele>
        <time>2019-02-17T13:15:54.000Z</time>
      </trkpt>
      <trkpt lat="44.29813" lon="6.81595">
        <ele>2051</ele>
        <time>2019-02-17T13:15:56.000Z</time>
      </trkpt>
      <trkpt lat="44.29806" lon="6.81592">
        <ele>2049.6000976562</ele>
        <time>2019-02-17T13:15:58.000Z</time>
      </trkpt>
      <trkpt lat="44.29796" lon="6.81586">
        <ele>2048.3999023438</ele>
        <time>2019-02-17T13:16:01.000Z</time>
      </trkpt>
      <trkpt lat="44.29787" lon="6.81575">
        <ele>2046.8000488281</ele>
        <time>2019-02-17T13:16:04.000Z</time>
      </trkpt>
      <trkpt lat="44.29783" lon="6.81568">
        <ele>2045.8000488281</ele>
        <time>2019-02-17T13:16:06.000Z</time>
      </trkpt>
      <trkpt lat="44.29778" lon="6.81562">
        <ele>2045.4000244141</ele>
        <time>2019-02-17T13:16:07.000Z</time>
      </trkpt>
      <trkpt lat="44.29776" lon="6.81557">
        <ele>2044.8000488281</ele>
        <time>2019-02-17T13:16:08.000Z</time>
      </trkpt>
      <trkpt lat="44.2977" lon="6.81548">
        <ele>2043.5999755859</ele>
        <time>2019-02-17T13:16:10.000Z</time>
      </trkpt>
      <trkpt lat="44.29761" lon="6.81542">
        <ele>2043</ele>
        <time>2019-02-17T13:16:12.000Z</time>
      </trkpt>
      <trkpt lat="44.2975" lon="6.81536">
        <ele>2042.5999755859</ele>
        <time>2019-02-17T13:16:15.000Z</time>
      </trkpt>
      <trkpt lat="44.29737" lon="6.81535">
        <ele>2041.1999511719</ele>
        <time>2019-02-17T13:16:19.000Z</time>
      </trkpt>
      <trkpt lat="44.29718" lon="6.81537">
        <ele>2040</ele>
        <time>2019-02-17T13:16:23.000Z</time>
      </trkpt>
      <trkpt lat="44.29704" lon="6.81541">
        <ele>2039</ele>
        <time>2019-02-17T13:16:26.000Z</time>
      </trkpt>
      <trkpt lat="44.29698" lon="6.81544">
        <ele>2037.8000488281</ele>
        <time>2019-02-17T13:16:29.000Z</time>
      </trkpt>
      <trkpt lat="44.29697" lon="6.81544">
        <ele>2037.5999755859</ele>
        <time>2019-02-17T13:16:30.000Z</time>
      </trkpt>
      <trkpt lat="44.29689" lon="6.81549">
        <ele>2037.4000244141</ele>
        <time>2019-02-17T13:16:36.000Z</time>
      </trkpt>
      <trkpt lat="44.29681" lon="6.81556">
        <ele>2036.5999755859</ele>
        <time>2019-02-17T13:16:39.000Z</time>
      </trkpt>
      <trkpt lat="44.29679" lon="6.81558">
        <ele>2036.1999511719</ele>
        <time>2019-02-17T13:16:40.000Z</time>
      </trkpt>
      <trkpt lat="44.29677" lon="6.81561">
        <ele>2035.4000244141</ele>
        <time>2019-02-17T13:16:42.000Z</time>
      </trkpt>
      <trkpt lat="44.29672" lon="6.81573">
        <ele>2034.5999755859</ele>
        <time>2019-02-17T13:16:45.000Z</time>
      </trkpt>
      <trkpt lat="44.29674" lon="6.81575">
        <ele>2034</ele>
        <time>2019-02-17T13:16:46.000Z</time>
      </trkpt>
      <trkpt lat="44.29679" lon="6.81585">
        <ele>2032.4000244141</ele>
        <time>2019-02-17T13:16:48.000Z</time>
      </trkpt>
      <trkpt lat="44.29679" lon="6.8159">
        <ele>2030.5999755859</ele>
        <time>2019-02-17T13:16:50.000Z</time>
      </trkpt>
      <trkpt lat="44.29677" lon="6.81593">
        <ele>2029.4000244141</ele>
        <time>2019-02-17T13:16:54.000Z</time>
      </trkpt>
      <trkpt lat="44.29673" lon="6.81595">
        <ele>2029.1999511719</ele>
        <time>2019-02-17T13:16:56.000Z</time>
      </trkpt>
      <trkpt lat="44.29669" lon="6.816">
        <ele>2028.8000488281</ele>
        <time>2019-02-17T13:16:58.000Z</time>
      </trkpt>
      <trkpt lat="44.29668" lon="6.81603">
        <ele>2028.4000244141</ele>
        <time>2019-02-17T13:16:59.000Z</time>
      </trkpt>
      <trkpt lat="44.29667" lon="6.81606">
        <ele>2028</ele>
        <time>2019-02-17T13:17:00.000Z</time>
      </trkpt>
      <trkpt lat="44.2967" lon="6.8161">
        <ele>2027.1999511719</ele>
        <time>2019-02-17T13:17:02.000Z</time>
      </trkpt>
      <trkpt lat="44.29674" lon="6.81614">
        <ele>2025.8000488281</ele>
        <time>2019-02-17T13:17:04.000Z</time>
      </trkpt>
      <trkpt lat="44.29679" lon="6.81621">
        <ele>2024.8000488281</ele>
        <time>2019-02-17T13:17:07.000Z</time>
      </trkpt>
      <trkpt lat="44.29678" lon="6.81624">
        <ele>2023.5999755859</ele>
        <time>2019-02-17T13:17:09.000Z</time>
      </trkpt>
      <trkpt lat="44.29676" lon="6.81624">
        <ele>2022.4000244141</ele>
        <time>2019-02-17T13:17:12.000Z</time>
      </trkpt>
      <trkpt lat="44.29665" lon="6.8163">
        <ele>2021.5999755859</ele>
        <time>2019-02-17T13:17:21.000Z</time>
      </trkpt>
      <trkpt lat="44.29662" lon="6.81632">
        <ele>2021.1999511719</ele>
        <time>2019-02-17T13:17:22.000Z</time>
      </trkpt>
      <trkpt lat="44.29658" lon="6.81634">
        <ele>2019.8000488281</ele>
        <time>2019-02-17T13:17:24.000Z</time>
      </trkpt>
      <trkpt lat="44.29654" lon="6.81639">
        <ele>2018.4000244141</ele>
        <time>2019-02-17T13:17:26.000Z</time>
      </trkpt>
      <trkpt lat="44.2965" lon="6.81643">
        <ele>2017.4000244141</ele>
        <time>2019-02-17T13:17:28.000Z</time>
      </trkpt>
      <trkpt lat="44.29644" lon="6.81648">
        <ele>2016.4000244141</ele>
        <time>2019-02-17T13:17:30.000Z</time>
      </trkpt>
      <trkpt lat="44.29639" lon="6.81653">
        <ele>2014.8000488281</ele>
        <time>2019-02-17T13:17:32.000Z</time>
      </trkpt>
      <trkpt lat="44.29634" lon="6.81661">
        <ele>2012.8000488281</ele>
        <time>2019-02-17T13:17:34.000Z</time>
      </trkpt>
      <trkpt lat="44.29631" lon="6.81666">
        <ele>2011.4000244141</ele>
        <time>2019-02-17T13:17:36.000Z</time>
      </trkpt>
      <trkpt lat="44.2963" lon="6.81671">
        <ele>2010.5999755859</ele>
        <time>2019-02-17T13:17:39.000Z</time>
      </trkpt>
      <trkpt lat="44.2963" lon="6.81676">
        <ele>2010.4000244141</ele>
        <time>2019-02-17T13:17:41.000Z</time>
      </trkpt>
      <trkpt lat="44.29629" lon="6.81679">
        <ele>2010.1999511719</ele>
        <time>2019-02-17T13:17:43.000Z</time>
      </trkpt>
      <trkpt lat="44.29627" lon="6.8169">
        <ele>2009.1999511719</ele>
        <time>2019-02-17T13:17:55.000Z</time>
      </trkpt>
      <trkpt lat="44.29627" lon="6.81692">
        <ele>2008.5999755859</ele>
        <time>2019-02-17T13:17:56.000Z</time>
      </trkpt>
      <trkpt lat="44.29626" lon="6.81696">
        <ele>2008</ele>
        <time>2019-02-17T13:17:57.000Z</time>
      </trkpt>
      <trkpt lat="44.29621" lon="6.81702">
        <ele>2007</ele>
        <time>2019-02-17T13:17:59.000Z</time>
      </trkpt>
      <trkpt lat="44.29615" lon="6.81707">
        <ele>2005</ele>
        <time>2019-02-17T13:18:01.000Z</time>
      </trkpt>
      <trkpt lat="44.29611" lon="6.8171">
        <ele>2003.5999755859</ele>
        <time>2019-02-17T13:18:02.000Z</time>
      </trkpt>
      <trkpt lat="44.29605" lon="6.81715">
        <ele>2002</ele>
        <time>2019-02-17T13:18:04.000Z</time>
      </trkpt>
      <trkpt lat="44.29602" lon="6.8172">
        <ele>2001</ele>
        <time>2019-02-17T13:18:06.000Z</time>
      </trkpt>
      <trkpt lat="44.29601" lon="6.81722">
        <ele>2000.5999755859</ele>
        <time>2019-02-17T13:18:07.000Z</time>
      </trkpt>
      <trkpt lat="44.29598" lon="6.81724">
        <ele>2000.1999511719</ele>
        <time>2019-02-17T13:18:09.000Z</time>
      </trkpt>
      <trkpt lat="44.29597" lon="6.81725">
        <ele>1999.8000488281</ele>
        <time>2019-02-17T13:18:11.000Z</time>
      </trkpt>
      <trkpt lat="44.2959" lon="6.81726">
        <ele>1999.5999755859</ele>
        <time>2019-02-17T13:18:19.000Z</time>
      </trkpt>
      <trkpt lat="44.2959" lon="6.81728">
        <ele>1999.5999755859</ele>
        <time>2019-02-17T13:18:21.000Z</time>
      </trkpt>
      <trkpt lat="44.2959" lon="6.81731">
        <ele>1999.8000488281</ele>
        <time>2019-02-17T13:18:24.000Z</time>
      </trkpt>
      <trkpt lat="44.296" lon="6.81754">
        <ele>2000</ele>
        <time>2019-02-17T13:18:57.000Z</time>
      </trkpt>
      <trkpt lat="44.29592" lon="6.81759">
        <ele>1999.4000244141</ele>
        <time>2019-02-17T13:19:21.000Z</time>
      </trkpt>
      <trkpt lat="44.29587" lon="6.81761">
        <ele>1998.5999755859</ele>
        <time>2019-02-17T13:19:25.000Z</time>
      </trkpt>
      <trkpt lat="44.29582" lon="6.81766">
        <ele>1997.4000244141</ele>
        <time>2019-02-17T13:19:27.000Z</time>
      </trkpt>
      <trkpt lat="44.29576" lon="6.81771">
        <ele>1996.1999511719</ele>
        <time>2019-02-17T13:19:30.000Z</time>
      </trkpt>
      <trkpt lat="44.29572" lon="6.81773">
        <ele>1995.8000488281</ele>
        <time>2019-02-17T13:19:33.000Z</time>
      </trkpt>
      <trkpt lat="44.29568" lon="6.81776">
        <ele>1995.5999755859</ele>
        <time>2019-02-17T13:19:36.000Z</time>
      </trkpt>
      <trkpt lat="44.2956" lon="6.8178">
        <ele>1995</ele>
        <time>2019-02-17T13:19:39.000Z</time>
      </trkpt>
      <trkpt lat="44.29551" lon="6.81784">
        <ele>1994</ele>
        <time>2019-02-17T13:19:42.000Z</time>
      </trkpt>
      <trkpt lat="44.29541" lon="6.81791">
        <ele>1992.8000488281</ele>
        <time>2019-02-17T13:19:45.000Z</time>
      </trkpt>
      <trkpt lat="44.29537" lon="6.81793">
        <ele>1991.5999755859</ele>
        <time>2019-02-17T13:19:47.000Z</time>
      </trkpt>
      <trkpt lat="44.29536" lon="6.81794">
        <ele>1990.5999755859</ele>
        <time>2019-02-17T13:19:49.000Z</time>
      </trkpt>
      <trkpt lat="44.2953" lon="6.81806">
        <ele>1989.4000244141</ele>
        <time>2019-02-17T13:21:18.000Z</time>
      </trkpt>
      <trkpt lat="44.29525" lon="6.81827">
        <ele>1987</ele>
        <time>2019-02-17T13:21:20.000Z</time>
      </trkpt>
      <trkpt lat="44.29523" lon="6.81837">
        <ele>1985.1999511719</ele>
        <time>2019-02-17T13:21:21.000Z</time>
      </trkpt>
      <trkpt lat="44.2952" lon="6.81845">
        <ele>1983.4000244141</ele>
        <time>2019-02-17T13:21:22.000Z</time>
      </trkpt>
      <trkpt lat="44.29517" lon="6.81853">
        <ele>1982.1999511719</ele>
        <time>2019-02-17T13:21:23.000Z</time>
      </trkpt>
      <trkpt lat="44.29513" lon="6.81865">
        <ele>1981</ele>
        <time>2019-02-17T13:21:25.000Z</time>
      </trkpt>
      <trkpt lat="44.29508" lon="6.81876">
        <ele>1980.4000244141</ele>
        <time>2019-02-17T13:21:27.000Z</time>
      </trkpt>
      <trkpt lat="44.29505" lon="6.81891">
        <ele>1979.8000488281</ele>
        <time>2019-02-17T13:21:30.000Z</time>
      </trkpt>
      <trkpt lat="44.29498" lon="6.81907">
        <ele>1978.5999755859</ele>
        <time>2019-02-17T13:21:34.000Z</time>
      </trkpt>
      <trkpt lat="44.29492" lon="6.81921">
        <ele>1977.8000488281</ele>
        <time>2019-02-17T13:21:40.000Z</time>
      </trkpt>
      <trkpt lat="44.29491" lon="6.81921">
        <ele>1977.5999755859</ele>
        <time>2019-02-17T13:21:42.000Z</time>
      </trkpt>
      <trkpt lat="44.29485" lon="6.81929">
        <ele>1978</ele>
        <time>2019-02-17T13:22:05.000Z</time>
      </trkpt>
      <trkpt lat="44.29484" lon="6.81932">
        <ele>1977.8000488281</ele>
        <time>2019-02-17T13:22:07.000Z</time>
      </trkpt>
      <trkpt lat="44.29482" lon="6.81941">
        <ele>1978</ele>
        <time>2019-02-17T13:22:14.000Z</time>
      </trkpt>
      <trkpt lat="44.29482" lon="6.81943">
        <ele>1977.8000488281</ele>
        <time>2019-02-17T13:22:16.000Z</time>
      </trkpt>
      <trkpt lat="44.29481" lon="6.81946">
        <ele>1977.5999755859</ele>
        <time>2019-02-17T13:22:18.000Z</time>
      </trkpt>
      <trkpt lat="44.2948" lon="6.81953">
        <ele>1977.4000244141</ele>
        <time>2019-02-17T13:22:23.000Z</time>
      </trkpt>
      <trkpt lat="44.29475" lon="6.81968">
        <ele>1976.5999755859</ele>
        <time>2019-02-17T13:22:31.000Z</time>
      </trkpt>
      <trkpt lat="44.2947" lon="6.81982">
        <ele>1975.5999755859</ele>
        <time>2019-02-17T13:22:36.000Z</time>
      </trkpt>
      <trkpt lat="44.29465" lon="6.82">
        <ele>1974.5999755859</ele>
        <time>2019-02-17T13:22:41.000Z</time>
      </trkpt>
      <trkpt lat="44.2946" lon="6.82014">
        <ele>1973.1999511719</ele>
        <time>2019-02-17T13:22:45.000Z</time>
      </trkpt>
      <trkpt lat="44.29459" lon="6.82023">
        <ele>1972</ele>
        <time>2019-02-17T13:22:47.000Z</time>
      </trkpt>
      <trkpt lat="44.29455" lon="6.82031">
        <ele>1971</ele>
        <time>2019-02-17T13:22:49.000Z</time>
      </trkpt>
      <trkpt lat="44.29452" lon="6.82036">
        <ele>1969.8000488281</ele>
        <time>2019-02-17T13:22:51.000Z</time>
      </trkpt>
      <trkpt lat="44.29449" lon="6.82042">
        <ele>1968.5999755859</ele>
        <time>2019-02-17T13:22:54.000Z</time>
      </trkpt>
      <trkpt lat="44.29448" lon="6.82045">
        <ele>1968.4000244141</ele>
        <time>2019-02-17T13:22:55.000Z</time>
      </trkpt>
      <trkpt lat="44.29448" lon="6.82049">
        <ele>1967.8000488281</ele>
        <time>2019-02-17T13:22:57.000Z</time>
      </trkpt>
      <trkpt lat="44.29448" lon="6.8205">
        <ele>1967.5999755859</ele>
        <time>2019-02-17T13:22:58.000Z</time>
      </trkpt>
      <trkpt lat="44.29448" lon="6.82053">
        <ele>1967.1999511719</ele>
        <time>2019-02-17T13:23:01.000Z</time>
      </trkpt>
      <trkpt lat="44.29447" lon="6.82056">
        <ele>1967</ele>
        <time>2019-02-17T13:23:03.000Z</time>
      </trkpt>
      <trkpt lat="44.29447" lon="6.82059">
        <ele>1967</ele>
        <time>2019-02-17T13:23:05.000Z</time>
      </trkpt>
      <trkpt lat="44.29446" lon="6.82064">
        <ele>1966.5999755859</ele>
        <time>2019-02-17T13:23:09.000Z</time>
      </trkpt>
      <trkpt lat="44.29446" lon="6.82068">
        <ele>1966.4000244141</ele>
        <time>2019-02-17T13:23:11.000Z</time>
      </trkpt>
      <trkpt lat="44.29446" lon="6.82071">
        <ele>1966.1999511719</ele>
        <time>2019-02-17T13:23:13.000Z</time>
      </trkpt>
      <trkpt lat="44.29443" lon="6.82088">
        <ele>1965.8000488281</ele>
        <time>2019-02-17T13:23:23.000Z</time>
      </trkpt>
      <trkpt lat="44.29442" lon="6.82092">
        <ele>1965.4000244141</ele>
        <time>2019-02-17T13:23:25.000Z</time>
      </trkpt>
      <trkpt lat="44.29443" lon="6.82109">
        <ele>1964.1999511719</ele>
        <time>2019-02-17T13:23:31.000Z</time>
      </trkpt>
      <trkpt lat="44.29441" lon="6.82133">
        <ele>1963.1999511719</ele>
        <time>2019-02-17T13:23:42.000Z</time>
      </trkpt>
      <trkpt lat="44.2944" lon="6.82136">
        <ele>1963</ele>
        <time>2019-02-17T13:23:43.000Z</time>
      </trkpt>
      <trkpt lat="44.29439" lon="6.8214">
        <ele>1962.8000488281</ele>
        <time>2019-02-17T13:23:45.000Z</time>
      </trkpt>
      <trkpt lat="44.29438" lon="6.82145">
        <ele>1962.5999755859</ele>
        <time>2019-02-17T13:23:47.000Z</time>
      </trkpt>
      <trkpt lat="44.29439" lon="6.82152">
        <ele>1962.4000244141</ele>
        <time>2019-02-17T13:23:50.000Z</time>
      </trkpt>
      <trkpt lat="44.29439" lon="6.82159">
        <ele>1962.1999511719</ele>
        <time>2019-02-17T13:23:53.000Z</time>
      </trkpt>
      <trkpt lat="44.29439" lon="6.82162">
        <ele>1962.1999511719</ele>
        <time>2019-02-17T13:23:55.000Z</time>
      </trkpt>
      <trkpt lat="44.29439" lon="6.82166">
        <ele>1961.8000488281</ele>
        <time>2019-02-17T13:23:57.000Z</time>
      </trkpt>
      <trkpt lat="44.29434" lon="6.8218">
        <ele>1961.1999511719</ele>
        <time>2019-02-17T13:24:04.000Z</time>
      </trkpt>
      <trkpt lat="44.29434" lon="6.82181">
        <ele>1961</ele>
        <time>2019-02-17T13:24:05.000Z</time>
      </trkpt>
      <trkpt lat="44.29433" lon="6.82181">
        <ele>1961</ele>
        <time>2019-02-17T13:24:06.000Z</time>
      </trkpt>
      <trkpt lat="44.29432" lon="6.82194">
        <ele>1961.4000244141</ele>
        <time>2019-02-17T13:24:24.000Z</time>
      </trkpt>
      <trkpt lat="44.2943" lon="6.82215">
        <ele>1962</ele>
        <time>2019-02-17T13:25:01.000Z</time>
      </trkpt>
      <trkpt lat="44.29434" lon="6.82221">
        <ele>1963.1999511719</ele>
        <time>2019-02-17T13:25:28.000Z</time>
      </trkpt>
      <trkpt lat="44.29437" lon="6.82223">
        <ele>1964.1999511719</ele>
        <time>2019-02-17T13:25:41.000Z</time>
      </trkpt>
      <trkpt lat="44.2944" lon="6.82228">
        <ele>1965.1999511719</ele>
        <time>2019-02-17T13:25:56.000Z</time>
      </trkpt>
      <trkpt lat="44.29444" lon="6.82234">
        <ele>1966.1999511719</ele>
        <time>2019-02-17T13:26:15.000Z</time>
      </trkpt>
      <trkpt lat="44.29447" lon="6.82245">
        <ele>1967.1999511719</ele>
        <time>2019-02-17T13:26:35.000Z</time>
      </trkpt>
      <trkpt lat="44.29448" lon="6.82246">
        <ele>1967.4000244141</ele>
        <time>2019-02-17T13:26:36.000Z</time>
      </trkpt>
      <trkpt lat="44.29448" lon="6.82246">
        <ele>1967.4000244141</ele>
        <time>2019-02-17T13:26:37.000Z</time>
      </trkpt>
      <trkpt lat="44.29447" lon="6.82265">
        <ele>1967.4000244141</ele>
        <time>2019-02-17T13:26:48.000Z</time>
      </trkpt>
      <trkpt lat="44.29447" lon="6.82282">
        <ele>1966.1999511719</ele>
        <time>2019-02-17T13:26:53.000Z</time>
      </trkpt>
      <trkpt lat="44.29444" lon="6.82293">
        <ele>1965.1999511719</ele>
        <time>2019-02-17T13:26:57.000Z</time>
      </trkpt>
      <trkpt lat="44.29441" lon="6.82303">
        <ele>1964</ele>
        <time>2019-02-17T13:26:59.000Z</time>
      </trkpt>
      <trkpt lat="44.29435" lon="6.82313">
        <ele>1962.4000244141</ele>
        <time>2019-02-17T13:27:01.000Z</time>
      </trkpt>
      <trkpt lat="44.29429" lon="6.82321">
        <ele>1961</ele>
        <time>2019-02-17T13:27:03.000Z</time>
      </trkpt>
      <trkpt lat="44.2942" lon="6.82329">
        <ele>1960</ele>
        <time>2019-02-17T13:27:06.000Z</time>
      </trkpt>
      <trkpt lat="44.2941" lon="6.82336">
        <ele>1958.8000488281</ele>
        <time>2019-02-17T13:27:09.000Z</time>
      </trkpt>
      <trkpt lat="44.29401" lon="6.82339">
        <ele>1957.8000488281</ele>
        <time>2019-02-17T13:27:12.000Z</time>
      </trkpt>
      <trkpt lat="44.29393" lon="6.82342">
        <ele>1956.4000244141</ele>
        <time>2019-02-17T13:27:15.000Z</time>
      </trkpt>
      <trkpt lat="44.29388" lon="6.82344">
        <ele>1955.4000244141</ele>
        <time>2019-02-17T13:27:17.000Z</time>
      </trkpt>
      <trkpt lat="44.29377" lon="6.82357">
        <ele>1954</ele>
        <time>2019-02-17T13:27:21.000Z</time>
      </trkpt>
      <trkpt lat="44.29369" lon="6.82375">
        <ele>1952.5999755859</ele>
        <time>2019-02-17T13:27:24.000Z</time>
      </trkpt>
      <trkpt lat="44.29369" lon="6.82389">
        <ele>1951.5999755859</ele>
        <time>2019-02-17T13:27:26.000Z</time>
      </trkpt>
      <trkpt lat="44.2937" lon="6.82403">
        <ele>1950.1999511719</ele>
        <time>2019-02-17T13:27:28.000Z</time>
      </trkpt>
      <trkpt lat="44.29374" lon="6.82418">
        <ele>1949</ele>
        <time>2019-02-17T13:27:31.000Z</time>
      </trkpt>
      <trkpt lat="44.29377" lon="6.82422">
        <ele>1948</ele>
        <time>2019-02-17T13:27:33.000Z</time>
      </trkpt>
      <trkpt lat="44.29377" lon="6.82422">
        <ele>1947.5999755859</ele>
        <time>2019-02-17T13:27:34.000Z</time>
      </trkpt>
      <trkpt lat="44.29382" lon="6.82438">
        <ele>1946.5999755859</ele>
        <time>2019-02-17T13:27:47.000Z</time>
      </trkpt>
      <trkpt lat="44.29384" lon="6.82441">
        <ele>1946.4000244141</ele>
        <time>2019-02-17T13:27:48.000Z</time>
      </trkpt>
      <trkpt lat="44.29386" lon="6.82451">
        <ele>1945</ele>
        <time>2019-02-17T13:27:51.000Z</time>
      </trkpt>
      <trkpt lat="44.29386" lon="6.8246">
        <ele>1944</ele>
        <time>2019-02-17T13:27:54.000Z</time>
      </trkpt>
      <trkpt lat="44.29385" lon="6.82464">
        <ele>1943.5999755859</ele>
        <time>2019-02-17T13:27:55.000Z</time>
      </trkpt>
      <trkpt lat="44.29379" lon="6.82474">
        <ele>1942.5999755859</ele>
        <time>2019-02-17T13:27:58.000Z</time>
      </trkpt>
      <trkpt lat="44.29375" lon="6.8248">
        <ele>1941.5999755859</ele>
        <time>2019-02-17T13:28:00.000Z</time>
      </trkpt>
      <trkpt lat="44.29371" lon="6.82483">
        <ele>1941.1999511719</ele>
        <time>2019-02-17T13:28:01.000Z</time>
      </trkpt>
      <trkpt lat="44.29357" lon="6.8249">
        <ele>1939.8000488281</ele>
        <time>2019-02-17T13:28:05.000Z</time>
      </trkpt>
      <trkpt lat="44.29352" lon="6.8249">
        <ele>1939.4000244141</ele>
        <time>2019-02-17T13:28:06.000Z</time>
      </trkpt>
      <trkpt lat="44.29342" lon="6.82489">
        <ele>1938.4000244141</ele>
        <time>2019-02-17T13:28:08.000Z</time>
      </trkpt>
      <trkpt lat="44.2933" lon="6.82489">
        <ele>1936.8000488281</ele>
        <time>2019-02-17T13:28:10.000Z</time>
      </trkpt>
      <trkpt lat="44.29324" lon="6.82489">
        <ele>1936</ele>
        <time>2019-02-17T13:28:11.000Z</time>
      </trkpt>
      <trkpt lat="44.29318" lon="6.8249">
        <ele>1935.4000244141</ele>
        <time>2019-02-17T13:28:12.000Z</time>
      </trkpt>
      <trkpt lat="44.29314" lon="6.82493">
        <ele>1934.8000488281</ele>
        <time>2019-02-17T13:28:13.000Z</time>
      </trkpt>
      <trkpt lat="44.29311" lon="6.82497">
        <ele>1934.1999511719</ele>
        <time>2019-02-17T13:28:14.000Z</time>
      </trkpt>
      <trkpt lat="44.29307" lon="6.82503">
        <ele>1933.1999511719</ele>
        <time>2019-02-17T13:28:17.000Z</time>
      </trkpt>
      <trkpt lat="44.29306" lon="6.82503">
        <ele>1932.8000488281</ele>
        <time>2019-02-17T13:28:19.000Z</time>
      </trkpt>
      <trkpt lat="44.29303" lon="6.82516">
        <ele>1932.5999755859</ele>
        <time>2019-02-17T13:28:47.000Z</time>
      </trkpt>
      <trkpt lat="44.29311" lon="6.82529">
        <ele>1932</ele>
        <time>2019-02-17T13:28:51.000Z</time>
      </trkpt>
      <trkpt lat="44.29316" lon="6.82546">
        <ele>1930.5999755859</ele>
        <time>2019-02-17T13:28:56.000Z</time>
      </trkpt>
      <trkpt lat="44.29318" lon="6.82561">
        <ele>1929.5999755859</ele>
        <time>2019-02-17T13:29:00.000Z</time>
      </trkpt>
      <trkpt lat="44.29316" lon="6.82585">
        <ele>1928</ele>
        <time>2019-02-17T13:29:04.000Z</time>
      </trkpt>
      <trkpt lat="44.29315" lon="6.82599">
        <ele>1927</ele>
        <time>2019-02-17T13:29:06.000Z</time>
      </trkpt>
      <trkpt lat="44.29314" lon="6.82614">
        <ele>1925.5999755859</ele>
        <time>2019-02-17T13:29:08.000Z</time>
      </trkpt>
      <trkpt lat="44.29313" lon="6.82628">
        <ele>1924.4000244141</ele>
        <time>2019-02-17T13:29:10.000Z</time>
      </trkpt>
      <trkpt lat="44.29311" lon="6.82641">
        <ele>1923</ele>
        <time>2019-02-17T13:29:12.000Z</time>
      </trkpt>
      <trkpt lat="44.2931" lon="6.82662">
        <ele>1921.8000488281</ele>
        <time>2019-02-17T13:29:15.000Z</time>
      </trkpt>
      <trkpt lat="44.29315" lon="6.82669">
        <ele>1921.4000244141</ele>
        <time>2019-02-17T13:29:16.000Z</time>
      </trkpt>
      <trkpt lat="44.29314" lon="6.82679">
        <ele>1920.8000488281</ele>
        <time>2019-02-17T13:29:18.000Z</time>
      </trkpt>
      <trkpt lat="44.29313" lon="6.82683">
        <ele>1920.5999755859</ele>
        <time>2019-02-17T13:29:19.000Z</time>
      </trkpt>
      <trkpt lat="44.2931" lon="6.82699">
        <ele>1919.4000244141</ele>
        <time>2019-02-17T13:29:23.000Z</time>
      </trkpt>
      <trkpt lat="44.29302" lon="6.82713">
        <ele>1918.4000244141</ele>
        <time>2019-02-17T13:29:27.000Z</time>
      </trkpt>
      <trkpt lat="44.29289" lon="6.82742">
        <ele>1917.1999511719</ele>
        <time>2019-02-17T13:29:34.000Z</time>
      </trkpt>
      <trkpt lat="44.2928" lon="6.82761">
        <ele>1916.4000244141</ele>
        <time>2019-02-17T13:29:38.000Z</time>
      </trkpt>
      <trkpt lat="44.29278" lon="6.82766">
        <ele>1916</ele>
        <time>2019-02-17T13:29:39.000Z</time>
      </trkpt>
      <trkpt lat="44.29274" lon="6.82797">
        <ele>1914.8000488281</ele>
        <time>2019-02-17T13:29:43.000Z</time>
      </trkpt>
      <trkpt lat="44.29272" lon="6.82832">
        <ele>1913.4000244141</ele>
        <time>2019-02-17T13:29:47.000Z</time>
      </trkpt>
      <trkpt lat="44.29272" lon="6.82844">
        <ele>1912.4000244141</ele>
        <time>2019-02-17T13:29:49.000Z</time>
      </trkpt>
      <trkpt lat="44.2927" lon="6.8285">
        <ele>1912</ele>
        <time>2019-02-17T13:29:50.000Z</time>
      </trkpt>
      <trkpt lat="44.29265" lon="6.82864">
        <ele>1911</ele>
        <time>2019-02-17T13:29:53.000Z</time>
      </trkpt>
      <trkpt lat="44.29259" lon="6.82878">
        <ele>1909.5999755859</ele>
        <time>2019-02-17T13:29:56.000Z</time>
      </trkpt>
      <trkpt lat="44.29254" lon="6.82896">
        <ele>1908.4000244141</ele>
        <time>2019-02-17T13:29:59.000Z</time>
      </trkpt>
      <trkpt lat="44.29251" lon="6.82916">
        <ele>1907</ele>
        <time>2019-02-17T13:30:02.000Z</time>
      </trkpt>
      <trkpt lat="44.29248" lon="6.82921">
        <ele>1906.5999755859</ele>
        <time>2019-02-17T13:30:03.000Z</time>
      </trkpt>
      <trkpt lat="44.29242" lon="6.82932">
        <ele>1905.5999755859</ele>
        <time>2019-02-17T13:30:05.000Z</time>
      </trkpt>
      <trkpt lat="44.29235" lon="6.82943">
        <ele>1904.4000244141</ele>
        <time>2019-02-17T13:30:07.000Z</time>
      </trkpt>
      <trkpt lat="44.29229" lon="6.82952">
        <ele>1903</ele>
        <time>2019-02-17T13:30:09.000Z</time>
      </trkpt>
      <trkpt lat="44.29224" lon="6.82961">
        <ele>1901.8000488281</ele>
        <time>2019-02-17T13:30:11.000Z</time>
      </trkpt>
      <trkpt lat="44.29215" lon="6.82971">
        <ele>1900.5999755859</ele>
        <time>2019-02-17T13:30:14.000Z</time>
      </trkpt>
      <trkpt lat="44.29212" lon="6.82974">
        <ele>1900.4000244141</ele>
        <time>2019-02-17T13:30:15.000Z</time>
      </trkpt>
      <trkpt lat="44.29206" lon="6.8298">
        <ele>1899.1999511719</ele>
        <time>2019-02-17T13:30:17.000Z</time>
      </trkpt>
      <trkpt lat="44.29201" lon="6.82987">
        <ele>1898</ele>
        <time>2019-02-17T13:30:19.000Z</time>
      </trkpt>
      <trkpt lat="44.29188" lon="6.82997">
        <ele>1897</ele>
        <time>2019-02-17T13:30:23.000Z</time>
      </trkpt>
      <trkpt lat="44.29179" lon="6.83001">
        <ele>1895.8000488281</ele>
        <time>2019-02-17T13:30:26.000Z</time>
      </trkpt>
      <trkpt lat="44.2917" lon="6.83009">
        <ele>1894.5999755859</ele>
        <time>2019-02-17T13:30:29.000Z</time>
      </trkpt>
      <trkpt lat="44.29159" lon="6.83017">
        <ele>1893.1999511719</ele>
        <time>2019-02-17T13:30:32.000Z</time>
      </trkpt>
      <trkpt lat="44.29153" lon="6.83025">
        <ele>1892.1999511719</ele>
        <time>2019-02-17T13:30:34.000Z</time>
      </trkpt>
      <trkpt lat="44.29144" lon="6.83035">
        <ele>1891</ele>
        <time>2019-02-17T13:30:37.000Z</time>
      </trkpt>
      <trkpt lat="44.29133" lon="6.83046">
        <ele>1889.5999755859</ele>
        <time>2019-02-17T13:30:40.000Z</time>
      </trkpt>
      <trkpt lat="44.29125" lon="6.83053">
        <ele>1888.4000244141</ele>
        <time>2019-02-17T13:30:42.000Z</time>
      </trkpt>
      <trkpt lat="44.29117" lon="6.8306">
        <ele>1887.1999511719</ele>
        <time>2019-02-17T13:30:44.000Z</time>
      </trkpt>
      <trkpt lat="44.29109" lon="6.83069">
        <ele>1886</ele>
        <time>2019-02-17T13:30:46.000Z</time>
      </trkpt>
      <trkpt lat="44.29101" lon="6.83076">
        <ele>1884.8000488281</ele>
        <time>2019-02-17T13:30:48.000Z</time>
      </trkpt>
      <trkpt lat="44.29091" lon="6.83083">
        <ele>1883.8000488281</ele>
        <time>2019-02-17T13:30:51.000Z</time>
      </trkpt>
      <trkpt lat="44.29076" lon="6.83094">
        <ele>1882.4000244141</ele>
        <time>2019-02-17T13:30:55.000Z</time>
      </trkpt>
      <trkpt lat="44.29069" lon="6.831">
        <ele>1881.5999755859</ele>
        <time>2019-02-17T13:30:57.000Z</time>
      </trkpt>
      <trkpt lat="44.29066" lon="6.83102">
        <ele>1881.1999511719</ele>
        <time>2019-02-17T13:30:58.000Z</time>
      </trkpt>
      <trkpt lat="44.2905" lon="6.83114">
        <ele>1880</ele>
        <time>2019-02-17T13:31:01.000Z</time>
      </trkpt>
      <trkpt lat="44.29035" lon="6.83127">
        <ele>1878.5999755859</ele>
        <time>2019-02-17T13:31:04.000Z</time>
      </trkpt>
      <trkpt lat="44.2902" lon="6.83142">
        <ele>1877</ele>
        <time>2019-02-17T13:31:07.000Z</time>
      </trkpt>
      <trkpt lat="44.29007" lon="6.8316">
        <ele>1876</ele>
        <time>2019-02-17T13:31:10.000Z</time>
      </trkpt>
      <trkpt lat="44.28999" lon="6.83173">
        <ele>1874.5999755859</ele>
        <time>2019-02-17T13:31:12.000Z</time>
      </trkpt>
      <trkpt lat="44.28994" lon="6.83186">
        <ele>1873.5999755859</ele>
        <time>2019-02-17T13:31:14.000Z</time>
      </trkpt>
      <trkpt lat="44.28992" lon="6.83192">
        <ele>1873.1999511719</ele>
        <time>2019-02-17T13:31:15.000Z</time>
      </trkpt>
      <trkpt lat="44.2899" lon="6.83198">
        <ele>1872.8000488281</ele>
        <time>2019-02-17T13:31:16.000Z</time>
      </trkpt>
      <trkpt lat="44.28985" lon="6.83219">
        <ele>1872</ele>
        <time>2019-02-17T13:31:18.000Z</time>
      </trkpt>
      <trkpt lat="44.28983" lon="6.83228">
        <ele>1871.5999755859</ele>
        <time>2019-02-17T13:31:19.000Z</time>
      </trkpt>
      <trkpt lat="44.28982" lon="6.83242">
        <ele>1870.5999755859</ele>
        <time>2019-02-17T13:31:21.000Z</time>
      </trkpt>
      <trkpt lat="44.28981" lon="6.83254">
        <ele>1869.5999755859</ele>
        <time>2019-02-17T13:31:23.000Z</time>
      </trkpt>
      <trkpt lat="44.2898" lon="6.83269">
        <ele>1868.1999511719</ele>
        <time>2019-02-17T13:31:26.000Z</time>
      </trkpt>
      <trkpt lat="44.2898" lon="6.83281">
        <ele>1867</ele>
        <time>2019-02-17T13:31:29.000Z</time>
      </trkpt>
      <trkpt lat="44.2898" lon="6.83285">
        <ele>1866.5999755859</ele>
        <time>2019-02-17T13:31:30.000Z</time>
      </trkpt>
      <trkpt lat="44.28979" lon="6.83296">
        <ele>1865.8000488281</ele>
        <time>2019-02-17T13:31:32.000Z</time>
      </trkpt>
      <trkpt lat="44.28975" lon="6.83314">
        <ele>1864.4000244141</ele>
        <time>2019-02-17T13:31:35.000Z</time>
      </trkpt>
      <trkpt lat="44.28972" lon="6.83326">
        <ele>1863.4000244141</ele>
        <time>2019-02-17T13:31:37.000Z</time>
      </trkpt>
      <trkpt lat="44.28967" lon="6.83338">
        <ele>1862.1999511719</ele>
        <time>2019-02-17T13:31:39.000Z</time>
      </trkpt>
      <trkpt lat="44.28965" lon="6.83347">
        <ele>1861</ele>
        <time>2019-02-17T13:31:41.000Z</time>
      </trkpt>
      <trkpt lat="44.28964" lon="6.83357">
        <ele>1860</ele>
        <time>2019-02-17T13:31:43.000Z</time>
      </trkpt>
      <trkpt lat="44.28957" lon="6.83377">
        <ele>1858.8000488281</ele>
        <time>2019-02-17T13:31:46.000Z</time>
      </trkpt>
      <trkpt lat="44.28954" lon="6.83392">
        <ele>1857.8000488281</ele>
        <time>2019-02-17T13:31:48.000Z</time>
      </trkpt>
      <trkpt lat="44.2895" lon="6.83408">
        <ele>1856.4000244141</ele>
        <time>2019-02-17T13:31:50.000Z</time>
      </trkpt>
      <trkpt lat="44.2895" lon="6.83424">
        <ele>1855</ele>
        <time>2019-02-17T13:31:52.000Z</time>
      </trkpt>
      <trkpt lat="44.28949" lon="6.83431">
        <ele>1854.4000244141</ele>
        <time>2019-02-17T13:31:53.000Z</time>
      </trkpt>
      <trkpt lat="44.28947" lon="6.83446">
        <ele>1853.5999755859</ele>
        <time>2019-02-17T13:31:55.000Z</time>
      </trkpt>
      <trkpt lat="44.28944" lon="6.83459">
        <ele>1852.8000488281</ele>
        <time>2019-02-17T13:31:57.000Z</time>
      </trkpt>
      <trkpt lat="44.28942" lon="6.83466">
        <ele>1852.1999511719</ele>
        <time>2019-02-17T13:31:58.000Z</time>
      </trkpt>
      <trkpt lat="44.28938" lon="6.83481">
        <ele>1851.1999511719</ele>
        <time>2019-02-17T13:32:00.000Z</time>
      </trkpt>
      <trkpt lat="44.28936" lon="6.83494">
        <ele>1850</ele>
        <time>2019-02-17T13:32:02.000Z</time>
      </trkpt>
      <trkpt lat="44.28935" lon="6.83504">
        <ele>1849</ele>
        <time>2019-02-17T13:32:04.000Z</time>
      </trkpt>
      <trkpt lat="44.2893" lon="6.83513">
        <ele>1847.5999755859</ele>
        <time>2019-02-17T13:32:06.000Z</time>
      </trkpt>
      <trkpt lat="44.28927" lon="6.83522">
        <ele>1846.5999755859</ele>
        <time>2019-02-17T13:32:08.000Z</time>
      </trkpt>
      <trkpt lat="44.28921" lon="6.83533">
        <ele>1845.1999511719</ele>
        <time>2019-02-17T13:32:11.000Z</time>
      </trkpt>
      <trkpt lat="44.28917" lon="6.83539">
        <ele>1844</ele>
        <time>2019-02-17T13:32:13.000Z</time>
      </trkpt>
      <trkpt lat="44.28914" lon="6.83551">
        <ele>1842.8000488281</ele>
        <time>2019-02-17T13:32:15.000Z</time>
      </trkpt>
      <trkpt lat="44.28912" lon="6.83566">
        <ele>1841.5999755859</ele>
        <time>2019-02-17T13:32:17.000Z</time>
      </trkpt>
      <trkpt lat="44.2891" lon="6.83586">
        <ele>1840.4000244141</ele>
        <time>2019-02-17T13:32:20.000Z</time>
      </trkpt>
      <trkpt lat="44.28905" lon="6.83621">
        <ele>1839.4000244141</ele>
        <time>2019-02-17T13:32:25.000Z</time>
      </trkpt>
      <trkpt lat="44.28903" lon="6.83627">
        <ele>1839.1999511719</ele>
        <time>2019-02-17T13:32:26.000Z</time>
      </trkpt>
      <trkpt lat="44.28903" lon="6.83634">
        <ele>1839</ele>
        <time>2019-02-17T13:32:28.000Z</time>
      </trkpt>
      <trkpt lat="44.28902" lon="6.83641">
        <ele>1839</ele>
        <time>2019-02-17T13:32:32.000Z</time>
      </trkpt>
      <trkpt lat="44.28893" lon="6.83658">
        <ele>1838</ele>
        <time>2019-02-17T13:32:37.000Z</time>
      </trkpt>
      <trkpt lat="44.28892" lon="6.83659">
        <ele>1837.1999511719</ele>
        <time>2019-02-17T13:32:39.000Z</time>
      </trkpt>
      <trkpt lat="44.28892" lon="6.8366">
        <ele>1837</ele>
        <time>2019-02-17T13:32:41.000Z</time>
      </trkpt>
      <trkpt lat="44.28887" lon="6.83674">
        <ele>1836.8000488281</ele>
        <time>2019-02-17T13:33:14.000Z</time>
      </trkpt>
      <trkpt lat="44.28887" lon="6.83692">
        <ele>1835.8000488281</ele>
        <time>2019-02-17T13:33:18.000Z</time>
      </trkpt>
      <trkpt lat="44.28889" lon="6.83709">
        <ele>1834.4000244141</ele>
        <time>2019-02-17T13:33:22.000Z</time>
      </trkpt>
      <trkpt lat="44.28891" lon="6.8373">
        <ele>1833.1999511719</ele>
        <time>2019-02-17T13:33:26.000Z</time>
      </trkpt>
      <trkpt lat="44.28894" lon="6.83748">
        <ele>1831.8000488281</ele>
        <time>2019-02-17T13:33:29.000Z</time>
      </trkpt>
      <trkpt lat="44.28897" lon="6.83764">
        <ele>1830.5999755859</ele>
        <time>2019-02-17T13:33:32.000Z</time>
      </trkpt>
      <trkpt lat="44.28903" lon="6.83779">
        <ele>1829.1999511719</ele>
        <time>2019-02-17T13:33:35.000Z</time>
      </trkpt>
      <trkpt lat="44.28906" lon="6.83793">
        <ele>1828</ele>
        <time>2019-02-17T13:33:38.000Z</time>
      </trkpt>
      <trkpt lat="44.28906" lon="6.83808">
        <ele>1826.8000488281</ele>
        <time>2019-02-17T13:33:41.000Z</time>
      </trkpt>
      <trkpt lat="44.28908" lon="6.8382">
        <ele>1825.8000488281</ele>
        <time>2019-02-17T13:33:43.000Z</time>
      </trkpt>
      <trkpt lat="44.28907" lon="6.83841">
        <ele>1824.4000244141</ele>
        <time>2019-02-17T13:33:46.000Z</time>
      </trkpt>
      <trkpt lat="44.28909" lon="6.83849">
        <ele>1824</ele>
        <time>2019-02-17T13:33:47.000Z</time>
      </trkpt>
      <trkpt lat="44.28915" lon="6.83866">
        <ele>1822.8000488281</ele>
        <time>2019-02-17T13:33:49.000Z</time>
      </trkpt>
      <trkpt lat="44.28915" lon="6.83874">
        <ele>1822</ele>
        <time>2019-02-17T13:33:50.000Z</time>
      </trkpt>
      <trkpt lat="44.28915" lon="6.83882">
        <ele>1821.5999755859</ele>
        <time>2019-02-17T13:33:51.000Z</time>
      </trkpt>
      <trkpt lat="44.28914" lon="6.83902">
        <ele>1820.5999755859</ele>
        <time>2019-02-17T13:33:53.000Z</time>
      </trkpt>
      <trkpt lat="44.28914" lon="6.83909">
        <ele>1820.1999511719</ele>
        <time>2019-02-17T13:33:54.000Z</time>
      </trkpt>
      <trkpt lat="44.28915" lon="6.83912">
        <ele>1819.5999755859</ele>
        <time>2019-02-17T13:33:55.000Z</time>
      </trkpt>
      <trkpt lat="44.28917" lon="6.83913">
        <ele>1819</ele>
        <time>2019-02-17T13:33:56.000Z</time>
      </trkpt>
      <trkpt lat="44.28922" lon="6.83912">
        <ele>1818</ele>
        <time>2019-02-17T13:33:58.000Z</time>
      </trkpt>
      <trkpt lat="44.28928" lon="6.839">
        <ele>1816.8000488281</ele>
        <time>2019-02-17T13:34:02.000Z</time>
      </trkpt>
      <trkpt lat="44.28931" lon="6.83887">
        <ele>1815.5999755859</ele>
        <time>2019-02-17T13:34:05.000Z</time>
      </trkpt>
      <trkpt lat="44.28933" lon="6.8387">
        <ele>1814.4000244141</ele>
        <time>2019-02-17T13:34:09.000Z</time>
      </trkpt>
      <trkpt lat="44.28933" lon="6.83852">
        <ele>1813.1999511719</ele>
        <time>2019-02-17T13:34:13.000Z</time>
      </trkpt>
      <trkpt lat="44.28936" lon="6.83828">
        <ele>1812</ele>
        <time>2019-02-17T13:34:17.000Z</time>
      </trkpt>
      <trkpt lat="44.28938" lon="6.83818">
        <ele>1810.8000488281</ele>
        <time>2019-02-17T13:34:19.000Z</time>
      </trkpt>
      <trkpt lat="44.28942" lon="6.83797">
        <ele>1809.4000244141</ele>
        <time>2019-02-17T13:34:22.000Z</time>
      </trkpt>
      <trkpt lat="44.28946" lon="6.83784">
        <ele>1808</ele>
        <time>2019-02-17T13:34:25.000Z</time>
      </trkpt>
      <trkpt lat="44.28953" lon="6.83773">
        <ele>1806.8000488281</ele>
        <time>2019-02-17T13:34:28.000Z</time>
      </trkpt>
      <trkpt lat="44.2896" lon="6.83764">
        <ele>1805.8000488281</ele>
        <time>2019-02-17T13:34:30.000Z</time>
      </trkpt>
      <trkpt lat="44.28967" lon="6.83754">
        <ele>1804.8000488281</ele>
        <time>2019-02-17T13:34:32.000Z</time>
      </trkpt>
      <trkpt lat="44.28986" lon="6.83739">
        <ele>1803.4000244141</ele>
        <time>2019-02-17T13:34:36.000Z</time>
      </trkpt>
      <trkpt lat="44.28995" lon="6.83731">
        <ele>1802.1999511719</ele>
        <time>2019-02-17T13:34:38.000Z</time>
      </trkpt>
      <trkpt lat="44.29002" lon="6.83721">
        <ele>1801.4000244141</ele>
        <time>2019-02-17T13:34:40.000Z</time>
      </trkpt>
      <trkpt lat="44.29006" lon="6.83716">
        <ele>1801</ele>
        <time>2019-02-17T13:34:41.000Z</time>
      </trkpt>
      <trkpt lat="44.29013" lon="6.83701">
        <ele>1799.8000488281</ele>
        <time>2019-02-17T13:34:44.000Z</time>
      </trkpt>
      <trkpt lat="44.2902" lon="6.83684">
        <ele>1798.5999755859</ele>
        <time>2019-02-17T13:34:47.000Z</time>
      </trkpt>
      <trkpt lat="44.29025" lon="6.83686">
        <ele>1797.5999755859</ele>
        <time>2019-02-17T13:34:49.000Z</time>
      </trkpt>
      <trkpt lat="44.29023" lon="6.83694">
        <ele>1796.4000244141</ele>
        <time>2019-02-17T13:34:53.000Z</time>
      </trkpt>
      <trkpt lat="44.29019" lon="6.83719">
        <ele>1795.1999511719</ele>
        <time>2019-02-17T13:34:59.000Z</time>
      </trkpt>
      <trkpt lat="44.29018" lon="6.8373">
        <ele>1794.5999755859</ele>
        <time>2019-02-17T13:35:01.000Z</time>
      </trkpt>
      <trkpt lat="44.29017" lon="6.83742">
        <ele>1794</ele>
        <time>2019-02-17T13:35:03.000Z</time>
      </trkpt>
      <trkpt lat="44.29016" lon="6.83757">
        <ele>1792.8000488281</ele>
        <time>2019-02-17T13:35:06.000Z</time>
      </trkpt>
      <trkpt lat="44.29016" lon="6.83769">
        <ele>1791.8000488281</ele>
        <time>2019-02-17T13:35:09.000Z</time>
      </trkpt>
      <trkpt lat="44.29015" lon="6.83784">
        <ele>1790.5999755859</ele>
        <time>2019-02-17T13:35:13.000Z</time>
      </trkpt>
      <trkpt lat="44.29012" lon="6.83795">
        <ele>1789.5999755859</ele>
        <time>2019-02-17T13:35:16.000Z</time>
      </trkpt>
      <trkpt lat="44.29009" lon="6.83802">
        <ele>1788.4000244141</ele>
        <time>2019-02-17T13:35:18.000Z</time>
      </trkpt>
      <trkpt lat="44.29001" lon="6.8382">
        <ele>1787</ele>
        <time>2019-02-17T13:35:22.000Z</time>
      </trkpt>
      <trkpt lat="44.29" lon="6.83829">
        <ele>1786</ele>
        <time>2019-02-17T13:35:24.000Z</time>
      </trkpt>
      <trkpt lat="44.28995" lon="6.83842">
        <ele>1785</ele>
        <time>2019-02-17T13:35:27.000Z</time>
      </trkpt>
      <trkpt lat="44.28989" lon="6.83861">
        <ele>1783.8000488281</ele>
        <time>2019-02-17T13:35:30.000Z</time>
      </trkpt>
      <trkpt lat="44.28984" lon="6.83884">
        <ele>1782.5999755859</ele>
        <time>2019-02-17T13:35:33.000Z</time>
      </trkpt>
      <trkpt lat="44.28983" lon="6.83892">
        <ele>1782.1999511719</ele>
        <time>2019-02-17T13:35:34.000Z</time>
      </trkpt>
      <trkpt lat="44.28981" lon="6.83904">
        <ele>1781</ele>
        <time>2019-02-17T13:35:36.000Z</time>
      </trkpt>
      <trkpt lat="44.28979" lon="6.83915">
        <ele>1779.8000488281</ele>
        <time>2019-02-17T13:35:38.000Z</time>
      </trkpt>
      <trkpt lat="44.28977" lon="6.83926">
        <ele>1779.1999511719</ele>
        <time>2019-02-17T13:35:40.000Z</time>
      </trkpt>
      <trkpt lat="44.28976" lon="6.83931">
        <ele>1778.8000488281</ele>
        <time>2019-02-17T13:35:41.000Z</time>
      </trkpt>
      <trkpt lat="44.28974" lon="6.83945">
        <ele>1777.5999755859</ele>
        <time>2019-02-17T13:35:44.000Z</time>
      </trkpt>
      <trkpt lat="44.28972" lon="6.83958">
        <ele>1776.1999511719</ele>
        <time>2019-02-17T13:35:46.000Z</time>
      </trkpt>
      <trkpt lat="44.28972" lon="6.83973">
        <ele>1775</ele>
        <time>2019-02-17T13:35:48.000Z</time>
      </trkpt>
      <trkpt lat="44.28975" lon="6.83999">
        <ele>1774</ele>
        <time>2019-02-17T13:35:51.000Z</time>
      </trkpt>
      <trkpt lat="44.28975" lon="6.84014">
        <ele>1773</ele>
        <time>2019-02-17T13:35:53.000Z</time>
      </trkpt>
      <trkpt lat="44.28976" lon="6.84021">
        <ele>1772.5999755859</ele>
        <time>2019-02-17T13:35:54.000Z</time>
      </trkpt>
      <trkpt lat="44.28977" lon="6.84027">
        <ele>1772.1999511719</ele>
        <time>2019-02-17T13:35:55.000Z</time>
      </trkpt>
      <trkpt lat="44.28976" lon="6.84039">
        <ele>1771.1999511719</ele>
        <time>2019-02-17T13:35:57.000Z</time>
      </trkpt>
      <trkpt lat="44.28975" lon="6.84051">
        <ele>1770.1999511719</ele>
        <time>2019-02-17T13:35:59.000Z</time>
      </trkpt>
      <trkpt lat="44.28974" lon="6.84064">
        <ele>1769.4000244141</ele>
        <time>2019-02-17T13:36:01.000Z</time>
      </trkpt>
      <trkpt lat="44.28974" lon="6.8407">
        <ele>1769</ele>
        <time>2019-02-17T13:36:02.000Z</time>
      </trkpt>
      <trkpt lat="44.28972" lon="6.84076">
        <ele>1768.4000244141</ele>
        <time>2019-02-17T13:36:03.000Z</time>
      </trkpt>
      <trkpt lat="44.28973" lon="6.84081">
        <ele>1768</ele>
        <time>2019-02-17T13:36:04.000Z</time>
      </trkpt>
      <trkpt lat="44.28972" lon="6.84091">
        <ele>1766.8000488281</ele>
        <time>2019-02-17T13:36:06.000Z</time>
      </trkpt>
      <trkpt lat="44.28972" lon="6.84099">
        <ele>1765.8000488281</ele>
        <time>2019-02-17T13:36:08.000Z</time>
      </trkpt>
      <trkpt lat="44.28971" lon="6.84108">
        <ele>1764.5999755859</ele>
        <time>2019-02-17T13:36:10.000Z</time>
      </trkpt>
      <trkpt lat="44.28968" lon="6.84119">
        <ele>1763.5999755859</ele>
        <time>2019-02-17T13:36:13.000Z</time>
      </trkpt>
      <trkpt lat="44.28966" lon="6.84139">
        <ele>1762.1999511719</ele>
        <time>2019-02-17T13:36:15.000Z</time>
      </trkpt>
      <trkpt lat="44.28966" lon="6.84158">
        <ele>1761</ele>
        <time>2019-02-17T13:36:17.000Z</time>
      </trkpt>
      <trkpt lat="44.28966" lon="6.84175">
        <ele>1759.8000488281</ele>
        <time>2019-02-17T13:36:19.000Z</time>
      </trkpt>
      <trkpt lat="44.28966" lon="6.84182">
        <ele>1759.4000244141</ele>
        <time>2019-02-17T13:36:20.000Z</time>
      </trkpt>
      <trkpt lat="44.28963" lon="6.84193">
        <ele>1758.8000488281</ele>
        <time>2019-02-17T13:36:21.000Z</time>
      </trkpt>
      <trkpt lat="44.28961" lon="6.84209">
        <ele>1757.1999511719</ele>
        <time>2019-02-17T13:36:23.000Z</time>
      </trkpt>
      <trkpt lat="44.28961" lon="6.84224">
        <ele>1756.1999511719</ele>
        <time>2019-02-17T13:36:25.000Z</time>
      </trkpt>
      <trkpt lat="44.28958" lon="6.84245">
        <ele>1755.1999511719</ele>
        <time>2019-02-17T13:36:28.000Z</time>
      </trkpt>
      <trkpt lat="44.28958" lon="6.84268">
        <ele>1753.8000488281</ele>
        <time>2019-02-17T13:36:31.000Z</time>
      </trkpt>
      <trkpt lat="44.28956" lon="6.8428">
        <ele>1752.8000488281</ele>
        <time>2019-02-17T13:36:33.000Z</time>
      </trkpt>
      <trkpt lat="44.28951" lon="6.84297">
        <ele>1751.1999511719</ele>
        <time>2019-02-17T13:36:36.000Z</time>
      </trkpt>
      <trkpt lat="44.28945" lon="6.84306">
        <ele>1750.1999511719</ele>
        <time>2019-02-17T13:36:38.000Z</time>
      </trkpt>
      <trkpt lat="44.28935" lon="6.84331">
        <ele>1749.4000244141</ele>
        <time>2019-02-17T13:36:41.000Z</time>
      </trkpt>
      <trkpt lat="44.28931" lon="6.84341">
        <ele>1748.8000488281</ele>
        <time>2019-02-17T13:36:43.000Z</time>
      </trkpt>
      <trkpt lat="44.28921" lon="6.84364">
        <ele>1747.5999755859</ele>
        <time>2019-02-17T13:36:47.000Z</time>
      </trkpt>
      <trkpt lat="44.28912" lon="6.84383">
        <ele>1746.5999755859</ele>
        <time>2019-02-17T13:36:51.000Z</time>
      </trkpt>
      <trkpt lat="44.28906" lon="6.84404">
        <ele>1745.4000244141</ele>
        <time>2019-02-17T13:36:56.000Z</time>
      </trkpt>
      <trkpt lat="44.28908" lon="6.84414">
        <ele>1745.1999511719</ele>
        <time>2019-02-17T13:36:59.000Z</time>
      </trkpt>
      <trkpt lat="44.28915" lon="6.84478">
        <ele>1744.4000244141</ele>
        <time>2019-02-17T13:37:10.000Z</time>
      </trkpt>
      <trkpt lat="44.28909" lon="6.84487">
        <ele>1743.8000488281</ele>
        <time>2019-02-17T13:37:12.000Z</time>
      </trkpt>
      <trkpt lat="44.289" lon="6.84495">
        <ele>1742.8000488281</ele>
        <time>2019-02-17T13:37:14.000Z</time>
      </trkpt>
      <trkpt lat="44.28896" lon="6.84498">
        <ele>1742.4000244141</ele>
        <time>2019-02-17T13:37:15.000Z</time>
      </trkpt>
      <trkpt lat="44.28889" lon="6.84507">
        <ele>1741.4000244141</ele>
        <time>2019-02-17T13:37:17.000Z</time>
      </trkpt>
      <trkpt lat="44.28885" lon="6.8451">
        <ele>1740.5999755859</ele>
        <time>2019-02-17T13:37:18.000Z</time>
      </trkpt>
      <trkpt lat="44.28881" lon="6.84515">
        <ele>1739.8000488281</ele>
        <time>2019-02-17T13:37:19.000Z</time>
      </trkpt>
      <trkpt lat="44.28878" lon="6.84519">
        <ele>1739</ele>
        <time>2019-02-17T13:37:20.000Z</time>
      </trkpt>
      <trkpt lat="44.28875" lon="6.84526">
        <ele>1738.4000244141</ele>
        <time>2019-02-17T13:37:21.000Z</time>
      </trkpt>
      <trkpt lat="44.28872" lon="6.84533">
        <ele>1738</ele>
        <time>2019-02-17T13:37:22.000Z</time>
      </trkpt>
      <trkpt lat="44.28864" lon="6.84554">
        <ele>1737.4000244141</ele>
        <time>2019-02-17T13:37:25.000Z</time>
      </trkpt>
      <trkpt lat="44.28856" lon="6.84574">
        <ele>1736.1999511719</ele>
        <time>2019-02-17T13:37:28.000Z</time>
      </trkpt>
      <trkpt lat="44.28852" lon="6.84589">
        <ele>1735.1999511719</ele>
        <time>2019-02-17T13:37:30.000Z</time>
      </trkpt>
      <trkpt lat="44.28847" lon="6.84607">
        <ele>1733.5999755859</ele>
        <time>2019-02-17T13:37:32.000Z</time>
      </trkpt>
      <trkpt lat="44.28845" lon="6.8463">
        <ele>1732.4000244141</ele>
        <time>2019-02-17T13:37:34.000Z</time>
      </trkpt>
      <trkpt lat="44.2884" lon="6.84649">
        <ele>1731.8000488281</ele>
        <time>2019-02-17T13:37:36.000Z</time>
      </trkpt>
      <trkpt lat="44.28839" lon="6.84656">
        <ele>1731.1999511719</ele>
        <time>2019-02-17T13:37:37.000Z</time>
      </trkpt>
      <trkpt lat="44.28834" lon="6.84667">
        <ele>1729.8000488281</ele>
        <time>2019-02-17T13:37:39.000Z</time>
      </trkpt>
      <trkpt lat="44.28826" lon="6.84683">
        <ele>1728.4000244141</ele>
        <time>2019-02-17T13:37:42.000Z</time>
      </trkpt>
      <trkpt lat="44.28811" lon="6.847">
        <ele>1727.4000244141</ele>
        <time>2019-02-17T13:37:46.000Z</time>
      </trkpt>
      <trkpt lat="44.28803" lon="6.84711">
        <ele>1726.4000244141</ele>
        <time>2019-02-17T13:37:48.000Z</time>
      </trkpt>
      <trkpt lat="44.28798" lon="6.84718">
        <ele>1726</ele>
        <time>2019-02-17T13:37:49.000Z</time>
      </trkpt>
      <trkpt lat="44.28795" lon="6.84724">
        <ele>1725.5999755859</ele>
        <time>2019-02-17T13:37:50.000Z</time>
      </trkpt>
      <trkpt lat="44.2879" lon="6.84741">
        <ele>1724.5999755859</ele>
        <time>2019-02-17T13:37:52.000Z</time>
      </trkpt>
      <trkpt lat="44.28785" lon="6.84756">
        <ele>1723.4000244141</ele>
        <time>2019-02-17T13:37:54.000Z</time>
      </trkpt>
      <trkpt lat="44.28781" lon="6.84774">
        <ele>1722.5999755859</ele>
        <time>2019-02-17T13:37:56.000Z</time>
      </trkpt>
      <trkpt lat="44.28779" lon="6.84786">
        <ele>1722</ele>
        <time>2019-02-17T13:37:57.000Z</time>
      </trkpt>
      <trkpt lat="44.28777" lon="6.84797">
        <ele>1721.5999755859</ele>
        <time>2019-02-17T13:37:58.000Z</time>
      </trkpt>
      <trkpt lat="44.28776" lon="6.84821">
        <ele>1720.5999755859</ele>
        <time>2019-02-17T13:38:00.000Z</time>
      </trkpt>
      <trkpt lat="44.28778" lon="6.8484">
        <ele>1719.4000244141</ele>
        <time>2019-02-17T13:38:02.000Z</time>
      </trkpt>
      <trkpt lat="44.28785" lon="6.84855">
        <ele>1718.4000244141</ele>
        <time>2019-02-17T13:38:04.000Z</time>
      </trkpt>
      <trkpt lat="44.28788" lon="6.84864">
        <ele>1717.8000488281</ele>
        <time>2019-02-17T13:38:05.000Z</time>
      </trkpt>
      <trkpt lat="44.28789" lon="6.84874">
        <ele>1717.1999511719</ele>
        <time>2019-02-17T13:38:06.000Z</time>
      </trkpt>
      <trkpt lat="44.28791" lon="6.84892">
        <ele>1715.5999755859</ele>
        <time>2019-02-17T13:38:08.000Z</time>
      </trkpt>
      <trkpt lat="44.28794" lon="6.84899">
        <ele>1714.5999755859</ele>
        <time>2019-02-17T13:38:09.000Z</time>
      </trkpt>
      <trkpt lat="44.28798" lon="6.84906">
        <ele>1713.4000244141</ele>
        <time>2019-02-17T13:38:10.000Z</time>
      </trkpt>
      <trkpt lat="44.28804" lon="6.8492">
        <ele>1712.1999511719</ele>
        <time>2019-02-17T13:38:12.000Z</time>
      </trkpt>
      <trkpt lat="44.28804" lon="6.84934">
        <ele>1711.5999755859</ele>
        <time>2019-02-17T13:38:14.000Z</time>
      </trkpt>
      <trkpt lat="44.28803" lon="6.8494">
        <ele>1711.1999511719</ele>
        <time>2019-02-17T13:38:15.000Z</time>
      </trkpt>
      <trkpt lat="44.28798" lon="6.84956">
        <ele>1710.1999511719</ele>
        <time>2019-02-17T13:38:18.000Z</time>
      </trkpt>
      <trkpt lat="44.28796" lon="6.8496">
        <ele>1710</ele>
        <time>2019-02-17T13:38:19.000Z</time>
      </trkpt>
      <trkpt lat="44.28793" lon="6.84964">
        <ele>1709.5999755859</ele>
        <time>2019-02-17T13:38:20.000Z</time>
      </trkpt>
      <trkpt lat="44.28786" lon="6.84972">
        <ele>1708.8000488281</ele>
        <time>2019-02-17T13:38:22.000Z</time>
      </trkpt>
      <trkpt lat="44.2878" lon="6.84984">
        <ele>1708.1999511719</ele>
        <time>2019-02-17T13:38:24.000Z</time>
      </trkpt>
      <trkpt lat="44.28777" lon="6.84991">
        <ele>1707.8000488281</ele>
        <time>2019-02-17T13:38:25.000Z</time>
      </trkpt>
      <trkpt lat="44.28775" lon="6.84998">
        <ele>1707.4000244141</ele>
        <time>2019-02-17T13:38:26.000Z</time>
      </trkpt>
      <trkpt lat="44.28769" lon="6.8501">
        <ele>1706.4000244141</ele>
        <time>2019-02-17T13:38:28.000Z</time>
      </trkpt>
      <trkpt lat="44.28762" lon="6.85027">
        <ele>1705.4000244141</ele>
        <time>2019-02-17T13:38:31.000Z</time>
      </trkpt>
      <trkpt lat="44.28754" lon="6.85057">
        <ele>1704.4000244141</ele>
        <time>2019-02-17T13:38:36.000Z</time>
      </trkpt>
      <trkpt lat="44.28748" lon="6.85078">
        <ele>1703.1999511719</ele>
        <time>2019-02-17T13:38:40.000Z</time>
      </trkpt>
      <trkpt lat="44.2874" lon="6.85102">
        <ele>1701.8000488281</ele>
        <time>2019-02-17T13:38:46.000Z</time>
      </trkpt>
      <trkpt lat="44.28741" lon="6.85119">
        <ele>1700.8000488281</ele>
        <time>2019-02-17T13:38:49.000Z</time>
      </trkpt>
      <trkpt lat="44.2874" lon="6.85137">
        <ele>1699.8000488281</ele>
        <time>2019-02-17T13:38:52.000Z</time>
      </trkpt>
      <trkpt lat="44.28739" lon="6.85142">
        <ele>1699.4000244141</ele>
        <time>2019-02-17T13:38:53.000Z</time>
      </trkpt>
      <trkpt lat="44.28741" lon="6.8515">
        <ele>1699</ele>
        <time>2019-02-17T13:38:54.000Z</time>
      </trkpt>
      <trkpt lat="44.28742" lon="6.85158">
        <ele>1698.4000244141</ele>
        <time>2019-02-17T13:38:55.000Z</time>
      </trkpt>
      <trkpt lat="44.2874" lon="6.85163">
        <ele>1697.8000488281</ele>
        <time>2019-02-17T13:38:56.000Z</time>
      </trkpt>
      <trkpt lat="44.28742" lon="6.85178">
        <ele>1696.8000488281</ele>
        <time>2019-02-17T13:38:58.000Z</time>
      </trkpt>
      <trkpt lat="44.28742" lon="6.85193">
        <ele>1695.8000488281</ele>
        <time>2019-02-17T13:39:00.000Z</time>
      </trkpt>
      <trkpt lat="44.28739" lon="6.85204">
        <ele>1694.5999755859</ele>
        <time>2019-02-17T13:39:02.000Z</time>
      </trkpt>
      <trkpt lat="44.28728" lon="6.85216">
        <ele>1693.5999755859</ele>
        <time>2019-02-17T13:39:05.000Z</time>
      </trkpt>
      <trkpt lat="44.28724" lon="6.8522">
        <ele>1693.4000244141</ele>
        <time>2019-02-17T13:39:06.000Z</time>
      </trkpt>
      <trkpt lat="44.28716" lon="6.85231">
        <ele>1692.1999511719</ele>
        <time>2019-02-17T13:39:08.000Z</time>
      </trkpt>
      <trkpt lat="44.28708" lon="6.85241">
        <ele>1690.8000488281</ele>
        <time>2019-02-17T13:39:10.000Z</time>
      </trkpt>
      <trkpt lat="44.28698" lon="6.85258">
        <ele>1689.4000244141</ele>
        <time>2019-02-17T13:39:12.000Z</time>
      </trkpt>
      <trkpt lat="44.28691" lon="6.85271">
        <ele>1688</ele>
        <time>2019-02-17T13:39:14.000Z</time>
      </trkpt>
      <trkpt lat="44.28685" lon="6.85287">
        <ele>1686.5999755859</ele>
        <time>2019-02-17T13:39:16.000Z</time>
      </trkpt>
      <trkpt lat="44.28676" lon="6.85317">
        <ele>1684.8000488281</ele>
        <time>2019-02-17T13:39:19.000Z</time>
      </trkpt>
      <trkpt lat="44.28673" lon="6.85336">
        <ele>1683</ele>
        <time>2019-02-17T13:39:21.000Z</time>
      </trkpt>
      <trkpt lat="44.28671" lon="6.85356">
        <ele>1681.8000488281</ele>
        <time>2019-02-17T13:39:23.000Z</time>
      </trkpt>
      <trkpt lat="44.28672" lon="6.85382">
        <ele>1680.1999511719</ele>
        <time>2019-02-17T13:39:25.000Z</time>
      </trkpt>
      <trkpt lat="44.28679" lon="6.8541">
        <ele>1678.4000244141</ele>
        <time>2019-02-17T13:39:27.000Z</time>
      </trkpt>
      <trkpt lat="44.28681" lon="6.85421">
        <ele>1677.8000488281</ele>
        <time>2019-02-17T13:39:28.000Z</time>
      </trkpt>
      <trkpt lat="44.28682" lon="6.85431">
        <ele>1677.1999511719</ele>
        <time>2019-02-17T13:39:29.000Z</time>
      </trkpt>
      <trkpt lat="44.28684" lon="6.85449">
        <ele>1676.1999511719</ele>
        <time>2019-02-17T13:39:31.000Z</time>
      </trkpt>
      <trkpt lat="44.28681" lon="6.85467">
        <ele>1675.1999511719</ele>
        <time>2019-02-17T13:39:33.000Z</time>
      </trkpt>
      <trkpt lat="44.28677" lon="6.85483">
        <ele>1674</ele>
        <time>2019-02-17T13:39:35.000Z</time>
      </trkpt>
      <trkpt lat="44.28673" lon="6.85498">
        <ele>1672.5999755859</ele>
        <time>2019-02-17T13:39:37.000Z</time>
      </trkpt>
      <trkpt lat="44.28672" lon="6.85506">
        <ele>1672</ele>
        <time>2019-02-17T13:39:38.000Z</time>
      </trkpt>
      <trkpt lat="44.28672" lon="6.85515">
        <ele>1671.1999511719</ele>
        <time>2019-02-17T13:39:39.000Z</time>
      </trkpt>
      <trkpt lat="44.28671" lon="6.85533">
        <ele>1670.1999511719</ele>
        <time>2019-02-17T13:39:41.000Z</time>
      </trkpt>
      <trkpt lat="44.2867" lon="6.85555">
        <ele>1669</ele>
        <time>2019-02-17T13:39:43.000Z</time>
      </trkpt>
      <trkpt lat="44.2867" lon="6.85571">
        <ele>1667.5999755859</ele>
        <time>2019-02-17T13:39:45.000Z</time>
      </trkpt>
      <trkpt lat="44.2867" lon="6.85585">
        <ele>1666.4000244141</ele>
        <time>2019-02-17T13:39:47.000Z</time>
      </trkpt>
      <trkpt lat="44.28669" lon="6.8559">
        <ele>1665.8000488281</ele>
        <time>2019-02-17T13:39:48.000Z</time>
      </trkpt>
      <trkpt lat="44.28669" lon="6.85595">
        <ele>1665.1999511719</ele>
        <time>2019-02-17T13:39:49.000Z</time>
      </trkpt>
      <trkpt lat="44.28666" lon="6.85605">
        <ele>1664.1999511719</ele>
        <time>2019-02-17T13:39:51.000Z</time>
      </trkpt>
      <trkpt lat="44.28666" lon="6.85632">
        <ele>1662.5999755859</ele>
        <time>2019-02-17T13:39:54.000Z</time>
      </trkpt>
      <trkpt lat="44.2867" lon="6.85656">
        <ele>1661.1999511719</ele>
        <time>2019-02-17T13:39:56.000Z</time>
      </trkpt>
      <trkpt lat="44.2867" lon="6.85665">
        <ele>1660.8000488281</ele>
        <time>2019-02-17T13:39:57.000Z</time>
      </trkpt>
      <trkpt lat="44.2867" lon="6.85674">
        <ele>1660.4000244141</ele>
        <time>2019-02-17T13:39:58.000Z</time>
      </trkpt>
      <trkpt lat="44.2867" lon="6.85682">
        <ele>1660</ele>
        <time>2019-02-17T13:39:59.000Z</time>
      </trkpt>
      <trkpt lat="44.28669" lon="6.85689">
        <ele>1659.5999755859</ele>
        <time>2019-02-17T13:40:00.000Z</time>
      </trkpt>
      <trkpt lat="44.2866" lon="6.85693">
        <ele>1658.5999755859</ele>
        <time>2019-02-17T13:40:02.000Z</time>
      </trkpt>
      <trkpt lat="44.28649" lon="6.85706">
        <ele>1657.1999511719</ele>
        <time>2019-02-17T13:40:04.000Z</time>
      </trkpt>
      <trkpt lat="44.28642" lon="6.85724">
        <ele>1655.8000488281</ele>
        <time>2019-02-17T13:40:06.000Z</time>
      </trkpt>
      <trkpt lat="44.2864" lon="6.85734">
        <ele>1654.8000488281</ele>
        <time>2019-02-17T13:40:08.000Z</time>
      </trkpt>
      <trkpt lat="44.28645" lon="6.85736">
        <ele>1654</ele>
        <time>2019-02-17T13:40:10.000Z</time>
      </trkpt>
      <trkpt lat="44.28649" lon="6.85735">
        <ele>1653.5999755859</ele>
        <time>2019-02-17T13:40:11.000Z</time>
      </trkpt>
      <trkpt lat="44.28664" lon="6.85732">
        <ele>1652.5999755859</ele>
        <time>2019-02-17T13:40:15.000Z</time>
      </trkpt>
      <trkpt lat="44.28696" lon="6.85707">
        <ele>1651.1999511719</ele>
        <time>2019-02-17T13:40:23.000Z</time>
      </trkpt>
      <trkpt lat="44.28703" lon="6.85697">
        <ele>1650.4000244141</ele>
        <time>2019-02-17T13:40:25.000Z</time>
      </trkpt>
      <trkpt lat="44.28708" lon="6.85688">
        <ele>1649.8000488281</ele>
        <time>2019-02-17T13:40:27.000Z</time>
      </trkpt>
      <trkpt lat="44.2871" lon="6.85685">
        <ele>1649.4000244141</ele>
        <time>2019-02-17T13:40:28.000Z</time>
      </trkpt>
      <trkpt lat="44.28716" lon="6.85679">
        <ele>1648.5999755859</ele>
        <time>2019-02-17T13:40:30.000Z</time>
      </trkpt>
      <trkpt lat="44.28722" lon="6.85672">
        <ele>1648</ele>
        <time>2019-02-17T13:40:32.000Z</time>
      </trkpt>
      <trkpt lat="44.28725" lon="6.85663">
        <ele>1647.4000244141</ele>
        <time>2019-02-17T13:40:34.000Z</time>
      </trkpt>
      <trkpt lat="44.28726" lon="6.85653">
        <ele>1646.8000488281</ele>
        <time>2019-02-17T13:40:36.000Z</time>
      </trkpt>
      <trkpt lat="44.28726" lon="6.85647">
        <ele>1646.4000244141</ele>
        <time>2019-02-17T13:40:37.000Z</time>
      </trkpt>
      <trkpt lat="44.28725" lon="6.85637">
        <ele>1646</ele>
        <time>2019-02-17T13:40:39.000Z</time>
      </trkpt>
      <trkpt lat="44.28726" lon="6.85631">
        <ele>1645.4000244141</ele>
        <time>2019-02-17T13:40:41.000Z</time>
      </trkpt>
      <trkpt lat="44.28727" lon="6.85631">
        <ele>1644</ele>
        <time>2019-02-17T13:40:43.000Z</time>
      </trkpt>
      <trkpt lat="44.2873" lon="6.85638">
        <ele>1642.8000488281</ele>
        <time>2019-02-17T13:40:46.000Z</time>
      </trkpt>
      <trkpt lat="44.2873" lon="6.85647">
        <ele>1641.8000488281</ele>
        <time>2019-02-17T13:40:48.000Z</time>
      </trkpt>
      <trkpt lat="44.28729" lon="6.85657">
        <ele>1640.5999755859</ele>
        <time>2019-02-17T13:40:50.000Z</time>
      </trkpt>
      <trkpt lat="44.28728" lon="6.8567">
        <ele>1639.1999511719</ele>
        <time>2019-02-17T13:40:53.000Z</time>
      </trkpt>
      <trkpt lat="44.28722" lon="6.85688">
        <ele>1638.1999511719</ele>
        <time>2019-02-17T13:40:57.000Z</time>
      </trkpt>
      <trkpt lat="44.2872" lon="6.85699">
        <ele>1637</ele>
        <time>2019-02-17T13:40:59.000Z</time>
      </trkpt>
      <trkpt lat="44.28715" lon="6.85713">
        <ele>1635.8000488281</ele>
        <time>2019-02-17T13:41:01.000Z</time>
      </trkpt>
      <trkpt lat="44.28712" lon="6.85726">
        <ele>1635</ele>
        <time>2019-02-17T13:41:03.000Z</time>
      </trkpt>
      <trkpt lat="44.2871" lon="6.85732">
        <ele>1634.5999755859</ele>
        <time>2019-02-17T13:41:04.000Z</time>
      </trkpt>
      <trkpt lat="44.28707" lon="6.85744">
        <ele>1633.5999755859</ele>
        <time>2019-02-17T13:41:06.000Z</time>
      </trkpt>
      <trkpt lat="44.28702" lon="6.85756">
        <ele>1632.4000244141</ele>
        <time>2019-02-17T13:41:08.000Z</time>
      </trkpt>
      <trkpt lat="44.28694" lon="6.85769">
        <ele>1631</ele>
        <time>2019-02-17T13:41:11.000Z</time>
      </trkpt>
      <trkpt lat="44.28688" lon="6.85779">
        <ele>1630.1999511719</ele>
        <time>2019-02-17T13:41:13.000Z</time>
      </trkpt>
      <trkpt lat="44.28684" lon="6.85783">
        <ele>1629.5999755859</ele>
        <time>2019-02-17T13:41:14.000Z</time>
      </trkpt>
      <trkpt lat="44.28676" lon="6.85789">
        <ele>1628.4000244141</ele>
        <time>2019-02-17T13:41:16.000Z</time>
      </trkpt>
      <trkpt lat="44.28668" lon="6.85798">
        <ele>1627.4000244141</ele>
        <time>2019-02-17T13:41:18.000Z</time>
      </trkpt>
      <trkpt lat="44.28652" lon="6.85808">
        <ele>1626.1999511719</ele>
        <time>2019-02-17T13:41:21.000Z</time>
      </trkpt>
      <trkpt lat="44.28639" lon="6.8582">
        <ele>1625.4000244141</ele>
        <time>2019-02-17T13:41:23.000Z</time>
      </trkpt>
      <trkpt lat="44.28634" lon="6.85826">
        <ele>1624.8000488281</ele>
        <time>2019-02-17T13:41:24.000Z</time>
      </trkpt>
      <trkpt lat="44.28624" lon="6.85835">
        <ele>1623.4000244141</ele>
        <time>2019-02-17T13:41:26.000Z</time>
      </trkpt>
      <trkpt lat="44.28615" lon="6.85843">
        <ele>1622.1999511719</ele>
        <time>2019-02-17T13:41:28.000Z</time>
      </trkpt>
      <trkpt lat="44.28605" lon="6.8585">
        <ele>1621.1999511719</ele>
        <time>2019-02-17T13:41:30.000Z</time>
      </trkpt>
      <trkpt lat="44.28599" lon="6.85853">
        <ele>1620.8000488281</ele>
        <time>2019-02-17T13:41:31.000Z</time>
      </trkpt>
      <trkpt lat="44.28592" lon="6.85856">
        <ele>1620.4000244141</ele>
        <time>2019-02-17T13:41:32.000Z</time>
      </trkpt>
      <trkpt lat="44.28579" lon="6.85858">
        <ele>1619.8000488281</ele>
        <time>2019-02-17T13:41:34.000Z</time>
      </trkpt>
      <trkpt lat="44.28567" lon="6.8586">
        <ele>1619</ele>
        <time>2019-02-17T13:41:36.000Z</time>
      </trkpt>
      <trkpt lat="44.28564" lon="6.85865">
        <ele>1618.1999511719</ele>
        <time>2019-02-17T13:41:37.000Z</time>
      </trkpt>
      <trkpt lat="44.28563" lon="6.85875">
        <ele>1616.8000488281</ele>
        <time>2019-02-17T13:41:39.000Z</time>
      </trkpt>
      <trkpt lat="44.28567" lon="6.85877">
        <ele>1615.8000488281</ele>
        <time>2019-02-17T13:41:42.000Z</time>
      </trkpt>
      <trkpt lat="44.2857" lon="6.85885">
        <ele>1615.1999511719</ele>
        <time>2019-02-17T13:41:51.000Z</time>
      </trkpt>
      <trkpt lat="44.28568" lon="6.85888">
        <ele>1615</ele>
        <time>2019-02-17T13:42:59.000Z</time>
      </trkpt>
      <trkpt lat="44.28585" lon="6.85892">
        <ele>1614.8000488281</ele>
        <time>2019-02-17T13:44:04.000Z</time>
      </trkpt>
      <trkpt lat="44.28592" lon="6.85895">
        <ele>1613.5999755859</ele>
        <time>2019-02-17T13:44:06.000Z</time>
      </trkpt>
      <trkpt lat="44.28616" lon="6.85899">
        <ele>1612.5999755859</ele>
        <time>2019-02-17T13:44:12.000Z</time>
      </trkpt>
      <trkpt lat="44.28635" lon="6.859">
        <ele>1611.1999511719</ele>
        <time>2019-02-17T13:44:15.000Z</time>
      </trkpt>
      <trkpt lat="44.28648" lon="6.859">
        <ele>1610</ele>
        <time>2019-02-17T13:44:17.000Z</time>
      </trkpt>
      <trkpt lat="44.2866" lon="6.85897">
        <ele>1608.8000488281</ele>
        <time>2019-02-17T13:44:19.000Z</time>
      </trkpt>
      <trkpt lat="44.28664" lon="6.85893">
        <ele>1608.1999511719</ele>
        <time>2019-02-17T13:44:20.000Z</time>
      </trkpt>
      <trkpt lat="44.28668" lon="6.85892">
        <ele>1607.5999755859</ele>
        <time>2019-02-17T13:44:21.000Z</time>
      </trkpt>
      <trkpt lat="44.28672" lon="6.85893">
        <ele>1607</ele>
        <time>2019-02-17T13:44:22.000Z</time>
      </trkpt>
      <trkpt lat="44.28673" lon="6.85897">
        <ele>1606.4000244141</ele>
        <time>2019-02-17T13:44:23.000Z</time>
      </trkpt>
      <trkpt lat="44.28675" lon="6.85911">
        <ele>1605</ele>
        <time>2019-02-17T13:44:26.000Z</time>
      </trkpt>
      <trkpt lat="44.28673" lon="6.85918">
        <ele>1604.5999755859</ele>
        <time>2019-02-17T13:44:27.000Z</time>
      </trkpt>
      <trkpt lat="44.2867" lon="6.85931">
        <ele>1603.5999755859</ele>
        <time>2019-02-17T13:44:29.000Z</time>
      </trkpt>
      <trkpt lat="44.28665" lon="6.85935">
        <ele>1602.8000488281</ele>
        <time>2019-02-17T13:44:31.000Z</time>
      </trkpt>
      <trkpt lat="44.28663" lon="6.85937">
        <ele>1602.4000244141</ele>
        <time>2019-02-17T13:44:32.000Z</time>
      </trkpt>
      <trkpt lat="44.28657" lon="6.85935">
        <ele>1602.4000244141</ele>
        <time>2019-02-17T13:44:33.000Z</time>
      </trkpt>
      <trkpt lat="44.2864" lon="6.85933">
        <ele>1601</ele>
        <time>2019-02-17T13:44:36.000Z</time>
      </trkpt>
      <trkpt lat="44.28623" lon="6.85931">
        <ele>1599.1999511719</ele>
        <time>2019-02-17T13:44:38.000Z</time>
      </trkpt>
      <trkpt lat="44.28608" lon="6.85934">
        <ele>1597.8000488281</ele>
        <time>2019-02-17T13:44:40.000Z</time>
      </trkpt>
      <trkpt lat="44.28594" lon="6.85937">
        <ele>1596</ele>
        <time>2019-02-17T13:44:42.000Z</time>
      </trkpt>
      <trkpt lat="44.28581" lon="6.8594">
        <ele>1594.1999511719</ele>
        <time>2019-02-17T13:44:44.000Z</time>
      </trkpt>
      <trkpt lat="44.28574" lon="6.85942">
        <ele>1593.1999511719</ele>
        <time>2019-02-17T13:44:45.000Z</time>
      </trkpt>
      <trkpt lat="44.28567" lon="6.85945">
        <ele>1592.1999511719</ele>
        <time>2019-02-17T13:44:46.000Z</time>
      </trkpt>
      <trkpt lat="44.28551" lon="6.85949">
        <ele>1591</ele>
        <time>2019-02-17T13:44:48.000Z</time>
      </trkpt>
      <trkpt lat="44.28537" lon="6.85955">
        <ele>1589.4000244141</ele>
        <time>2019-02-17T13:44:50.000Z</time>
      </trkpt>
      <trkpt lat="44.28522" lon="6.85964">
        <ele>1587.5999755859</ele>
        <time>2019-02-17T13:44:52.000Z</time>
      </trkpt>
      <trkpt lat="44.28508" lon="6.85974">
        <ele>1586</ele>
        <time>2019-02-17T13:44:54.000Z</time>
      </trkpt>
      <trkpt lat="44.28494" lon="6.85982">
        <ele>1585</ele>
        <time>2019-02-17T13:44:56.000Z</time>
      </trkpt>
      <trkpt lat="44.28488" lon="6.85986">
        <ele>1584.5999755859</ele>
        <time>2019-02-17T13:44:57.000Z</time>
      </trkpt>
      <trkpt lat="44.28481" lon="6.85989">
        <ele>1584</ele>
        <time>2019-02-17T13:44:58.000Z</time>
      </trkpt>
      <trkpt lat="44.2846" lon="6.85998">
        <ele>1582.5999755859</ele>
        <time>2019-02-17T13:45:01.000Z</time>
      </trkpt>
      <trkpt lat="44.28447" lon="6.86004">
        <ele>1581.1999511719</ele>
        <time>2019-02-17T13:45:03.000Z</time>
      </trkpt>
      <trkpt lat="44.28426" lon="6.86015">
        <ele>1579.5999755859</ele>
        <time>2019-02-17T13:45:06.000Z</time>
      </trkpt>
      <trkpt lat="44.28413" lon="6.8602">
        <ele>1578.4000244141</ele>
        <time>2019-02-17T13:45:08.000Z</time>
      </trkpt>
      <trkpt lat="44.284" lon="6.86026">
        <ele>1577.1999511719</ele>
        <time>2019-02-17T13:45:10.000Z</time>
      </trkpt>
      <trkpt lat="44.28387" lon="6.86033">
        <ele>1576.1999511719</ele>
        <time>2019-02-17T13:45:12.000Z</time>
      </trkpt>
      <trkpt lat="44.28373" lon="6.86039">
        <ele>1575</ele>
        <time>2019-02-17T13:45:14.000Z</time>
      </trkpt>
      <trkpt lat="44.28366" lon="6.86041">
        <ele>1574.4000244141</ele>
        <time>2019-02-17T13:45:15.000Z</time>
      </trkpt>
      <trkpt lat="44.28354" lon="6.8604">
        <ele>1573.5999755859</ele>
        <time>2019-02-17T13:45:17.000Z</time>
      </trkpt>
      <trkpt lat="44.28342" lon="6.86034">
        <ele>1572</ele>
        <time>2019-02-17T13:45:19.000Z</time>
      </trkpt>
      <trkpt lat="44.28331" lon="6.86023">
        <ele>1570.4000244141</ele>
        <time>2019-02-17T13:45:21.000Z</time>
      </trkpt>
      <trkpt lat="44.28327" lon="6.86017">
        <ele>1570</ele>
        <time>2019-02-17T13:45:22.000Z</time>
      </trkpt>
      <trkpt lat="44.28319" lon="6.86006">
        <ele>1569.1999511719</ele>
        <time>2019-02-17T13:45:24.000Z</time>
      </trkpt>
      <trkpt lat="44.28307" lon="6.86">
        <ele>1568.5999755859</ele>
        <time>2019-02-17T13:45:27.000Z</time>
      </trkpt>
      <trkpt lat="44.28309" lon="6.86014">
        <ele>1568.1999511719</ele>
        <time>2019-02-17T13:45:31.000Z</time>
      </trkpt>
      <trkpt lat="44.28312" lon="6.86018">
        <ele>1568</ele>
        <time>2019-02-17T13:45:32.000Z</time>
      </trkpt>
      <trkpt lat="44.28324" lon="6.86035">
        <ele>1567</ele>
        <time>2019-02-17T13:45:36.000Z</time>
      </trkpt>
      <trkpt lat="44.28338" lon="6.86051">
        <ele>1565.4000244141</ele>
        <time>2019-02-17T13:45:41.000Z</time>
      </trkpt>
      <trkpt lat="44.28354" lon="6.86066">
        <ele>1564.4000244141</ele>
        <time>2019-02-17T13:45:46.000Z</time>
      </trkpt>
      <trkpt lat="44.28375" lon="6.86081">
        <ele>1563.4000244141</ele>
        <time>2019-02-17T13:45:53.000Z</time>
      </trkpt>
      <trkpt lat="44.28381" lon="6.86085">
        <ele>1562</ele>
        <time>2019-02-17T13:45:55.000Z</time>
      </trkpt>
      <trkpt lat="44.28388" lon="6.86089">
        <ele>1560.8000488281</ele>
        <time>2019-02-17T13:45:57.000Z</time>
      </trkpt>
      <trkpt lat="44.28399" lon="6.86095">
        <ele>1559.4000244141</ele>
        <time>2019-02-17T13:45:59.000Z</time>
      </trkpt>
      <trkpt lat="44.28419" lon="6.86099">
        <ele>1558.1999511719</ele>
        <time>2019-02-17T13:46:01.000Z</time>
      </trkpt>
      <trkpt lat="44.28443" lon="6.86092">
        <ele>1557</ele>
        <time>2019-02-17T13:46:04.000Z</time>
      </trkpt>
      <trkpt lat="44.28457" lon="6.8609">
        <ele>1555.8000488281</ele>
        <time>2019-02-17T13:46:06.000Z</time>
      </trkpt>
      <trkpt lat="44.28468" lon="6.86093">
        <ele>1554.1999511719</ele>
        <time>2019-02-17T13:46:08.000Z</time>
      </trkpt>
      <trkpt lat="44.28477" lon="6.86098">
        <ele>1552.4000244141</ele>
        <time>2019-02-17T13:46:10.000Z</time>
      </trkpt>
      <trkpt lat="44.28465" lon="6.86106">
        <ele>1551</ele>
        <time>2019-02-17T13:46:13.000Z</time>
      </trkpt>
      <trkpt lat="44.28454" lon="6.86112">
        <ele>1549.5999755859</ele>
        <time>2019-02-17T13:46:15.000Z</time>
      </trkpt>
      <trkpt lat="44.28442" lon="6.8612">
        <ele>1548.4000244141</ele>
        <time>2019-02-17T13:46:17.000Z</time>
      </trkpt>
      <trkpt lat="44.28431" lon="6.86126">
        <ele>1547.4000244141</ele>
        <time>2019-02-17T13:46:19.000Z</time>
      </trkpt>
      <trkpt lat="44.28421" lon="6.86133">
        <ele>1546.1999511719</ele>
        <time>2019-02-17T13:46:21.000Z</time>
      </trkpt>
      <trkpt lat="44.28417" lon="6.86134">
        <ele>1545.5999755859</ele>
        <time>2019-02-17T13:46:22.000Z</time>
      </trkpt>
      <trkpt lat="44.28412" lon="6.86135">
        <ele>1545</ele>
        <time>2019-02-17T13:46:23.000Z</time>
      </trkpt>
      <trkpt lat="44.28407" lon="6.86136">
        <ele>1544.4000244141</ele>
        <time>2019-02-17T13:46:24.000Z</time>
      </trkpt>
      <trkpt lat="44.28403" lon="6.86138">
        <ele>1543.8000488281</ele>
        <time>2019-02-17T13:46:25.000Z</time>
      </trkpt>
      <trkpt lat="44.28387" lon="6.86144">
        <ele>1542.5999755859</ele>
        <time>2019-02-17T13:46:28.000Z</time>
      </trkpt>
      <trkpt lat="44.28382" lon="6.86145">
        <ele>1542.1999511719</ele>
        <time>2019-02-17T13:46:29.000Z</time>
      </trkpt>
      <trkpt lat="44.2837" lon="6.86146">
        <ele>1541.4000244141</ele>
        <time>2019-02-17T13:46:31.000Z</time>
      </trkpt>
      <trkpt lat="44.2836" lon="6.86146">
        <ele>1540.4000244141</ele>
        <time>2019-02-17T13:46:33.000Z</time>
      </trkpt>
      <trkpt lat="44.28354" lon="6.86145">
        <ele>1540</ele>
        <time>2019-02-17T13:46:34.000Z</time>
      </trkpt>
      <trkpt lat="44.28344" lon="6.86139">
        <ele>1539</ele>
        <time>2019-02-17T13:46:36.000Z</time>
      </trkpt>
      <trkpt lat="44.28338" lon="6.86136">
        <ele>1538.4000244141</ele>
        <time>2019-02-17T13:46:37.000Z</time>
      </trkpt>
      <trkpt lat="44.28333" lon="6.86133">
        <ele>1537.5999755859</ele>
        <time>2019-02-17T13:46:38.000Z</time>
      </trkpt>
      <trkpt lat="44.28322" lon="6.86126">
        <ele>1536.1999511719</ele>
        <time>2019-02-17T13:46:40.000Z</time>
      </trkpt>
      <trkpt lat="44.28309" lon="6.86115">
        <ele>1535</ele>
        <time>2019-02-17T13:46:43.000Z</time>
      </trkpt>
      <trkpt lat="44.28298" lon="6.86103">
        <ele>1533.5999755859</ele>
        <time>2019-02-17T13:46:46.000Z</time>
      </trkpt>
      <trkpt lat="44.28286" lon="6.86089">
        <ele>1532.4000244141</ele>
        <time>2019-02-17T13:46:49.000Z</time>
      </trkpt>
      <trkpt lat="44.28276" lon="6.86077">
        <ele>1531.4000244141</ele>
        <time>2019-02-17T13:46:52.000Z</time>
      </trkpt>
      <trkpt lat="44.28262" lon="6.86057">
        <ele>1530.1999511719</ele>
        <time>2019-02-17T13:46:57.000Z</time>
      </trkpt>
      <trkpt lat="44.28253" lon="6.86051">
        <ele>1529.5999755859</ele>
        <time>2019-02-17T13:47:00.000Z</time>
      </trkpt>
      <trkpt lat="44.28251" lon="6.86059">
        <ele>1529.1999511719</ele>
        <time>2019-02-17T13:47:02.000Z</time>
      </trkpt>
      <trkpt lat="44.28251" lon="6.86063">
        <ele>1529</ele>
        <time>2019-02-17T13:47:03.000Z</time>
      </trkpt>
      <trkpt lat="44.28261" lon="6.86081">
        <ele>1528</ele>
        <time>2019-02-17T13:47:07.000Z</time>
      </trkpt>
      <trkpt lat="44.28264" lon="6.86086">
        <ele>1527.5999755859</ele>
        <time>2019-02-17T13:47:08.000Z</time>
      </trkpt>
      <trkpt lat="44.2827" lon="6.86096">
        <ele>1526.5999755859</ele>
        <time>2019-02-17T13:47:10.000Z</time>
      </trkpt>
      <trkpt lat="44.28278" lon="6.86112">
        <ele>1525.1999511719</ele>
        <time>2019-02-17T13:47:13.000Z</time>
      </trkpt>
      <trkpt lat="44.28285" lon="6.86127">
        <ele>1524.4000244141</ele>
        <time>2019-02-17T13:47:16.000Z</time>
      </trkpt>
      <trkpt lat="44.28287" lon="6.86132">
        <ele>1524</ele>
        <time>2019-02-17T13:47:17.000Z</time>
      </trkpt>
      <trkpt lat="44.28289" lon="6.86137">
        <ele>1523.5999755859</ele>
        <time>2019-02-17T13:47:18.000Z</time>
      </trkpt>
      <trkpt lat="44.28297" lon="6.86152">
        <ele>1523</ele>
        <time>2019-02-17T13:47:21.000Z</time>
      </trkpt>
      <trkpt lat="44.28303" lon="6.86163">
        <ele>1521.8000488281</ele>
        <time>2019-02-17T13:47:24.000Z</time>
      </trkpt>
      <trkpt lat="44.2832" lon="6.86191">
        <ele>1520.5999755859</ele>
        <time>2019-02-17T13:47:30.000Z</time>
      </trkpt>
      <trkpt lat="44.28326" lon="6.86197">
        <ele>1519.5999755859</ele>
        <time>2019-02-17T13:47:32.000Z</time>
      </trkpt>
      <trkpt lat="44.28337" lon="6.86218">
        <ele>1518.5999755859</ele>
        <time>2019-02-17T13:47:35.000Z</time>
      </trkpt>
      <trkpt lat="44.28342" lon="6.86225">
        <ele>1518.1999511719</ele>
        <time>2019-02-17T13:47:36.000Z</time>
      </trkpt>
      <trkpt lat="44.28354" lon="6.86244">
        <ele>1516.8000488281</ele>
        <time>2019-02-17T13:47:39.000Z</time>
      </trkpt>
      <trkpt lat="44.28358" lon="6.86248">
        <ele>1516.1999511719</ele>
        <time>2019-02-17T13:47:40.000Z</time>
      </trkpt>
      <trkpt lat="44.28361" lon="6.86254">
        <ele>1515.5999755859</ele>
        <time>2019-02-17T13:47:41.000Z</time>
      </trkpt>
      <trkpt lat="44.28371" lon="6.86259">
        <ele>1514.1999511719</ele>
        <time>2019-02-17T13:47:43.000Z</time>
      </trkpt>
      <trkpt lat="44.28369" lon="6.86268">
        <ele>1513.4000244141</ele>
        <time>2019-02-17T13:47:45.000Z</time>
      </trkpt>
      <trkpt lat="44.28367" lon="6.86272">
        <ele>1513</ele>
        <time>2019-02-17T13:47:46.000Z</time>
      </trkpt>
      <trkpt lat="44.28363" lon="6.86278">
        <ele>1512.4000244141</ele>
        <time>2019-02-17T13:47:48.000Z</time>
      </trkpt>
      <trkpt lat="44.2836" lon="6.86277">
        <ele>1512</ele>
        <time>2019-02-17T13:47:49.000Z</time>
      </trkpt>
      <trkpt lat="44.28353" lon="6.86268">
        <ele>1510.8000488281</ele>
        <time>2019-02-17T13:47:52.000Z</time>
      </trkpt>
      <trkpt lat="44.28343" lon="6.86257">
        <ele>1509.4000244141</ele>
        <time>2019-02-17T13:47:54.000Z</time>
      </trkpt>
      <trkpt lat="44.28338" lon="6.86252">
        <ele>1508.4000244141</ele>
        <time>2019-02-17T13:47:55.000Z</time>
      </trkpt>
      <trkpt lat="44.28333" lon="6.86248">
        <ele>1507.5999755859</ele>
        <time>2019-02-17T13:47:56.000Z</time>
      </trkpt>
      <trkpt lat="44.28327" lon="6.86244">
        <ele>1507</ele>
        <time>2019-02-17T13:47:57.000Z</time>
      </trkpt>
      <trkpt lat="44.28321" lon="6.86238">
        <ele>1506.4000244141</ele>
        <time>2019-02-17T13:47:58.000Z</time>
      </trkpt>
      <trkpt lat="44.2831" lon="6.86228">
        <ele>1505.1999511719</ele>
        <time>2019-02-17T13:48:00.000Z</time>
      </trkpt>
      <trkpt lat="44.283" lon="6.86217">
        <ele>1503.8000488281</ele>
        <time>2019-02-17T13:48:02.000Z</time>
      </trkpt>
      <trkpt lat="44.2829" lon="6.86204">
        <ele>1502.1999511719</ele>
        <time>2019-02-17T13:48:04.000Z</time>
      </trkpt>
      <trkpt lat="44.2828" lon="6.86191">
        <ele>1501</ele>
        <time>2019-02-17T13:48:06.000Z</time>
      </trkpt>
      <trkpt lat="44.2827" lon="6.86179">
        <ele>1499.5999755859</ele>
        <time>2019-02-17T13:48:08.000Z</time>
      </trkpt>
      <trkpt lat="44.28262" lon="6.86168">
        <ele>1497.5999755859</ele>
        <time>2019-02-17T13:48:10.000Z</time>
      </trkpt>
      <trkpt lat="44.28256" lon="6.86158">
        <ele>1496.1999511719</ele>
        <time>2019-02-17T13:48:12.000Z</time>
      </trkpt>
      <trkpt lat="44.2824" lon="6.86137">
        <ele>1495</ele>
        <time>2019-02-17T13:48:17.000Z</time>
      </trkpt>
      <trkpt lat="44.28229" lon="6.86128">
        <ele>1494.4000244141</ele>
        <time>2019-02-17T13:48:20.000Z</time>
      </trkpt>
      <trkpt lat="44.28225" lon="6.86132">
        <ele>1493.8000488281</ele>
        <time>2019-02-17T13:48:22.000Z</time>
      </trkpt>
      <trkpt lat="44.28227" lon="6.8614">
        <ele>1493.4000244141</ele>
        <time>2019-02-17T13:48:24.000Z</time>
      </trkpt>
      <trkpt lat="44.28233" lon="6.8615">
        <ele>1492.5999755859</ele>
        <time>2019-02-17T13:48:26.000Z</time>
      </trkpt>
      <trkpt lat="44.28244" lon="6.86171">
        <ele>1491.1999511719</ele>
        <time>2019-02-17T13:48:29.000Z</time>
      </trkpt>
      <trkpt lat="44.28252" lon="6.86187">
        <ele>1489.8000488281</ele>
        <time>2019-02-17T13:48:31.000Z</time>
      </trkpt>
      <trkpt lat="44.28261" lon="6.86204">
        <ele>1488.5999755859</ele>
        <time>2019-02-17T13:48:33.000Z</time>
      </trkpt>
      <trkpt lat="44.28264" lon="6.86213">
        <ele>1488</ele>
        <time>2019-02-17T13:48:34.000Z</time>
      </trkpt>
      <trkpt lat="44.28267" lon="6.86222">
        <ele>1487.5999755859</ele>
        <time>2019-02-17T13:48:35.000Z</time>
      </trkpt>
      <trkpt lat="44.2827" lon="6.8623">
        <ele>1487.1999511719</ele>
        <time>2019-02-17T13:48:36.000Z</time>
      </trkpt>
      <trkpt lat="44.28278" lon="6.86242">
        <ele>1486.5999755859</ele>
        <time>2019-02-17T13:48:38.000Z</time>
      </trkpt>
      <trkpt lat="44.28295" lon="6.86273">
        <ele>1485.1999511719</ele>
        <time>2019-02-17T13:48:43.000Z</time>
      </trkpt>
      <trkpt lat="44.28305" lon="6.86294">
        <ele>1484.1999511719</ele>
        <time>2019-02-17T13:48:47.000Z</time>
      </trkpt>
      <trkpt lat="44.28307" lon="6.863">
        <ele>1484</ele>
        <time>2019-02-17T13:48:48.000Z</time>
      </trkpt>
      <trkpt lat="44.28312" lon="6.86315">
        <ele>1483.1999511719</ele>
        <time>2019-02-17T13:48:51.000Z</time>
      </trkpt>
      <trkpt lat="44.28313" lon="6.86318">
        <ele>1483</ele>
        <time>2019-02-17T13:48:52.000Z</time>
      </trkpt>
      <trkpt lat="44.28318" lon="6.8633">
        <ele>1481.8000488281</ele>
        <time>2019-02-17T13:48:56.000Z</time>
      </trkpt>
      <trkpt lat="44.28319" lon="6.86333">
        <ele>1481.4000244141</ele>
        <time>2019-02-17T13:48:58.000Z</time>
      </trkpt>
      <trkpt lat="44.28324" lon="6.86333">
        <ele>1480.8000488281</ele>
        <time>2019-02-17T13:49:09.000Z</time>
      </trkpt>
      <trkpt lat="44.28322" lon="6.86336">
        <ele>1480.8000488281</ele>
        <time>2019-02-17T13:49:44.000Z</time>
      </trkpt>
      <trkpt lat="44.28333" lon="6.8637">
        <ele>1480</ele>
        <time>2019-02-17T13:52:03.000Z</time>
      </trkpt>
      <trkpt lat="44.28337" lon="6.86378">
        <ele>1479.8000488281</ele>
        <time>2019-02-17T13:52:10.000Z</time>
      </trkpt>
      <trkpt lat="44.28363" lon="6.86397">
        <ele>1478.8000488281</ele>
        <time>2019-02-17T13:52:31.000Z</time>
      </trkpt>
      <trkpt lat="44.28364" lon="6.86397">
        <ele>1478.8000488281</ele>
        <time>2019-02-17T13:52:32.000Z</time>
      </trkpt>
      <trkpt lat="44.28378" lon="6.86392">
        <ele>1477.5999755859</ele>
        <time>2019-02-17T13:52:46.000Z</time>
      </trkpt>
      <trkpt lat="44.28387" lon="6.86388">
        <ele>1476.5999755859</ele>
        <time>2019-02-17T13:52:53.000Z</time>
      </trkpt>
      <trkpt lat="44.28388" lon="6.86387">
        <ele>1476.5999755859</ele>
        <time>2019-02-17T13:52:54.000Z</time>
      </trkpt>
      <trkpt lat="44.28395" lon="6.86378">
        <ele>1475.5999755859</ele>
        <time>2019-02-17T13:53:04.000Z</time>
      </trkpt>
      <trkpt lat="44.28409" lon="6.86388">
        <ele>1474.8000488281</ele>
        <time>2019-02-17T13:53:20.000Z</time>
      </trkpt>
      <trkpt lat="44.2841" lon="6.86391">
        <ele>1474.8000488281</ele>
        <time>2019-02-17T13:53:22.000Z</time>
      </trkpt>
      <trkpt lat="44.28412" lon="6.86395">
        <ele>1474.5999755859</ele>
        <time>2019-02-17T13:53:25.000Z</time>
      </trkpt>
      <trkpt lat="44.2842" lon="6.86401">
        <ele>1474.4000244141</ele>
        <time>2019-02-17T13:53:33.000Z</time>
      </trkpt>
      <trkpt lat="44.28424" lon="6.86414">
        <ele>1473.5999755859</ele>
        <time>2019-02-17T13:53:40.000Z</time>
      </trkpt>
      <trkpt lat="44.28423" lon="6.86424">
        <ele>1472.8000488281</ele>
        <time>2019-02-17T13:53:46.000Z</time>
      </trkpt>
      <trkpt lat="44.28424" lon="6.86431">
        <ele>1472.8000488281</ele>
        <time>2019-02-17T13:53:55.000Z</time>
      </trkpt>
      <trkpt lat="44.28428" lon="6.86422">
        <ele>1472.8000488281</ele>
        <time>2019-02-17T13:54:26.000Z</time>
      </trkpt>
      <trkpt lat="44.28426" lon="6.8644">
        <ele>1472.4000244141</ele>
        <time>2019-02-17T13:55:18.000Z</time>
      </trkpt>
      <trkpt lat="44.28426" lon="6.86442">
        <ele>1472.4000244141</ele>
        <time>2019-02-17T13:55:19.000Z</time>
      </trkpt>
      <trkpt lat="44.2842" lon="6.86456">
        <ele>1471.4000244141</ele>
        <time>2019-02-17T13:55:29.000Z</time>
      </trkpt>
      <trkpt lat="44.2842" lon="6.86457">
        <ele>1471.1999511719</ele>
        <time>2019-02-17T13:55:30.000Z</time>
      </trkpt>
      <trkpt lat="44.28415" lon="6.86468">
        <ele>1470.4000244141</ele>
        <time>2019-02-17T13:55:36.000Z</time>
      </trkpt>
      <trkpt lat="44.28413" lon="6.86476">
        <ele>1470.1999511719</ele>
        <time>2019-02-17T13:55:41.000Z</time>
      </trkpt>
      <trkpt lat="44.28411" lon="6.86484">
        <ele>1469.5999755859</ele>
        <time>2019-02-17T13:55:47.000Z</time>
      </trkpt>
      <trkpt lat="44.28407" lon="6.86484">
        <ele>1469.4000244141</ele>
        <time>2019-02-17T13:55:54.000Z</time>
      </trkpt>
      <trkpt lat="44.28407" lon="6.86483">
        <ele>1469.4000244141</ele>
        <time>2019-02-17T13:55:56.000Z</time>
      </trkpt>
      <trkpt lat="44.28405" lon="6.86481">
        <ele>1469.1999511719</ele>
        <time>2019-02-17T13:55:59.000Z</time>
      </trkpt>
      <trkpt lat="44.28404" lon="6.86479">
        <ele>1469.1999511719</ele>
        <time>2019-02-17T13:56:03.000Z</time>
      </trkpt>
      <trkpt lat="44.28404" lon="6.86479">
        <ele>1469.1999511719</ele>
        <time>2019-02-17T13:56:05.000Z</time>
      </trkpt>
      <trkpt lat="44.28404" lon="6.86479">
        <ele>1469.4000244141</ele>
        <time>2019-02-17T13:56:09.000Z</time>
      </trkpt>
      <trkpt lat="44.28404" lon="6.8648">
        <ele>1469.4000244141</ele>
        <time>2019-02-17T13:56:12.000Z</time>
      </trkpt>
      <trkpt lat="44.28403" lon="6.86477">
        <ele>1469.1999511719</ele>
        <time>2019-02-17T13:57:19.000Z</time>
      </trkpt>
      <trkpt lat="44.28404" lon="6.86478">
        <ele>1469.8000488281</ele>
        <time>2019-02-17T13:59:43.000Z</time>
      </trkpt>
      <trkpt lat="44.28408" lon="6.86476">
        <ele>1469.8000488281</ele>
        <time>2019-02-17T14:00:26.000Z</time>
      </trkpt>
    </trkseg>
  </trk>
</gpx>